<<back to data home page
Ready for Fall and Cooler Weather?? Stay in touch!! - DONATE ANY AMOUNT BY CLICKING THIS LINK!!!


    Month/Day/Year       Maximum   Minimum    Rel    Dew       Rainfall  Seasonal  Soil     Soil      Baro       Wind    Wind        Peak    Peak Gust  Evap     Leaf     Net
    and                  Air Temp  Air Temp   Hum    Point     Inches    Rainfall  Temp     Moisture  Pressure   Speed   Direction   Gust    Direction  Pan      Wetness  Radiation
    Local Time           Deg F     Deg F      %      Deg F               Inches    Deg F    dS/m      mbar       MPH     comp  deg   MPH     comp  deg  Inches   mV       W_m2
----------------------------------------------------------------------------------------------------------------------------------------------------------------------------------
   11/18/2018 17:20      63.7      62.1       38     36.6      0.00      0.32      64.9     0.28      1016.0     1.0     SSE   161   2.0     SSE   153   9.39    263      -76.7
   11/18/2018 17:10      65.2      63.3       36     36.8      0.00      0.32      64.8     0.28      1015.9     1.3     SSE   147   2.4      SE   145   9.39    263      -77.8
   11/18/2018 17:00      66.2      64.9       34     36.3      0.00      0.32      64.8     0.28      1015.9     1.0     SSE   151   1.8     SSE   160   9.39    263      -79.6
   11/18/2018 16:50      68.5      65.9       31     35.3      0.00      0.32      64.8     0.28      1015.9     0.6     SSE   168   1.5       S   175   9.39    262      -77.5
   11/18/2018 16:40      70.1      68.2       28     34.4      0.00      0.32      64.8     0.28      1015.8     0.4       S   182   0.9     SSW   193   9.39    262      -69.7
   11/18/2018 16:30      72.8      69.8       25     33.4      0.00      0.32      64.7     0.28      1015.8     0.5     SSE   153   1.5      SE   143   9.40    262      -56.4
   11/18/2018 16:20      74.7      72.6       21     31.9      0.00      0.32      64.7     0.28      1015.9     0.0     SSE   159   0.5     SSE   157   9.40    261      -47.6
   11/18/2018 16:10      74.8      74.2       20     30.8      0.00      0.32      64.7     0.28      1015.9     0.0     ESE   120   0.4     ESE   103   9.40    261      -39.9
   11/18/2018 16:00      75.0      74.2       18     28.8      0.00      0.32      64.6     0.28      1015.9     1.1       E    83   2.8     ENE    77   9.40    261      -27.6
   11/18/2018 15:50      75.7      74.8       17     27.8      0.00      0.32      64.6     0.28      1015.9     1.5       E    94   3.1      SE   133   9.40    261      -26.7
   11/18/2018 15:40      75.8      75.2       17     27.6      0.00      0.32      64.6     0.28      1015.9     2.0      SE   125   3.5      SE   124   9.40    261       25.8
   11/18/2018 15:30      75.6      74.8       17     26.7      0.00      0.32      64.5     0.28      1015.9     2.0      SE   135   3.9      SE   127   9.41    261       54.4
   11/18/2018 15:20      75.7      75.0       17     26.9      0.00      0.32      64.5     0.28      1015.8     3.0      SE   127   4.6       E    93   9.41    261       69.2
   11/18/2018 15:10      75.6      74.9       17     27.3      0.00      0.32      64.4     0.28      1015.9     2.6     ESE   103   4.7      SE   130   9.41    261       96.1
   11/18/2018 15:00      76.5      75.3       17     28.6      0.00      0.32      64.4     0.28      1015.9     2.4      SE   135   4.8      SE   137   9.41    261       93.6
   11/18/2018 14:50      76.5      75.3       15     25.5      0.00      0.32      64.4     0.28      1015.9     1.0       E    83   2.2     ESE   109   9.41    261      103.0
   11/18/2018 14:40      76.1      75.3       15     24.2      0.00      0.32      64.3     0.28      1016.0     0.9     ENE    73   1.8     ENE    78   9.41    261       31.9
   11/18/2018 14:30      77.0      75.7       16     26.9      0.00      0.32      64.3     0.28      1016.0     1.7     ENE    75   3.3       E    95   9.41    261       22.7
   11/18/2018 14:20      77.7      76.6       18     29.7      0.00      0.32      64.2     0.28      1016.1     1.0     ENE    64   2.4     ENE    72   9.41    261       61.5
   11/18/2018 14:10      77.6      76.4       19     30.8      0.00      0.32      64.2     0.28      1016.2     1.2       E    95   3.4      SE   138   9.42    261      129.6
   11/18/2018 14:00      77.3      76.3       19     31.3      0.00      0.32      64.2     0.28      1016.2     1.4     ESE   104   3.4      SE   131   9.42    261      188.4
   11/18/2018 13:50      77.6      76.3       19     31.0      0.00      0.32      64.2     0.28      1016.3     1.6       E    90   3.0      NE    38   9.42    261      234.1
   11/18/2018 13:40      77.6      75.3       19     31.1      0.00      0.32      64.1     0.28      1016.4     0.7       N   356   2.2     NNE    26   9.42    261      276.1
   11/18/2018 13:30      75.4      74.6       21     31.9      0.00      0.32      64.1     0.28      1016.5     1.3     ESE   120   3.6      SE   140   9.42    261      169.0
   11/18/2018 13:20      76.9      74.7       20     32.0      0.00      0.32      64.1     0.28      1016.5     1.5      NE    56   4.9       E    95   9.42    261       63.5
   11/18/2018 13:10      76.8      75.3       19     30.6      0.00      0.32      64.1     0.28      1016.6     1.6       E    96   4.0     ESE   107   9.42    261      232.7
   11/18/2018 13:00      76.2      75.3       20     31.4      0.00      0.32      64.0     0.28      1016.8     1.3     NNE    26   3.3       E    95   9.42    261      289.0
   11/18/2018 12:50      76.9      75.5       20     32.3      0.00      0.32      64.0     0.28      1016.9     1.9       N   352   4.2     NNE    29   9.42    261      297.6
   11/18/2018 12:40      76.7      74.7       23     35.0      0.00      0.32      64.0     0.28      1017.0     0.8     WNW   293   2.7     NNW   339   9.42    261      301.5
   11/18/2018 12:30      75.1      74.2       25     36.3      0.00      0.32      64.0     0.28      1017.1     1.2      NW   319   4.1       W   276   9.42    261      306.6
   11/18/2018 12:20      75.0      73.9       27     38.0      0.00      0.32      64.0     0.28      1017.3     1.7       N     2   4.1       N     0   9.42    262      312.6
   11/18/2018 12:10      75.0      74.1       26     37.8      0.00      0.32      64.0     0.28      1017.5     1.1     NNW   343   3.2     NNW   347   9.42    262      321.7
   11/18/2018 12:00      74.7      73.1       27     37.8      0.00      0.32      64.0     0.28      1017.7     0.8     WNW   304   2.8      NE    34   9.42    262      329.6
   11/18/2018 11:50      73.4      72.5       28     37.6      0.00      0.32      64.0     0.28      1017.9     1.0      NE    48   3.0      NE    38   9.42    262      329.1
   11/18/2018 11:40      73.2      71.4       28     37.1      0.00      0.32      64.0     0.28      1018.1     1.0     ESE   102   2.6     ESE   116   9.42    263      330.6
   11/18/2018 11:30      71.6      70.3       32     39.4      0.00      0.32      64.0     0.28      1018.3     1.2     NNE    28   3.5     NNE    25   9.42    263      331.0
   11/18/2018 11:20      71.2      69.8       33     40.0      0.00      0.32      64.0     0.28      1018.5     1.3      NE    35   3.5     NNE    22   9.42    263      329.3
   11/18/2018 11:10      69.9      68.6       35     40.0      0.00      0.32      64.0     0.28      1018.6     1.3       E    99   3.5     ENE    60   9.42    263      328.6
   11/18/2018 11:00      68.8      68.2       37     40.9      0.00      0.32      64.0     0.28      1018.8     1.9      NE    47   4.5       N     2   9.42    263      322.8
   11/18/2018 10:50      69.5      68.2       37     41.4      0.00      0.32      64.0     0.28      1018.9     1.6      NE    46   4.5     ENE    77   9.42    264      319.7
   11/18/2018 10:40      68.1      67.0       40     42.1      0.00      0.32      64.0     0.28      1019.0     1.0     NNE    18   3.0      NE    47   9.42    264      316.4
   11/18/2018 10:30      67.3      66.5       41     42.6      0.00      0.32      64.0     0.28      1019.1     1.2       N     2   4.1     NNE    20   9.42    264      307.9
   11/18/2018 10:20      66.8      65.7       44     43.4      0.00      0.32      64.1     0.28      1019.1     1.4     NNE    13   3.1     NNE    15   9.42    264      302.4
   11/18/2018 10:10      66.0      64.1       47     44.2      0.00      0.32      64.1     0.28      1019.2     1.0     NNW   346   3.0     NNW   331   9.42    265      293.4
   11/18/2018 10:00      64.5      63.9       50     45.0      0.00      0.32      64.1     0.28      1019.3     1.6     NNW   344   3.5     NNE    17   9.42    266      284.1
   11/18/2018 09:50      64.2      63.3       50     44.7      0.00      0.32      64.1     0.28      1019.5     1.1       N     5   3.4     NNE    21   9.42    266      274.0
   11/18/2018 09:40      63.4      61.3       53     45.0      0.00      0.32      64.1     0.28      1019.5     0.9       E   100   2.4      SE   128   9.42    266      258.8
   11/18/2018 09:30      61.6      59.4       59     46.1      0.00      0.32      64.2     0.28      1019.6     1.4     SSE   164   2.7       S   184   9.42    266      268.3
   11/18/2018 09:20      59.4      57.8       65     46.6      0.00      0.32      64.2     0.28      1019.5     1.7     SSE   160   3.6       S   182   9.42    267      204.8
   11/18/2018 09:10      57.8      55.4       70     47.0      0.00      0.32      64.2     0.28      1019.5     0.3     WSW   254   1.2       W   262   9.42    267      131.7
   11/18/2018 09:00      55.7      54.1       74     46.6      0.00      0.32      64.2     0.28      1019.6     0.4     WSW   254   1.6       W   269   9.42    268      116.0
   11/18/2018 08:50      54.2      53.0       77     46.5      0.00      0.32      64.2     0.28      1019.8     0.3      SW   236   1.2     SSW   204   9.42    268       94.4
   11/18/2018 08:40      53.1      52.5       80     46.8      0.00      0.32      64.3     0.28      1019.7     1.1       N   355   2.2     NNE    19   9.42    268       79.3
   11/18/2018 08:30      52.8      51.9       83     47.4      0.00      0.32      64.3     0.28      1019.8     0.4       N     8   1.6     NNE    15   9.42    267       72.6
   11/18/2018 08:20      52.0      51.0       84     46.9      0.00      0.32      64.3     0.28      1019.9     0.0       N     0   0.0     NNW   328   9.42    266       61.2
   11/18/2018 08:10      51.0      49.9       86     46.5      0.00      0.32      64.3     0.28      1020.0     1.1       S   186   2.3       S   177   9.42    265       55.7
   11/18/2018 08:00      50.1      49.4       88     46.4      0.00      0.32      64.3     0.28      1019.9     0.5       S   175   1.4       S   183   9.42    277       54.1
   11/18/2018 07:50      49.5      48.7       90     46.0      0.00      0.32      64.3     0.28      1019.9     0.4     NNE    18   1.2     NNE    16   9.42    292       57.0
   11/18/2018 07:40      48.8      47.9       90     45.4      0.00      0.32      64.4     0.28      1019.8     0.1     SSW   203   0.8     SSW   196   9.42    308       36.6
   11/18/2018 07:30      48.5      48.0       90     45.3      0.00      0.32      64.4     0.28      1019.8     0.1     ENE    74   0.7       E    83   9.42    314       20.9
   11/18/2018 07:20      48.5      47.3       91     45.5      0.00      0.32      64.4     0.28      1019.8     0.3      SE   137   1.2      SE   139   9.42    316       18.1
   11/18/2018 07:10      47.4      46.2       91     44.3      0.00      0.32      64.4     0.28      1019.7     0.4      SE   144   1.4      SE   139   9.42    315       10.2
   11/18/2018 07:00      46.7      45.4       91     43.5      0.00      0.32      64.5     0.28      1019.5     1.0     SSW   201   1.3     SSW   203   9.42    312       -1.5
   11/18/2018 06:50      46.7      45.6       90     43.4      0.00      0.32      64.5     0.28      1019.5     0.1       E    89   0.8     ENE    65   9.42    309      -11.0
   11/18/2018 06:40      47.0      46.4       91     44.1      0.00      0.32      64.5     0.28      1019.5     0.4     SSE   158   1.6      SE   142   9.42    303      -17.9
   11/18/2018 06:30      47.0      46.4       90     44.0      0.00      0.32      64.5     0.28      1019.3     0.0       S   170   0.8       S   170   9.43    299      -22.5
   11/18/2018 06:20      47.0      46.6       91     44.1      0.00      0.32      64.6     0.28      1019.2     0.2     SSW   212   0.9      SW   215   9.43    294      -22.1
   11/18/2018 06:10      46.7      46.3       90     43.8      0.00      0.32      64.5     0.28      1019.1     0.5       S   183   1.5     SSW   200   9.43    290      -21.5
   11/18/2018 06:00      47.2      46.4       90     43.9      0.00      0.32      64.6     0.28      1018.9     0.4      SE   136   1.5      SE   138   9.43    289      -23.6
   11/18/2018 05:50      47.1      46.7       90     44.0      0.00      0.32      64.6     0.28      1018.8     1.0       S   185   2.0     SSW   197   9.43    285      -25.6
   11/18/2018 05:40      47.3      46.6       89     43.8      0.00      0.32      64.6     0.28      1018.6     0.0       N     0   0.0     SSE   168   9.43    282      -27.1
   11/18/2018 05:30      47.7      47.0       89     44.2      0.00      0.32      64.6     0.28      1018.6     0.2      SE   139   0.9      SE   139   9.43    276      -26.4
   11/18/2018 05:20      48.0      47.4       89     44.6      0.00      0.32      64.6     0.28      1018.6     0.1     SSW   194   0.5       S   184   9.43    273      -24.3
   11/18/2018 05:10      48.1      47.5       89     44.6      0.00      0.32      64.7     0.28      1018.6     0.4       S   179   1.5     SSW   192   9.43    277      -24.9
   11/18/2018 05:00      48.3      47.8       89     44.9      0.00      0.32      64.7     0.28      1018.5     0.0     SSE   156   0.7     SSE   155   9.43    276      -25.0
   11/18/2018 04:50      48.1      47.8       89     44.8      0.00      0.32      64.7     0.28      1018.4     0.4       S   191   1.3     SSW   196   9.43    274      -23.9
   11/18/2018 04:40      48.6      47.9       89     45.1      0.00      0.32      64.7     0.28      1018.3     0.2     SSE   152   0.7     SSE   155   9.43    275      -25.2
   11/18/2018 04:30      48.9      48.2       88     45.3      0.00      0.32      64.7     0.28      1018.3     0.7       S   188   1.4       S   187   9.43    272      -28.2
   11/18/2018 04:20      49.4      48.7       88     45.5      0.00      0.32      64.7     0.28      1018.2     0.0       N     0   0.0     SSE   164   9.43    274      -32.3
   11/18/2018 04:10      49.6      49.1       88     45.8      0.00      0.32      64.7     0.28      1018.2     0.0       N     0   0.0     SSE   164   9.43    270      -30.6
   11/18/2018 04:00      50.0      49.3       88     46.1      0.00      0.32      64.7     0.28      1018.2     0.0       N     0   0.0     SSE   164   9.43    267      -26.5
   11/18/2018 03:50      50.0      49.4       88     46.3      0.00      0.32      64.8     0.28      1018.1     0.2      SE   124   0.8     NNE    31   9.43    258      -24.9
   11/18/2018 03:40      50.0      49.5       88     46.4      0.00      0.32      64.8     0.28      1018.1     0.3     NNE    15   1.2       N   352   9.43    266      -24.3
   11/18/2018 03:30      49.8      49.2       88     46.0      0.00      0.32      64.8     0.28      1018.1     0.5     SSE   154   1.4      SE   141   9.43    252      -25.4
   11/18/2018 03:20      49.7      49.2       88     46.0      0.00      0.32      64.8     0.28      1018.1     0.4       S   180   1.1       S   173   9.43    248      -26.2
   11/18/2018 03:10      50.0      49.3       88     46.1      0.00      0.32      64.8     0.28      1018.2     0.2     SSE   158   0.8     SSE   155   9.43    259      -25.9
   11/18/2018 03:00      50.0      49.4       88     46.4      0.00      0.32      64.8     0.28      1018.1     0.0     SSE   164   0.4     SSE   164   9.43    263      -24.3
   11/18/2018 02:50      49.9      49.5       88     46.4      0.00      0.32      64.8     0.28      1018.1     0.6     SSE   167   1.2     SSE   158   9.43    253      -24.0
   11/18/2018 02:40      49.7      49.2       89     46.2      0.00      0.32      64.9     0.28      1018.1     0.4       S   171   1.0       S   171   9.43    264      -24.0
   11/18/2018 02:30      49.5      49.2       88     45.9      0.00      0.32      64.9     0.28      1018.2     0.0       N     0   0.0     SSE   164   9.43    266      -25.1
   11/18/2018 02:20      49.7      49.1       88     45.8      0.00      0.32      64.9     0.28      1018.3     0.0       N     0   0.0     SSE   164   9.43    271      -26.9
   11/18/2018 02:10      49.7      49.2       88     45.9      0.00      0.32      64.9     0.28      1018.4     0.0     SSE   165   0.2     SSE   166   9.43    273      -30.8
   11/18/2018 02:00      50.0      49.4       87     46.0      0.00      0.32      64.9     0.28      1018.3     0.5     SSE   162   1.2      SE   146   9.43    270      -37.1
   11/18/2018 01:50      50.4      49.5       86     45.9      0.00      0.32      64.9     0.28      1018.3     0.3     SSE   162   1.1       S   169   9.43    268      -42.7
   11/18/2018 01:40      50.3      49.9       86     46.1      0.00      0.32      64.9     0.28      1018.4     0.0       N     0   0.0     SSE   165   9.43    268      -47.1
   11/18/2018 01:30      51.1      50.0       85     46.2      0.00      0.32      64.9     0.28      1018.3     0.3     SSE   163   1.1      SE   146   9.44    258      -51.3
   11/18/2018 01:20      51.4      50.9       85     46.7      0.00      0.32      65.0     0.28      1018.3     0.1     SSE   166   0.7       S   190   9.44    255      -52.8
   11/18/2018 01:10      51.5      51.1       84     46.7      0.00      0.32      65.0     0.28      1018.2     0.8      SE   145   2.5      SE   139   9.44    249      -51.4
   11/18/2018 01:00      51.9      51.0       83     46.5      0.00      0.32      65.0     0.28      1018.3     0.4     SSW   197   1.1     SSW   213   9.44    249      -48.3
   11/18/2018 00:50      52.0      51.6       84     47.0      0.00      0.32      65.0     0.28      1018.3     0.7      SE   145   1.8      SE   139   9.44    251      -44.6
   11/18/2018 00:40      52.1      51.2       84     46.8      0.00      0.32      65.0     0.28      1018.3     0.6      SW   230   1.5     WSW   242   9.44    256      -43.4
   11/18/2018 00:30      52.4      51.3       83     46.6      0.00      0.32      65.0     0.28      1018.2     0.7     SSE   162   1.6      SE   136   9.44    251      -47.4
   11/18/2018 00:20      52.5      51.9       83     47.2      0.00      0.32      65.0     0.28      1018.3     0.6      SE   139   2.0      SE   137   9.44    249      -49.2
   11/18/2018 00:10      52.9      52.2       82     47.2      0.00      0.32      65.0     0.28      1018.5     0.9     SSE   148   2.3      SE   145   9.44    253      -49.3
   11/18/2018 00:00      53.3      52.6       80     47.1      0.00      0.32      65.0     0.28      1018.4     1.2       S   190   2.3       S   189   9.44    256      -47.0
   11/17/2018 23:50      53.8      53.0       80     47.4      0.00      0.32      65.0     0.28      1018.3     0.2     SSW   197   1.6       S   186   9.44    258      -45.4
   11/17/2018 23:40      54.0      53.5       79     47.3      0.00      0.32      65.0     0.28      1018.3     0.9     SSW   194   2.3     SSW   192   9.44    260      -42.7
   11/17/2018 23:30      54.5      53.6       78     47.5      0.00      0.32      65.0     0.28      1018.3     0.3       S   182   1.5     SSW   195   9.44    260      -38.5
   11/17/2018 23:20      54.9      54.1       78     47.6      0.00      0.32      65.1     0.28      1018.4     0.7       S   180   2.3     SSW   193   9.44    264      -36.9
   11/17/2018 23:10      54.9      54.2       78     47.9      0.00      0.32      65.1     0.28      1018.4     1.4     NNW   337   2.3       N   354   9.44    259      -35.6
   11/17/2018 23:00      54.5      54.0       78     47.7      0.00      0.32      65.1     0.28      1018.3     1.1     ESE   123   2.2     SSW   210   9.44    263      -33.8
   11/17/2018 22:50      54.5      53.9       77     47.2      0.00      0.32      65.0     0.28      1018.5     0.4      SE   141   1.8      SE   136   9.44    261      -30.2
   11/17/2018 22:40      54.6      54.1       77     47.2      0.00      0.32      65.1     0.28      1018.5     0.7     SSE   149   1.8      SE   139   9.44    264      -31.1
   11/17/2018 22:30      54.8      54.5       75     47.0      0.00      0.32      65.1     0.28      1018.4     0.1     SSE   161   0.8     SSE   151   9.44    263      -34.0
   11/17/2018 22:20      54.8      54.0       77     47.5      0.00      0.32      65.1     0.28      1018.3     0.6       W   277   1.5       W   281   9.44    263      -32.1
   11/17/2018 22:10      54.5      53.9       78     47.4      0.00      0.32      65.1     0.28      1018.3     1.2     SSE   146   2.6      SE   142   9.44    263      -28.8
   11/17/2018 22:00      54.3      53.8       78     47.3      0.00      0.32      65.1     0.28      1018.2     0.3      SW   228   1.3      SW   236   9.45    264      -28.2
   11/17/2018 21:50      54.2      53.7       78     47.3      0.00      0.32      65.1     0.28      1018.2     0.4     ESE   105   1.1      SE   140   9.45    261      -27.7
   11/17/2018 21:40      54.1      53.5       78     47.3      0.00      0.32      65.1     0.28      1018.2     0.7     SSE   155   2.1      SE   141   9.45    262      -26.7
   11/17/2018 21:30      54.0      53.6       78     47.0      0.00      0.32      65.1     0.28      1018.1     0.0       N     0   0.0     ESE   102   9.45    264      -26.9
   11/17/2018 21:20      54.0      53.0       79     47.0      0.00      0.32      65.1     0.28      1018.1     0.5     SSW   210   1.3      SW   222   9.45    262      -25.8
   11/17/2018 21:10      53.5      52.9       79     46.7      0.00      0.32      65.1     0.28      1018.0     0.7       S   176   1.5       S   179   9.45    263      -33.3
   11/17/2018 21:00      53.5      52.5       79     46.7      0.00      0.32      65.1     0.28      1018.0     0.7     SSW   196   1.7       S   180   9.45    262      -41.3
   11/17/2018 20:50      53.3      52.4       77     45.9      0.00      0.32      65.1     0.28      1017.9     0.8     ESE   109   1.2     ENE    65   9.45    262      -48.9
   11/17/2018 20:40      53.8      53.0       77     46.1      0.00      0.32      65.1     0.28      1017.9     0.2     SSE   164   0.8       S   179   9.45    261      -52.1
   11/17/2018 20:30      54.0      53.4       76     46.2      0.00      0.32      65.1     0.28      1017.8     0.3     SSE   153   1.0      SE   145   9.45    262      -55.1
   11/17/2018 20:20      54.2      53.5       74     45.6      0.00      0.32      65.1     0.28      1017.7     0.9     SSE   162   1.8      SE   139   9.45    262      -57.3
   11/17/2018 20:10      54.3      53.9       72     45.4      0.00      0.32      65.1     0.28      1017.6     0.7       S   188   1.3       S   184   9.45    264      -55.8
   11/17/2018 20:00      54.9      53.9       70     44.9      0.00      0.32      65.1     0.28      1017.5     0.3       S   179   1.2     SSW   198   9.45    264      -58.0
   11/17/2018 19:50      54.9      54.2       70     44.9      0.00      0.32      65.0     0.28      1017.4     0.9     SSE   150   2.1      SE   139   9.45    264      -59.3
   11/17/2018 19:40      55.4      54.6       68     44.7      0.00      0.32      65.0     0.28      1017.3     0.6     SSE   157   1.2      SE   142   9.45    264      -59.6
   11/17/2018 19:30      55.4      54.8       67     44.1      0.00      0.32      65.0     0.28      1017.2     0.4      SE   142   1.4      SE   140   9.45    264      -57.7
   11/17/2018 19:20      55.9      54.9       65     44.0      0.00      0.32      65.0     0.28      1017.2     0.7     SSE   163   1.5       S   176   9.45    264      -55.7
   11/17/2018 19:10      56.4      55.6       64     44.0      0.00      0.32      65.0     0.28      1017.1     0.7     SSE   155   1.5      SE   142   9.45    264      -55.4
   11/17/2018 19:00      56.8      56.0       62     43.6      0.00      0.32      65.0     0.28      1017.0     0.8       S   176   1.8       S   183   9.45    264      -54.9
   11/17/2018 18:50      57.4      56.5       61     43.7      0.00      0.32      64.9     0.28      1017.0     0.2     SSE   156   1.1      SE   146   9.46    264      -55.4
   11/17/2018 18:40      57.5      57.0       60     43.5      0.00      0.32      64.9     0.28      1017.0     0.3     SSE   166   1.1       S   185   9.46    264      -54.9
   11/17/2018 18:30      58.1      57.2       58     42.8      0.00      0.32      64.9     0.28      1016.9     0.0     SSW   204   0.9     SSW   199   9.46    264      -54.2
   11/17/2018 18:20      59.1      57.9       56     43.0      0.00      0.32      64.9     0.28      1016.9     0.8     SSE   167   2.0     SSW   194   9.46    264      -54.8
   11/17/2018 18:10      59.6      58.6       54     42.4      0.00      0.32      64.9     0.28      1016.9     1.6      SW   221   2.2     WSW   243   9.46    264      -54.2
   11/17/2018 18:00      60.2      59.3       53     42.6      0.00      0.32      64.8     0.28      1016.9     0.5     SSE   165   1.5     SSE   155   9.46    264      -56.4
   11/17/2018 17:50      60.7      59.9       51     42.1      0.00      0.32      64.8     0.28      1016.8     0.7       S   178   1.4       S   189   9.46    264      -58.2
   11/17/2018 17:40      61.8      60.5       49     41.9      0.00      0.32      64.8     0.28      1016.7     0.8     SSW   203   1.5      SW   222   9.46    264      -59.2
   11/17/2018 17:30      63.1      61.6       47     42.1      0.00      0.32      64.8     0.28      1016.5     0.6      SW   236   1.9     WNW   287   9.46    264      -60.8
   11/17/2018 17:20      64.0      62.8       47     42.8      0.00      0.32      64.7     0.28      1016.5     0.2       N   349   1.4      NW   321   9.46    264      -60.9
   11/17/2018 17:10      64.5      63.6       46     43.0      0.00      0.32      64.7     0.28      1016.5     0.5      NW   307   1.7     WNW   302   9.47    264      -63.5
   11/17/2018 17:00      64.9      64.2       45     42.6      0.00      0.32      64.7     0.28      1016.4     1.5     SSW   211   3.7       S   182   9.47    264      -66.4
   11/17/2018 16:50      65.5      64.6       45     43.3      0.00      0.32      64.6     0.28      1016.3     2.8       S   184   5.3       S   184   9.47    264      -65.3
   11/17/2018 16:40      66.5      65.3       47     44.7      0.00      0.32      64.6     0.28      1016.2     2.8       S   179   5.7     SSE   163   9.47    264      -61.7
   11/17/2018 16:30      67.2      66.2       46     45.2      0.00      0.32      64.5     0.28      1016.1     2.1     SSE   163   3.2     SSE   146   9.47    264      -56.6
   11/17/2018 16:20      68.0      67.0       44     44.6      0.00      0.32      64.5     0.28      1016.0     2.4     SSE   153   4.0      SE   127   9.47    264      -50.8
   11/17/2018 16:10      68.7      67.8       42     43.9      0.00      0.32      64.5     0.28      1016.0     2.3      SE   137   4.2      SE   131   9.47    264      -46.7
   11/17/2018 16:00      69.6      68.5       39     43.0      0.00      0.32      64.5     0.28      1016.0     1.2     ESE   106   2.5       E    91   9.48    263      -44.1
   11/17/2018 15:50      70.5      69.5       36     42.0      0.00      0.32      64.4     0.28      1016.0     1.1     ESE   101   2.8     ESE   121   9.48    263      -45.9
   11/17/2018 15:40      71.3      70.1       35     41.8      0.00      0.32      64.4     0.28      1016.0     1.2     ESE   114   2.5      SE   124   9.48    263      -44.7
   11/17/2018 15:30      73.0      70.9       33     41.2      0.00      0.32      64.4     0.28      1016.0     1.6     ESE   119   3.0     ESE   106   9.48    262      -34.9
   11/17/2018 15:20      72.9      72.0       29     38.6      0.00      0.32      64.3     0.28      1016.0     0.7     ESE   110   2.4      SE   135   9.48    262       36.7
   11/17/2018 15:10      73.1      72.4       30     39.3      0.00      0.32      64.3     0.28      1016.0     1.1     ENE    72   3.2     ESE   122   9.48    262       36.5
   11/17/2018 15:00      73.3      72.5       30     39.2      0.00      0.32      64.3     0.28      1016.0     1.6     ESE   112   3.0       E    96   9.48    261      113.9
   11/17/2018 14:50      73.7      72.9       29     39.4      0.00      0.32      64.2     0.28      1016.1     1.6      NE    36   3.5      NE    55   9.48    261       88.0
   11/17/2018 14:40      73.7      72.6       29     39.2      0.00      0.32      64.2     0.28      1016.1     1.9      NW   324   4.3      NW   325   9.48    261      172.3
   11/17/2018 14:30      73.7      72.6       30     39.8      0.00      0.32      64.1     0.28      1016.2     1.3     NNE    32   4.0      NE    53   9.48    261      219.9
   11/17/2018 14:20      72.9      70.7       33     41.0      0.00      0.32      64.1     0.28      1016.2     1.1     NNE    29   3.0     NNE    31   9.48    262      201.0
   11/17/2018 14:10      71.5      70.5       35     41.6      0.00      0.32      64.1     0.28      1016.3     1.9     NNE    20   3.6       N     2   9.49    263       56.4
   11/17/2018 14:00      72.8      71.3       34     42.0      0.00      0.32      64.1     0.28      1016.2     2.0       N     2   4.7       N     5   9.49    262       68.5
   11/17/2018 13:50      72.6      71.2       35     42.5      0.00      0.32      64.0     0.28      1016.3     1.3      NW   309   3.1     NNW   345   9.49    261      184.2
   11/17/2018 13:40      71.8      70.7       35     42.4      0.00      0.32      64.0     0.28      1016.4     0.9     NNW   339   2.6       N     6   9.49    262      141.5
   11/17/2018 13:30      71.7      70.6       35     42.2      0.00      0.32      64.0     0.28      1016.5     1.6     NNE    21   3.6     NNE    17   9.49    262      189.0
   11/17/2018 13:20      72.0      71.2       35     42.4      0.00      0.32      64.0     0.28      1016.6     2.1      NE    56   3.9     ENE    70   9.49    261      244.8
   11/17/2018 13:10      72.1      71.5       35     42.7      0.00      0.32      64.0     0.28      1016.7     1.6       E    88   3.5     NNW   346   9.49    262      292.4
   11/17/2018 13:00      72.0      70.7       36     43.2      0.00      0.32      64.0     0.28      1016.7     1.4       E    84   4.3     WNW   292   9.49    262      320.7
   11/17/2018 12:50      71.3      70.3       38     43.8      0.00      0.32      63.9     0.28      1016.8     1.4     NNE    20   3.8     NNE    17   9.49    262      318.4
   11/17/2018 12:40      70.8      68.6       40     44.3      0.00      0.32      63.9     0.28      1017.0     1.4      NW   318   2.9      NW   310   9.49    262      292.3
   11/17/2018 12:30      68.6      68.1       42     44.1      0.00      0.32      63.9     0.28      1017.1     1.6     NNW   329   2.9     NNE    32   9.49    263      174.2
   11/17/2018 12:20      69.6      68.2       41     44.1      0.00      0.32      63.9     0.28      1017.2     1.6       N   359   3.4     NNE    22   9.49    263      129.6
   11/17/2018 12:10      69.7      68.2       41     44.3      0.00      0.32      63.8     0.28      1017.3     1.0     NNE    24   3.5     NNE    14   9.49    263      191.0
   11/17/2018 12:00      68.6      67.8       42     44.3      0.00      0.32      63.9     0.28      1017.4     1.2     ENE    73   2.8       E    86   9.49    263      223.2
   11/17/2018 11:50      69.1      67.8       42     44.2      0.00      0.32      63.9     0.28      1017.6     1.9      NE    54   3.5      NE    49   9.49    263      198.6
   11/17/2018 11:40      69.1      67.7       42     44.0      0.00      0.32      63.9     0.28      1017.7     0.9       E    93   3.3      NE    44   9.49    263      220.6
   11/17/2018 11:30      68.0      67.5       42     44.0      0.00      0.32      63.8     0.28      1018.0     1.3       E    95   3.1      NE    41   9.49    263      221.9
   11/17/2018 11:20      67.7      66.7       44     44.1      0.00      0.32      63.9     0.28      1018.1     1.9     ESE   111   4.4      SE   141   9.49    263      319.3
   11/17/2018 11:10      67.1      66.0       44     44.0      0.00      0.32      63.9     0.28      1018.3     1.6       N     3   3.8       N     6   9.49    263      318.3
   11/17/2018 11:00      66.7      65.7       44     43.5      0.00      0.32      63.9     0.28      1018.3     1.8     NNE    23   4.1     NNE    13   9.49    263      301.3
   11/17/2018 10:50      66.5      64.4       46     44.3      0.00      0.32      63.9     0.28      1018.4     0.7      NE    36   2.7      NE    56   9.49    264      298.5
   11/17/2018 10:40      64.9      64.1       47     43.9      0.00      0.32      63.9     0.28      1018.6     1.5      NE    44   3.3       N     0   9.49    264      296.2
   11/17/2018 10:30      64.2      62.4       49     43.6      0.00      0.32      64.0     0.28      1018.6     1.3       S   189   2.4     WSW   243   9.49    264      288.4
   11/17/2018 10:20      62.8      62.1       50     43.5      0.00      0.32      64.0     0.28      1018.7     1.3     WNW   301   2.6       W   263   9.49    264      299.9
   11/17/2018 10:10      62.7      61.1       50     43.2      0.00      0.32      64.0     0.28      1018.7     0.8       N     9   2.7     NNE    12   9.49    264      278.7
   11/17/2018 10:00      61.3      59.8       51     42.1      0.00      0.32      64.0     0.28      1018.8     1.1     NNW   328   2.5      SW   232   9.49    264      292.5
   11/17/2018 09:50      60.2      59.1       50     40.9      0.00      0.32      64.1     0.28      1018.7     1.5     NNW   338   3.3      NW   312   9.49    264      278.2
   11/17/2018 09:40      59.1      57.8       50     40.3      0.00      0.32      64.1     0.28      1018.8     0.6     NNE    16   1.6       N     6   9.49    264      270.9
   11/17/2018 09:30      58.0      55.5       54     40.4      0.00      0.32      64.1     0.28      1018.8     0.4     NNE    24   2.1     NNE    12   9.49    264      248.0
   11/17/2018 09:20      55.7      54.8       58     40.5      0.00      0.32      64.2     0.28      1018.7     0.3     NNW   345   1.4     NNW   348   9.49    265      104.2
   11/17/2018 09:10      55.3      54.7       58     40.4      0.00      0.32      64.2     0.28      1018.7     0.5     NNW   327   1.3      NW   325   9.49    264       60.9
   11/17/2018 09:00      55.1      53.7       59     40.3      0.00      0.32      64.2     0.28      1018.7     0.1      NW   308   0.9      SW   233   9.49    264      114.0
   11/17/2018 08:50      53.9      53.4       60     40.0      0.00      0.32      64.2     0.28      1018.6     1.0       N     7   2.5      NE    37   9.49    265      107.3
   11/17/2018 08:40      53.9      53.2       59     39.6      0.00      0.32      64.3     0.28      1018.6     1.1       N     2   2.4     NNE    15   9.49    265       98.8
   11/17/2018 08:30      55.0      53.6       57     39.2      0.00      0.32      64.3     0.28      1018.5     1.1       N     1   2.3       N   352   9.49    265       93.4
   11/17/2018 08:20      55.0      52.9       57     39.0      0.00      0.32      64.4     0.28      1018.4     0.6      NW   310   1.7      NW   314   9.49    264      169.8
   11/17/2018 08:10      53.0      52.4       58     38.2      0.00      0.32      64.4     0.28      1018.3     1.3       N     4   2.8     NNE    25   9.49    265      127.3
   11/17/2018 08:00      52.7      51.1       60     38.3      0.00      0.32      64.4     0.28      1018.4     0.5     NNE    14   1.2      NW   322   9.49    265      105.1
   11/17/2018 07:50      51.4      49.8       62     38.0      0.00      0.32      64.4     0.28      1018.4     0.2       E    88   1.2     SSE   154   9.49    265       38.5
   11/17/2018 07:40      49.9      45.8       69     38.2      0.00      0.32      64.5     0.28      1018.3     0.1     SSE   163   0.7     SSE   164   9.49    265       67.0
   11/17/2018 07:30      45.6      43.6       74     36.6      0.00      0.32      64.5     0.28      1018.2     0.0       N     0   0.0     SSE   164   9.49    264       33.5
   11/17/2018 07:20      43.8      43.3       75     36.2      0.00      0.32      64.5     0.28      1018.0     0.0       N     0   0.0     SSE   164   9.49    263      -20.2
   11/17/2018 07:10      43.6      42.3       78     36.4      0.00      0.32      64.6     0.28      1018.0     0.0       N     0   0.0     SSE   164   9.49    263      -23.2
   11/17/2018 07:00      42.5      41.9       78     35.8      0.00      0.32      64.6     0.28      1017.9     0.0       N     0   0.0     SSE   164   9.49    263      -20.1
   11/17/2018 06:50      42.2      41.8       78     35.6      0.00      0.32      64.6     0.28      1017.9     0.0       N     0   0.0     SSE   164   9.49    262      -28.6
   11/17/2018 06:40      42.3      41.9       78     35.7      0.00      0.32      64.6     0.28      1017.9     0.0       N     0   0.0     SSE   167   9.49    262      -39.8
   11/17/2018 06:30      42.5      41.9       78     35.7      0.00      0.32      64.7     0.28      1017.8     0.7     SSE   164   1.3     SSE   167   9.49    262      -48.8
   11/17/2018 06:20      42.2      41.6       77     35.3      0.00      0.32      64.7     0.28      1017.8     0.6     SSE   156   1.3      SE   144   9.49    263      -53.7
   11/17/2018 06:10      42.4      41.6       76     35.2      0.00      0.32      64.7     0.28      1017.7     0.5     SSE   162   1.1     SSE   153   9.49    263      -53.3
   11/17/2018 06:00      42.7      42.1       76     35.1      0.00      0.32      64.7     0.28      1017.7     0.2     SSE   161   0.8     SSE   165   9.49    262      -51.3
   11/17/2018 05:50      42.8      42.2       74     34.8      0.00      0.32      64.8     0.28      1017.7     0.2       S   180   0.8     SSW   192   9.49    262      -52.5
   11/17/2018 05:40      43.3      42.5       73     34.8      0.00      0.32      64.8     0.28      1017.6     0.1     SSE   157   0.9     SSE   154   9.49    263      -53.1
   11/17/2018 05:30      43.3      42.6       72     34.6      0.00      0.32      64.8     0.28      1017.6     0.2       S   173   0.8       S   183   9.49    264      -51.4
   11/17/2018 05:20      43.7      42.9       73     35.2      0.00      0.32      64.9     0.28      1017.6     0.0       N     0   0.0     SSE   161   9.49    263      -51.1
   11/17/2018 05:10      43.7      43.0       74     35.5      0.00      0.32      64.9     0.28      1017.5     0.2     SSE   161   0.9     SSE   161   9.49    262      -51.2
   11/17/2018 05:00      43.5      43.0       72     34.8      0.00      0.32      64.9     0.28      1017.5     0.4     SSE   163   1.0     SSE   157   9.49    263      -48.6
   11/17/2018 04:50      43.4      42.9       73     35.1      0.00      0.32      65.0     0.28      1017.4     0.2     SSW   207   1.0     SSW   207   9.49    264      -46.9
   11/17/2018 04:40      43.3      42.8       72     34.7      0.00      0.32      65.0     0.28      1017.3     0.0     SSE   147   0.5     SSE   147   9.50    264      -48.0
   11/17/2018 04:30      43.5      42.8       71     34.2      0.00      0.32      65.0     0.28      1017.2     0.0     SSE   148   0.7     SSE   148   9.50    264      -49.8
   11/17/2018 04:20      44.2      43.3       69     34.1      0.00      0.32      65.0     0.28      1017.2     0.4     SSE   151   1.2     SSE   149   9.50    264      -48.8
   11/17/2018 04:10      44.1      43.7       69     34.5      0.00      0.32      65.1     0.28      1017.1     0.4       S   177   1.1     SSW   198   9.50    264      -51.9
   11/17/2018 04:00      44.3      43.5       71     34.9      0.00      0.32      65.1     0.28      1017.1     0.3     SSE   166   0.7      SE   144   9.50    264      -53.4
   11/17/2018 03:50      44.8      44.0       68     34.4      0.00      0.32      65.1     0.28      1017.1     0.4      SE   131   1.1      SE   136   9.50    263      -54.0
   11/17/2018 03:40      44.9      44.3       67     34.5      0.00      0.32      65.2     0.28      1017.1     0.2     SSE   160   1.0     SSE   149   9.50    263      -52.2
   11/17/2018 03:30      45.1      44.6       67     34.6      0.00      0.32      65.2     0.28      1017.1     0.1       S   172   0.7     SSE   149   9.50    264      -51.3
   11/17/2018 03:20      45.2      44.7       67     34.6      0.00      0.32      65.2     0.28      1017.1     0.2       S   184   0.9       S   188   9.50    264      -45.2
   11/17/2018 03:10      45.3      44.8       67     34.6      0.00      0.32      65.2     0.28      1017.1     0.0     SSE   155   0.7     SSE   155   9.50    263      -50.0
   11/17/2018 03:00      45.3      44.6       67     34.5      0.00      0.32      65.3     0.28      1017.1     0.0       N     0   0.0     SSE   155   9.50    264      -50.2
   11/17/2018 02:50      45.8      45.0       67     35.2      0.00      0.32      65.3     0.28      1017.1     0.5     SSE   155   1.6     SSE   155   9.50    263      -51.0
   11/17/2018 02:40      45.8      45.3       67     35.4      0.00      0.32      65.3     0.28      1017.1     0.7     SSE   159   1.1     SSE   155   9.50    264      -52.0
   11/17/2018 02:30      45.6      45.1       68     35.3      0.00      0.32      65.3     0.28      1017.1     0.5     SSE   157   1.2     SSE   160   9.50    264      -52.5
   11/17/2018 02:20      45.5      44.9       68     35.3      0.00      0.32      65.4     0.28      1017.1     0.3     SSE   161   0.9     SSE   160   9.50    263      -54.0
   11/17/2018 02:10      45.5      45.0       67     34.9      0.00      0.32      65.4     0.28      1017.0     0.6       S   177   1.5     SSW   198   9.50    263      -54.2
   11/17/2018 02:00      45.6      45.0       66     34.6      0.00      0.32      65.4     0.28      1016.9     0.3       S   170   1.0       S   178   9.50    264      -55.1
   11/17/2018 01:50      45.9      45.3       65     34.6      0.00      0.32      65.4     0.28      1016.9     0.6     SSE   161   1.2     SSE   149   9.50    264      -54.3
   11/17/2018 01:40      46.2      45.6       63     34.0      0.00      0.32      65.5     0.28      1016.9     0.3     SSE   162   0.7     SSE   162   9.50    264      -54.5
   11/17/2018 01:30      46.5      45.8       64     34.5      0.00      0.32      65.5     0.28      1016.8     0.0     SSE   162   0.1     SSE   162   9.51    264      -55.0
   11/17/2018 01:20      46.9      46.3       62     34.2      0.00      0.32      65.5     0.28      1016.7     0.1     SSE   162   0.7     SSE   163   9.51    263      -55.0
   11/17/2018 01:10      47.0      46.4       63     34.5      0.00      0.32      65.5     0.28      1016.7     0.2     SSE   156   0.6     SSE   162   9.51    264      -55.1
   11/17/2018 01:00      46.9      46.2       63     34.4      0.00      0.32      65.6     0.28      1016.6     0.6       S   177   1.3       S   181   9.51    264      -55.9
   11/17/2018 00:50      47.1      46.3       64     35.0      0.00      0.32      65.6     0.28      1016.7     0.3     SSE   158   0.8     SSE   168   9.51    264      -56.6
   11/17/2018 00:40      47.1      46.8       61     34.3      0.00      0.32      65.6     0.28      1016.7     0.1     SSE   156   0.8     SSE   155   9.51    264      -56.4
   11/17/2018 00:30      47.3      46.8       62     34.8      0.00      0.32      65.6     0.28      1016.6     0.3       S   178   0.9     SSE   166   9.51    264      -56.1
   11/17/2018 00:20      47.8      47.1       59     33.9      0.00      0.32      65.6     0.28      1016.6     0.4     SSE   157   1.1     SSE   158   9.51    264      -56.4
   11/17/2018 00:10      48.4      47.5       62     35.3      0.00      0.32      65.6     0.28      1016.5     0.0       N     0   0.0     SSE   158   9.51    264      -55.8
   11/17/2018 00:00      48.5      48.1       61     35.5      0.00      0.32      65.6     0.28      1016.5     0.0     SSE   158   0.4     SSE   158   9.51    264      -56.4
   11/16/2018 23:50      48.5      47.9       61     35.6      0.00      0.32      65.7     0.28      1016.5     0.4     SSE   157   1.0     SSE   158   9.51    264      -56.6
   11/16/2018 23:40      48.9      48.0       61     35.7      0.00      0.32      65.7     0.28      1016.5     0.6     SSE   150   1.1      SE   140   9.51    264      -58.5
   11/16/2018 23:30      49.0      48.6       61     35.7      0.00      0.32      65.7     0.28      1016.5     0.6      SE   145   1.2      SE   141   9.51    264      -58.6
   11/16/2018 23:20      49.1      48.7       60     35.4      0.00      0.32      65.7     0.28      1016.5     1.0     SSE   149   1.5     SSE   156   9.51    264      -59.6
   11/16/2018 23:10      49.2      48.8       59     35.1      0.00      0.32      65.7     0.28      1016.5     0.9     SSE   163   1.4     SSE   150   9.51    264      -58.3
   11/16/2018 23:00      49.7      48.8       56     34.1      0.00      0.32      65.7     0.28      1016.4     0.2     SSE   168   1.0     SSE   160   9.52    264      -58.8
   11/16/2018 22:50      49.9      49.3       55     34.1      0.00      0.32      65.8     0.28      1016.3     0.2     SSW   198   1.4     SSW   209   9.52    264      -59.1
   11/16/2018 22:40      50.1      49.7       59     36.0      0.00      0.32      65.7     0.28      1016.3     0.0     SSE   163   0.6     SSE   162   9.52    264      -59.3
   11/16/2018 22:30      50.6      49.7       57     35.7      0.00      0.32      65.8     0.28      1016.2     0.5     SSE   156   1.1     SSE   147   9.52    264      -59.5
   11/16/2018 22:20      51.0      50.2       58     36.2      0.00      0.32      65.8     0.28      1016.3     0.3     SSE   161   1.2     SSE   161   9.52    264      -60.1
   11/16/2018 22:10      51.0      50.7       56     35.5      0.00      0.32      65.8     0.28      1016.3     0.7     SSE   160   1.2     SSE   161   9.52    264      -60.8
   11/16/2018 22:00      51.3      50.8       55     35.3      0.00      0.32      65.8     0.28      1016.3     0.2     SSE   158   1.1     SSE   157   9.52    264      -60.4
   11/16/2018 21:50      51.4      50.9       56     36.2      0.00      0.32      65.8     0.28      1016.3     0.5     SSE   154   1.1     SSE   149   9.52    264      -61.7
   11/16/2018 21:40      51.8      51.0       56     36.0      0.00      0.32      65.8     0.28      1016.3     0.7     SSE   158   1.2     SSE   166   9.52    264      -62.7
   11/16/2018 21:30      52.5      51.5       55     36.1      0.00      0.32      65.8     0.28      1016.4     0.7     SSE   156   1.3     SSE   156   9.53    264      -62.1
   11/16/2018 21:20      52.5      52.1       53     35.7      0.00      0.32      65.8     0.28      1016.3     0.4     SSE   156   1.0     SSE   149   9.53    264      -62.0
   11/16/2018 21:10      52.5      52.0       54     36.0      0.00      0.32      65.8     0.28      1016.4     0.5       S   172   1.5     SSE   147   9.53    264      -63.1
   11/16/2018 21:00      53.2      51.9       53     36.1      0.00      0.32      65.8     0.28      1016.4     0.7     SSE   155   1.4       S   170   9.53    264      -64.8
   11/16/2018 20:50      53.5      52.9       53     36.6      0.00      0.32      65.8     0.28      1016.2     0.8     SSE   152   1.7     SSE   167   9.53    263      -64.8
   11/16/2018 20:40      53.8      53.0       53     36.9      0.00      0.32      65.8     0.28      1016.2     0.8     SSE   159   1.5       S   182   9.53    264      -64.8
   11/16/2018 20:30      54.0      53.6       53     37.2      0.00      0.32      65.8     0.28      1016.2     0.7     SSE   151   1.6      SE   140   9.53    264      -65.0
   11/16/2018 20:20      54.9      53.6       53     37.2      0.00      0.32      65.8     0.28      1016.2     0.9     SSE   160   1.6     SSE   148   9.53    264      -65.1
   11/16/2018 20:10      55.5      54.6       51     37.1      0.00      0.32      65.7     0.28      1016.1     0.5     SSE   159   1.1     SSE   149   9.54    264      -65.8
   11/16/2018 20:00      55.8      55.2       49     36.8      0.00      0.32      65.8     0.28      1015.9     0.2     SSE   165   1.0       S   174   9.54    263      -66.0
   11/16/2018 19:50      55.9      55.3       49     36.6      0.00      0.32      65.7     0.28      1015.9     0.5       S   176   1.1     SSE   154   9.54    263      -65.9
   11/16/2018 19:40      56.3      55.5       52     38.5      0.00      0.32      65.8     0.28      1015.8     0.2     SSE   169   0.9     SSW   194   9.54    264      -66.6
   11/16/2018 19:30      57.0      56.1       51     38.6      0.00      0.32      65.7     0.28      1015.8     0.4     SSE   156   1.4      SE   144   9.54    264      -66.7
   11/16/2018 19:20      57.3      56.7       51     39.0      0.00      0.32      65.7     0.28      1015.7     0.7     SSE   152   1.9      SE   141   9.54    264      -66.9
   11/16/2018 19:10      58.0      57.1       50     39.0      0.00      0.32      65.7     0.28      1015.7     0.7     SSE   157   2.0      SE   144   9.54    263      -67.4
   11/16/2018 19:00      58.8      57.5       50     39.6      0.00      0.32      65.7     0.28      1015.6     0.8     SSE   155   1.5      SE   144   9.54    263      -68.3
   11/16/2018 18:50      59.3      58.5       50     40.1      0.00      0.32      65.6     0.28      1015.5     0.5       S   170   1.4       S   180   9.55    263      -68.0
   11/16/2018 18:40      59.4      59.0       49     40.1      0.00      0.32      65.6     0.28      1015.5     0.3     SSE   162   2.0       S   186   9.55    263      -64.3
   11/16/2018 18:30      60.0      59.1       49     40.4      0.00      0.32      65.6     0.28      1015.5     0.4       S   169   1.0       S   179   9.55    263      -55.9
   11/16/2018 18:20      60.2      59.5       49     40.5      0.00      0.32      65.6     0.28      1015.5     0.4     SSE   160   1.2     SSE   164   9.55    263      -55.2
   11/16/2018 18:10      60.7      59.9       48     40.5      0.00      0.32      65.6     0.28      1015.4     0.4      SE   129   1.4      SE   141   9.55    263      -61.3
   11/16/2018 18:00      61.6      60.4       47     40.5      0.00      0.32      65.5     0.28      1015.2     0.8       S   182   1.7       S   182   9.55    263      -67.6
   11/16/2018 17:50      61.8      61.2       48     41.6      0.00      0.32      65.5     0.28      1015.1     0.2     SSE   164   0.9       S   171   9.56    263      -71.3
   11/16/2018 17:40      61.9      61.3       47     41.4      0.00      0.32      65.5     0.28      1015.1     0.2     SSE   168   1.2       S   180   9.56    263      -74.6
   11/16/2018 17:30      63.6      61.5       46     41.0      0.00      0.32      65.4     0.28      1015.0     0.9       S   179   1.6     SSW   192   9.56    263      -76.8
   11/16/2018 17:20      64.6      63.2       45     41.9      0.00      0.32      65.4     0.28      1015.0     0.5     SSE   164   1.4       S   174   9.56    262      -77.8
   11/16/2018 17:10      66.4      64.4       41     41.3      0.00      0.32      65.4     0.28      1015.0     0.6     SSE   161   1.3       S   177   9.56    262      -78.5
   11/16/2018 17:00      68.6      66.3       39     41.5      0.00      0.32      65.3     0.28      1015.0     2.0     SSW   200   2.6     SSW   198   9.57    262      -77.8
   11/16/2018 16:50      69.5      68.3       37     41.3      0.00      0.32      65.3     0.28      1015.0     1.1       W   279   2.1      SW   234   9.57    262      -78.2
   11/16/2018 16:40      70.1      69.1       34     40.1      0.00      0.32      65.2     0.28      1015.0     1.7     SSW   206   3.3     SSW   210   9.57    261      -75.2
   11/16/2018 16:30      71.3      69.8       32     39.0      0.00      0.32      65.2     0.28      1015.0     1.4       S   181   2.8     SSW   205   9.57    261      -73.7
   11/16/2018 16:20      72.6      71.1       30     39.0      0.00      0.32      65.2     0.28      1014.9     2.2       S   185   3.6       S   186   9.58    261      -71.8
   11/16/2018 16:10      73.7      72.5       30     39.4      0.00      0.32      65.1     0.28      1014.8     2.1     SSE   152   5.0      SE   137   9.58    261      -53.0
   11/16/2018 16:00      75.2      73.5       26     37.5      0.00      0.32      65.1     0.28      1014.7     2.9      SE   140   6.4      SE   133   9.58    261      -31.4
   11/16/2018 15:50      75.8      74.9       21     32.8      0.00      0.32      65.0     0.28      1014.6     2.0      NE    51   4.3      NE    42   9.58    260      -13.3
   11/16/2018 15:40      76.5      75.5       22     33.8      0.00      0.32      65.0     0.28      1014.6     2.1     ENE    65   3.6     ENE    73   9.58    260        6.6
   11/16/2018 15:30      76.5      76.2       21     33.2      0.00      0.32      65.0     0.28      1014.6     1.8     ENE    75   3.7     ENE    66   9.58    260       30.6
   11/16/2018 15:20      77.0      76.2       20     32.9      0.00      0.32      64.9     0.28      1014.6     2.2     ENE    63   5.3       E    96   9.59    260       58.3
   11/16/2018 15:10      77.6      76.5       15     26.4      0.00      0.32      64.9     0.28      1014.6     2.4     ENE    58   4.2      NE    53   9.59    260       61.1
   11/16/2018 15:00      78.1      77.1       14     25.2      0.00      0.32      64.9     0.28      1014.8     2.1     ENE    72   5.1     ENE    61   9.59    259      100.4
   11/16/2018 14:50      79.8      77.9       13     24.1      0.00      0.32      64.8     0.28      1014.8     2.0     ENE    59   4.6       E    94   9.59    259      115.2
   11/16/2018 14:40      79.8      77.7       12     22.4      0.00      0.32      64.8     0.28      1014.9     0.6      NW   316   2.4     WSW   248   9.59    259      133.9
   11/16/2018 14:30      79.6      77.6       12     22.3      0.00      0.32      64.7     0.28      1014.9     1.9     SSE   159   3.1     ESE   115   9.59    259      157.1
   11/16/2018 14:20      79.7      77.8       13     22.7      0.00      0.32      64.7     0.28      1015.0     0.7       E    79   2.1      NE    40   9.60    259      178.4
   11/16/2018 14:10      78.7      77.9       13     22.6      0.00      0.32      64.6     0.28      1015.0     1.5     NNW   347   3.8     ENE    66   9.60    259      202.8
   11/16/2018 14:00      78.0      77.3       13     22.5      0.00      0.32      64.6     0.28      1014.9     2.2     WNW   300   4.0      NW   308   9.60    259      218.3
   11/16/2018 13:50      78.1      77.1       13     22.8      0.00      0.32      64.6     0.28      1014.9     1.7       N   360   3.8     NNW   336   9.60    259      221.5
   11/16/2018 13:40      77.9      77.2       13     22.6      0.00      0.32      64.5     0.28      1014.9     2.1       N     7   4.8      NW   322   9.60    259      284.7
   11/16/2018 13:30      77.3      76.1       14     23.0      0.00      0.32      64.5     0.28      1014.9     2.0       N   354   4.0       N   353   9.60    259      243.0
   11/16/2018 13:20      77.1      76.5       13     22.7      0.00      0.32      64.5     0.28      1015.0     1.7     NNE    14   3.0      NW   319   9.60    259      210.5
   11/16/2018 13:10      77.2      76.7       13     22.8      0.00      0.32      64.5     0.28      1015.1     1.3      NE    43   3.4     NNE    22   9.60    259      232.7
   11/16/2018 13:00      77.4      76.8       13     22.4      0.00      0.32      64.4     0.28      1015.2     1.4     ENE    78   4.6     ENE    77   9.60    259      252.6
   11/16/2018 12:50      77.0      75.3       13     22.3      0.00      0.32      64.4     0.28      1015.3     0.7     NNE    20   3.2     ENE    69   9.61    260      194.3
   11/16/2018 12:40      75.5      74.9       14     22.1      0.00      0.32      64.4     0.28      1015.5     0.9     NNE    29   2.8       N   350   9.61    260      102.9
   11/16/2018 12:30      76.5      75.2       13     22.2      0.00      0.32      64.4     0.28      1015.7     1.5     NNE    12   4.0     NNE    18   9.61    260       91.1
   11/16/2018 12:20      76.4      75.3       14     22.5      0.00      0.32      64.4     0.28      1015.8     1.6     NNE    27   3.3     NNE    25   9.61    260      267.2
   11/16/2018 12:10      76.6      75.4       13     21.9      0.00      0.32      64.4     0.28      1015.9     2.2     NNE    22   5.1     NNE    18   9.61    259      231.0
   11/16/2018 12:00      75.8      74.5       14     22.7      0.00      0.32      64.4     0.28      1016.0     2.2      NE    39   4.3       E    86   9.61    260      309.2
   11/16/2018 11:50      75.8      75.0       14     23.2      0.00      0.32      64.4     0.28      1016.2     2.4       N     4   4.9     NNW   332   9.62    260      226.5
   11/16/2018 11:40      76.2      75.0       14     23.6      0.00      0.32      64.4     0.28      1016.3     2.1      NE    36   5.4      NE    38   9.62    260      402.7
   11/16/2018 11:30      75.0      74.0       15     23.3      0.00      0.32      64.4     0.28      1016.5     2.0     NNE    33   4.0     NNE    20   9.62    260      372.9
   11/16/2018 11:20      74.3      73.3       15     22.9      0.00      0.32      64.5     0.28      1016.7     1.7      NE    40   4.0      NE    45   9.62    260      354.8
   11/16/2018 11:10      74.0      73.2       14     22.0      0.00      0.32      64.5     0.28      1016.9     1.5      NE    54   3.5     NNE    31   9.62    260      289.5
   11/16/2018 11:00      73.6      72.2       15     21.8      0.00      0.32      64.5     0.28      1017.0     1.2      NE    44   3.0     ENE    74   9.62    260      349.2
   11/16/2018 10:50      72.4      71.3       15     22.0      0.00      0.32      64.5     0.28      1017.1     1.0     NNE    29   3.0       N   354   9.63    261      205.2
   11/16/2018 10:40      71.7      70.7       16     23.0      0.00      0.32      64.5     0.28      1017.2     1.5      NE    34   3.1       N     8   9.63    260      282.9
   11/16/2018 10:30      70.7      69.3       17     22.9      0.00      0.32      64.5     0.28      1017.3     1.1     NNE    16   3.8       N     9   9.63    260      285.8
   11/16/2018 10:20      69.9      69.2       17     23.3      0.00      0.32      64.5     0.28      1017.4     1.2       N     8   2.6     NNE    15   9.63    261      158.7
   11/16/2018 10:10      70.6      69.5       17     23.6      0.00      0.32      64.6     0.28      1017.5     0.8     NNW   347   2.8       N     3   9.63    261      175.1
   11/16/2018 10:00      70.6      69.8       18     24.6      0.00      0.32      64.6     0.28      1017.5     0.9     NNW   346   2.1     NNW   344   9.63    261      293.0
   11/16/2018 09:50      70.7      69.0       19     25.9      0.00      0.32      64.7     0.28      1017.5     0.6     NNW   347   2.0      NE    53   9.63    261      359.0
   11/16/2018 09:40      69.3      67.2       20     25.9      0.00      0.32      64.7     0.28      1017.5     0.4      SW   226   1.1     WSW   239   9.64    261      265.7
   11/16/2018 09:30      67.5      65.3       23     27.0      0.00      0.32      64.7     0.28      1017.5     0.8      NE    56   1.8       E    79   9.64    261      262.0
   11/16/2018 09:20      65.5      64.3       25     27.8      0.00      0.32      64.8     0.28      1017.6     0.9       N    10   2.0     NNE    27   9.64    262      243.7
   11/16/2018 09:10      64.5      62.5       28     29.9      0.00      0.32      64.8     0.28      1017.6     0.4       N     5   1.8     NNE    14   9.64    262      220.9
   11/16/2018 09:00      62.6      61.3       29     29.9      0.00      0.32      64.8     0.28      1017.6     0.6     NNE    30   1.4       E    80   9.64    262      183.7
   11/16/2018 08:50      61.3      59.8       32     30.2      0.00      0.32      64.9     0.28      1017.6     0.5     NNE    33   1.4     NNE    23   9.64    262      179.9
   11/16/2018 08:40      60.0      58.8       33     30.7      0.00      0.32      64.9     0.28      1017.6     0.7       N     5   1.8       N     0   9.64    262      162.4
   11/16/2018 08:30      58.9      56.9       34     29.8      0.00      0.32      64.9     0.28      1017.5     0.4     NNE    15   1.2     NNE    17   9.21    262      158.3
   11/16/2018 08:20      56.9      55.0       35     28.8      0.00      0.32      65.0     0.28      1017.6     0.5     NNE    11   1.2     NNE    21   9.21    262      139.1
   11/16/2018 08:10      55.2      53.1       38     29.1      0.00      0.32      65.0     0.28      1017.5     0.6       N   356   1.7       N   355   9.21    262      121.0
   11/16/2018 08:00      53.1      51.4       39     28.3      0.00      0.32      65.0     0.28      1017.5     0.6       N     7   1.4     NNE    25   9.21    262      101.6
   11/16/2018 07:50      51.5      48.5       42     28.0      0.00      0.32      65.1     0.28      1017.4     0.0      SW   226   0.8      SW   224   9.21    263       79.0
   11/16/2018 07:40      48.4      46.0       48     28.0      0.00      0.32      65.1     0.28      1017.4     0.0       N     0   0.0      SE   139   9.21    264       45.4
   11/16/2018 07:30      46.3      45.4       46     26.6      0.00      0.32      65.1     0.28      1017.3     0.4     SSE   149   1.2      SE   140   9.21    263      -29.3
   11/16/2018 07:20      45.5      44.3       48     26.3      0.00      0.32      65.1     0.28      1017.1     0.6      SE   145   1.3      SE   138   9.21    264      -37.8
   11/16/2018 07:10      44.5      42.9       48     25.2      0.00      0.32      65.2     0.28      1017.1     0.6      SW   225   1.3     WSW   246   9.21    264      -39.4
   11/16/2018 07:00      43.1      42.6       51     25.9      0.00      0.32      65.2     0.28      1017.1     0.0     SSW   201   1.0     SSW   201   9.21    264      -44.7
   11/16/2018 06:50      43.3      42.7       50     25.6      0.00      0.32      65.3     0.28      1017.0     0.6     SSE   151   1.1     SSE   161   9.21    264      -49.4
   11/16/2018 06:40      43.4      43.0       46     23.7      0.00      0.32      65.3     0.28      1016.9     0.5     SSE   157   1.1     SSE   149   9.21    264      -51.6
   11/16/2018 06:30      43.4      43.0       45     23.3      0.00      0.32      65.3     0.28      1016.8     0.0       N     0   0.0     SSE   162   9.22    264      -52.2
   11/16/2018 06:20      43.7      43.0       50     25.6      0.00      0.32      65.4     0.28      1016.8     0.1     SSE   160   0.5     SSE   159   9.22    264      -53.5
   11/16/2018 06:10      43.8      43.3       48     25.3      0.00      0.32      65.4     0.28      1016.8     0.4      SE   143   1.2      SE   141   9.22    264      -53.4
   11/16/2018 06:00      44.3      43.5       48     25.3      0.00      0.32      65.4     0.28      1016.8     0.1      SE   145   0.7      SE   145   9.22    264      -51.3
   11/16/2018 05:50      44.1      43.4       45     23.7      0.00      0.32      65.5     0.28      1016.7     0.0       S   187   0.5       S   185   9.22    264      -50.5
   11/16/2018 05:40      43.9      43.4       47     24.4      0.00      0.32      65.5     0.28      1016.6     0.3     SSE   165   0.9      SE   138   9.22    264      -53.0
   11/16/2018 05:30      43.9      43.4       45     23.7      0.00      0.32      65.5     0.28      1016.5     0.9     SSE   162   1.7     SSW   199   9.22    263      -55.2
   11/16/2018 05:20      44.4      43.5       48     25.3      0.00      0.32      65.5     0.28      1016.6     0.2      SE   139   0.9      SE   139   9.22    264      -56.5
   11/16/2018 05:10      44.8      44.1       49     26.4      0.00      0.32      65.6     0.28      1016.5     0.1     SSE   157   0.9     SSE   155   9.22    263      -56.6
   11/16/2018 05:00      45.0      44.5       48     26.1      0.00      0.32      65.6     0.28      1016.5     0.8     SSE   161   1.3     SSE   162   9.22    263      -56.4
   11/16/2018 04:50      45.3      44.8       46     25.5      0.00      0.32      65.6     0.28      1016.5     0.7     SSE   154   1.6      SE   137   9.22    263      -56.7
   11/16/2018 04:40      45.5      45.0       44     24.5      0.00      0.32      65.7     0.28      1016.5     0.7       S   170   1.2     SSE   158   9.22    263      -57.4
   11/16/2018 04:30      45.6      45.0       43     23.9      0.00      0.32      65.7     0.28      1016.5     0.7       S   189   1.3     SSW   210   9.22    263      -57.7
   11/16/2018 04:20      45.7      45.1       42     23.7      0.00      0.32      65.7     0.28      1016.5     1.0       S   181   1.8       S   187   9.22    263      -56.9
   11/16/2018 04:10      45.3      44.5       43     23.6      0.00      0.32      65.8     0.28      1016.6     0.5     SSE   155   1.0     SSE   159   9.22    263      -56.1
   11/16/2018 04:00      45.6      44.6       42     23.5      0.00      0.32      65.8     0.28      1016.7     0.2     SSE   150   0.8     SSE   149   9.22    263      -54.8
   11/16/2018 03:50      46.0      45.3       43     24.4      0.00      0.32      65.8     0.28      1016.7     0.0       N     0   0.0     SSE   149   9.22    263      -53.5
   11/16/2018 03:40      46.4      45.6       41     23.9      0.00      0.32      65.8     0.28      1016.8     0.1     SSE   156   0.7     SSE   149   9.22    263      -54.0
   11/16/2018 03:30      47.0      46.1       40     23.5      0.00      0.32      65.8     0.28      1016.8     0.2     SSE   149   1.0     SSE   148   9.22    263      -55.0
   11/16/2018 03:20      46.9      46.3       39     22.6      0.00      0.32      65.9     0.28      1016.8     0.2       S   177   0.9       S   182   9.22    263      -53.9
   11/16/2018 03:10      46.6      45.9       41     24.2      0.00      0.32      65.9     0.28      1016.8     0.6       S   184   1.3     SSW   205   9.23    263      -53.6
   11/16/2018 03:00      46.6      45.8       42     24.6      0.00      0.32      65.9     0.28      1016.8     0.3     WSW   247   1.1     WSW   242   9.23    263      -53.8
   11/16/2018 02:50      47.0      46.4       43     25.2      0.00      0.32      66.0     0.28      1016.8     0.2     SSE   159   0.8      SE   143   9.23    263      -53.8
   11/16/2018 02:40      46.9      46.3       41     23.9      0.00      0.32      66.0     0.28      1016.8     0.9     SSE   158   1.7       S   184   9.23    263      -53.8
   11/16/2018 02:30      47.5      46.3       41     24.1      0.00      0.32      66.0     0.28      1016.9     0.1       S   170   1.4       S   181   9.23    263      -54.5
   11/16/2018 02:20      47.9      47.2       38     23.1      0.00      0.32      66.0     0.28      1017.0     0.4       S   170   1.2       S   187   9.23    263      -54.7
   11/16/2018 02:10      47.7      47.3       39     23.8      0.00      0.32      66.1     0.28      1017.0     0.1       S   188   0.9       S   179   9.23    263      -55.8
   11/16/2018 02:00      48.8      47.4       39     24.1      0.00      0.32      66.0     0.28      1017.0     0.1       E    91   0.8       E    86   9.23    263      -57.4
   11/16/2018 01:50      49.5      48.6       38     24.5      0.00      0.32      66.1     0.28      1017.0     0.3      SE   141   1.4      SE   141   9.23    263      -56.7
   11/16/2018 01:40      49.3      48.7       38     24.4      0.00      0.32      66.1     0.28      1017.0     1.0     SSE   153   1.5      SE   138   9.23    263      -57.7
   11/16/2018 01:30      49.2      48.6       36     23.3      0.00      0.32      66.1     0.28      1017.0     1.0     SSE   158   1.9      SE   146   9.23    262      -58.7
   11/16/2018 01:20      49.3      48.8       37     23.6      0.00      0.32      66.1     0.28      1017.0     1.0     SSE   156   1.9     SSE   149   9.23    263      -58.9
   11/16/2018 01:10      49.1      48.7       35     22.7      0.00      0.32      66.1     0.28      1017.0     0.7       S   176   1.0     SSE   157   9.23    263      -59.7
   11/16/2018 01:00      49.7      48.7       37     24.1      0.00      0.32      66.2     0.28      1017.0     0.0     SSE   150   0.4     SSE   150   9.23    262      -60.3
   11/16/2018 00:50      49.9      49.4       36     23.8      0.00      0.32      66.2     0.28      1017.0     0.5     SSE   150   1.3      SE   145   9.23    262      -60.6
   11/16/2018 00:40      49.9      49.2       35     23.3      0.00      0.32      66.2     0.28      1017.1     0.9     SSE   156   1.2     SSE   159   9.23    262      -60.4
   11/16/2018 00:30      50.1      49.4       35     23.4      0.00      0.32      66.3     0.28      1017.1     0.3     SSE   162   0.8      SE   146   9.23    262      -60.1
   11/16/2018 00:20      50.0      49.5       33     21.6      0.00      0.32      66.2     0.28      1017.2     0.4       S   180   0.9       S   177   9.23    262      -59.5
   11/16/2018 00:10      50.4      49.3       35     23.2      0.00      0.32      66.3     0.28      1017.1     0.2     SSE   162   0.7     SSE   163   9.24    262      -60.1
   11/16/2018 00:00      51.6      50.1       34     23.7      0.00      0.32      66.3     0.28      1017.1     0.3     SSE   157   0.9     SSE   168   9.24    262      -60.7
   11/15/2018 23:50      51.8      51.2       29     20.6      0.00      0.32      66.3     0.28      1017.1     0.4       S   170   0.8      SE   145   9.24    262      -59.5
   11/15/2018 23:40      52.1      51.4       31     22.2      0.00      0.32      66.3     0.28      1017.2     0.3     SSE   168   1.0       S   173   9.24    262      -59.7
   11/15/2018 23:30      52.5      51.8       33     23.8      0.00      0.32      66.3     0.28      1017.2     0.6     SSE   153   1.4     SSE   146   9.24    262      -60.4
   11/15/2018 23:20      52.9      52.1       29     21.4      0.00      0.32      66.3     0.28      1017.2     0.3     SSE   165   1.0       S   175   9.24    262      -60.6
   11/15/2018 23:10      53.6      52.5       32     24.0      0.00      0.32      66.3     0.28      1017.3     0.5     SSE   154   1.8      SE   146   9.24    262      -61.4
   11/15/2018 23:00      53.5      53.1       31     23.4      0.00      0.32      66.3     0.28      1017.3     0.8     SSE   151   1.2     SSE   155   9.24    262      -60.9
   11/15/2018 22:50      54.4      53.2       30     22.6      0.00      0.32      66.3     0.28      1017.3     0.7     SSE   158   1.3     SSE   148   9.24    262      -61.1
   11/15/2018 22:40      54.7      54.2       26     20.5      0.00      0.32      66.3     0.28      1017.3     0.6     SSE   168   1.5       S   171   9.25    262      -60.0
   11/15/2018 22:30      54.8      54.0       30     23.3      0.00      0.32      66.3     0.29      1017.3     0.2     SSW   211   1.4      SW   217   9.25    262      -60.2
   11/15/2018 22:20      55.2      54.4       29     23.1      0.00      0.32      66.3     0.28      1017.3     0.5      SE   142   1.6      SE   146   9.25    262      -60.5
   11/15/2018 22:10      55.5      54.9       28     22.5      0.00      0.32      66.3     0.29      1017.4     0.8     SSE   164   1.6      SE   136   9.25    262      -59.2
   11/15/2018 22:00      56.8      55.4       28     23.3      0.00      0.32      66.3     0.28      1017.5     0.7      SE   141   1.3      SE   132   9.25    262      -59.9
   11/15/2018 21:50      57.2      56.4       25     21.1      0.00      0.32      66.3     0.28      1017.5     0.6     SSE   164   1.4      SE   143   9.25    262      -58.0
   11/15/2018 21:40      57.6      56.9       24     20.7      0.00      0.32      66.3     0.28      1017.5     0.4     SSE   159   1.4     SSE   152   9.25    262      -58.2
   11/15/2018 21:30      58.2      57.4       23     20.6      0.00      0.32      66.3     0.28      1017.4     1.3     SSE   165   2.3     SSW   193   9.25    262      -58.6
   11/15/2018 21:20      58.3      57.3       24     21.0      0.00      0.32      66.3     0.29      1017.4     0.5       S   172   1.6     SSW   194   9.25    262      -59.4
   11/15/2018 21:10      59.4      58.1       22     20.2      0.00      0.32      66.3     0.29      1017.4     0.7     ESE   122   1.8      SE   143   9.25    262      -60.8
   11/15/2018 21:00      60.4      59.1       22     20.3      0.00      0.32      66.3     0.29      1017.4     0.3     SSW   195   1.2     SSW   195   9.26    262      -61.8
   11/15/2018 20:50      62.1      60.3       20     19.6      0.00      0.32      66.3     0.29      1017.4     0.7     ESE   109   1.5     ENE    68   9.26    261      -63.6
   11/15/2018 20:40      64.5      61.9       18     19.0      0.00      0.32      66.3     0.29      1017.4     0.4      SE   141   1.4      SE   129   9.26    261      -65.3
   11/15/2018 20:30      65.0      64.3       16     18.0      0.00      0.32      66.3     0.29      1017.3     0.9     SSW   203   3.6     SSW   198   9.26    261      -67.6
   11/15/2018 20:20      65.2      64.7       16     17.9      0.00      0.32      66.3     0.29      1017.2     1.5      SW   226   3.3      SW   229   9.26    261      -68.6
   11/15/2018 20:10      65.5      64.8       16     17.7      0.00      0.32      66.3     0.29      1017.2     2.3      SW   223   5.3     SSW   201   9.26    261      -69.3
   11/15/2018 20:00      65.6      64.8       16     17.7      0.00      0.32      66.3     0.29      1017.2     2.4      SW   217   4.8      SW   215   9.26    261      -69.7
   11/15/2018 19:50      66.0      65.2       16     17.7      0.00      0.32      66.3     0.29      1017.2     3.1      SW   235   5.3     WSW   239   9.27    261      -71.0
   11/15/2018 19:40      66.3      65.6       16     17.8      0.00      0.32      66.3     0.29      1017.2     3.7     WSW   238   6.4       W   260   9.27    261      -71.9
   11/15/2018 19:30      66.6      65.8       15     17.8      0.00      0.32      66.2     0.29      1017.2     3.3     SSW   210   5.3      SW   216   9.27    261      -72.1
   11/15/2018 19:20      66.4      65.8       15     17.6      0.00      0.32      66.2     0.29      1017.3     3.1      SW   217   5.8      SW   228   9.27    261      -71.3
   11/15/2018 19:10      66.4      65.8       15     17.8      0.00      0.32      66.2     0.29      1017.2     1.7     SSW   214   4.9     SSW   210   9.27    261      -70.2
   11/15/2018 19:00      66.6      66.1       16     18.2      0.00      0.32      66.2     0.29      1017.2     2.8     SSW   203   5.5      SW   233   9.27    261      -69.4
   11/15/2018 18:50      66.4      65.5       16     18.8      0.00      0.32      66.2     0.29      1017.2     2.8     SSW   197   4.7     SSW   206   9.28    261      -66.7
   11/15/2018 18:40      65.9      65.1       17     19.4      0.00      0.32      66.1     0.29      1017.2     1.3     SSW   214   2.2      SW   226   9.28    261      -62.2
   11/15/2018 18:30      65.5      64.7       18     21.1      0.00      0.32      66.1     0.29      1017.1     1.3       S   189   2.2      SW   216   9.28    261      -60.8
   11/15/2018 18:20      66.3      65.2       17     20.1      0.00      0.32      66.1     0.29      1017.0     1.5     SSW   211   4.2      SW   223   9.28    261      -60.0
   11/15/2018 18:10      66.0      65.2       18     21.0      0.00      0.32      66.0     0.29      1017.0     1.1     SSW   197   1.9       S   188   9.28    261      -59.8
   11/15/2018 18:00      66.5      65.3       19     22.4      0.00      0.32      66.0     0.29      1017.0     1.0       S   183   2.1       S   186   9.28    261      -60.8
   11/15/2018 17:50      67.6      66.3       18     21.6      0.00      0.32      66.0     0.29      1016.9     2.0     SSW   207   2.8     SSW   210   9.28    261      -61.2
   11/15/2018 17:40      68.1      67.3       17     21.0      0.00      0.32      66.0     0.29      1016.8     2.4      SW   225   3.4      SW   225   9.29    261      -63.2
   11/15/2018 17:30      68.3      67.0       16     19.9      0.00      0.32      65.9     0.29      1016.8     2.4      SW   236   3.4     WSW   254   9.29    260      -66.5
   11/15/2018 17:20      69.7      67.1       16     20.3      0.00      0.32      65.9     0.29      1016.7     1.3     SSW   198   2.1      SW   219   9.29    260      -70.1
   11/15/2018 17:10      69.7      69.1       15     19.7      0.00      0.32      65.8     0.29      1016.7     2.7     WSW   246   3.1     WSW   245   9.29    260      -71.3
   11/15/2018 17:00      72.9      69.3       14     19.8      0.00      0.32      65.8     0.29      1016.7     1.4     WSW   239   2.7     WSW   237   9.30    260      -75.5
   11/15/2018 16:50      73.7      72.5       14     20.2      0.00      0.32      65.8     0.28      1016.5     1.9     WNW   289   3.2       W   260   9.30    260      -77.6
   11/15/2018 16:40      74.7      73.4       13     19.6      0.00      0.32      65.7     0.29      1016.5     1.5      NW   324   4.6      NW   314   9.30    260      -76.5
   11/15/2018 16:30      76.1      74.2       12     18.8      0.00      0.32      65.7     0.29      1016.4     3.0     WNW   282   5.7     WSW   252   9.30    260      -73.2
   11/15/2018 16:20      76.9      75.8       10     15.8      0.00      0.32      65.7     0.29      1016.3     3.3     WNW   297   6.5     WSW   252   9.30    260      -68.1
   11/15/2018 16:10      77.5      76.7       10     15.6      0.00      0.32      65.6     0.28      1016.2     3.2      NW   307   6.4     WNW   293   9.31    260      -61.8
   11/15/2018 16:00      77.8      77.2       10     15.4      0.00      0.32      65.6     0.28      1016.2     3.0     WNW   302   6.6       W   275   9.31    260      -54.6
   11/15/2018 15:50      78.1      77.4        9     15.5      0.00      0.32      65.5     0.28      1016.2     2.4     WNW   302   5.0      NW   307   9.31    260      -49.2
   11/15/2018 15:40      78.8      77.9        9     15.4      0.00      0.32      65.5     0.28      1016.1     2.4      NW   316   5.0     WNW   290   9.31    260      -46.8
   11/15/2018 15:30      79.5      78.5        9     15.5      0.00      0.32      65.5     0.28      1016.0     2.4     NNW   328   5.7      NW   322   9.31    260      -36.6
   11/15/2018 15:20      80.0      79.2        9     15.8      0.00      0.32      65.4     0.28      1016.0     2.6      NW   324   5.7       N   354   9.31    260      -18.3
   11/15/2018 15:10      80.0      79.6        9     15.3      0.00      0.32      65.3     0.28      1016.0     1.9      NW   317   4.8     NNW   346   9.32    259       13.3
   11/15/2018 15:00      80.1      79.6        9     15.1      0.00      0.32      65.3     0.28      1016.1     2.3      NW   319   5.8      NW   318   9.32    259       21.5
   11/15/2018 14:50      79.8      79.4        8     14.5      0.00      0.32      65.3     0.28      1016.1     3.3      NW   326   6.1      NW   324   9.32    259       41.8
   11/15/2018 14:40      80.6      79.6        8     14.3      0.00      0.32      65.2     0.28      1016.1     3.9     NNW   344   9.2     NNE    32   9.32    259       25.4
   11/15/2018 14:30      80.7      80.1        8     14.3      0.00      0.32      65.2     0.28      1016.1     3.7     NNW   331   6.5     NNW   349   9.32    259       78.5
   11/15/2018 14:20      80.9      80.3        8     13.9      0.00      0.32      65.2     0.28      1016.2     3.7       N   352   7.6     NNW   345   9.33    259       81.5
   11/15/2018 14:10      81.0      80.4        8     13.6      0.00      0.32      65.1     0.28      1016.2     3.5     NNW   345   5.9     NNE    27   9.33    259       91.5
   11/15/2018 14:00      81.8      80.5        8     13.2      0.00      0.32      65.0     0.28      1016.3     4.2       N     1   7.0     NNW   344   9.33    259       83.2
   11/15/2018 13:50      81.7      81.0        7     12.7      0.00      0.32      65.0     0.28      1016.4     3.0     NNW   343   7.4       N     1   9.33    259      161.5
   11/15/2018 13:40      81.5      80.8        7     12.6      0.00      0.32      65.0     0.28      1016.5     4.2      NW   323   7.2     WNW   293   9.33    259      210.7
   11/15/2018 13:30      81.8      80.6        7     12.2      0.00      0.32      64.9     0.28      1016.6     5.1      NW   324  10.1      NW   311   9.33    259      171.5
   11/15/2018 13:20      82.0      81.5        7     11.8      0.00      0.32      64.9     0.28      1016.7     3.7      NW   304   8.7       W   274   9.33    259      206.0
   11/15/2018 13:10      82.0      81.4        7     12.0      0.00      0.32      64.9     0.28      1016.8     2.9     WNW   303   5.4       W   259   9.34    259      234.9
   11/15/2018 13:00      82.2      81.1        7     12.4      0.00      0.32      64.8     0.28      1017.0     4.1       W   260   9.1     WSW   238   9.34    259      292.8
   11/15/2018 12:50      82.0      80.8        7     12.2      0.00      0.32      64.8     0.28      1017.2     5.4     WSW   245  11.6     WSW   254   9.34    259      316.1
   11/15/2018 12:40      81.3      80.1        8     12.5      0.00      0.32      64.8     0.28      1017.4     3.7     WSW   241   7.8     WSW   239   9.34    259      310.0
   11/15/2018 12:30      80.9      80.3        8     12.7      0.00      0.32      64.8     0.28      1017.6     4.5      SW   230   7.9       S   183   9.34    259      329.0
   11/15/2018 12:20      80.9      79.8        8     13.0      0.00      0.32      64.8     0.28      1017.9     3.6     SSW   205   7.2     WSW   238   9.34    259      299.8
   11/15/2018 12:10      81.2      79.8        8     13.0      0.00      0.32      64.8     0.28      1018.1     2.7      SW   217   7.2      SW   222   9.34    259      302.5
   11/15/2018 12:00      80.9      79.2        8     13.2      0.00      0.32      64.7     0.28      1018.3     2.7     WSW   255   7.1      SW   226   9.35    259      340.9
   11/15/2018 11:50      80.0      78.8        8     13.0      0.00      0.32      64.8     0.28      1018.5     3.1      SW   214   6.9     WSW   241   9.35    259      359.1
   11/15/2018 11:40      79.1      78.3        8     13.5      0.00      0.32      64.7     0.28      1018.7     2.7       W   271   5.8     SSW   212   9.35    259      288.7
   11/15/2018 11:30      79.0      77.9        9     13.9      0.00      0.32      64.7     0.28      1018.9     3.0     SSW   203   5.8     WSW   250   9.35    259      224.4
   11/15/2018 11:20      79.0      77.1        9     13.9      0.00      0.32      64.7     0.28      1019.1     4.1     WSW   242   8.1     SSW   203   9.35    259      364.7
   11/15/2018 11:10      78.0      77.1        9     13.3      0.00      0.32      64.8     0.28      1019.2     3.7     SSW   199   7.0     SSW   192   9.35    259      361.1
   11/15/2018 11:00      77.6      76.9        9     13.5      0.00      0.32      64.8     0.28      1019.3     3.5      SW   230   5.9     SSW   203   9.35    259      352.7
   11/15/2018 10:50      77.2      75.9        9     13.8      0.00      0.32      64.8     0.28      1019.5     3.3      SW   223   6.6      SW   233   9.35    259      349.0
   11/15/2018 10:40      76.0      75.2        9     13.9      0.00      0.32      64.8     0.28      1019.7     3.4      SW   219   6.4      SW   234   9.35    259      342.7
   11/15/2018 10:30      75.6      74.7       10     14.3      0.00      0.32      64.9     0.28      1019.9     4.2     SSW   208   7.1      SW   231   9.35    260      327.4
   11/15/2018 10:20      75.5      74.3       10     14.0      0.00      0.32      64.9     0.28      1020.0     3.2      SW   223   7.0     SSW   210   9.36    259      322.5
   11/15/2018 10:10      74.6      73.6       10     14.1      0.00      0.32      64.9     0.28      1020.1     3.2     WSW   254   5.7       W   270   9.36    259      248.7
   11/15/2018 10:00      74.6      73.9       10     13.9      0.00      0.32      64.9     0.28      1020.2     3.5      SW   228   6.1     SSW   203   9.36    260      268.8
   11/15/2018 09:50      74.3      73.4       10     13.9      0.00      0.32      65.0     0.28      1020.3     2.8      SW   225   5.6       W   261   9.36    259      296.8
   11/15/2018 09:40      73.5      72.0       10     13.6      0.00      0.32      65.0     0.28      1020.3     2.6      SW   234   5.4      SW   231   9.36    260      286.3
   11/15/2018 09:30      72.3      71.4       11     13.8      0.00      0.32      65.0     0.28      1020.3     3.1      SW   216   5.2      SW   228   9.36    260      267.6
   11/15/2018 09:20      71.8      70.6       11     14.5      0.00      0.32      65.0     0.28      1020.3     2.5      SW   220   4.4       W   271   9.36    260      243.0
   11/15/2018 09:10      70.7      70.0       12     14.5      0.00      0.32      65.1     0.28      1020.3     2.5     SSW   191   4.1       S   190   9.36    260      223.8
   11/15/2018 09:00      70.2      69.3       11     13.9      0.00      0.32      65.2     0.28      1020.3     3.1      SW   220   5.3      SW   219   9.36    260      206.9
   11/15/2018 08:50      69.4      68.5       11     13.0      0.00      0.32      65.2     0.28      1020.4     2.9     WSW   246   4.4       W   277   9.36    260      192.5
   11/15/2018 08:40      68.9      68.3       12     13.4      0.00      0.32      65.2     0.28      1020.5     3.0      SW   223   4.6      SW   217   9.36    260      178.6
   11/15/2018 08:30      69.0      68.3       12     13.6      0.00      0.32      65.3     0.28      1020.6     2.0     WSW   242   3.6       W   263   9.36    260      161.7
   11/15/2018 08:20      68.3      65.3       14     16.7      0.00      0.32      65.3     0.28      1020.6     0.4     WSW   239   1.8     WSW   251   9.36    260      143.7
   11/15/2018 08:10      65.3      61.8       18     19.4      0.00      0.32      65.3     0.28      1020.5     0.5      NW   324   1.5     WSW   257   9.36    260      126.5
   11/15/2018 08:00      62.0      59.2       24     23.0      0.00      0.32      65.3     0.28      1020.6     0.5      SE   144   1.7      SE   140   9.36    261       92.6
   11/15/2018 07:50      59.2      55.3       27     23.3      0.00      0.32      65.4     0.28      1020.6     0.9     SSE   149   1.8      SE   141   9.36    262       91.7
   11/15/2018 07:40      55.3      53.9       28     21.7      0.00      0.32      65.4     0.28      1020.6     0.5     SSE   152   1.6     SSE   148   9.36    262       64.5
   11/15/2018 07:30      54.2      52.9       28     21.5      0.00      0.32      65.5     0.28      1020.6     1.1      SE   129   1.8      SE   133   9.36    262      -12.7
   11/15/2018 07:20      53.1      50.8       28     19.9      0.00      0.32      65.5     0.28      1020.6     1.0      SE   146   2.2     SSE   153   9.36    262      -39.0
   11/15/2018 07:10      50.8      48.3       30     19.2      0.00      0.32      65.6     0.28      1020.4     0.8     SSE   164   1.7     SSE   161   9.36    262      -38.1
   11/15/2018 07:00      48.5      46.5       33     19.4      0.00      0.32      65.6     0.28      1020.3     0.8     SSE   158   1.8       S   184   9.36    262      -39.7
   11/15/2018 06:50      46.5      45.6       35     19.9      0.00      0.32      65.6     0.28      1020.3     1.2     SSE   155   2.3     SSE   148   9.36    263      -42.7
   11/15/2018 06:40      45.9      45.1       34     18.8      0.00      0.32      65.7     0.28      1020.3     0.5       S   181   1.5       S   187   9.36    262      -46.4
   11/15/2018 06:30      45.8      45.3       33     18.4      0.00      0.32      65.7     0.28      1020.3     1.0       S   175   2.0     SSE   165   9.36    262      -50.2
   11/15/2018 06:20      46.1      45.4       32     17.6      0.00      0.32      65.7     0.28      1020.3     0.6       S   188   1.9     NNE    20   9.36    262      -55.4
   11/15/2018 06:10      46.3      45.6       31     17.2      0.00      0.32      65.8     0.28      1020.1     0.5     SSW   201   2.7     SSW   193   9.36    262      -56.5
   11/15/2018 06:00      46.7      45.9       31     17.1      0.00      0.32      65.8     0.28      1020.0     0.2       S   179   0.8       S   170   9.36    262      -56.9
   11/15/2018 05:50      46.7      46.2       31     17.5      0.00      0.32      65.8     0.28      1020.0     0.4     WSW   245   1.5     WNW   288   9.36    262      -58.7
   11/15/2018 05:40      46.3      45.6       32     17.5      0.00      0.32      65.8     0.28      1019.9     0.9       S   176   2.9      SW   216   9.36    262      -57.7
   11/15/2018 05:30      46.6      45.9       30     16.6      0.00      0.32      65.9     0.28      1019.8     0.7       S   171   1.9      SE   146   9.36    262      -57.8
   11/15/2018 05:20      46.6      45.8       31     17.2      0.00      0.32      65.9     0.28      1019.8     0.9     SSE   161   2.3     NNE    20   9.37    262      -59.1
   11/15/2018 05:10      47.2      46.0       31     17.6      0.00      0.32      65.9     0.28      1019.8     0.8     WSW   244   2.3       N    11   9.37    262      -59.3
   11/15/2018 05:00      48.0      46.9       30     17.2      0.00      0.32      66.0     0.28      1019.8     0.8     SSE   157   1.6     SSW   201   9.37    262      -59.3
   11/15/2018 04:50      47.7      47.0       28     15.6      0.00      0.32      66.0     0.28      1019.8     0.7     SSW   203   2.2     SSW   211   9.37    262      -59.1
   11/15/2018 04:40      47.8      47.0       29     16.7      0.00      0.32      66.0     0.28      1019.8     0.7     SSW   212   2.4     WSW   237   9.37    262      -58.6
   11/15/2018 04:30      48.6      47.5       29     17.3      0.00      0.32      66.0     0.28      1019.8     0.5      SE   144   1.4     SSE   155   9.37    262      -59.5
   11/15/2018 04:20      48.5      47.8       29     17.2      0.00      0.32      66.0     0.28      1019.8     0.6     SSE   156   1.9     SSE   163   9.37    262      -58.9
   11/15/2018 04:10      48.4      47.8       28     16.5      0.00      0.32      66.1     0.28      1019.8     0.3     SSE   165   1.2     SSE   155   9.37    262      -58.7
   11/15/2018 04:00      48.1      47.7       28     16.4      0.00      0.32      66.1     0.28      1019.8     0.3     SSW   200   1.4       S   173   9.37    262      -59.1
   11/15/2018 03:50      48.0      47.6       29     17.4      0.00      0.32      66.2     0.28      1019.8     1.0     SSE   164   2.0     SSW   210   9.37    262      -60.0
   11/15/2018 03:40      47.8      47.3       29     17.1      0.00      0.32      66.2     0.28      1020.0     0.6     SSW   204   1.8       S   183   9.37    262      -60.4
   11/15/2018 03:30      48.3      47.4       29     17.3      0.00      0.32      66.2     0.28      1020.0     0.5       S   178   2.1      SW   221   9.37    262      -60.4
   11/15/2018 03:20      48.4      47.6       29     17.6      0.00      0.32      66.2     0.28      1020.1     1.1      SE   139   2.1     SSE   162   9.37    262      -60.3
   11/15/2018 03:10      48.6      47.6       29     17.4      0.00      0.32      66.3     0.28      1020.2     0.7       S   172   2.2     SSW   192   9.37    262      -60.1
   11/15/2018 03:00      48.9      48.3       27     16.0      0.00      0.32      66.3     0.28      1020.2     0.1     SSE   168   1.2       S   180   9.37    262      -60.2
   11/15/2018 02:50      49.5      48.6       28     17.1      0.00      0.32      66.3     0.29      1020.2     0.2       S   172   1.4       S   184   9.37    262      -61.1
   11/15/2018 02:40      50.2      49.1       27     17.3      0.00      0.32      66.3     0.28      1020.3     0.6      SE   138   1.3      SE   139   9.37    262      -61.9
   11/15/2018 02:30      50.1      49.3       27     17.0      0.00      0.32      66.4     0.29      1020.4     0.6     SSE   162   1.7     SSE   158   9.37    262      -61.2
   11/15/2018 02:20      50.0      49.1       27     16.7      0.00      0.32      66.4     0.28      1020.5     0.5     SSE   149   1.2      SE   140   9.37    262      -62.5
   11/15/2018 02:10      49.5      49.0       27     16.5      0.00      0.32      66.4     0.29      1020.5     1.1     SSE   166   2.4       S   175   9.38    262      -63.0
   11/15/2018 02:00      49.9      49.0       27     16.7      0.00      0.32      66.4     0.29      1020.6     0.4      SW   219   1.5     SSW   213   9.38    262      -63.3
   11/15/2018 01:50      50.3      49.7       26     16.4      0.00      0.32      66.4     0.29      1020.7     0.2       N   358   1.2     NNE    29   9.38    262      -63.6
   11/15/2018 01:40      50.8      49.9       27     17.2      0.00      0.32      66.5     0.29      1020.7     0.6      SW   219   1.4     WSW   247   9.38    262      -63.6
   11/15/2018 01:30      52.0      50.6       25     16.7      0.00      0.32      66.5     0.29      1020.6     0.9      SE   143   2.3       S   187   9.38    262      -64.8
   11/15/2018 01:20      53.1      51.8       24     16.5      0.00      0.32      66.5     0.29      1020.7     0.9     ENE    72   3.2     SSE   151   9.38    262      -66.4
   11/15/2018 01:10      52.9      52.0       23     15.8      0.00      0.32      66.6     0.29      1020.7     1.2      SE   130   2.8       E    95   9.38    262      -65.3
   11/15/2018 01:00      54.1      52.5       22     15.9      0.00      0.32      66.6     0.29      1020.8     1.0      SE   141   2.1      SE   137   9.38    262      -64.4
   11/15/2018 00:50      54.2      53.2       22     15.6      0.00      0.32      66.6     0.29      1020.8     1.1     SSE   149   1.9      SE   129   9.38    262      -65.5
   11/15/2018 00:40      55.4      54.0       21     15.8      0.00      0.32      66.7     0.29      1020.8     1.5     SSE   152   3.1      SE   134   9.38    262      -65.5
   11/15/2018 00:30      55.8      55.0       21     15.9      0.00      0.32      66.7     0.29      1020.8     1.7      SE   144   2.5      SE   144   9.38    262      -66.5
   11/15/2018 00:20      56.9      55.5       19     14.6      0.00      0.32      66.7     0.29      1020.8     1.4     SSE   150   2.6      SE   145   9.38    262      -66.3
   11/15/2018 00:10      56.8      56.3       19     14.3      0.00      0.32      66.7     0.29      1020.8     1.4     SSE   159   2.5      SE   141   9.39    262      -66.8
   11/15/2018 00:00      56.7      54.6       20     14.3      0.00      0.32      66.7     0.29      1020.9     1.7     SSE   164   4.5       S   183   9.39    262      -65.8
   11/14/2018 23:50      55.0      54.0       21     15.1      0.00      0.32      66.8     0.29      1021.0     1.9     SSE   150   2.9      SE   142   9.39    262      -65.1
   11/14/2018 23:40      55.3      54.2       21     15.4      0.00      0.32      66.8     0.29      1021.0     1.3     SSE   148   2.5      SE   134   9.39    262      -64.5
   11/14/2018 23:30      54.5      53.2       22     15.9      0.00      0.32      66.8     0.29      1021.2     1.9      SE   144   2.9      SE   141   9.39    262      -64.0
   11/14/2018 23:20      53.6      52.7       23     16.6      0.00      0.32      66.8     0.29      1021.3     1.3     SSE   148   2.3     SSE   147   9.39    262      -64.2
   11/14/2018 23:10      53.3      51.8       23     15.7      0.00      0.32      66.8     0.29      1021.4     0.8     SSE   157   2.0      SE   146   9.39    262      -63.3
   11/14/2018 23:00      51.8      51.2       26     17.9      0.00      0.32      66.8     0.29      1021.6     1.0     SSE   162   2.2     SSE   156   9.39    262      -63.2
   11/14/2018 22:50      52.0      51.3       26     17.6      0.00      0.32      66.8     0.29      1021.6     0.2     SSE   151   1.0     SSE   157   9.39    262      -64.2
   11/14/2018 22:40      53.0      51.6       24     16.5      0.00      0.32      66.9     0.29      1021.7     0.5       S   174   1.4       S   176   9.39    262      -65.3
   11/14/2018 22:30      52.9      52.4       23     15.4      0.00      0.32      66.9     0.29      1021.7     0.3     SSE   168   1.0       S   179   9.39    262      -64.8
   11/14/2018 22:20      53.6      52.5       24     17.2      0.00      0.32      66.9     0.29      1021.8     0.2     SSE   150   1.0      SE   146   9.40    262      -66.2
   11/14/2018 22:10      54.4      53.4       23     17.3      0.00      0.32      66.9     0.29      1021.9     0.4     SSE   160   1.4       S   171   9.40    262      -66.8
   11/14/2018 22:00      54.3      53.7       24     17.7      0.00      0.32      66.9     0.29      1021.9     0.9     SSE   149   1.5       S   174   9.40    262      -66.4
   11/14/2018 21:50      54.7      54.0       24     17.7      0.00      0.32      66.9     0.29      1021.9     0.5     SSE   158   1.3     SSE   157   9.40    262      -66.4
   11/14/2018 21:40      54.7      54.0       24     17.9      0.00      0.32      66.9     0.29      1021.9     0.5     SSE   165   1.4       S   175   9.40    262      -67.0
   11/14/2018 21:30      55.4      54.5       23     17.9      0.00      0.32      66.9     0.29      1021.9     0.3     SSE   151   1.2      SE   145   9.40    262      -68.2
   11/14/2018 21:20      55.8      55.1       22     17.3      0.00      0.32      66.9     0.29      1021.9     0.8     SSE   157   1.5       S   178   9.40    261      -68.8
   11/14/2018 21:10      56.4      55.5       21     16.9      0.00      0.32      66.9     0.29      1021.9     0.7     SSE   156   1.6     SSE   161   9.41    261      -70.0
   11/14/2018 21:00      56.9      56.0       20     15.4      0.00      0.32      66.9     0.29      1022.0     0.8       S   184   2.2     SSW   211   9.41    261      -70.6
   11/14/2018 20:50      57.9      56.6       20     16.9      0.00      0.32      66.9     0.29      1021.9     1.3     SSE   147   2.6      SE   131   9.41    261      -73.4
   11/14/2018 20:40      58.3      56.9       19     15.6      0.00      0.32      66.9     0.29      1021.8     1.3     SSE   160   2.5     SSW   210   9.41    261      -72.5
   11/14/2018 20:30      58.5      57.1       20     17.1      0.00      0.32      66.9     0.29      1021.8     0.7     SSE   156   2.1     SSE   156   9.41    261      -73.1
   11/14/2018 20:20      58.5      57.5       20     16.9      0.00      0.32      66.9     0.29      1021.8     1.2      SE   137   2.3      SE   134   9.41    261      -74.5
   11/14/2018 20:10      58.1      57.5       20     17.4      0.00      0.32      66.9     0.29      1021.8     1.7     SSE   167   3.2       S   173   9.41    261      -74.4
   11/14/2018 20:00      58.7      57.5       20     17.4      0.00      0.32      66.9     0.29      1021.7     0.7     SSE   161   1.8      SE   141   9.41    261      -75.4
   11/14/2018 19:50      58.8      58.0       20     17.6      0.00      0.32      66.8     0.29      1021.7     1.0     SSE   154   2.2     SSE   157   9.42    261      -76.2
   11/14/2018 19:40      59.2      58.2       20     17.8      0.00      0.32      66.9     0.29      1021.7     1.3     SSE   158   2.5      SE   136   9.42    261      -76.9
   11/14/2018 19:30      60.3      59.0       19     17.3      0.00      0.32      66.8     0.29      1021.6     1.3     SSE   160   2.4     SSE   147   9.42    261      -77.7
   11/14/2018 19:20      61.8      60.1       18     16.3      0.00      0.32      66.8     0.29      1021.6     1.5     SSE   158   3.1       S   170   9.42    261      -78.4
   11/14/2018 19:10      61.6      60.8       16     14.8      0.00      0.32      66.8     0.29      1021.6     1.2     SSE   163   2.6     SSE   155   9.42    261      -79.3
   11/14/2018 19:00      63.0      61.2       16     15.4      0.00      0.32      66.8     0.29      1021.5     1.6     SSE   155   3.6      SE   132   9.43    261      -81.6
   11/14/2018 18:50      65.7      62.7       14     14.5      0.00      0.32      66.8     0.29      1021.5     1.7     SSE   163   4.2       S   185   9.43    260      -82.9
   11/14/2018 18:40      70.0      65.7       11     11.7      0.00      0.32      66.8     0.29      1021.5     1.3      SE   145   2.7     SSE   149   9.43    260      -85.4
   11/14/2018 18:30      70.6      69.7       10     11.5      0.00      0.32      66.8     0.29      1021.4     1.6       N     2   4.3     NNE    14   9.43    260      -88.2
   11/14/2018 18:20      71.5      70.3       10     11.0      0.00      0.32      66.7     0.29      1021.4     2.6       N     4   5.3      NE    51   9.43    260      -88.8
   11/14/2018 18:10      71.7      71.2        9     10.2      0.00      0.32      66.7     0.29      1021.4     3.3       N     7   8.0       N     2   9.43    260      -90.6
   11/14/2018 18:00      72.0      71.2        9     10.6      0.00      0.32      66.7     0.29      1021.3     2.2       N     8   4.2      NE    38   9.44    260      -90.8
   11/14/2018 17:50      72.4      71.7        9     10.3      0.00      0.32      66.7     0.29      1021.2     3.2       N   350   8.8       N     9   9.44    260      -91.6
   11/14/2018 17:40      72.3      70.6       10     10.8      0.00      0.32      66.6     0.29      1021.1     3.4     NNW   345   8.0       N   351   9.44    260      -91.2
   11/14/2018 17:30      72.0      70.7       10     11.1      0.00      0.32      66.7     0.29      1021.1     1.9     NNW   335   4.5      NW   313   9.44    260      -92.0
   11/14/2018 17:20      72.5      71.8        9     10.4      0.00      0.32      66.6     0.29      1020.9     1.9     NNW   331   4.1      NW   311   9.45    260      -93.0
   11/14/2018 17:10      72.9      72.2        9     10.5      0.00      0.32      66.6     0.29      1020.9     2.6       N   351   5.5     NNW   344   9.45    260      -94.4
   11/14/2018 17:00      73.5      72.6        9     10.5      0.00      0.32      66.6     0.29      1020.8     2.2       N   352   4.7     ENE    77   9.45    260      -95.2
   11/14/2018 16:50      74.2      73.3        8      9.6      0.00      0.32      66.5     0.29      1020.8     2.1       N    11   5.2     NNE    12   9.45    260      -95.2
   11/14/2018 16:40      74.7      73.9        8      9.0      0.00      0.32      66.5     0.29      1020.8     5.0       N     5   8.9     NNE    28   9.45    260      -93.2
   11/14/2018 16:30      75.2      74.5        8      8.9      0.00      0.32      66.5     0.29      1020.8     5.6     NNE    13  10.0     NNE    22   9.46    260      -90.7
   11/14/2018 16:20      75.8      74.8        8      9.0      0.00      0.32      66.4     0.29      1020.7     6.4       N    11  13.9     NNE    24   9.46    260      -88.4
   11/14/2018 16:10      76.5      75.5        7      8.7      0.00      0.32      66.4     0.29      1020.7     7.4     NNE    12  14.5       N     1   9.46    259      -63.9
   11/14/2018 16:00      76.7      76.1        7      9.1      0.00      0.32      66.4     0.29      1020.7     5.4       N    10  10.7      NW   312   9.47    259      -31.8
   11/14/2018 15:50      77.0      76.2        7      8.8      0.00      0.32      66.3     0.29      1020.7     6.2       N     0  12.7     NNE    16   9.47    259      -10.6
   11/14/2018 15:40      77.1      76.5        7      8.6      0.00      0.32      66.3     0.29      1020.6     6.1       N     9  10.9       N     8   9.47    259       11.8
   11/14/2018 15:30      77.1      76.7        7      8.5      0.00      0.32      66.3     0.29      1020.6     6.6       N     3  13.7       N     3   9.48    259       35.7
   11/14/2018 15:20      77.6      76.9        7      8.5      0.00      0.32      66.3     0.29      1020.6     6.6       N    10  14.7       N   352   9.48    259       58.3
   11/14/2018 15:10      77.6      77.2        7      8.4      0.00      0.32      66.2     0.29      1020.6     5.6       N     2  12.5      NE    37   9.48    259       81.1
   11/14/2018 15:00      78.6      77.2        7      7.9      0.00      0.32      66.2     0.29      1020.8     6.1       N     9  13.5     NNW   342   9.48    259      104.4
   11/14/2018 14:50      78.5      77.6        7      8.3      0.00      0.32      66.2     0.29      1020.8     4.9       N     0  11.5     NNE    31   9.49    259      126.0
   11/14/2018 14:40      78.7      77.8        7      7.8      0.00      0.32      66.1     0.29      1020.9     6.3       N     0  12.2     NNW   344   9.49    259      147.7
   11/14/2018 14:30      78.6      77.9        7      7.8      0.00      0.32      66.1     0.29      1020.9     5.4       N   354  13.5      NW   321   9.49    258      167.9
   11/14/2018 14:20      78.5      77.9        6      7.3      0.00      0.32      66.0     0.29      1020.9     5.9       N     6  13.3     NNW   343   9.50    258      186.7
   11/14/2018 14:10      78.7      77.5        6      6.7      0.00      0.32      66.0     0.29      1021.0     6.0       N   356  11.7     NNW   334   9.50    259      204.9
   11/14/2018 14:00      78.6      77.8        6      6.8      0.00      0.32      66.0     0.29      1021.1     5.6     NNE    13  11.6      NW   320   9.50    259      220.7
   11/14/2018 13:50      78.5      77.9        6      6.7      0.00      0.32      66.0     0.29      1021.1     6.0       N     5  10.1       N   354   9.50    259      237.7
   11/14/2018 13:40      78.8      77.9        6      6.6      0.00      0.32      66.0     0.29      1021.2     6.5       N     6  11.5       N   354   9.51    258      251.5
   11/14/2018 13:30      78.8      77.7        6      7.4      0.00      0.32      65.9     0.29      1021.4     4.8       N     2   9.3      NE    52   9.51    258      265.4
   11/14/2018 13:20      78.3      77.3        6      6.6      0.00      0.32      65.9     0.29      1021.6     5.9       N   359  10.4       N     8   9.51    259      278.5
   11/14/2018 13:10      78.1      77.3        6      6.7      0.00      0.32      65.9     0.29      1021.7     5.1       N   352  10.5     NNE    14   9.51    259      288.0
   11/14/2018 13:00      78.1      77.2        6      6.7      0.00      0.32      65.9     0.29      1021.9     6.3       N     0  11.6     NNE    12   9.51    259      298.9
   11/14/2018 12:50      78.2      77.1        6      7.0      0.00      0.32      65.8     0.29      1022.0     5.1       N     2   8.3       N     1   9.52    259      309.3
   11/14/2018 12:40      78.0      77.3        7      7.6      0.00      0.32      65.8     0.29      1022.3     5.1       N   353  11.1       N     5   9.52    259      317.0
   11/14/2018 12:30      77.6      76.3        7      6.7      0.00      0.32      65.8     0.29      1022.5     4.7       N     6   9.7       N   355   9.52    259      324.8
   11/14/2018 12:20      77.1      76.5        7      7.2      0.00      0.32      65.8     0.29      1022.7     4.6     NNE    25  10.9       N     4   9.52    259      331.6
   11/14/2018 12:10      76.8      76.0        7      6.7      0.00      0.32      65.8     0.29      1023.1     5.2     NNE    20   9.2     NNE    18   9.52    259      336.8
   11/14/2018 12:00      76.5      75.5        7      7.1      0.00      0.32      65.8     0.29      1023.3     4.9       N   360   9.6     NNE    32   9.52    259      343.1
   11/14/2018 11:50      76.8      75.3        7      7.2      0.00      0.32      65.7     0.29      1023.5     5.6     NNE    12  11.2     NNE    32   9.52    259      345.6
   11/14/2018 11:40      76.0      75.4        7      6.8      0.00      0.32      65.8     0.29      1023.7     5.7       N   355  10.6       N   353   9.53    259      347.1
   11/14/2018 11:30      76.0      75.1        7      7.1      0.00      0.32      65.8     0.28      1024.0     5.3       N     0   9.3       N   351   9.53    259      346.6
   11/14/2018 11:20      76.0      75.3        7      7.7      0.00      0.32      65.7     0.29      1024.2     4.6     NNE    12   8.7     NNE    24   9.53    259      344.6
   11/14/2018 11:10      75.7      74.6        7      7.2      0.00      0.32      65.7     0.28      1024.4     4.8       N     7   8.6       N   354   9.53    259      343.5
   11/14/2018 11:00      76.2      75.2        7      7.9      0.00      0.32      65.8     0.28      1024.6     3.3       N   356   9.7     NNE    28   9.53    259      338.0
   11/14/2018 10:50      75.6      74.4        8      8.6      0.00      0.32      65.8     0.28      1024.9     1.2     NNW   342   2.9      SE   145   9.53    259      332.5
   11/14/2018 10:40      75.3      74.3        8      9.1      0.00      0.32      65.8     0.28      1025.0     1.5       N   359   4.7     NNE    20   9.53    259      327.6
   11/14/2018 10:30      74.6      73.5        8      8.3      0.00      0.32      65.8     0.28      1025.3     1.5     ENE    63   3.4     ESE   104   9.53    259      323.4
   11/14/2018 10:20      73.8      72.1        8      8.8      0.00      0.32      65.8     0.29      1025.5     1.2       N    11   3.1       N   352   9.54    259      314.9
   11/14/2018 10:10      73.1      72.0        8      9.1      0.00      0.32      65.9     0.29      1025.6     1.9       E    88   4.1       S   171   9.54    259      306.9
   11/14/2018 10:00      72.8      71.7        8      8.2      0.00      0.32      65.9     0.28      1025.7     1.0     SSW   194   2.2     SSW   197   9.54    259      297.4
   11/14/2018 09:50      72.3      71.3        9      8.8      0.00      0.32      66.0     0.29      1025.7     1.2     ENE    59   3.6     ESE   113   9.54    259      285.9
   11/14/2018 09:40      71.3      70.6        9      9.3      0.00      0.32      65.9     0.29      1025.8     1.4       E    79   3.2     ESE   113   9.54    259      274.3
   11/14/2018 09:30      71.4      70.6        9      9.6      0.00      0.32      65.9     0.29      1025.8     1.8       E    92   3.8      NE    35   9.54    259      260.9
   11/14/2018 09:20      71.3      69.7        9      9.8      0.00      0.32      65.9     0.29      1025.8     1.1     ENE    61   3.2      NE    48   9.54    259      245.9
   11/14/2018 09:10      70.0      69.3       10     10.0      0.00      0.32      66.0     0.29      1025.8     1.9     NNE    32   4.0      NE    47   9.54    259      232.4
   11/14/2018 09:00      69.7      68.6       10     11.1      0.00      0.32      66.0     0.29      1025.8     1.8      NE    51   4.0       N    10   9.54    259      217.3
   11/14/2018 08:50      68.9      67.8        9      8.1      0.00      0.32      66.0     0.29      1025.8     3.4      NE    37   8.5     NNE    27   9.54    259      203.4
   11/14/2018 08:40      68.9      67.9        9      7.5      0.00      0.32      66.0     0.29      1025.7     4.1      NE    38   8.9      NE    42   9.54    307      188.9
   11/14/2018 08:30      68.8      67.8        9      8.1      0.00      0.32      66.0     0.29      1025.7     1.7     ESE   105   3.3       E    90   9.55    327      170.5
   11/14/2018 08:20      68.0      66.9        9      6.7      0.00      0.32      66.1     0.29      1025.6     2.5     ENE    65   5.5     NNE    23   9.55    329      148.9
   11/14/2018 08:10      67.0      66.3        9      5.8      0.00      0.32      66.1     0.28      1025.6     2.8     NNE    31   4.7       N     8   9.55    372      114.0
   11/14/2018 08:00      66.7      66.3        9      5.7      0.00      0.32      66.1     0.28      1025.6     3.3      NE    39   9.0      NW   318   9.37    260       94.4
   11/14/2018 07:50      66.5      65.9        9      5.2      0.00      0.32      66.1     0.28      1025.5     2.6      NE    36   6.0       N   353   9.37    260       74.0
   11/14/2018 07:40      66.0      65.3        9      5.1      0.00      0.32      66.1     0.28      1025.3     2.7      NE    46   6.7       N     4   9.37    260       54.7
   11/14/2018 07:30      65.5      63.7        9      4.9      0.00      0.32      66.1     0.28      1025.2     1.9     ENE    61   4.8       N     5   9.37    260       -6.1
   11/14/2018 07:20      63.9      62.8       10      4.9      0.00      0.32      66.1     0.28      1025.1     2.0       S   188   4.0     ENE    72   9.37    260      -63.2
   11/14/2018 07:10      62.9      60.7       10      4.8      0.00      0.32      66.1     0.28      1025.0     1.4      SW   225   5.0      SW   232   9.37    260      -61.3
   11/14/2018 07:00      60.8      59.1       12      6.6      0.00      0.32      66.1     0.28      1025.0     2.0     SSE   149   4.7       N     4   9.37    261      -66.0
   11/14/2018 06:50      61.6      60.5       10      4.2      0.00      0.32      66.1     0.28      1024.9     2.1      SE   145   6.4       S   188   9.37    260      -73.2
   11/14/2018 06:40      61.2      59.4       11      5.3      0.00      0.32      66.1     0.28      1024.8     1.7      SE   144   4.3      NW   325   9.37    260      -76.9
   11/14/2018 06:30      62.4      59.5       10      4.7      0.00      0.32      66.2     0.28      1024.7     2.8      SE   129   5.4       S   184   9.37    260      -80.7
   11/14/2018 06:20      62.5      61.8        9      3.5      0.00      0.32      66.1     0.28      1024.6     1.5     ENE    76   4.3     SSW   195   9.38    260      -83.6
   11/14/2018 06:10      63.3      61.9        9      3.3      0.00      0.32      66.2     0.28      1024.6     2.4      SE   142   5.8       S   171   9.38    260      -84.0
   11/14/2018 06:00      63.5      62.7        9      3.2      0.00      0.32      66.1     0.29      1024.5     2.5       E    90   7.9       N   353   9.38    260      -83.0
   11/14/2018 05:50      63.1      62.4        9      3.1      0.00      0.32      66.2     0.28      1024.6     2.2     ESE   115   7.7      SW   220   9.38    260      -78.8
   11/14/2018 05:40      63.9      62.5        9      3.2      0.00      0.32      66.1     0.29      1024.6     1.8      SE   135   5.3     NNE    22   9.38    260      -78.2
   11/14/2018 05:30      63.9      63.3        9      3.1      0.00      0.32      66.2     0.29      1024.7     2.1     NNE    34   5.1      NE    48   9.38    260      -79.0
   11/14/2018 05:20      63.7      62.9        9      2.7      0.00      0.32      66.2     0.28      1024.7     1.6     NNW   346   4.7      NE    46   9.38    260      -75.1
   11/14/2018 05:10      63.1      62.3        9      3.5      0.00      0.32      66.2     0.28      1024.7     2.2     NNE    17   7.6      SW   234   9.38    260      -71.3
   11/14/2018 05:00      63.7      62.3       10      4.4      0.00      0.32      66.2     0.28      1024.7     2.1     SSE   161   5.3       S   191   9.39    260      -66.8
   11/14/2018 04:50      64.4      63.5        9      3.0      0.00      0.32      66.2     0.29      1024.6     2.7      SE   136   5.2      SE   138   9.39    260      -58.6
   11/14/2018 04:40      64.3      63.9        8      2.4      0.00      0.32      66.2     0.29      1024.5     2.4     SSE   151   5.9       S   186   9.39    260      -51.7
   11/14/2018 04:30      64.7      63.9        8      2.3      0.00      0.32      66.2     0.28      1024.5     1.3     ENE    60   5.4      NW   313   9.39    260      -50.7
   11/14/2018 04:20      64.8      64.3        8      2.1      0.00      0.32      66.2     0.28      1024.7     1.5     ENE    64   4.6       N     7   9.39    260      -51.5
   11/14/2018 04:10      64.9      63.5        8      1.9      0.00      0.32      66.2     0.28      1024.7     2.0     NNE    12   6.3     NNE    31   9.39    260      -53.9
   11/14/2018 04:00      64.5      63.7        8      2.1      0.00      0.32      66.3     0.28      1024.6     1.4      SE   144   5.1     SSW   201   9.39    260      -57.1
   11/14/2018 03:50      64.5      63.9        8      1.7      0.00      0.32      66.2     0.29      1024.7     2.1      SE   141   7.5     WSW   246   9.39    260      -57.4
   11/14/2018 03:40      64.8      64.2        8      1.6      0.00      0.32      66.2     0.28      1024.8     1.4     NNE    33   3.8      NE    55   9.39    260      -59.3
   11/14/2018 03:30      64.9      64.4        8      1.3      0.00      0.32      66.2     0.28      1024.8     3.3       N     8   8.9       N     2   9.40    260      -63.0
   11/14/2018 03:20      64.7      64.2        8      1.2      0.00      0.32      66.2     0.28      1024.8     4.1     NNE    18  10.7     NNE    15   9.40    260      -66.7
   11/14/2018 03:10      65.0      64.3        8      1.4      0.00      0.32      66.2     0.29      1024.8     3.6     NNE    27   8.9     NNE    14   9.40    260      -65.3
   11/14/2018 03:00      65.1      64.7        8      1.5      0.00      0.32      66.2     0.29      1024.9     3.5     NNE    13   8.5     NNE    33   9.40    260      -56.8
   11/14/2018 02:50      65.3      64.8        8      1.4      0.00      0.32      66.2     0.28      1024.9     4.7       N    10  10.1     NNE    32   9.40    260      -52.8
   11/14/2018 02:40      65.2      64.8        8      1.3      0.00      0.32      66.2     0.28      1024.9     5.5     NNE    17  11.0     NNW   346   9.40    260      -54.0
   11/14/2018 02:30      65.1      64.5        8      1.3      0.00      0.32      66.2     0.29      1024.9     5.0     NNE    15  12.2     NNE    32   9.40    260      -56.8
   11/14/2018 02:20      65.0      64.5        8      1.4      0.00      0.32      66.2     0.29      1025.0     4.6     NNE    16  10.2      NE    41   9.40    260      -60.7
   11/14/2018 02:10      65.2      64.8        8      1.4      0.00      0.32      66.2     0.28      1025.2     4.6     NNE    12   8.8       N   354   9.41    260      -65.0
   11/14/2018 02:00      65.2      64.8        8      1.3      0.00      0.32      66.2     0.28      1025.2     5.9     NNE    14  11.9       N     2   9.41    260      -67.8
   11/14/2018 01:50      65.5      64.8        8      1.4      0.00      0.32      66.2     0.28      1025.2     4.6     NNE    15  12.9     NNE    33   9.41    260      -67.9
   11/14/2018 01:40      65.5      65.0        8      1.5      0.00      0.32      66.2     0.29      1025.4     4.1     NNE    19   7.7       N     0   9.41    260      -68.0
   11/14/2018 01:30      65.6      65.1        8      1.5      0.00      0.32      66.2     0.29      1025.5     3.5     NNE    25   8.5       N    11   9.41    260      -66.1
   11/14/2018 01:20      65.6      65.2        8      1.2      0.00      0.32      66.2     0.29      1025.5     3.4     NNE    28   7.8     NNE    26   9.41    260      -61.1
   11/14/2018 01:10      65.5      65.0        8      1.4      0.00      0.32      66.2     0.29      1025.3     3.2     NNE    30   6.0       N     8   9.41    260      -53.2
   11/14/2018 01:00      65.3      64.8        8      1.3      0.00      0.32      66.3     0.28      1025.3     3.2     NNE    22   7.2     NNE    13   9.41    260      -50.8
   11/14/2018 00:50      65.6      64.8        8      1.5      0.00      0.32      66.2     0.28      1025.4     2.7     NNE    20   7.3     NNE    30   9.42    260      -53.3
   11/14/2018 00:40      65.7      65.2        8      1.4      0.00      0.32      66.2     0.29      1025.6     3.0     NNE    16   7.2      NE    36   9.42    260      -54.9
   11/14/2018 00:30      65.9      65.3        8      1.4      0.00      0.32      66.2     0.29      1025.5     2.6     NNE    16   6.4     NNE    22   9.42    260      -53.4
   11/14/2018 00:20      65.7      65.2        8      1.4      0.00      0.32      66.2     0.28      1025.4     3.6     NNE    12   9.8      NE    56   9.42    260      -52.7
   11/14/2018 00:10      65.4      65.1        8      1.2      0.00      0.32      66.3     0.28      1025.5     4.9     NNE    13  10.9       N     5   9.42    260      -52.8
   11/14/2018 00:00      65.7      65.2        7      1.0      0.00      0.32      66.3     0.28      1025.4     4.9     NNE    12   9.6     NNE    19   9.42    260      -53.1
   11/13/2018 23:50      65.7      65.1        7      1.0      0.00      0.32      66.3     0.29      1025.4     6.0     NNE    18  11.6     NNE    30   9.42    260      -54.4
   11/13/2018 23:40      65.7      65.2        7      1.0      0.00      0.32      66.3     0.28      1025.5     5.2     NNE    15  10.1       N     0   9.42    260      -57.3
   11/13/2018 23:30      65.7      65.3        7      0.9      0.00      0.32      66.3     0.29      1025.5     7.1       N    10  13.7     NNE    21   9.43    260      -60.6
   11/13/2018 23:20      65.9      65.1        7      1.1      0.00      0.32      66.2     0.28      1025.5     6.2     NNE    14  13.4     NNE    25   9.43    260      -64.5
   11/13/2018 23:10      66.0      65.5        7      0.9      0.00      0.32      66.3     0.28      1025.6     7.5       N     7  12.4       N   355   9.43    260      -66.1
   11/13/2018 23:00      66.2      65.7        7      0.9      0.00      0.32      66.2     0.29      1025.7     7.4     NNE    13  14.3     NNE    29   9.43    260      -67.9
   11/13/2018 22:50      66.2      65.7        7      1.0      0.00      0.32      66.3     0.28      1025.8     5.4       N     5  13.0       N     2   9.43    260      -72.3
   11/13/2018 22:40      66.4      65.9        7      0.6      0.00      0.32      66.3     0.29      1025.8     6.3       N     8  15.2      NE    42   9.43    260      -75.6
   11/13/2018 22:30      66.5      66.0        7      0.7      0.00      0.32      66.3     0.29      1025.8     5.9       N     5  12.2     NNW   332   9.44    260      -79.6
   11/13/2018 22:20      66.7      66.1        7      0.8      0.00      0.32      66.2     0.28      1025.7     4.9       N     5  11.7     NNE    27   9.44    260      -83.2
   11/13/2018 22:10      67.0      66.4        7      0.8      0.00      0.32      66.2     0.29      1025.6     6.1       N     4  12.6     NNE    19   9.44    260      -87.1
   11/13/2018 22:00      67.2      66.7        7      0.8      0.00      0.32      66.2     0.29      1025.6     5.0       N     6  10.1     NNW   327   9.44    260      -86.9
   11/13/2018 21:50      67.2      66.8        7      0.8      0.00      0.32      66.2     0.28      1025.5     5.4       N    11   9.6      NE    40   9.44    260      -85.4
   11/13/2018 21:40      67.2      66.7        7      1.0      0.00      0.32      66.2     0.29      1025.5     5.0       N     9  13.2     NNW   342   9.44    260      -82.7
   11/13/2018 21:30      67.1      66.7        7      1.3      0.00      0.32      66.2     0.29      1025.4     3.5     NNE    15  12.3     NNE    15   9.44    260      -81.0
   11/13/2018 21:20      67.2      66.6        7      1.6      0.00      0.32      66.2     0.29      1025.3     3.7       N     0   8.5     NNW   346   9.45    260      -81.9
   11/13/2018 21:10      67.3      66.6        7      1.7      0.00      0.32      66.3     0.28      1025.3     3.8     NNW   344   8.0     NNW   327   9.45    260      -81.3
   11/13/2018 21:00      67.1      66.7        7      1.0      0.00      0.32      66.3     0.28      1025.3     4.7       N   353  10.4       N   353   9.45    260      -77.7
   11/13/2018 20:50      67.2      66.7        7      0.9      0.00      0.32      66.2     0.29      1025.2     4.7       N   354  10.2     NNE    17   9.45    260      -76.2
   11/13/2018 20:40      67.3      66.8        7      0.7      0.00      0.32      66.2     0.28      1025.3     5.3       N   358   9.8       N    11   9.45    260      -75.8
   11/13/2018 20:30      67.4      67.0        7      0.6      0.00      0.32      66.2     0.29      1025.2     5.5       N    10  14.5       N   355   9.45    260      -74.2
   11/13/2018 20:20      67.4      66.7        7      0.3      0.00      0.32      66.2     0.28      1025.3     6.2       N    10  14.5       N    10   9.45    260      -73.8
   11/13/2018 20:10      67.1      66.6        7      0.0      0.00      0.32      66.2     0.28      1025.4     4.6       N     2  10.2     NNW   343   9.46    260      -73.8
   11/13/2018 20:00      67.0      66.5        7     -0.0      0.00      0.32      66.2     0.28      1025.5     6.7       N   360  15.3     NNW   331   9.46    260      -75.0
   11/13/2018 19:50      67.2      66.5        7      0.1      0.00      0.32      66.2     0.28      1025.3     5.3       N   359  11.3     NNW   341   9.46    260      -77.4
   11/13/2018 19:40      67.1      66.7        7      0.0      0.00      0.32      66.1     0.28      1025.4     6.0       N     7   9.5       N     6   9.46    260      -79.0
   11/13/2018 19:30      67.1      66.7        7     -0.0      0.00      0.32      66.2     0.28      1025.5     3.6     NNE    12   8.0     NNW   337   9.46    260      -80.8
   11/13/2018 19:20      67.1      66.7        7     -0.4      0.00      0.32      66.1     0.29      1025.4     5.2       N     5   9.1       N     0   9.47    260      -83.2
   11/13/2018 19:10      67.0      66.7        7     -0.2      0.00      0.32      66.1     0.29      1025.2     4.1     NNE    26  12.8       N     4   9.47    260      -86.7
   11/13/2018 19:00      67.2      66.7        7     -0.3      0.00      0.32      66.0     0.29      1025.2     4.5     NNE    18   7.9       N     3   9.47    260      -89.3
   11/13/2018 18:50      67.5      66.7        7     -0.5      0.00      0.32      66.0     0.28      1025.2     4.7     NNE    14  10.0      NE    44   9.47    260      -91.8
   11/13/2018 18:40      67.4      67.0        7     -0.5      0.00      0.32      66.0     0.28      1025.2     5.5     NNE    11  11.9      NE    40   9.47    260      -93.0
   11/13/2018 18:30      67.6      67.1        6     -0.6      0.00      0.32      66.0     0.29      1025.3     5.4       N     4  11.8     NNE    20   9.47    260      -93.7
   11/13/2018 18:20      67.9      67.3        6     -0.9      0.00      0.32      66.0     0.29      1025.3     6.8       N     0  11.7       N     0   9.48    260      -94.7
   11/13/2018 18:10      67.8      67.3        6     -1.3      0.00      0.32      66.0     0.28      1025.2     8.1       N   360  15.0       N     3   9.48    260      -95.0
   11/13/2018 18:00      67.9      67.4        6     -1.8      0.00      0.32      65.9     0.28      1025.2     7.5       N     6  15.4       N     5   9.48    259      -95.1
   11/13/2018 17:50      68.0      67.6        6     -2.1      0.00      0.32      65.9     0.28      1025.3     7.5       N     5  13.1     NNE    22   9.48    260      -95.3
   11/13/2018 17:40      68.3      67.7        6     -2.2      0.00      0.32      65.9     0.28      1025.3     7.7     NNE    12  17.0     NNE    30   9.49    260      -95.7
   11/13/2018 17:30      68.4      67.8        6     -2.0      0.00      0.32      65.9     0.29      1025.3     7.4     NNE    11  17.6      NE    38   9.49    260      -95.8
   11/13/2018 17:20      68.5      68.0        6     -1.9      0.00      0.32      65.8     0.28      1025.2     7.9     NNE    14  15.6     NNE    20   9.49    260      -96.0
   11/13/2018 17:10      68.7      68.2        6     -1.6      0.00      0.32      65.8     0.28      1025.2     7.6     NNE    14  18.2       N     9   9.50    259      -95.7
   11/13/2018 17:00      68.8      68.3        6     -1.5      0.00      0.32      65.8     0.28      1025.4     7.2     NNE    12  14.4      NE    35   9.50    260      -95.1
   11/13/2018 16:50      69.0      68.5        6     -1.3      0.00      0.32      65.7     0.28      1025.5     6.2       N     8  12.8     NNE    18   9.50    260      -90.3
   11/13/2018 16:40      69.2      68.6        6     -1.6      0.00      0.32      65.7     0.28      1025.5     6.1     NNE    12  14.9      NW   324   9.51    260      -83.0
   11/13/2018 16:30      69.5      68.8        6     -1.7      0.00      0.32      65.7     0.28      1025.5     6.5       N     8  13.1     NNE    21   9.51    259      -77.5
   11/13/2018 16:20      70.3      69.3        6     -1.4      0.00      0.32      65.7     0.28      1025.4     7.4       N     8  14.5       N     5   9.51    259      -75.8
   11/13/2018 16:10      70.6      70.0        6     -0.8      0.00      0.32      65.6     0.28      1025.5     4.7     NNE    13  10.5     NNE    33   9.51    259      -51.7
   11/13/2018 16:00      71.2      70.2        6     -0.6      0.00      0.32      65.6     0.28      1025.5     6.5     NNE    14  12.0       N     2   9.52    259      -52.8
   11/13/2018 15:50      71.1      70.7        6     -1.0      0.00      0.32      65.6     0.28      1025.4     7.5       N     8  13.8     NNW   343   9.52    259        7.1
   11/13/2018 15:40      71.7      70.8        5     -1.5      0.00      0.32      65.5     0.28      1025.6     9.1       N    10  13.6       N     4   9.53    259       11.1
   11/13/2018 15:30      72.0      71.2        5     -1.6      0.00      0.32      65.5     0.28      1025.7     7.6     NNE    18  17.3     NNE    15   9.53    259       23.4
   11/13/2018 15:20      72.1      71.4        5     -0.9      0.00      0.32      65.5     0.28      1025.7     7.5     NNE    15  15.3     NNE    32   9.53    259       81.6
   11/13/2018 15:10      72.3      71.6        6      0.0      0.00      0.32      65.5     0.28      1025.8     8.6     NNE    14  22.0     NNE    17   9.54    259      127.1
   11/13/2018 15:00      72.0      71.5        6      0.2      0.00      0.32      65.4     0.28      1025.8     7.0     NNE    20  14.5       N     7   9.54    259      118.2
   11/13/2018 14:50      71.9      71.0        6      0.5      0.00      0.32      65.4     0.28      1025.8     7.6     NNE    15  12.6     NNE    19   9.54    259      128.6
   11/13/2018 14:40      71.7      71.0        6      0.5      0.00      0.32      65.3     0.28      1025.7     8.9       N     4  17.5     NNW   348   9.55    259       87.4
   11/13/2018 14:30      72.0      71.4        6      1.2      0.00      0.32      65.3     0.28      1025.7     6.9     NNE    18  17.3      NE    46   9.55    259      114.5
   11/13/2018 14:20      71.8      71.4        6      1.2      0.00      0.32      65.3     0.28      1025.7     8.7     NNE    15  15.2     NNE    19   9.55    259      178.6
   11/13/2018 14:10      72.0      71.3        6      1.0      0.00      0.32      65.2     0.28      1025.7     8.7     NNE    14  16.1     NNW   347   9.56    259      181.0
   11/13/2018 14:00      72.5      71.7        6      0.7      0.00      0.32      65.2     0.28      1025.7     8.8     NNE    12  16.5       N     7   9.56    259      181.7
   11/13/2018 13:50      73.1      72.1        6      1.0      0.00      0.32      65.2     0.28      1025.8     6.5       N    10  13.1     NNE    18   9.56    259      223.3
   11/13/2018 13:40      72.3      71.6        6      0.2      0.00      0.32      65.2     0.28      1025.9     8.6       N    11  19.7     ENE    59   9.57    259      265.3
   11/13/2018 13:30      72.0      71.4        6      0.7      0.00      0.32      65.1     0.28      1025.9     7.2       N     9  17.2     NNW   344   9.57    259      120.0
   11/13/2018 13:20      72.4      71.7        6      0.7      0.00      0.32      65.1     0.28      1026.1     7.2       N     5  14.3     NNE    29   9.57    259       94.8
   11/13/2018 13:10      73.5      72.0        6      1.1      0.00      0.32      65.1     0.28      1026.1     8.9       N     8  15.3       N    10   9.57    259      181.6
   11/13/2018 13:00      73.4      72.5        6      1.8      0.00      0.32      65.1     0.28      1026.1     7.6       N     5  13.1       N     0   9.58    259      323.8
   11/13/2018 12:50      73.5      72.6        6      2.1      0.00      0.32      65.0     0.28      1026.3     8.9     NNE    16  13.9      NE    45   9.58    259      350.1
   11/13/2018 12:40      73.3      72.4        6      2.2      0.00      0.32      65.0     0.28      1026.5     8.2       N     8  15.1       N   354   9.58    259      365.4
   11/13/2018 12:30      72.9      71.9        6      2.1      0.00      0.32      65.0     0.28      1026.7    10.2       N   360  15.7      NE    47   9.58    259      388.3
   11/13/2018 12:20      72.8      71.8        6      2.7      0.00      0.32      65.0     0.28      1026.9     7.6       N    11  14.5     NNW   347   9.58    259      354.9
   11/13/2018 12:10      72.7      71.7        6      2.6      0.00      0.32      65.0     0.28      1027.0     8.6       N    10  15.8     NNW   340   9.59    259      390.3
   11/13/2018 12:00      72.9      72.3        6      2.2      0.00      0.32      65.0     0.28      1027.3     7.2     NNE    22  13.7      NE    37   9.59    259      369.0
   11/13/2018 11:50      72.6      71.7        6      2.3      0.00      0.32      65.0     0.28      1027.4     8.5       N     3  17.9       N     2   9.59    259      368.1
   11/13/2018 11:40      72.3      71.6        6      1.8      0.00      0.32      65.0     0.28      1027.5     8.9     NNE    11  17.5       N     1   9.59    259      368.9
   11/13/2018 11:30      72.7      71.7        6      1.2      0.00      0.32      65.0     0.28      1027.5     8.7       N     7  14.3     NNE    17   9.59    259      361.0
   11/13/2018 11:20      72.5      71.7        6      0.9      0.00      0.32      65.0     0.28      1027.5     8.3       N     7  14.0     NNE    16   9.60    259      360.9
   11/13/2018 11:10      72.0      71.4        6      0.8      0.00      0.32      65.0     0.28      1027.6     9.1       N     5  18.3       N   355   9.60    259      369.9
   11/13/2018 11:00      71.6      70.8        6      0.7      0.00      0.32      65.0     0.28      1027.7     9.2       N     0  16.7     NNE    26   9.60    259      364.2
   11/13/2018 10:50      71.1      70.5        6      1.0      0.00      0.32      65.0     0.28      1027.7     9.3       N     7  19.0       N     5   9.60    259      357.0
   11/13/2018 10:40      70.9      70.1        6      1.3      0.00      0.32      65.0     0.28      1027.9     7.2     NNE    14  14.5       N   355   9.60    259      344.6
   11/13/2018 10:30      70.4      69.6        6      1.1      0.00      0.32      65.0     0.28      1028.0     8.8       N     7  15.5       N   350   9.60    259      330.1
   11/13/2018 10:20      70.1      69.3        6      1.0      0.00      0.32      65.1     0.28      1027.9     9.0       N     8  18.1      NE    42   9.61    259      327.1
   11/13/2018 10:10      69.8      69.2        6      0.7      0.00      0.32      65.1     0.28      1028.0    10.2     NNE    12  17.2     WNW   287   9.61    259      314.0
   11/13/2018 10:00      69.5      68.7        6      0.6      0.00      0.32      65.1     0.28      1028.1     9.9       N     7  16.7       N   355   9.61    259      299.6
   11/13/2018 09:50      69.1      68.5        6      0.4      0.00      0.32      65.1     0.28      1028.2     9.3       N    11  20.6     NNE    18   9.61    259      295.7
   11/13/2018 09:40      69.2      68.5        7      1.2      0.00      0.32      65.1     0.28      1028.2     7.6     NNE    18  17.7     NNE    26   9.62    259      270.6
   11/13/2018 09:30      69.0      68.3        7      1.6      0.00      0.32      65.1     0.28      1028.3     5.0     NNE    21  12.6     NNW   329   9.61    259      262.4
   11/13/2018 09:20      68.5      67.8        7      2.0      0.00      0.32      65.2     0.28      1028.4     5.3     NNE    18  12.9     NNE    18   9.61    259      237.4
   11/13/2018 09:10      68.2      67.6        7      2.6      0.00      0.32      65.2     0.28      1028.4     4.9       N    11  14.2     NNE    13   9.62    259      220.4
   11/13/2018 09:00      67.8      67.3        7      2.4      0.00      0.32      65.2     0.28      1028.4     4.9     NNE    16  10.6     NNE    14   9.62    259      195.2
   11/13/2018 08:50      67.5      66.5        7      2.2      0.00      0.32      65.3     0.28      1028.4     3.9     NNE    29  10.5     ENE    65   9.62    259      191.1
   11/13/2018 08:40      66.7      65.7        8      2.3      0.00      0.32      65.3     0.28      1028.4     3.8     NNE    15   9.7     NNE    24   9.62    259      159.5
   11/13/2018 08:30      65.8      64.6        8      2.3      0.00      0.32      65.4     0.28      1028.3     4.8     NNE    22  12.9       N     9   9.62    260      165.5
   11/13/2018 08:20      64.7      63.4        8      2.6      0.00      0.32      65.3     0.28      1028.3     4.8      NE    36   9.8      NE    38   9.62    260      162.7
   11/13/2018 08:10      63.5      62.8        9      2.3      0.00      0.32      65.4     0.28      1028.3     4.5     NNE    26   9.7     NNE    22   9.62    260      103.6
   11/13/2018 08:00      63.2      62.4        9      2.2      0.00      0.32      65.4     0.28      1028.3     4.1     NNE    26   9.2     NNE    11   9.62    260       72.9
   11/13/2018 07:50      62.6      61.3        9      2.3      0.00      0.32      65.4     0.28      1028.3     4.0      NE    55   9.3     NNE    33   8.71    260       77.2
   11/13/2018 07:40      61.7      61.0       10      3.7      0.00      0.32      65.4     0.28      1028.3     2.4     ESE   116   5.0      SE   127   8.71    260       73.3
   11/13/2018 07:30      61.3      59.6        9      2.1      0.00      0.32      65.5     0.28      1028.2     1.1       S   172   3.9     WNW   298   8.71    260       11.7
   11/13/2018 07:20      60.5      58.3        9      1.5      0.00      0.32      65.5     0.28      1028.1     3.4      SE   128   6.4      NE    56   8.71    260      -53.5
   11/13/2018 07:10      59.2      57.9        9      0.9      0.00      0.32      65.5     0.28      1028.0     2.4       S   186   4.5     WSW   239   8.71    261      -55.0
   11/13/2018 07:00      58.6      58.1        9      0.4      0.00      0.32      65.5     0.28      1028.0     1.4     ESE   110   5.4      SE   133   8.71    261      -61.9
   11/13/2018 06:50      58.3      57.6       10      0.6      0.00      0.32      65.5     0.28      1027.9     1.3     NNE    29   4.9      NE    48   8.71    261      -65.4
   11/13/2018 06:40      57.8      55.5       11      1.6      0.00      0.32      65.5     0.28      1027.9     2.1     ESE   121   4.6     NNE    13   8.71    261      -69.0
   11/13/2018 06:30      57.6      55.7       11      2.1      0.00      0.32      65.6     0.28      1027.7     1.8      SE   145   4.4       S   178   8.71    261      -73.6
   11/13/2018 06:20      57.6      56.0       10      1.5      0.00      0.32      65.6     0.28      1027.7     2.6       S   187   5.3     SSW   199   8.71    261      -77.0
   11/13/2018 06:10      57.4      56.0       11      2.1      0.00      0.32      65.6     0.28      1027.6     1.8     SSE   155   4.2     SSE   151   8.71    261      -78.6
   11/13/2018 06:00      57.8      57.0       10      1.5      0.00      0.32      65.6     0.28      1027.5     2.7      SE   129   5.2     SSE   150   8.71    261      -79.3
   11/13/2018 05:50      58.1      56.7       10      1.2      0.00      0.32      65.6     0.28      1027.6     1.6     ESE   118   5.3     SSE   154   8.71    261      -78.5
   11/13/2018 05:40      57.9      56.0       10      1.0      0.00      0.32      65.6     0.28      1027.6     1.5       S   189   3.7     SSW   209   8.71    261      -79.0
   11/13/2018 05:30      56.2      54.9       11      1.8      0.00      0.32      65.7     0.28      1027.6     2.2     SSE   161   3.7     SSW   212   8.72    261      -76.8
   11/13/2018 05:20      56.3      53.0       12      2.4      0.00      0.32      65.7     0.28      1027.6     2.3     SSE   161   6.3       S   187   8.72    261      -75.0
   11/13/2018 05:10      55.9      54.6       11      1.7      0.00      0.32      65.6     0.28      1027.5     1.5       S   186   2.9     SSW   212   8.72    261      -73.9
   11/13/2018 05:00      55.7      54.6       11      2.2      0.00      0.32      65.7     0.28      1027.6     0.9     SSE   162   3.6      SE   127   8.72    261      -75.0
   11/13/2018 04:50      54.9      53.6       12      3.2      0.00      0.32      65.7     0.28      1027.5     1.1       S   174   3.0     SSE   149   8.72    261      -74.7
   11/13/2018 04:40      54.3      53.0       13      4.2      0.00      0.32      65.7     0.28      1027.5     2.2      SE   142   4.6      SE   140   8.72    261      -73.7
   11/13/2018 04:30      54.4      52.9       12      2.6      0.00      0.32      65.8     0.28      1027.3     0.9     SSE   153   2.9      SE   141   8.72    261      -71.2
   11/13/2018 04:20      53.0      51.8       13      3.3      0.00      0.32      65.8     0.28      1027.3     0.9     SSE   157   2.1      SE   141   8.72    261      -69.1
   11/13/2018 04:10      52.9      52.2       14      4.4      0.00      0.32      65.8     0.28      1027.5     0.8      SE   136   2.5     SSE   155   8.72    261      -71.6
   11/13/2018 04:00      53.9      52.2       13      4.1      0.00      0.32      65.8     0.28      1027.5     2.1     SSE   156   5.3       S   191   8.72    261      -74.1
   11/13/2018 03:50      54.4      52.2       14      4.5      0.00      0.32      65.8     0.28      1027.4     2.4     SSE   162   4.5       S   187   8.72    261      -74.0
   11/13/2018 03:40      54.6      51.7       13      2.9      0.00      0.32      65.8     0.28      1027.3     2.6       S   173   6.7     SSW   204   8.72    261      -74.3
   11/13/2018 03:30      54.7      52.0       13      3.6      0.00      0.32      65.8     0.28      1027.2     1.6      SE   145   3.4     SSE   146   8.72    261      -77.2
   11/13/2018 03:20      56.5      54.0       11      2.2      0.00      0.32      65.8     0.28      1027.1     1.7     SSE   147   3.9       S   191   8.73    261      -77.5
   11/13/2018 03:10      57.5      55.9       10      1.5      0.00      0.32      65.8     0.28      1027.2     3.4       S   184   6.5       S   187   8.73    260      -78.7
   11/13/2018 03:00      57.3      55.3       11      1.6      0.00      0.32      65.9     0.28      1027.1     2.9     SSE   157   5.5       S   189   8.73    260      -78.9
   11/13/2018 02:50      57.5      56.0       10      1.4      0.00      0.32      65.9     0.28      1027.1     2.2     SSE   167   4.3       S   182   8.73    261      -78.1
   11/13/2018 02:40      58.3      56.4       10      1.0      0.00      0.32      65.9     0.28      1027.1     1.9      SE   141   3.7      SE   133   8.73    261      -79.9
   11/13/2018 02:30      59.7      57.8        9     -0.8      0.00      0.32      65.9     0.28      1027.0     1.7       S   172   3.6       S   174   8.73    260      -81.2
   11/13/2018 02:20      59.5      58.5        9     -1.0      0.00      0.32      65.9     0.28      1026.9     1.6      SE   138   3.3       S   176   8.73    261      -82.0
   11/13/2018 02:10      59.1      58.4        9     -0.8      0.00      0.32      65.9     0.28      1027.0     1.1     ENE    67   3.6      NE    45   8.73    260      -82.9
   11/13/2018 02:00      60.2      58.3        9     -0.4      0.00      0.32      65.9     0.28      1027.0     0.6     ENE    71   3.8      NW   325   8.73    261      -82.9
   11/13/2018 01:50      60.8      59.8        8     -0.8      0.00      0.32      65.9     0.28      1027.2     1.1     NNE    31   3.2       E    86   8.73    260      -84.8
   11/13/2018 01:40      60.7      59.8        8     -0.5      0.00      0.32      65.9     0.28      1027.3     2.4     ESE   104   5.3     SSE   154   8.73    260      -86.9
   11/13/2018 01:30      60.9      59.9        8     -0.5      0.00      0.32      66.0     0.29      1027.4     1.5      SE   124   4.4      SE   146   8.73    260      -86.8
   11/13/2018 01:20      61.2      60.6        8     -1.2      0.00      0.32      65.9     0.28      1027.3     1.8     ESE   118   6.2      NE    36   8.74    260      -87.1
   11/13/2018 01:10      61.0      59.7        8     -1.3      0.00      0.32      65.9     0.28      1027.3     2.1       E    95   6.0     SSE   168   8.74    260      -86.3
   11/13/2018 01:00      60.0      59.0        9     -0.3      0.00      0.32      66.0     0.28      1027.3     1.3     ENE    75   3.9     NNE    27   8.74    260      -84.9
   11/13/2018 00:50      59.6      58.6        9     -0.2      0.00      0.32      66.0     0.28      1027.3     1.2     ESE   118   2.6       E    89   8.74    260      -85.0
   11/13/2018 00:40      59.5      57.0        9     -0.2      0.00      0.32      66.0     0.29      1027.2     1.7     ENE    75   4.4      NE    53   8.74    260      -84.4
   11/13/2018 00:30      58.5      56.9       10      1.4      0.00      0.32      65.9     0.28      1027.3     1.4      SE   144   2.9      SE   142   8.74    260      -84.0
   11/13/2018 00:20      60.5      58.3        9     -0.0      0.00      0.32      65.9     0.29      1027.3     2.4       S   173   4.7       S   190   8.74    260      -86.0
   11/13/2018 00:10      61.4      60.1        8     -2.1      0.00      0.32      66.0     0.28      1027.3     2.3     SSE   151   4.8      SE   132   8.74    260      -87.7
   11/13/2018 00:00      61.3      60.5        7     -2.4      0.00      0.32      66.0     0.29      1027.3     0.6       S   190   2.0     SSW   200   8.74    260      -87.7
   11/12/2018 23:50      62.8      61.1        7     -2.1      0.00      0.32      66.0     0.28      1027.2     0.6      SW   222   3.2     SSE   147   8.75    260      -90.0
   11/12/2018 23:40      63.8      62.5        7     -2.3      0.00      0.32      66.0     0.28      1027.2     2.0     ENE    56   5.9       N   349   8.75    260      -94.7
   11/12/2018 23:30      64.3      63.4        7     -2.8      0.00      0.32      66.0     0.29      1027.1     3.4     NNE    23   7.9      NE    39   8.75    260      -96.6
   11/12/2018 23:20      64.6      63.8        6     -3.1      0.00      0.32      65.9     0.28      1027.0     5.7       N     8  11.6       W   276   8.75    260      -97.4
   11/12/2018 23:10      65.2      64.2        6     -3.3      0.00      0.32      65.9     0.29      1026.9     5.1       N   360   9.8     WNW   304   8.75    260      -98.2
   11/12/2018 23:00      65.4      64.7        6     -3.8      0.00      0.32      66.0     0.29      1026.8     5.8       N   360  14.2       N   352   8.75    260      -98.8
   11/12/2018 22:50      65.5      65.0        6     -3.9      0.00      0.32      66.0     0.28      1026.7     7.3       N     5  15.6     NNE    31   8.76    260      -99.3
   11/12/2018 22:40      65.6      65.2        6     -4.1      0.00      0.32      66.0     0.28      1026.7     7.4       N     5  14.6       N   352   8.76    260      -99.6
   11/12/2018 22:30      65.6      65.2        6     -4.3      0.00      0.32      66.0     0.28      1026.6     8.0       N     9  13.9       N     7   8.76    260      -99.2
   11/12/2018 22:20      65.3      64.8        6     -3.9      0.00      0.32      66.0     0.29      1026.7     7.2       N    10  14.1     NNW   341   8.76    260      -98.4
   11/12/2018 22:10      65.6      65.0        6     -3.9      0.00      0.32      66.0     0.29      1026.8     6.8       N     7  14.1     NNE    26   8.76    260      -98.4
   11/12/2018 22:00      65.5      65.0        6     -4.6      0.00      0.32      66.0     0.28      1027.0     5.7       N   355  10.4     NNW   345   8.76    260      -98.2
   11/12/2018 21:50      65.8      65.3        5     -5.7      0.00      0.32      65.9     0.29      1027.1     3.9       N     7   8.7     NNW   329   8.76    260      -98.7
   11/12/2018 21:40      65.8      65.3        5     -6.2      0.00      0.32      66.0     0.28      1027.0     5.9     NNE    12  11.4     NNE    32   8.77    260      -99.8
   11/12/2018 21:30      66.1      65.5        5     -6.4      0.00      0.32      65.9     0.29      1026.8     6.0     NNE    12  13.1     NNE    16   8.77    260     -100.4
   11/12/2018 21:20      66.0      65.6        5     -7.0      0.00      0.32      65.9     0.29      1026.6     7.3       N     7  14.7       N    10   8.77    260     -101.0
   11/12/2018 21:10      65.9      65.3        5     -6.8      0.00      0.32      65.9     0.29      1026.6     6.7       N     7  10.4      NE    36   8.77    260     -100.4
   11/12/2018 21:00      66.1      65.5        5     -7.0      0.00      0.32      65.9     0.28      1026.6     5.9       N   359  11.7       N   353   8.77    260     -100.4
   11/12/2018 20:50      66.2      65.6        5     -7.4      0.00      0.32      65.9     0.28      1026.5     7.1     NNE    13  13.7       N     0   8.77    260     -100.5
   11/12/2018 20:40      66.2      65.7        5     -7.5      0.00      0.32      65.9     0.29      1026.5     5.8       N     7  12.2       N   349   8.78    260     -100.4
   11/12/2018 20:30      66.2      65.4        5     -7.6      0.00      0.32      65.9     0.29      1026.4     6.4       N     6  15.2     NNW   340   8.78    260      -99.6
   11/12/2018 20:20      65.8      65.3        5     -7.2      0.00      0.32      65.9     0.28      1026.3     5.5       N   357  11.8     NNW   328   8.78    260      -99.2
   11/12/2018 20:10      66.0      65.5        5     -7.2      0.00      0.32      65.9     0.28      1026.2     6.6       N     0  13.2     NNE    13   8.78    260      -99.1
   11/12/2018 20:00      66.0      65.5        5     -7.2      0.00      0.32      65.9     0.28      1026.0     6.1       N     7  12.5      NE    40   8.78    260      -99.0
   11/12/2018 19:50      66.0      65.3        5     -6.8      0.00      0.32      65.9     0.29      1026.1     5.0       N     5   9.6       N   354   8.78    260      -98.5
   11/12/2018 19:40      65.8      65.3        5     -6.7      0.00      0.32      65.9     0.29      1026.1     4.5       N   351   9.6     NNE    15   8.79    260      -98.4
   11/12/2018 19:30      65.6      65.2        5     -6.5      0.00      0.32      65.9     0.29      1026.1     3.4       N   353   8.3     NNE    13   8.79    260      -98.6
   11/12/2018 19:20      65.6      65.2        5     -6.2      0.00      0.32      65.8     0.29      1026.0     3.2       N   356   7.7     NNW   338   8.79    260      -99.2
   11/12/2018 19:10      65.6      65.2        5     -6.0      0.00      0.32      65.8     0.29      1025.9     3.7       N   350   8.4       E    87   8.79    260      -99.6
   11/12/2018 19:00      65.8      65.2        5     -6.1      0.00      0.32      65.8     0.28      1025.9     2.9     NNW   342   6.1       W   267   8.79    260     -100.5
   11/12/2018 18:50      66.2      65.4        5     -6.2      0.00      0.32      65.8     0.28      1025.8     3.9     NNW   341   9.3       N     0   8.79    260     -101.4
   11/12/2018 18:40      66.3      65.7        5     -6.4      0.00      0.32      65.8     0.29      1025.7     4.8     NNW   341   9.6     NNE    13   8.80    260     -101.9
   11/12/2018 18:30      66.5      66.0        5     -6.2      0.00      0.32      65.7     0.29      1025.6     5.7       N   357  13.5       N   352   8.80    260     -102.7
   11/12/2018 18:20      66.7      66.2        5     -6.1      0.00      0.32      65.7     0.29      1025.3     6.1       N     0  13.5     NNE    12   8.80    260     -102.5
   11/12/2018 18:10      66.7      66.3        5     -6.3      0.00      0.32      65.7     0.29      1025.1     6.3       N     2  13.8     WSW   257   8.80    260     -102.8
   11/12/2018 18:00      66.9      66.3        5     -6.4      0.00      0.32      65.7     0.29      1024.9     5.3       N     6  12.8       N   353   8.80    259     -103.7
   11/12/2018 17:50      67.3      66.5        5     -6.6      0.00      0.32      65.7     0.29      1024.8     6.3       N   360  11.8      NW   325   8.81    260     -104.5
   11/12/2018 17:40      67.4      66.9        5     -6.5      0.00      0.32      65.6     0.29      1024.7     8.2       N   359  16.7     NNW   332   8.81    259     -104.9
   11/12/2018 17:30      67.7      67.1        5     -6.5      0.00      0.32      65.6     0.29      1024.6     6.9       N   356  14.2       N     6   8.81    260     -105.5
   11/12/2018 17:20      67.9      67.2        5     -6.5      0.00      0.32      65.5     0.29      1024.6     7.3       N     2  14.7     NNE    25   8.82    259     -105.8
   11/12/2018 17:10      68.0      67.6        5     -6.3      0.00      0.32      65.5     0.29      1024.5     7.2       N     3  17.3      NE    42   8.82    259     -106.1
   11/12/2018 17:00      68.5      67.7        5     -5.8      0.00      0.32      65.5     0.29      1024.5     6.1       N   355  11.0     NNW   340   8.83    260     -105.1
   11/12/2018 16:50      69.0      68.1        5     -5.8      0.00      0.32      65.5     0.29      1024.5     5.2       N     0   9.4       N   353   8.83    260     -102.5
   11/12/2018 16:40      69.3      68.7        5     -5.6      0.00      0.32      65.4     0.28      1024.3     6.9       N   355  13.3       N    10   8.83    259      -99.6
   11/12/2018 16:30      69.8      69.0        5     -5.0      0.00      0.32      65.4     0.28      1024.2     7.2       N     0  15.0       N     7   8.84    259      -96.5
   11/12/2018 16:20      70.2      69.5        5     -4.9      0.00      0.32      65.4     0.29      1024.1     9.4       N     3  16.0     NNE    20   8.84    259      -93.1
   11/12/2018 16:10      70.8      69.9        5     -4.3      0.00      0.32      65.3     0.29      1024.1     6.9       N     1  14.0       N   353   8.84    259      -65.4
   11/12/2018 16:00      71.2      70.4        5     -4.8      0.00      0.32      65.3     0.28      1024.0     7.5       N   359  13.8      NE    42   8.84    259      -29.1
   11/12/2018 15:50      71.6      70.9        5     -5.1      0.00      0.32      65.3     0.28      1024.0     7.4       N     0  14.0       N     9   8.85    259       -6.6
   11/12/2018 15:40      71.8      71.2        5     -5.2      0.00      0.32      65.3     0.28      1024.0     6.7       N   359  14.5     NNW   336   8.85    259       16.9
   11/12/2018 15:30      72.4      71.5        4     -5.3      0.00      0.32      65.2     0.28      1023.9     7.6       N     0  14.7       N     8   8.85    259       40.5
   11/12/2018 15:20      72.9      72.0        4     -5.5      0.00      0.32      65.2     0.28      1023.9     7.3       N     2  17.5      NE    41   8.86    259       64.6
   11/12/2018 15:10      72.9      72.2        5     -4.4      0.00      0.32      65.2     0.28      1023.9     6.2       N   356  13.0     NNE    22   8.86    259       88.6
   11/12/2018 15:00      72.9      72.3        4     -4.5      0.00      0.32      65.1     0.28      1023.9     6.6       N     5  14.4     NNE    20   8.86    259      114.3
   11/12/2018 14:50      73.0      72.4        5     -4.2      0.00      0.32      65.0     0.28      1023.9     7.1       N   357  14.3     NNE    28   8.86    259      137.8
   11/12/2018 14:40      73.2      72.6        5     -3.8      0.00      0.32      65.0     0.28      1023.8     6.7       N     4  14.5       N     5   8.87    259      159.4
   11/12/2018 14:30      73.1      72.5        5     -3.8      0.00      0.32      65.0     0.28      1023.7     6.8       N     2  14.3     NNE    24   8.87    259      180.5
   11/12/2018 14:20      72.9      72.3        5     -4.1      0.00      0.32      65.0     0.28      1023.7     8.9       N     6  14.4      NW   313   8.87    259      201.9
   11/12/2018 14:10      73.0      72.5        4     -4.5      0.00      0.32      64.9     0.28      1023.7     8.3       N     3  16.5       N     3   8.88    259      221.2
   11/12/2018 14:00      73.5      72.7        4     -4.6      0.00      0.32      64.9     0.28      1023.8    10.0       N     8  16.2      NE    45   8.88    258      239.3
   11/12/2018 13:50      73.7      72.9        5     -3.9      0.00      0.32      64.9     0.28      1023.8     8.7       N     8  17.3     NNE    29   8.88    259      252.5
   11/12/2018 13:40      73.7      72.7        4     -4.4      0.00      0.32      64.8     0.28      1023.8    10.5       N     7  21.8     NNE    12   8.88    259      270.3
   11/12/2018 13:30      74.0      73.3        5     -3.5      0.00      0.32      64.8     0.28      1023.7     8.0       N    11  17.9     NNE    14   8.89    259      280.9
   11/12/2018 13:20      73.5      72.8        5     -3.7      0.00      0.32      64.8     0.28      1023.7     8.5       N     2  15.0     NNW   344   8.89    259      295.0
   11/12/2018 13:10      73.5      72.7        5     -3.9      0.00      0.32      64.8     0.28      1023.9     8.3       N     0  15.5      NE    36   8.89    259      306.6
   11/12/2018 13:00      73.5      72.9        4     -4.3      0.00      0.32      64.8     0.28      1024.0     8.3       N     1  18.7     NNW   339   8.90    259      318.1
   11/12/2018 12:50      73.9      73.1        5     -3.6      0.00      0.32      64.8     0.28      1024.0     8.9       N   359  16.9     NNW   331   8.90    258      327.5
   11/12/2018 12:40      73.8      72.7        5     -2.7      0.00      0.32      64.7     0.28      1023.9     7.4       N     4  15.1     NNW   342   8.90    259      336.6
   11/12/2018 12:30      73.0      72.4        5     -2.0      0.00      0.32      64.7     0.28      1024.0     9.2       N     4  15.9      NE    40   8.90    259      344.8
   11/12/2018 12:20      73.1      72.0        5     -1.8      0.00      0.32      64.7     0.28      1024.1     8.5       N     3  16.3     NNW   338   8.90    259      352.5
   11/12/2018 12:10      72.7      72.1        5     -0.6      0.00      0.32      64.7     0.28      1024.2     9.1       N   357  17.2      NW   310   8.91    259      359.1
   11/12/2018 12:00      72.5      71.7        6      0.0      0.00      0.32      64.7     0.28      1024.4     9.3       N     5  16.3      NW   314   8.91    259      363.1
   11/12/2018 11:50      72.4      71.7        6     -0.0      0.00      0.32      64.7     0.28      1024.5     8.6       N   355  15.2       N   353   8.91    259      365.8
   11/12/2018 11:40      72.3      71.8        6     -0.7      0.00      0.32      64.7     0.28      1024.4     8.6       N     3  16.0     NNE    13   8.91    259      368.2
   11/12/2018 11:30      72.5      71.8        5     -0.8      0.00      0.32      64.7     0.28      1024.4     9.5       N     3  15.4     WNW   295   8.92    259      368.5
   11/12/2018 11:20      72.5      72.0        5     -1.5      0.00      0.32      64.7     0.28      1024.3     9.2       N     6  17.3     WNW   288   8.92    259      366.0
   11/12/2018 11:10      72.3      71.4        5     -0.9      0.00      0.32      64.7     0.28      1024.4     9.0     NNE    13  16.3     NNE    11   8.92    259      363.8
   11/12/2018 11:00      71.9      71.5        6     -0.3      0.00      0.32      64.7     0.28      1024.5     8.8       N     8  16.5       N     8   8.92    259      357.9
   11/12/2018 10:50      71.8      71.2        6     -0.2      0.00      0.32      64.7     0.28      1024.6     8.2     NNE    11  19.7       N     6   8.92    259      352.0
   11/12/2018 10:40      71.9      71.3        6      0.2      0.00      0.32      64.7     0.28      1024.7     7.0     NNE    14  12.9     NNE    29   8.92    259      346.1
   11/12/2018 10:30      71.6      70.7        6     -0.0      0.00      0.32      64.8     0.28      1024.7     7.6       N     0  13.8     ENE    58   8.92    259      337.3
   11/12/2018 10:20      71.1      70.7        6     -0.5      0.00      0.32      64.8     0.28      1024.7     9.0       N     6  15.1     NNE    27   8.92    259      329.6
   11/12/2018 10:10      71.1      70.7        6      0.3      0.00      0.32      64.8     0.28      1024.8     8.7       N     5  14.1     NNW   327   8.93    259      320.2
   11/12/2018 10:00      71.0      70.1        6      1.0      0.00      0.32      64.8     0.28      1024.9     6.8       N     6  13.9       N   351   8.92    259      308.7
   11/12/2018 09:50      70.3      69.3        6      0.6      0.00      0.32      64.8     0.28      1024.9     8.6       N     3  15.1     NNE    13   8.93    259      298.4
   11/12/2018 09:40      69.6      68.8        6      0.8      0.00      0.32      64.9     0.28      1024.9     8.4       N     0  19.2       N   354   8.93    259      284.5
   11/12/2018 09:30      69.4      68.5        7      1.1      0.00      0.32      64.9     0.28      1024.9     6.9       N     3  14.4     NNE    28   8.93    259      269.0
   11/12/2018 09:20      68.6      67.8        7      0.4      0.00      0.32      64.9     0.28      1024.8     8.9       N     9  18.3       N   353   8.93    259      253.9
   11/12/2018 09:10      68.1      67.5        7      1.0      0.00      0.32      64.9     0.28      1024.7     7.7     NNE    17  15.5     NNE    16   8.93    259      234.9
   11/12/2018 09:00      67.8      67.2        7      1.6      0.00      0.32      65.0     0.28      1024.6     5.7       N     6  10.3     ENE    64   8.93    259      216.6
   11/12/2018 08:50      67.4      66.4        7      1.6      0.00      0.32      65.0     0.28      1024.6     4.8       N     5  12.6      NE    37   8.93    259      200.2
   11/12/2018 08:40      66.6      65.9        7      0.8      0.00      0.32      65.0     0.28      1024.6     6.8       N     7  14.7       N     4   8.93    259      184.8
   11/12/2018 08:30      66.1      65.3        7      0.8      0.00      0.32      65.1     0.28      1024.5     6.7       N     4  13.5       N     8   8.93    260      165.4
   11/12/2018 08:20      65.6      64.9        8      1.2      0.00      0.32      65.1     0.28      1024.5     5.1     NNE    19   9.9     WNW   284   8.93    260      144.9
   11/12/2018 08:10      65.1      64.2        8      0.8      0.00      0.32      65.1     0.28      1024.5     5.9     NNE    14  12.1     NNE    21   8.93    260      125.8
   11/12/2018 08:00      64.4      63.8        8      0.6      0.00      0.32      65.2     0.28      1024.5     5.9     NNE    13  11.2      NE    35   8.93    260      106.4
   11/12/2018 07:50      64.0      63.2        8      0.5      0.00      0.32      65.2     0.28      1024.4     5.0       N    10   9.0       N    10   8.94    260       84.0
   11/12/2018 07:40      63.4      62.4        8      0.0      0.00      0.32      65.2     0.28      1024.2     5.7       N    10  12.9     NNW   336   8.94    261       60.0
   11/12/2018 07:30      62.7      62.1        8     -0.3      0.00      0.32      65.2     0.28      1024.1     6.3     NNE    13  12.6     NNE    15   8.94    260       -0.9
   11/12/2018 07:20      62.2      59.3        8     -0.2      0.00      0.32      65.3     0.28      1024.0     6.4       N     6  13.1       N     7   8.94    261      -64.1
   11/12/2018 07:10      59.1      56.4       11      2.8      0.00      0.32      65.3     0.28      1024.1     1.8     ENE    63   6.9     NNE    25   8.94    262      -58.6
   11/12/2018 07:00      56.5      54.1       12      3.8      0.00      0.32      65.3     0.28      1024.0     2.3     SSE   149   4.2      SE   143   8.94    262      -59.6
   11/12/2018 06:50      54.9      51.1       13      3.5      0.00      0.32      65.3     0.28      1023.8     1.5      SE   143   5.5       W   260   8.93    261      -62.8
   11/12/2018 06:40      51.3      49.5       16      4.9      0.00      0.32      65.4     0.28      1023.7     1.6     SSE   153   3.1     ESE   104   8.94    262      -63.8
   11/12/2018 06:30      51.6      49.9       15      5.3      0.00      0.32      65.4     0.28      1023.6     2.3     SSE   162   3.8      SE   146   8.94    262      -67.6
   11/12/2018 06:20      51.8      50.5       15      4.9      0.00      0.32      65.5     0.28      1023.7     1.7     SSE   151   3.8      SE   139   8.94    262      -69.4
   11/12/2018 06:10      51.6      48.3       14      3.0      0.00      0.32      65.5     0.28      1023.7     1.7       S   181   4.4     WSW   248   8.94    262      -69.8
   11/12/2018 06:00      49.0      47.7       18      6.7      0.00      0.32      65.5     0.28      1023.7     1.4     SSE   148   3.7     SSE   151   8.94    262      -70.7
   11/12/2018 05:50      48.2      47.6       18      5.9      0.00      0.32      65.5     0.28      1023.6     1.7     SSE   156   3.3     SSE   164   8.94    262      -69.8
   11/12/2018 05:40      48.0      46.7       18      6.2      0.00      0.32      65.5     0.28      1023.6     1.3     SSE   162   3.1      SE   143   8.94    262      -70.5
   11/12/2018 05:30      48.8      46.9       18      6.8      0.00      0.32      65.6     0.28      1023.5     1.8     SSE   154   3.7      SE   135   8.94    262      -70.8
   11/12/2018 05:20      48.5      46.9       18      5.8      0.00      0.32      65.5     0.28      1023.3     1.2     SSE   160   2.8     SSE   153   8.94    262      -70.9
   11/12/2018 05:10      48.3      47.3       19      7.1      0.00      0.32      65.6     0.28      1023.1     1.7      SE   142   4.2       S   188   8.94    262      -72.3
   11/12/2018 05:00      48.8      47.7       18      6.8      0.00      0.32      65.6     0.28      1023.0     1.3      SE   141   2.8     SSE   155   8.94    262      -72.5
   11/12/2018 04:50      50.0      47.8       18      6.9      0.00      0.32      65.6     0.28      1023.0     1.3     SSE   156   3.3      SE   145   8.94    262      -72.9
   11/12/2018 04:40      50.0      48.3       17      5.7      0.00      0.32      65.6     0.28      1023.0     1.8     SSE   151   3.7      SE   142   8.94    262      -72.7
   11/12/2018 04:30      49.9      48.0       17      6.0      0.00      0.32      65.7     0.28      1022.9     1.8     SSE   153   2.8     SSE   148   8.94    262      -72.3
   11/12/2018 04:20      50.1      49.4       16      4.8      0.00      0.32      65.7     0.28      1022.9     1.8     SSE   163   4.2      SE   141   8.94    261      -73.8
   11/12/2018 04:10      52.2      49.9       15      5.2      0.00      0.32      65.7     0.28      1022.9     1.9      SE   145   3.5      SE   130   8.95    262      -75.2
   11/12/2018 04:00      54.1      51.9       12      2.0      0.00      0.32      65.7     0.29      1022.9     2.3     SSE   151   4.5      SE   143   8.95    261      -75.2
   11/12/2018 03:50      55.1      53.7       11      0.8      0.00      0.32      65.8     0.28      1022.8     1.3     SSE   150   3.6      SE   143   8.95    261      -75.8
   11/12/2018 03:40      55.1      53.9       11      0.2      0.00      0.32      65.8     0.28      1022.7     1.9      SE   125   3.7     SSE   148   8.95    261      -76.7
   11/12/2018 03:30      54.5      52.5       11      0.3      0.00      0.32      65.8     0.29      1022.7     1.7     ESE   122   4.1       S   178   8.95    261      -76.9
   11/12/2018 03:20      54.0      52.5       12      1.5      0.00      0.32      65.8     0.28      1022.6     2.2     SSE   152   4.6       S   181   8.95    261      -75.7
   11/12/2018 03:10      55.0      52.4       10     -0.6      0.00      0.32      65.9     0.28      1022.6     1.8     SSE   154   3.9      SE   145   8.95    261      -75.9
   11/12/2018 03:00      53.0      52.2       11      0.5      0.00      0.32      65.9     0.29      1022.7     1.4       S   171   3.4       S   190   8.95    261      -77.1
   11/12/2018 02:50      54.0      52.7       11      0.6      0.00      0.32      65.9     0.29      1022.7     1.3       S   171   2.8      SW   221   8.95    261      -76.2
   11/12/2018 02:40      54.0      52.5       11      0.2      0.00      0.32      65.9     0.29      1022.7     1.1     SSE   147   3.3     ESE   113   8.95    261      -77.9
   11/12/2018 02:30      54.5      52.4       11      0.7      0.00      0.32      65.9     0.29      1022.7     1.5     SSE   159   3.3       S   177   8.95    261      -77.4
   11/12/2018 02:20      53.9      53.0       11     -0.7      0.00      0.32      66.0     0.29      1022.7     1.5     SSE   159   3.0      SE   143   8.95    261      -77.0
   11/12/2018 02:10      53.6      51.4       12      1.1      0.00      0.32      66.0     0.29      1022.8     1.6      SE   133   3.5       E    95   8.95    261      -77.8
   11/12/2018 02:00      54.2      50.8       11     -0.3      0.00      0.32      66.0     0.29      1022.8     1.9       S   173   5.7      SE   129   8.95    261      -78.3
   11/12/2018 01:50      51.5      50.4       13      2.5      0.00      0.32      66.0     0.29      1022.8     1.9     SSE   159   3.2       S   169   8.95    261      -77.7
   11/12/2018 01:40      52.6      51.4       13      2.1      0.00      0.32      66.0     0.29      1022.7     2.1     SSE   156   3.8     SSE   161   8.96    261      -77.6
   11/12/2018 01:30      53.3      52.3       12      0.9      0.00      0.32      66.0     0.29      1022.7     1.3     SSE   169   4.5      SE   143   8.96    261      -78.3
   11/12/2018 01:20      53.3      51.6       11     -1.1      0.00      0.32      66.0     0.29      1022.6     1.8     SSE   166   5.3     NNW   341   8.96    261      -78.1
   11/12/2018 01:10      52.2      51.4       13      1.8      0.00      0.32      66.1     0.29      1022.6     1.9     SSE   160   3.4     SSE   164   8.96    261      -78.7
   11/12/2018 01:00      53.5      51.8       12      1.5      0.00      0.32      66.1     0.29      1022.5     2.0     SSE   154   3.7      SE   132   8.96    261      -79.2
   11/12/2018 00:50      54.5      53.0       11      0.3      0.00      0.32      66.1     0.29      1022.6     1.3     SSE   159   2.8     SSE   150   8.96    261      -79.1
   11/12/2018 00:40      54.8      53.2       11     -0.0      0.00      0.32      66.2     0.29      1022.6     2.0     SSE   160   3.3       S   178   8.96    261      -78.4
   11/12/2018 00:30      54.7      53.3       10     -0.9      0.00      0.32      66.1     0.29      1022.5     1.2     SSE   166   3.7       S   183   8.96    261      -78.7
   11/12/2018 00:20      54.2      53.0       11     -0.4      0.00      0.32      66.2     0.29      1022.4     1.8     SSE   167   3.9       S   187   8.97    261      -80.4
   11/12/2018 00:10      53.6      51.8       12      0.4      0.00      0.32      66.2     0.29      1022.5     1.5     SSE   166   2.8     SSE   152   8.97    261      -80.2
   11/12/2018 00:00      55.5      53.4       10     -0.3      0.00      0.32      66.2     0.29      1022.5     1.4     SSE   157   3.0     SSE   151   8.97    261      -82.5
   11/11/2018 23:50      56.5      55.1       10     -0.9      0.00      0.32      66.2     0.29      1022.5     2.5     SSE   147   6.0       S   186   8.97    261      -83.0
   11/11/2018 23:40      58.3      55.8        8     -3.3      0.00      0.32      66.2     0.29      1022.5     1.3      SE   144   3.3      SE   145   8.97    261      -83.0
   11/11/2018 23:30      57.9      56.3        8     -2.8      0.00      0.32      66.3     0.29      1022.4     2.0      SE   145   4.2     SSE   164   8.97    261      -82.3
   11/11/2018 23:20      57.8      54.4        8     -4.2      0.00      0.32      66.3     0.29      1022.4     1.2       S   180   3.8      SE   138   8.97    261      -80.4
   11/11/2018 23:10      55.3      54.1       10     -1.1      0.00      0.32      66.3     0.29      1022.4     2.0     SSE   154   4.3      SE   129   8.97    261      -79.1
   11/11/2018 23:00      56.8      54.6        9     -1.4      0.00      0.32      66.3     0.29      1022.4     1.8     SSE   155   3.1     SSE   150   8.97    261      -79.2
   11/11/2018 22:50      57.0      54.2        9     -2.7      0.00      0.32      66.3     0.29      1022.1     1.6     SSE   151   3.8     WSW   248   8.97    261      -79.8
   11/11/2018 22:40      56.7      54.1        9     -2.4      0.00      0.32      66.3     0.29      1022.0     1.8     SSE   148   3.4      SE   133   8.98    261      -81.2
   11/11/2018 22:30      55.8      54.1       10     -1.0      0.00      0.32      66.3     0.29      1022.0     1.7     SSE   161   4.1       S   185   8.98    261      -81.7
   11/11/2018 22:20      57.9      55.1        9     -2.1      0.00      0.32      66.3     0.29      1021.9     1.9     SSE   157   3.8     SSE   168   8.98    261      -83.9
   11/11/2018 22:10      60.0      57.3        8     -3.7      0.00      0.32      66.3     0.29      1021.9     1.9     SSE   162   4.0     SSE   162   8.98    260      -86.6
   11/11/2018 22:00      60.4      59.3        7     -6.0      0.00      0.32      66.3     0.29      1021.7     1.6      SE   137   3.9      SE   132   8.98    260      -88.6
   11/11/2018 21:50      61.8      60.4        6     -7.3      0.00      0.32      66.3     0.29      1021.7     1.9       E    98   3.9     ENE    76   8.98    260      -89.4
   11/11/2018 21:40      60.7      57.7        7     -6.2      0.00      0.32      66.3     0.29      1021.7     1.5      SE   141   5.8       N    11   8.98    261      -86.0
   11/11/2018 21:30      58.6      57.6        7     -4.7      0.00      0.32      66.3     0.29      1021.6     1.2     SSE   149   2.8     SSE   161   8.98    261      -85.0
   11/11/2018 21:20      58.9      57.7        8     -3.0      0.00      0.32      66.3     0.29      1021.5     1.3      SE   145   3.6     SSE   153   8.98    261      -85.6
   11/11/2018 21:10      58.6      56.4        7     -4.6      0.00      0.32      66.3     0.29      1021.4     1.2      SE   136   3.3       S   181   8.98    261      -83.9
   11/11/2018 21:00      56.6      55.7        9     -1.5      0.00      0.32      66.3     0.29      1021.4     1.4     SSE   157   3.1     SSE   159   8.99    261      -83.1
   11/11/2018 20:50      57.2      55.3       10     -0.8      0.00      0.32      66.3     0.29      1021.4     1.7     SSE   149   3.9     ESE   122   8.99    261      -83.6
   11/11/2018 20:40      57.1      55.1        9     -2.9      0.00      0.32      66.3     0.29      1021.3     1.5     SSE   168   3.9     SSE   153   8.99    260      -84.8
   11/11/2018 20:30      58.6      55.5        9     -1.4      0.00      0.32      66.3     0.29      1021.1     1.9     SSE   154   4.2      SE   137   8.99    261      -84.7
   11/11/2018 20:20      59.9      58.3        7     -5.2      0.00      0.32      66.3     0.29      1020.9     1.3     SSE   155   3.5     SSE   167   8.99    260      -85.5
   11/11/2018 20:10      59.4      56.6        8     -3.3      0.00      0.32      66.3     0.29      1020.8     1.2      SW   215   3.5     WSW   253   8.99    261      -85.0
   11/11/2018 20:00      57.8      55.7       10      0.8      0.00      0.32      66.3     0.29      1020.7     1.5      SE   135   3.9      SE   138   8.99    261      -84.9
   11/11/2018 19:50      59.7      56.6        8     -2.8      0.00      0.32      66.2     0.29      1020.6     1.9     SSE   156   3.5       S   185   9.00    260      -85.0
   11/11/2018 19:40      59.6      58.8        7     -5.0      0.00      0.32      66.2     0.29      1020.4     1.0     SSE   152   2.9       E    99   9.00    260      -86.9
   11/11/2018 19:30      59.0      56.3        9     -1.7      0.00      0.32      66.2     0.29      1020.3     1.5     SSE   152   3.1       S   174   9.00    260      -88.7
   11/11/2018 19:20      57.9      56.7        9     -0.5      0.00      0.32      66.2     0.29      1020.1     1.6       S   170   3.7       S   183   9.00    260      -90.7
   11/11/2018 19:10      59.9      57.3        9     -0.9      0.00      0.32      66.2     0.29      1020.1     1.8     SSE   165   4.6       S   180   9.00    260      -92.4
   11/11/2018 19:00      63.7      59.6        7     -3.4      0.00      0.32      66.2     0.29      1020.1     2.2     SSE   159   4.3     SSE   162   9.00    260      -95.8
   11/11/2018 18:50      64.6      63.6        5     -7.8      0.00      0.32      66.1     0.29      1019.9     1.8     ESE   123   4.2     SSW   203   9.01    260      -99.0
   11/11/2018 18:40      66.4      64.4        5     -7.7      0.00      0.32      66.1     0.29      1019.7     1.1       E   101   3.7       N     4   9.01    260      -99.8
   11/11/2018 18:30      67.2      66.1        5     -8.3      0.00      0.32      66.2     0.29      1019.5     1.8     NNE    25   4.6     NNW   334   9.01    260     -101.7
   11/11/2018 18:20      67.2      66.6        5     -8.1      0.00      0.32      66.1     0.29      1019.4     3.1     NNE    17   7.9      NE    38   9.01    260     -102.8
   11/11/2018 18:10      67.4      66.7        5     -7.7      0.00      0.32      66.1     0.29      1019.4     3.2     NNE    13   8.5     NNW   330   9.01    260     -104.0
   11/11/2018 18:00      67.4      67.1        4     -8.3      0.00      0.32      66.1     0.29      1019.3     4.4     NNE    18  10.1     NNE    14   9.01    260     -105.4
   11/11/2018 17:50      67.9      66.9        4     -8.7      0.00      0.32      66.0     0.29      1019.2     3.8     NNE    14   8.9       N     0   9.02    260     -106.4
   11/11/2018 17:40      67.9      67.3        4     -9.1      0.00      0.32      66.0     0.29      1019.1     4.9       N     7   9.9       N     3   9.02    260     -108.3
   11/11/2018 17:30      68.4      67.6        4     -9.1      0.00      0.32      66.0     0.29      1019.1     3.9       N   356   8.4       N   350   9.02    260     -110.0
   11/11/2018 17:20      68.7      68.1        4     -9.3      0.00      0.32      66.0     0.29      1019.0     4.3       N     3   8.5     WNW   288   9.02    260     -111.3
   11/11/2018 17:10      69.1      68.3        4     -9.8      0.00      0.32      65.9     0.29      1018.9     4.8       N   357   8.9     NNE    15   9.03    260     -112.1
   11/11/2018 17:00      69.5      68.8        4    -10.2      0.00      0.32      65.9     0.29      1018.9     6.0       N     6  11.9      NE    36   9.03    260     -111.5
   11/11/2018 16:50      70.0      69.2        4    -10.4      0.00      0.32      65.9     0.29      1018.8     6.2       N     0  12.5     NNE    12   9.03    260     -109.3
   11/11/2018 16:40      70.5      69.7        4    -10.7      0.00      0.32      65.8     0.29      1018.7     6.2       N     4  11.7     NNE    21   9.04    259     -106.3
   11/11/2018 16:30      70.9      70.2        3    -11.1      0.00      0.32      65.8     0.29      1018.7     6.2       N     6  11.8       N     6   9.04    260     -102.8
   11/11/2018 16:20      71.5      70.6        3    -10.9      0.00      0.32      65.8     0.29      1018.6     6.3       N     9  13.6     NNE    17   9.04    260      -99.5
   11/11/2018 16:10      72.0      71.2        3    -10.9      0.00      0.32      65.7     0.29      1018.6     6.0       N     2  11.8     NNE    25   9.05    259      -63.0
   11/11/2018 16:00      72.4      71.7        3    -10.1      0.00      0.32      65.7     0.29      1018.5     6.6       N     5  11.1     NNE    28   9.05    259      -35.5
   11/11/2018 15:50      72.9      72.2        4     -9.3      0.00      0.32      65.7     0.29      1018.4     5.6       N     3  10.9       N   354   9.05    259      -12.4
   11/11/2018 15:40      73.0      72.6        4     -8.0      0.00      0.32      65.6     0.29      1018.3     5.0       N   358  10.7     NNW   330   9.06    259       10.4
   11/11/2018 15:30      73.3      72.6        4     -7.3      0.00      0.32      65.6     0.29      1018.2     6.5       N     9  13.0     NNE    27   9.06    259       35.6
   11/11/2018 15:20      73.3      72.8        4     -7.3      0.00      0.32      65.6     0.29      1018.0     7.3       N    10  14.0       E    89   9.06    259       60.3
   11/11/2018 15:10      73.5      72.9        4     -7.2      0.00      0.32      65.6     0.29      1017.9     6.9     NNE    11  15.1     NNE    16   9.06    260       83.3
   11/11/2018 15:00      73.7      73.1        4     -6.8      0.00      0.32      65.5     0.29      1017.8     8.1     NNE    14  14.4       N     4   9.07    259      107.2
   11/11/2018 14:50      74.0      73.4        4     -6.0      0.00      0.32      65.5     0.29      1017.7     6.8       N     6  14.7     NNW   344   9.07    259      133.9
   11/11/2018 14:40      73.8      73.3        4     -5.7      0.00      0.32      65.4     0.29      1017.5     8.4       N     4  14.4       N     6   9.07    259      157.8
   11/11/2018 14:30      73.8      73.2        4     -4.5      0.00      0.32      65.4     0.29      1017.4     8.5       N     6  18.1     NNE    21   9.07    259      182.1
   11/11/2018 14:20      74.1      73.3        5     -2.7      0.00      0.32      65.4     0.29      1017.4     9.9       N     7  17.9     NNW   343   9.08    259      203.7
   11/11/2018 14:10      74.3      73.5        5     -2.3      0.00      0.32      65.4     0.29      1017.3     8.8       N     2  14.6     NNW   330   9.08    259      220.7
   11/11/2018 14:00      74.4      73.7        5     -2.5      0.00      0.32      65.3     0.29      1017.3     9.1       N     5  19.0     NNE    22   9.08    259      239.7
   11/11/2018 13:50      74.8      74.1        5     -1.7      0.00      0.32      65.3     0.29      1017.3     8.4       N   359  14.5     NNW   333   9.09    259      255.5
   11/11/2018 13:40      74.9      74.2        5      0.2      0.00      0.32      65.2     0.29      1017.2     8.1       N   357  15.1      NE    36   9.09    259      270.4
   11/11/2018 13:30      75.1      74.4        5     -0.0      0.00      0.32      65.2     0.29      1017.2     8.1       N     2  14.3       N     5   9.09    259      284.8
   11/11/2018 13:20      74.9      74.2        6      1.6      0.00      0.32      65.2     0.29      1017.2     7.6       N   359  13.7       N     4   9.09    259      297.6
   11/11/2018 13:10      74.6      74.1        6      2.2      0.00      0.32      65.2     0.29      1017.3     8.0       N    10  18.3      NE    37   9.09    259      309.1
   11/11/2018 13:00      74.4      73.5        6      2.8      0.00      0.32      65.2     0.29      1017.4     8.2       N     8  15.2       N     6   9.09    259      321.6
   11/11/2018 12:50      74.0      73.0        6      3.7      0.00      0.32      65.2     0.29      1017.5     7.9       N     6  19.5     NNW   347   9.10    259      330.5
   11/11/2018 12:40      74.2      73.2        7      4.4      0.00      0.32      65.2     0.29      1017.6     8.1       N     8  15.0       N     3   9.10    259      338.4
   11/11/2018 12:30      73.7      73.0        7      4.2      0.00      0.32      65.2     0.29      1017.7     8.1       N     1  14.5       N     3   9.10    259      349.1
   11/11/2018 12:20      73.3      72.7        7      4.2      0.00      0.32      65.2     0.29      1017.7     8.9     NNE    14  15.2       N     8   9.10    259      358.0
   11/11/2018 12:10      73.5      72.8        7      4.5      0.00      0.32      65.2     0.29      1017.9     8.6       N     7  15.8      NW   317   9.11    259      361.9
   11/11/2018 12:00      73.5      72.6        7      4.9      0.00      0.32      65.1     0.29      1018.0     7.6       N     0  15.8     NNW   347   9.11    259      365.9
   11/11/2018 11:50      73.4      72.5        7      4.9      0.00      0.32      65.1     0.29      1018.1     8.9       N    10  14.1       N     7   9.11    260      369.4
   11/11/2018 11:40      73.1      72.4        7      5.6      0.00      0.32      65.2     0.29      1018.3     7.6       N   356  13.9       N     0   9.11    259      368.1
   11/11/2018 11:30      72.9      71.8        8      6.3      0.00      0.32      65.1     0.29      1018.4     7.9     NNE    12  14.8     NNE    33   9.11    260      368.0
   11/11/2018 11:20      72.6      71.8        8      7.1      0.00      0.32      65.2     0.29      1018.5     8.7       N     5  17.2     NNE    32   9.12    260      361.6
   11/11/2018 11:10      72.3      71.4        8      7.9      0.00      0.32      65.2     0.29      1018.5     8.4       N     6  15.9     NNE    23   9.11    260      359.1
   11/11/2018 11:00      72.0      71.3        8      8.5      0.00      0.32      65.2     0.28      1018.6     7.3     NNE    12  13.6     NNE    33   9.11    260      355.2
   11/11/2018 10:50      71.8      71.1        9      8.9      0.00      0.32      65.2     0.28      1018.7     8.0       N   357  15.3       N    10   9.12    260      351.7
   11/11/2018 10:40      71.7      71.1        9      9.2      0.00      0.32      65.3     0.28      1018.7     7.1       N     4  13.0     NNE    13   9.12    260      344.6
   11/11/2018 10:30      71.5      70.9        9      9.2      0.00      0.32      65.3     0.28      1018.6     7.6       N     8  13.5     NNE    16   9.12    260      336.0
   11/11/2018 10:20      70.9      70.4        9      8.8      0.00      0.32      65.3     0.28      1018.7     8.1       N     5  15.8       N     0   9.12    260      325.9
   11/11/2018 10:10      70.8      70.1        9      9.2      0.00      0.32      65.3     0.28      1018.7     7.0       N     6  12.9     NNE    31   9.12    260      313.7
   11/11/2018 10:00      70.5      70.0        9      9.5      0.00      0.32      65.4     0.29      1018.7     7.2       N   358  12.5       N     8   9.12    261      298.6
   11/11/2018 09:50      70.4      69.5        9      8.8      0.00      0.32      65.4     0.28      1018.6     6.5       N     3  10.7     NNE    31   9.12    261      288.8
   11/11/2018 09:40      69.7      68.9        9      8.5      0.00      0.32      65.5     0.29      1018.7     7.2       N     4  13.6      NW   304   9.12    261      266.4
   11/11/2018 09:30      68.9      68.4        9      8.7      0.00      0.32      65.5     0.29      1018.7     6.5       N     2  11.9       N     9   9.12    261      256.5
   11/11/2018 09:20      68.5      67.9       10     10.2      0.00      0.32      65.5     0.29      1018.8     4.2       N     4   8.8     NNW   341   9.12    261      237.6
   11/11/2018 09:10      68.2      66.2       12     12.5      0.00      0.32      65.6     0.29      1018.8     1.5       S   171   2.5     SSW   211   9.12    262      219.0
   11/11/2018 09:00      66.3      64.1       14     14.0      0.00      0.32      65.7     0.29      1018.8     1.4     SSW   205   3.4       W   262   9.12    262      200.8
   11/11/2018 08:50      64.1      60.2       22     22.4      0.00      0.32      65.7     0.29      1018.8     0.8     SSE   165   1.7      SE   137   9.12    262      183.6
   11/11/2018 08:40      60.2      57.2       31     27.7      0.00      0.32      65.7     0.29      1018.8     0.7     SSE   159   1.9       S   184   9.12    262      167.4
   11/11/2018 08:30      57.3      54.2       34     27.5      0.00      0.32      65.8     0.29      1018.7     0.2     NNE    34   1.3     NNW   333   9.12    263      145.4
   11/11/2018 08:20      54.2      51.3       39     28.0      0.00      0.32      65.8     0.29      1018.8     0.6      NE    46   2.3       N   350   9.12    263      126.7
   11/11/2018 08:10      51.4      48.7       41     27.4      0.00      0.32      65.9     0.29      1018.6     0.5     SSE   151   1.8       S   176   9.12    263      104.0
   11/11/2018 08:00      48.9      45.7       45     26.7      0.00      0.32      65.9     0.29      1018.5     0.1     ESE   121   0.8       S   169   9.12    263       82.8
   11/11/2018 07:50      45.7      44.0       48     26.0      0.00      0.32      65.9     0.29      1018.5     1.0      SE   138   2.1     SSE   151   9.12    264       59.4
   11/11/2018 07:40      44.0      41.6       51     26.0      0.00      0.32      66.0     0.29      1018.4     0.5       N   353   2.0     NNW   328   9.12    265       28.2
   11/11/2018 07:30      41.7      40.5       54     25.6      0.00      0.32      66.0     0.29      1018.3     0.2     WNW   287   0.9     WNW   303   9.12    265        2.1
   11/11/2018 07:20      40.5      39.2       57     25.7      0.00      0.32      66.0     0.29      1018.1     0.4      SE   129   1.9      SE   132   9.12    265      -26.3
   11/11/2018 07:10      39.3      38.2       56     24.3      0.00      0.32      66.0     0.29      1017.9     0.4      SE   140   2.2      SE   139   9.12    265      -30.1
   11/11/2018 07:00      38.3      37.1       58     24.0      0.00      0.32      66.1     0.29      1017.8     0.5      SW   224   1.4      SW   234   9.12    265      -38.0
   11/11/2018 06:50      37.9      37.3       57     23.6      0.00      0.32      66.1     0.29      1017.6     0.6       E    91   2.2       S   169   9.12    265      -46.9
   11/11/2018 06:40      37.6      36.5       57     22.9      0.00      0.32      66.2     0.29      1017.5     0.7       S   176   3.0     SSW   201   9.12    265      -52.6
   11/11/2018 06:30      37.7      36.7       56     22.7      0.00      0.32      66.2     0.29      1017.4     0.8       S   172   2.4     SSW   211   9.12    265      -57.5
   11/11/2018 06:20      38.3      37.3       54     22.6      0.00      0.32      66.2     0.29      1017.1     0.4     SSE   162   1.5     SSW   197   9.12    265      -60.8
   11/11/2018 06:10      38.6      37.5       53     22.7      0.00      0.32      66.3     0.29      1017.0     1.0     WSW   252   2.4     SSW   213   9.12    265      -61.7
   11/11/2018 06:00      37.8      37.3       55     22.6      0.00      0.32      66.3     0.29      1016.8     1.1     SSE   154   1.9      SE   140   9.12    265      -60.8
   11/11/2018 05:50      38.4      37.4       53     22.4      0.00      0.32      66.3     0.29      1016.7     0.8     SSE   156   1.6       S   174   9.12    265      -60.2
   11/11/2018 05:40      38.4      37.8       53     22.5      0.00      0.32      66.4     0.29      1016.5     0.2     WSW   246   1.2       N    10   9.12    265      -59.0
   11/11/2018 05:30      38.7      37.9       52     22.2      0.00      0.32      66.3     0.29      1016.4     0.1       N   360   1.0     NNW   337   9.12    265      -59.1
   11/11/2018 05:20      39.0      38.5       51     22.3      0.00      0.32      66.4     0.29      1016.3     0.4     ESE   120   1.2     SSE   157   9.12    265      -59.2
   11/11/2018 05:10      39.3      38.7       50     22.1      0.00      0.32      66.5     0.29      1016.2     0.8     SSE   152   1.8      SE   142   9.12    265      -59.2
   11/11/2018 05:00      39.5      39.0       52     23.0      0.00      0.32      66.5     0.29      1016.2     0.1      NE    37   0.9       N     0   9.12    265      -59.1
   11/11/2018 04:50      39.5      39.0       53     23.4      0.00      0.32      66.5     0.29      1016.2     0.7     SSE   151   1.4     SSE   164   9.12    265      -57.7
   11/11/2018 04:40      39.1      38.4       53     23.1      0.00      0.32      66.6     0.29      1016.2     1.0     SSE   156   2.3     SSE   149   9.12    265      -58.6
   11/11/2018 04:30      39.3      38.4       50     21.7      0.00      0.32      66.6     0.29      1016.1     1.0     SSE   164   1.7       S   169   9.12    264      -60.6
   11/11/2018 04:20      39.5      38.8       50     22.1      0.00      0.32      66.7     0.29      1016.1     0.8     ENE    71   1.6       N     5   9.12    265      -60.1
   11/11/2018 04:10      39.6      38.8       49     21.5      0.00      0.32      66.7     0.29      1016.0     0.6       S   171   1.5       S   181   9.12    264      -59.8
   11/11/2018 04:00      40.0      39.3       49     21.9      0.00      0.32      66.7     0.29      1016.0     0.4       S   174   1.0     SSE   167   9.12    264      -59.9
   11/11/2018 03:50      40.2      39.7       48     22.0      0.00      0.32      66.7     0.29      1016.0     0.0       N     0   0.0     SSE   148   9.12    264      -59.8
   11/11/2018 03:40      40.4      40.0       48     22.0      0.00      0.32      66.8     0.29      1015.9     0.3     SSE   156   1.1     SSE   156   9.12    264      -60.0
   11/11/2018 03:30      40.3      39.6       47     21.4      0.00      0.32      66.8     0.29      1015.8     1.3     SSE   157   2.3      SE   146   9.12    264      -60.6
   11/11/2018 03:20      40.5      39.8       48     21.7      0.00      0.32      66.8     0.29      1015.9     0.5     SSE   169   1.2       S   187   9.12    264      -60.2
   11/11/2018 03:10      41.0      40.3       48     22.3      0.00      0.32      66.9     0.29      1015.8     0.0      NE    35   0.7      NE    35   9.12    264      -59.0
   11/11/2018 03:00      42.0      40.8       46     22.1      0.00      0.32      66.9     0.29      1015.8     0.7     SSE   154   1.6     SSE   151   9.12    264      -58.9
   11/11/2018 02:50      41.9      41.0       41     19.5      0.00      0.32      67.0     0.29      1015.9     0.4     SSE   160   1.1     SSE   163   9.12    264      -58.5
   11/11/2018 02:40      41.4      40.7       42     19.9      0.00      0.32      67.0     0.29      1015.9     0.6       S   170   1.4       S   183   9.13    264      -58.4
   11/11/2018 02:30      41.5      40.8       48     22.9      0.00      0.32      67.0     0.29      1015.9     0.0       S   170   0.6       S   180   9.13    264      -57.9
   11/11/2018 02:20      41.7      41.1       49     23.6      0.00      0.32      67.0     0.29      1015.9     0.3     SSE   161   1.0     SSE   161   9.13    264      -57.8
   11/11/2018 02:10      42.0      41.5       47     23.0      0.00      0.32      67.1     0.29      1015.9     0.2     SSE   161   0.7     SSE   161   9.13    264      -58.4
   11/11/2018 02:00      42.1      41.3       43     20.5      0.00      0.32      67.0     0.29      1015.8     0.4       S   184   0.8       S   186   9.13    264      -58.1
   11/11/2018 01:50      42.5      41.7       44     21.7      0.00      0.32      67.1     0.29      1015.8     0.4     SSE   156   1.0     SSE   155   9.13    264      -58.4
   11/11/2018 01:40      42.7      42.0       44     21.6      0.00      0.32      67.1     0.29      1015.8     0.0     SSE   164   0.6     SSE   165   9.13    264      -58.6
   11/11/2018 01:30      42.8      42.2       45     22.8      0.00      0.32      67.2     0.29      1015.8     0.0       N     0   0.0       S   175   9.13    264      -59.2
   11/11/2018 01:20      42.5      42.0       46     22.8      0.00      0.32      67.2     0.29      1015.8     0.4       S   169   1.2       S   177   9.13    264      -59.6
   11/11/2018 01:10      42.5      41.7       43     21.2      0.00      0.32      67.2     0.29      1015.7     0.8     SSE   157   1.8      SE   142   9.13    264      -60.7
   11/11/2018 01:00      42.7      42.1       42     20.9      0.00      0.32      67.2     0.29      1015.8     0.5     SSE   159   1.6     SSE   167   9.13    263      -60.5
   11/11/2018 00:50      43.3      42.3       41     20.5      0.00      0.32      67.3     0.29      1015.7     0.0     SSE   157   0.2     SSE   157   9.13    263      -60.4
   11/11/2018 00:40      43.9      42.9       39     20.2      0.00      0.32      67.4     0.29      1015.6     0.4     SSE   163   1.0     SSE   155   9.13    263      -61.3
   11/11/2018 00:30      43.9      43.6       38     20.0      0.00      0.32      67.3     0.29      1015.6     0.0       N     0   0.0       S   186   9.13    263      -60.2
   11/11/2018 00:20      44.0      43.6       40     21.4      0.00      0.32      67.3     0.29      1015.5     0.2       S   175   0.9       S   177   9.13    263      -60.7
   11/11/2018 00:10      44.0      43.5       42     22.4      0.00      0.32      67.4     0.29      1015.5     0.7     SSE   160   1.4       S   180   9.13    263      -61.7
   11/11/2018 00:00      44.7      43.6       39     20.9      0.00      0.32      67.4     0.29      1015.6     0.8     SSE   161   1.4     SSE   161   9.13    263      -62.7
   11/10/2018 23:50      44.4      43.9       37     19.6      0.00      0.32      67.4     0.29      1015.7     0.4       S   175   1.1       S   183   9.13    263      -61.5
   11/10/2018 23:40      44.8      44.1       37     20.1      0.00      0.32      67.4     0.29      1015.6     0.2     SSE   155   1.1     SSE   152   9.13    263      -61.7
   11/10/2018 23:30      44.9      44.5       39     20.9      0.00      0.32      67.5     0.29      1015.6     0.0     SSE   161   0.7     SSE   161   9.13    263      -61.3
   11/10/2018 23:20      45.0      44.5       42     23.2      0.00      0.32      67.5     0.29      1015.4     0.5     SSE   153   1.5      SE   143   9.13    263      -63.7
   11/10/2018 23:10      45.3      44.8       37     20.0      0.00      0.32      67.5     0.29      1015.5     0.7     SSE   163   1.4     SSE   158   9.13    263      -62.5
   11/10/2018 23:00      45.5      45.0       39     21.7      0.00      0.32      67.5     0.29      1015.6     0.0       S   174   0.0       S   174   9.13    263      -62.2
   11/10/2018 22:50      45.7      45.0       40     22.1      0.00      0.32      67.5     0.29      1015.4     0.2       S   170   0.9       S   185   9.14    263      -63.3
   11/10/2018 22:40      46.3      45.5       42     24.0      0.00      0.32      67.6     0.29      1015.4     0.5     SSE   157   1.3     SSE   152   9.14    263      -63.9
   11/10/2018 22:30      46.7      45.9       39     22.8      0.00      0.32      67.6     0.29      1015.4     0.8     SSE   163   1.4     SSE   164   9.14    263      -63.2
   11/10/2018 22:20      46.9      46.3       36     20.9      0.00      0.32      67.6     0.29      1015.5     0.7     SSE   162   1.2       S   181   9.14    263      -63.3
   11/10/2018 22:10      47.3      46.6       35     20.5      0.00      0.32      67.6     0.29      1015.4     0.0       E    99   0.7     SSE   151   9.14    263      -64.5
   11/10/2018 22:00      47.4      46.8       39     23.4      0.00      0.32      67.6     0.29      1015.3     0.3     SSE   165   1.0     SSE   162   9.14    263      -64.0
   11/10/2018 21:50      47.3      46.8       41     24.3      0.00      0.32      67.6     0.29      1015.2     0.7     SSE   157   1.4     SSE   156   9.14    263      -64.9
   11/10/2018 21:40      47.5      47.0       38     22.9      0.00      0.32      67.6     0.29      1015.1     0.6     SSE   158   1.4      SE   146   9.14    263      -65.1
   11/10/2018 21:30      48.1      47.4       36     22.1      0.00      0.32      67.6     0.29      1015.1     0.7     SSE   164   1.3     SSE   160   9.14    262      -64.9
   11/10/2018 21:20      48.1      47.4       35     21.7      0.00      0.32      67.6     0.29      1015.0     1.1     SSW   195   2.0     SSW   206   9.14    263      -64.5
   11/10/2018 21:10      48.7      47.3       37     22.6      0.00      0.32      67.6     0.29      1014.8     0.1     WSW   237   1.2     WSW   238   9.14    262      -65.4
   11/10/2018 21:00      49.8      48.4       36     22.9      0.00      0.32      67.7     0.29      1014.7     0.0      SE   143   0.8      SE   143   9.14    262      -66.0
   11/10/2018 20:50      49.9      49.4       31     20.2      0.00      0.32      67.7     0.29      1014.6     0.7       S   171   1.6       S   184   9.14    262      -64.9
   11/10/2018 20:40      49.7      49.2       35     22.8      0.00      0.32      67.7     0.29      1014.7     0.6     SSE   162   1.1     SSE   154   9.14    262      -66.3
   11/10/2018 20:30      50.6      49.4       33     22.2      0.00      0.32      67.7     0.29      1014.7     0.8     SSE   159   1.4      SE   142   9.15    262      -66.8
   11/10/2018 20:20      51.0      50.4       30     20.7      0.00      0.32      67.7     0.29      1014.7     0.5     SSE   163   1.1     SSE   158   9.15    262      -66.6
   11/10/2018 20:10      51.4      50.7       30     20.6      0.00      0.32      67.7     0.29      1014.6     0.0     SSE   159   0.8     SSE   159   9.15    262      -67.2
   11/10/2018 20:00      51.4      50.6       30     20.9      0.00      0.32      67.7     0.29      1014.5     0.5       S   181   1.2       S   180   9.15    262      -68.3
   11/10/2018 19:50      52.2      51.1       31     22.1      0.00      0.32      67.7     0.29      1014.5     0.5     SSE   152   1.5      SE   146   9.15    262      -69.8
   11/10/2018 19:40      52.3      51.9       30     21.8      0.00      0.32      67.7     0.29      1014.4     0.7     SSE   157   1.7      SE   142   9.15    262      -71.0
   11/10/2018 19:30      52.5      51.7       30     21.6      0.00      0.32      67.7     0.29      1014.4     1.1     SSE   160   2.0     SSE   149   9.15    262      -72.5
   11/10/2018 19:20      52.3      51.6       29     20.3      0.00      0.32      67.6     0.29      1014.5     0.9     SSE   167   1.6       S   187   9.16    262      -72.7
   11/10/2018 19:10      52.9      51.9       27     19.5      0.00      0.32      67.6     0.29      1014.4     1.0     SSE   157   2.1      SE   146   9.16    262      -73.0
   11/10/2018 19:00      52.7      52.0       27     19.6      0.00      0.32      67.6     0.29      1014.5     1.0     SSE   161   1.8       S   179   9.16    262      -72.8
   11/10/2018 18:50      54.0      52.5       26     19.2      0.00      0.32      67.6     0.29      1014.4     1.1     ESE   123   1.9      SE   138   9.16    262      -74.6
   11/10/2018 18:40      53.9      53.4       24     17.2      0.00      0.32      67.6     0.29      1014.3     0.9       S   184   1.5     SSW   195   9.16    262      -74.2
   11/10/2018 18:30      54.5      53.6       26     19.9      0.00      0.32      67.5     0.29      1014.2     0.3     SSE   149   1.6      SE   145   9.16    262      -78.2
   11/10/2018 18:20      55.4      54.3       25     19.6      0.00      0.32      67.5     0.29      1014.0     0.9     SSE   159   1.8      SE   146   9.16    262      -78.9
   11/10/2018 18:10      56.5      55.0       24     19.0      0.00      0.32      67.5     0.29      1014.0     0.8     SSE   160   1.3       S   169   9.16    262      -80.0
   11/10/2018 18:00      57.1      56.1       22     18.1      0.00      0.32      67.5     0.29      1014.0     0.7     SSE   153   1.9       S   173   9.17    262      -81.6
   11/10/2018 17:50      57.9      56.8       21     18.2      0.00      0.32      67.4     0.29      1014.0     1.1     SSE   156   1.9      SE   146   9.17    261      -82.9
   11/10/2018 17:40      58.8      57.6       21     18.1      0.00      0.32      67.4     0.29      1013.9     1.0     SSE   156   2.1     SSE   156   9.17    261      -85.1
   11/10/2018 17:30      60.0      58.7       19     17.2      0.00      0.32      67.4     0.29      1013.9     1.2       S   172   2.2       S   188   9.17    261      -86.0
   11/10/2018 17:20      62.3      59.7       18     16.8      0.00      0.32      67.3     0.29      1013.9     0.6     SSE   165   1.4       S   189   9.17    261      -87.3
   11/10/2018 17:10      65.8      62.2       14     14.3      0.00      0.32      67.3     0.29      1013.8     1.0     SSE   152   1.7      SE   137   9.17    261      -88.3
   11/10/2018 17:00      68.0      65.7       10      9.3      0.00      0.32      67.3     0.29      1013.7     0.4       S   173   1.6      SE   143   9.18    260      -89.0
   11/10/2018 16:50      69.7      67.8        9      8.6      0.00      0.32      67.3     0.29      1013.8     0.7      SW   216   2.2      SW   224   9.18    260      -90.1
   11/10/2018 16:40      70.6      69.2        9      7.8      0.00      0.32      67.2     0.29      1013.7     2.2     SSW   210   4.3     SSW   201   9.18    260      -90.3
   11/10/2018 16:30      71.0      70.3        8      6.3      0.00      0.32      67.2     0.29      1013.7     3.3      SW   235   6.0      SW   236   9.18    260      -85.6
   11/10/2018 16:20      71.5      70.6        8      5.5      0.00      0.32      67.1     0.29      1013.6     3.5      SW   228   6.3      SW   230   9.19    260      -79.0
   11/10/2018 16:10      72.4      71.3        7      5.6      0.00      0.32      67.1     0.29      1013.6     3.1      SW   223   5.3      SW   227   9.19    260      -58.8
   11/10/2018 16:00      73.1      72.2        7      5.9      0.00      0.32      67.1     0.29      1013.5     2.3     SSW   209   4.8      SW   215   9.19    260      -45.8
   11/10/2018 15:50      73.4      72.8        7      5.1      0.00      0.32      67.0     0.29      1013.5     2.9      SW   226   6.4     WSW   251   9.19    260      -28.6
   11/10/2018 15:40      73.4      73.1        7      5.4      0.00      0.32      67.0     0.29      1013.4     3.7      SW   218   6.3      SW   222   9.19    260      -11.1
   11/10/2018 15:30      73.6      73.1        7      6.2      0.00      0.32      67.0     0.29      1013.4     3.3      SW   221   6.1     WSW   238   9.20    260      -12.0
   11/10/2018 15:20      74.0      73.3        7      6.9      0.00      0.32      66.9     0.29      1013.5     3.3      SW   225   5.3     WSW   237   9.20    260       -9.7
   11/10/2018 15:10      74.8      73.7        7      6.3      0.00      0.32      66.9     0.29      1013.5     4.6      SW   230   7.4       W   263   9.20    260        0.8
   11/10/2018 15:00      75.1      74.3        7      6.3      0.00      0.32      66.9     0.29      1013.4     4.2      SW   224   7.3     WSW   257   9.20    260       19.1
   11/10/2018 14:50      75.4      74.8        7      6.6      0.00      0.32      66.8     0.29      1013.4     4.7      SW   227   7.3      SW   214   9.20    259       43.7
   11/10/2018 14:40      75.6      75.2        7      6.0      0.00      0.32      66.8     0.29      1013.4     5.2      SW   215   8.0      SW   227   9.21    259       85.0
   11/10/2018 14:30      76.2      75.3        7      6.1      0.00      0.32      66.8     0.29      1013.3     5.3      SW   217   9.0     SSW   212   9.21    259       74.1
   11/10/2018 14:20      76.3      75.7        7      6.3      0.00      0.32      66.7     0.29      1013.3     4.8      SW   215   8.2       S   184   9.21    259      125.0
   11/10/2018 14:10      76.8      75.7        7      6.1      0.00      0.32      66.7     0.29      1013.3     5.9      SW   224  11.1      SW   227   9.21    259      127.5
   11/10/2018 14:00      77.9      76.4        6      6.1      0.00      0.32      66.7     0.29      1013.3     5.6      SW   235   8.5     WSW   241   9.21    259      134.8
   11/10/2018 13:50      78.8      77.6        6      6.6      0.00      0.32      66.6     0.29      1013.3     5.1     WSW   239   8.3      SW   217   9.22    259      190.0
   11/10/2018 13:40      78.7      77.7        6      6.8      0.00      0.32      66.6     0.29      1013.4     4.7     WSW   238   8.6     WSW   240   9.22    259      231.2
   11/10/2018 13:30      78.2      77.7        6      6.0      0.00      0.32      66.6     0.29      1013.5     5.2      SW   215   7.6     SSW   203   9.22    259      251.3
   11/10/2018 13:20      78.8      77.9        6      6.4      0.00      0.32      66.6     0.29      1013.6     6.1      SW   219   8.3     WSW   243   9.22    259      263.1
   11/10/2018 13:10      79.7      78.1        6      7.0      0.00      0.32      66.5     0.29      1013.7     4.7      SW   224   9.3      SW   217   9.22    259      245.3
   11/10/2018 13:00      80.0      79.3        6      7.2      0.00      0.32      66.6     0.29      1013.8     2.5     SSW   211   6.4      SW   230   9.22    259      229.5
   11/10/2018 12:50      80.3      78.7        7      9.6      0.00      0.32      66.5     0.29      1013.9     1.5       E    80   5.2       S   174   9.22    259      256.6
   11/10/2018 12:40      78.7      77.3        7      9.0      0.00      0.32      66.4     0.29      1014.1     1.6       N     9   4.7       N     7   9.22    259      235.5
   11/10/2018 12:30      77.8      77.3        8     10.5      0.00      0.32      66.5     0.29      1014.3     2.1     NNE    20   5.1     NNE    16   9.22    259      237.4
   11/10/2018 12:20      77.9      77.1        8     10.4      0.00      0.32      66.5     0.29      1014.4     1.9       N     4   3.6      NE    38   9.22    259      253.6
   11/10/2018 12:10      78.0      76.9        7      9.4      0.00      0.32      66.5     0.29      1014.6     1.1     NNE    20   2.9     NNE    26   9.22    259      276.1
   11/10/2018 12:00      77.3      75.9        8      9.7      0.00      0.32      66.5     0.29      1014.7     1.5      NE    49   2.9     ESE   113   9.22    259      291.1
   11/10/2018 11:50      76.6      75.7        8     11.7      0.00      0.32      66.5     0.29      1014.9     1.8       N    11   3.8     ESE   114   9.22    259      322.6
   11/10/2018 11:40      76.0      74.5        9     12.0      0.00      0.32      66.6     0.29      1015.1     1.2       N     8   2.7     NNW   346   9.22    259      338.4
   11/10/2018 11:30      75.0      73.4        9     11.7      0.00      0.32      66.6     0.29      1015.3     1.3      NE    35   2.9       E    82   9.22    259      332.4
   11/10/2018 11:20      73.7      72.7       10     12.4      0.00      0.32      66.6     0.29      1015.6     1.7       N     8   3.4     NNE    15   9.22    259      324.3
   11/10/2018 11:10      73.3      71.8        9      9.9      0.00      0.32      66.6     0.29      1015.8     1.8       N     6   3.1       N    10   9.22    259      336.9
   11/10/2018 11:00      72.1      70.9        8      8.0      0.00      0.32      66.7     0.29      1016.0     1.4     NNW   347   3.3      NE    44   9.22    259      326.8
   11/10/2018 10:50      71.5      70.6        9      9.8      0.00      0.32      66.7     0.29      1016.1     1.1       N   349   2.9       N    10   9.22    259      314.0
   11/10/2018 10:40      70.8      69.3       10     11.5      0.00      0.32      66.7     0.29      1016.2     0.9     NNE    17   2.2     NNW   346   9.22    260      309.9
   11/10/2018 10:30      69.9      68.2       10     10.8      0.00      0.32      66.8     0.29      1016.3     0.6       E    79   1.8      NE    38   9.22    260      302.1
   11/10/2018 10:20      69.3      67.7       11     11.3      0.00      0.32      66.8     0.29      1016.3     0.9      NE    44   2.3       N     8   9.22    260      277.6
   11/10/2018 10:10      67.8      66.2       13     14.6      0.00      0.32      66.8     0.29      1016.4     0.6     ENE    65   1.8     ENE    61   9.22    260      263.8
   11/10/2018 10:00      66.3      65.0       16     18.0      0.00      0.32      66.9     0.29      1016.5     0.6       N     5   1.9     NNE    24   9.22    260      252.5
   11/10/2018 09:50      65.2      63.7       18     20.3      0.00      0.32      66.9     0.29      1016.6     0.6       N   355   1.8     WNW   291   9.22    260      244.7
   11/10/2018 09:40      63.9      62.6       19     19.8      0.00      0.32      67.0     0.29      1016.6     0.6     NNW   345   1.3     NNW   346   9.22    261      229.1
   11/10/2018 09:30      62.8      59.9       21     21.2      0.00      0.32      67.0     0.29      1016.7     0.1      NW   324   1.0     WNW   302   9.22    261      213.4
   11/10/2018 09:20      60.1      59.3       24     22.3      0.00      0.32      67.0     0.29      1016.8     1.2       N     9   2.3       N     7   9.22    261      190.5
   11/10/2018 09:10      59.6      57.9       24     22.6      0.00      0.32      67.1     0.29      1016.8     0.3       N     9   1.9       N   355   9.22    261      169.0
   11/10/2018 09:00      58.0      56.8       24     20.9      0.00      0.32      67.1     0.29      1016.9     0.4     NNE    22   1.1     NNE    16   9.22    261      161.7
   11/10/2018 08:50      56.8      55.9       26     21.4      0.00      0.32      67.2     0.29      1016.8     0.7       N    11   1.6      NE    49   9.22    261      156.6
   11/10/2018 08:40      56.2      54.7       26     21.3      0.00      0.32      67.3     0.29      1016.8     0.2       N     1   1.3     NNW   347   9.22    261      163.2
   11/10/2018 08:30      55.0      53.3       27     21.1      0.00      0.32      67.3     0.29      1016.8     0.0      NE    37   0.5      NE    42   9.22    261      158.3
   11/10/2018 08:20      53.3      51.4       29     20.6      0.00      0.32      67.3     0.29      1016.7     0.0      NE    35   0.6      NE    35   9.22    262      132.2
   11/10/2018 08:10      51.7      50.8       29     20.0      0.00      0.32      67.4     0.29      1016.7     0.0       N     0   0.0       E    94   9.22    262      112.9
   11/10/2018 08:00      50.8      47.8       30     19.1      0.00      0.32      67.4     0.29      1016.7     0.0       N     0   0.0       E    95   9.22    262       87.1
   11/10/2018 07:50      47.9      46.6       30     17.6      0.00      0.32      67.5     0.29      1016.7     0.0       N     0   0.0     NNE    18   9.22    262       55.0
   11/10/2018 07:40      46.8      44.2       32     17.4      0.00      0.32      67.5     0.29      1016.6     0.0     NNE    17   0.4     NNE    17   9.22    263       24.2
   11/10/2018 07:30      44.6      42.2       34     17.3      0.00      0.32      67.6     0.29      1016.5     0.0     NNE    17   0.4     NNE    17   9.22    263        9.5
   11/10/2018 07:20      42.2      40.5       34     15.0      0.00      0.32      67.6     0.29      1016.4     0.0     SSE   162   0.7     SSE   162   9.22    263      -32.1
   11/10/2018 07:10      40.6      39.6       37     15.9      0.00      0.32      67.6     0.29      1016.4     0.0     SSE   159   0.4     SSE   160   9.22    263      -34.8
   11/10/2018 07:00      39.8      39.4       37     15.3      0.00      0.32      67.7     0.29      1016.2     0.2      SE   146   0.9      SE   146   9.22    263      -41.0
   11/10/2018 06:50      39.8      39.3       35     14.1      0.00      0.32      67.7     0.29      1016.2     0.7      SE   137   1.6     ESE   112   9.22    263      -48.2
   11/10/2018 06:40      39.7      39.0       36     14.5      0.00      0.32      67.8     0.29      1016.1     0.4     SSW   194   1.1     SSE   151   9.22    263      -53.1
   11/10/2018 06:30      39.7      39.0       38     15.9      0.00      0.32      67.8     0.29      1016.1     0.9      SE   146   2.4      SE   143   9.22    263      -57.8
   11/10/2018 06:20      39.2      37.9       39     15.7      0.00      0.32      67.8     0.29      1016.0     1.4     SSE   150   2.4      SE   141   9.22    263      -61.6
   11/10/2018 06:10      38.2      37.6       38     14.2      0.00      0.32      67.9     0.29      1015.9     1.0     SSE   153   2.0      SE   140   9.22    263      -63.1
   11/10/2018 06:00      39.7      37.8       36     14.0      0.00      0.32      67.9     0.29      1015.9     0.7     SSE   158   1.8     SSE   167   9.22    263      -64.2
   11/10/2018 05:50      39.5      39.0       37     15.1      0.00      0.32      68.0     0.29      1015.9     0.6       N     2   1.3     NNE    12   9.22    263      -62.8
   11/10/2018 05:40      39.1      38.7       38     15.4      0.00      0.32      68.0     0.29      1015.8     0.4       S   180   1.3      SW   220   9.22    263      -61.5
   11/10/2018 05:30      39.4      38.7       35     13.8      0.00      0.32      68.1     0.29      1015.8     0.5     SSE   167   1.2       S   177   9.23    263      -61.5
   11/10/2018 05:20      39.4      38.7       32     11.3      0.00      0.32      68.1     0.29      1015.8     0.5     SSE   163   1.4     SSE   162   9.23    262      -61.6
   11/10/2018 05:10      39.0      38.1       32     11.1      0.00      0.32      68.2     0.29      1015.8     0.7     SSE   161   1.0     SSE   165   9.23    263      -62.2
   11/10/2018 05:00      39.2      38.6       32     11.2      0.00      0.32      68.2     0.29      1015.8     0.0       N     0   0.0     SSE   162   9.23    262      -61.7
   11/10/2018 04:50      39.6      38.9       30     10.0      0.00      0.32      68.2     0.29      1015.7     0.0     SSE   163   0.5     SSE   163   9.23    262      -62.4
   11/10/2018 04:40      40.1      39.3       32     12.0      0.00      0.32      68.3     0.29      1015.8     0.0     SSW   192   0.5     SSW   192   9.23    263      -62.5
   11/10/2018 04:30      40.8      39.8       28      9.6      0.00      0.32      68.3     0.29      1015.7     0.0       N     0   0.0     WSW   247   9.23    262      -63.3
   11/10/2018 04:20      40.7      40.1       28      9.4      0.00      0.32      68.3     0.29      1015.8     0.2      SW   223   0.8     WSW   247   9.23    262      -63.2
   11/10/2018 04:10      40.9      40.3       28      9.9      0.00      0.32      68.4     0.29      1015.8     0.3       S   176   0.9     SSE   165   9.23    262      -63.6
   11/10/2018 04:00      41.0      40.3       30     11.4      0.00      0.32      68.4     0.29      1016.0     0.2       S   170   0.9     SSE   155   9.23    262      -63.9
   11/10/2018 03:50      41.0      40.3       30     11.3      0.00      0.32      68.5     0.29      1016.1     0.5     SSE   165   1.2       S   175   9.23    262      -65.0
   11/10/2018 03:40      41.5      40.4       30     12.1      0.00      0.32      68.5     0.29      1016.1     0.3      SE   126   1.5      SE   140   9.23    262      -65.8
   11/10/2018 03:30      41.4      40.6       25      7.7      0.00      0.32      68.5     0.29      1016.1     0.2     SSE   168   1.1     SSE   152   9.23    262      -64.8
   11/10/2018 03:20      41.2      40.4       28      9.7      0.00      0.32      68.6     0.29      1016.1     0.3       S   171   1.1     SSE   167   9.23    262      -65.6
   11/10/2018 03:10      42.0      41.0       26      9.3      0.00      0.32      68.6     0.29      1016.1     0.2     SSE   146   1.0     SSE   148   9.23    262      -67.1
   11/10/2018 03:00      41.9      41.2       28     11.0      0.00      0.32      68.6     0.29      1016.0     0.1       N     0   1.0     NNE    20   9.23    262      -67.4
   11/10/2018 02:50      42.0      41.4       24      7.6      0.00      0.32      68.7     0.29      1016.0     0.4     SSE   164   1.1       S   172   9.23    262      -66.9
   11/10/2018 02:40      42.4      41.8       26      9.8      0.00      0.32      68.7     0.29      1016.1     0.6     SSE   161   1.8       S   184   9.23    262      -67.6
   11/10/2018 02:30      42.8      42.1       25      8.8      0.00      0.32      68.7     0.29      1016.1     0.0      SE   128   0.6      SE   134   9.23    262      -67.3
   11/10/2018 02:20      43.4      42.4       27     10.8      0.00      0.32      68.8     0.29      1016.2     0.4      SE   143   1.3      SE   141   9.23    262      -68.3
   11/10/2018 02:10      43.4      42.6       23      7.4      0.00      0.32      68.8     0.29      1016.3     0.4       S   175   1.2     SSE   153   9.23    262      -67.6
   11/10/2018 02:00      43.6      42.9       25      9.5      0.00      0.32      68.8     0.29      1016.4     0.1       S   169   1.1     SSE   161   9.23    262      -68.0
   11/10/2018 01:50      44.4      43.2       22      7.5      0.00      0.32      68.8     0.29      1016.5     0.1     SSE   162   0.9     SSE   161   9.24    262      -69.0
   11/10/2018 01:40      44.4      43.7       22      7.9      0.00      0.32      68.9     0.29      1016.6     0.4       S   178   2.0     SSE   160   9.24    262      -69.7
   11/10/2018 01:30      44.2      43.7       23      8.6      0.00      0.32      68.9     0.29      1016.6     0.7     SSW   203   2.3     SSW   192   9.24    262      -70.2
   11/10/2018 01:20      44.4      43.5       24      9.1      0.00      0.32      69.0     0.29      1016.7     0.4      NW   312   1.7       S   186   9.24    262      -70.2
   11/10/2018 01:10      45.5      44.1       22      8.3      0.00      0.32      68.9     0.29      1016.7     0.2      NE    55   1.5       N     8   9.24    262      -70.2
   11/10/2018 01:00      45.8      45.1       20      6.8      0.00      0.32      69.0     0.29      1016.7     0.6     SSE   150   1.6     SSE   163   9.24    262      -70.6
   11/10/2018 00:50      45.6      45.0       20      6.8      0.00      0.32      69.0     0.29      1016.8     0.4       W   276   1.0      NW   308   9.24    262      -70.2
   11/10/2018 00:40      46.4      45.4       20      7.5      0.00      0.32      69.0     0.29      1016.8     0.4     SSE   162   1.7     SSE   154   9.24    262      -71.5
   11/10/2018 00:30      46.5      46.0       20      6.9      0.00      0.32      69.1     0.29      1016.7     0.3     SSE   166   1.2     SSE   165   9.24    262      -72.1
   11/10/2018 00:20      47.0      46.4       20      7.9      0.00      0.32      69.1     0.29      1016.8     0.5     SSE   163   1.9     SSE   163   9.24    262      -73.2
   11/10/2018 00:10      47.2      46.4       20      7.6      0.00      0.32      69.1     0.29      1016.9     0.3     ESE   116   2.1     NNE    23   9.24    262      -74.1
   11/10/2018 00:00      47.2      46.9       22      9.9      0.00      0.32      69.2     0.29      1017.0     0.8     SSE   156   1.9     SSE   165   9.24    262      -73.8
   11/09/2018 23:50      47.6      46.9       22     10.2      0.00      0.32      69.1     0.29      1017.1     0.9     SSE   163   2.0     SSE   158   9.25    262      -74.5
   11/09/2018 23:40      48.6      47.5       18      6.5      0.00      0.32      69.2     0.29      1017.2     0.6     SSE   162   1.8     SSE   155   9.25    262      -74.9
   11/09/2018 23:30      48.5      48.0       18      6.3      0.00      0.32      69.2     0.29      1017.3     0.5       S   181   1.7       S   184   9.25    262      -74.4
   11/09/2018 23:20      49.4      48.2       18      7.0      0.00      0.32      69.2     0.29      1017.3     0.4     SSE   156   1.3     SSW   195   9.25    262      -75.7
   11/09/2018 23:10      50.3      49.3       17      6.6      0.00      0.32      69.2     0.29      1017.3     0.4     SSE   151   1.5       S   179   9.25    262      -77.1
   11/09/2018 23:00      50.8      49.9       18      8.0      0.00      0.32      69.2     0.29      1017.3     0.6      SE   139   2.7       S   172   9.25    262      -78.5
   11/09/2018 22:50      51.1      50.0       18      8.7      0.00      0.32      69.3     0.29      1017.3     1.0     SSE   154   2.1     SSE   167   9.25    262      -78.5
   11/09/2018 22:40      52.1      51.0       17      8.0      0.00      0.32      69.3     0.29      1017.3     1.0     SSE   154   1.7     SSE   157   9.25    262      -78.8
   11/09/2018 22:30      52.4      51.7       14      3.7      0.00      0.32      69.3     0.29      1017.2     0.4     SSE   161   1.6      SE   138   9.26    261      -80.2
   11/09/2018 22:20      53.7      52.2       15      7.0      0.00      0.32      69.3     0.29      1017.2     1.4     SSE   156   2.7      SE   134   9.26    261      -82.2
   11/09/2018 22:10      54.5      53.6       14      5.5      0.00      0.32      69.3     0.29      1017.3     1.1     SSE   157   3.4      SW   215   9.26    261      -83.5
   11/09/2018 22:00      54.5      53.5       14      5.8      0.00      0.32      69.3     0.29      1017.4     1.6     SSE   165   2.8     SSW   205   9.26    261      -83.2
   11/09/2018 21:50      54.8      53.4       14      5.5      0.00      0.32      69.3     0.29      1017.5     1.4     SSE   153   2.9      SW   231   9.26    261      -83.7
   11/09/2018 21:40      55.4      54.4       14      6.0      0.00      0.32      69.3     0.29      1017.5     1.8     SSE   151   3.1      SE   141   9.26    261      -84.4
   11/09/2018 21:30      55.5      54.7       14      6.0      0.00      0.32      69.3     0.29      1017.5     2.1     SSE   149   3.9      SE   136   9.26    261      -85.1
   11/09/2018 21:20      56.4      55.2       13      5.2      0.00      0.32      69.3     0.29      1017.5     2.0     SSE   155   3.8     SSW   201   9.27    261      -84.7
   11/09/2018 21:10      57.4      55.7       12      4.6      0.00      0.32      69.3     0.29      1017.3     1.5     SSE   149   3.2      SE   140   9.27    261      -85.9
   11/09/2018 21:00      57.7      56.5       11      3.1      0.00      0.32      69.3     0.29      1017.2     1.7     SSE   155   3.2      SE   139   9.27    261      -87.0
   11/09/2018 20:50      59.5      57.3       10      2.1      0.00      0.32      69.4     0.29      1017.1     1.4     SSE   159   4.3      SE   134   9.27    261      -88.0
   11/09/2018 20:40      59.3      58.0        9      0.7      0.00      0.32      69.3     0.29      1017.0     1.3     ESE   120   3.7     SSE   162   9.27    261      -88.9
   11/09/2018 20:30      60.1      58.6       10      1.8      0.00      0.32      69.3     0.29      1016.9     2.2     SSE   159   3.8     SSE   165   9.27    261      -89.3
   11/09/2018 20:20      62.5      59.1        8     -0.0      0.00      0.32      69.3     0.29      1016.9     2.0     SSE   154   4.4       S   175   9.27    261      -90.0
   11/09/2018 20:10      62.0      61.2        7     -3.2      0.00      0.32      69.3     0.29      1016.8     1.2     SSE   162   3.1       S   180   9.28    261      -89.9
   11/09/2018 20:00      61.5      59.8        8     -1.3      0.00      0.32      69.3     0.29      1016.9     1.2       S   171   3.1       S   174   9.28    260      -91.1
   11/09/2018 19:50      60.0      59.3        8     -1.1      0.00      0.32      69.3     0.29      1016.9     1.1       S   178   2.6       E    91   9.28    261      -92.0
   11/09/2018 19:40      61.3      59.4        8     -0.0      0.00      0.32      69.3     0.29      1016.9     1.7       S   174   3.8      SE   135   9.28    260      -94.8
   11/09/2018 19:30      63.5      60.8        8      0.8      0.00      0.32      69.3     0.29      1016.8     1.3     SSE   152   3.7     SSE   169   9.28    260      -97.9
   11/09/2018 19:20      68.5      63.3        6     -4.1      0.00      0.32      69.3     0.29      1016.7     1.8       S   169   4.3       S   182   9.28    260      -99.9
   11/09/2018 19:10      68.5      68.1        5     -6.2      0.00      0.32      69.3     0.29      1016.6     2.5     NNE    17   8.2     NNE    13   9.29    260     -104.5
   11/09/2018 19:00      69.0      68.3        5     -6.2      0.00      0.32      69.3     0.29      1016.5     2.9     NNE    21   6.3       N     4   9.29    260     -105.3
   11/09/2018 18:50      69.5      68.6        5     -6.3      0.00      0.32      69.3     0.29      1016.4     3.9       N     9   8.0      NE    37   9.29    260     -105.4
   11/09/2018 18:40      69.6      69.0        5     -6.4      0.00      0.32      69.3     0.29      1016.4     4.2       N    10   7.8     NNE    18   9.29    260     -106.1
   11/09/2018 18:30      69.6      69.2        4     -6.7      0.00      0.32      69.3     0.29      1016.4     4.8       N     8  10.0       N     0   9.29    260     -106.7
   11/09/2018 18:20      69.5      69.1        5     -6.6      0.00      0.32      69.2     0.29      1016.4     4.6       N    10   9.3       N     0   9.30    260     -106.6
   11/09/2018 18:10      69.7      69.1        5     -6.3      0.00      0.32      69.2     0.29      1016.3     4.2     NNE    19   9.3       N     7   9.30    260     -107.2
   11/09/2018 18:00      70.1      69.3        5     -6.5      0.00      0.32      69.2     0.29      1016.2     4.3     NNE    13   9.1     NNE    29   9.30    260     -108.6
   11/09/2018 17:50      70.1      69.7        4     -6.8      0.00      0.32      69.2     0.29      1016.1     6.4       N     8  11.2     NNE    12   9.30    260     -109.4
   11/09/2018 17:40      70.6      69.8        4     -6.7      0.00      0.32      69.2     0.29      1016.0     5.8     NNE    14  11.9       N   351   9.31    260     -110.4
   11/09/2018 17:30      70.6      70.1        4     -6.6      0.00      0.32      69.2     0.29      1016.0     7.0     NNE    17  13.1     NNW   331   9.31    260     -111.1
   11/09/2018 17:20      70.6      70.1        5     -5.9      0.00      0.32      69.2     0.29      1015.9     5.5     NNE    13  10.2      NE    53   9.31    260     -111.5
   11/09/2018 17:10      70.9      70.3        5     -5.5      0.00      0.32      69.1     0.29      1015.9     5.3     NNE    13  10.9      NW   311   9.32    260     -112.2
   11/09/2018 17:00      71.5      70.6        5     -5.4      0.00      0.32      69.1     0.29      1015.9     6.1       N     6  12.8       N   353   9.32    260     -111.1
   11/09/2018 16:50      71.7      70.9        5     -4.9      0.00      0.32      69.1     0.29      1015.9     5.9     NNE    12  13.9     NNE    12   9.33    260     -108.2
   11/09/2018 16:40      72.0      71.3        5     -4.8      0.00      0.32      69.1     0.29      1015.9     7.1     NNE    17  16.3       N     0   9.33    260     -104.9
   11/09/2018 16:30      72.5      71.7        5     -4.7      0.00      0.32      69.1     0.29      1015.9     7.0       N    11  13.1     NNE    20   9.33    260     -101.1
   11/09/2018 16:20      72.9      72.1        4     -4.7      0.00      0.32      69.0     0.29      1015.9     7.3     NNE    13  13.7      NW   317   9.34    260      -95.7
   11/09/2018 16:10      73.3      72.5        5     -4.1      0.00      0.32      69.0     0.29      1015.9     7.0     NNE    16  13.3     WSW   237   9.34    260      -45.8
   11/09/2018 16:00      73.5      72.9        4     -4.1      0.00      0.32      69.0     0.29      1016.0     8.0     NNE    16  13.3       N   355   9.34    259      -31.5
   11/09/2018 15:50      73.6      73.3        5     -3.6      0.00      0.32      69.0     0.29      1016.0     6.9       N    11  12.4     NNW   347   9.35    259       -7.7
   11/09/2018 15:40      74.0      73.4        4     -4.2      0.00      0.32      68.9     0.29      1016.1     8.0       N    10  15.1       N     9   9.35    260       17.1
   11/09/2018 15:30      74.1      73.7        4     -3.6      0.00      0.32      68.9     0.29      1016.1     7.5       N     4  15.6     NNE    16   9.35    260       40.5
   11/09/2018 15:20      74.2      73.7        5     -3.3      0.00      0.32      68.9     0.29      1016.2     7.9       N     5  14.0     NNE    26   9.36    260       63.8
   11/09/2018 15:10      74.5      73.8        4     -3.4      0.00      0.32      68.9     0.29      1016.2     9.3       N     4  19.1       N     9   9.36    260       89.3
   11/09/2018 15:00      74.5      74.1        4     -3.6      0.00      0.32      68.8     0.29      1016.3     8.1       N     7  16.8     NNW   342   9.36    259      113.9
   11/09/2018 14:50      74.7      74.2        4     -3.7      0.00      0.32      68.8     0.29      1016.2     8.7       N     5  16.2       N     8   9.37    259      137.9
   11/09/2018 14:40      75.0      74.5        5     -2.8      0.00      0.32      68.8     0.29      1016.3     7.4       N     8  12.4      NE    43   9.37    259      157.9
   11/09/2018 14:30      74.8      74.2        5     -2.4      0.00      0.32      68.7     0.29      1016.3     7.6       N   357  17.2     NNE    32   9.37    259      180.5
   11/09/2018 14:20      74.7      74.2        5     -2.6      0.00      0.32      68.7     0.29      1016.3     8.4       N     4  15.2       N     4   9.38    259      201.5
   11/09/2018 14:10      75.2      74.3        5     -2.2      0.00      0.32      68.7     0.29      1016.4     9.4       N    10  18.3     NNW   343   9.38    259      220.3
   11/09/2018 14:00      75.4      74.6        5     -2.3      0.00      0.32      68.7     0.29      1016.4     8.3       N    10  13.7       N   351   9.38    259      238.4
   11/09/2018 13:50      75.5      74.7        5     -1.6      0.00      0.32      68.7     0.29      1016.5     6.7       N     9  12.8     NNE    18   9.38    259      253.1
   11/09/2018 13:40      75.2      74.1        5     -2.4      0.00      0.32      68.7     0.29      1016.5     7.6     NNE    19  14.2       E    88   9.39    259      270.4
   11/09/2018 13:30      74.7      73.8        4     -3.8      0.00      0.32      68.6     0.29      1016.6    11.0     NNE    14  19.1     NNE    14   9.39    259      285.5
   11/09/2018 13:20      74.5      74.0        5     -2.8      0.00      0.32      68.6     0.29      1016.7     9.1       N     9  19.0       N     2   9.40    259      298.0
   11/09/2018 13:10      75.2      74.0        5     -2.6      0.00      0.32      68.6     0.29      1016.8    10.0     NNE    12  19.1     NNE    26   9.40    259      307.9
   11/09/2018 13:00      75.0      74.1        4     -3.2      0.00      0.32      68.6     0.29      1016.9     8.5     NNE    20  15.5     NNW   346   9.40    259      321.3
   11/09/2018 12:50      74.8      74.0        5     -2.5      0.00      0.32      68.6     0.29      1017.0     8.1       N    10  16.8     NNE    13   9.40    259      330.6
   11/09/2018 12:40      74.4      73.7        5     -2.8      0.00      0.32      68.6     0.29      1017.1     9.6     NNE    13  20.4     NNE    20   9.40    259      343.5
   11/09/2018 12:30      74.2      73.7        5     -2.2      0.00      0.32      68.5     0.29      1017.1     9.3       N     7  17.8     NNW   329   9.41    259      351.7
   11/09/2018 12:20      74.3      73.5        5     -2.3      0.00      0.32      68.5     0.29      1017.3     9.4       N    10  16.3       N     6   9.41    259      359.6
   11/09/2018 12:10      74.0      73.2        5     -2.8      0.00      0.32      68.5     0.29      1017.4    10.7     NNE    16  19.6     NNE    14   9.41    259      366.7
   11/09/2018 12:00      74.4      73.2        5     -2.4      0.00      0.32      68.5     0.29      1017.6    10.6       N     7  20.8     NNE    31   9.42    259      368.8
   11/09/2018 11:50      74.3      73.3        5     -2.2      0.00      0.32      68.5     0.29      1017.8     8.3     NNE    16  17.8     NNE    22   9.42    259      371.7
   11/09/2018 11:40      73.8      73.0        5     -2.9      0.00      0.32      68.5     0.29      1018.0    10.2       N    11  19.8     NNE    17   9.42    259      374.4
   11/09/2018 11:30      74.0      73.2        5     -2.4      0.00      0.32      68.5     0.29      1018.2     7.9       N     6  14.2       N     8   9.42    259      371.7
   11/09/2018 11:20      74.1      73.2        5     -2.3      0.00      0.32      68.5     0.29      1018.3     9.6     NNE    20  18.1     ENE    58   9.43    259      372.1
   11/09/2018 11:10      73.7      72.7        5     -1.7      0.00      0.32      68.5     0.29      1018.4     7.9       N     5  12.8       N    11   9.43    259      368.2
   11/09/2018 11:00      73.4      72.7        5     -2.7      0.00      0.32      68.5     0.29      1018.6     9.7       N     4  19.9       N   350   9.43    259      364.6
   11/09/2018 10:50      73.3      72.4        5     -2.1      0.00      0.32      68.6     0.29      1018.7     8.3       N     5  16.3       N   350   9.43    259      359.1
   11/09/2018 10:40      72.9      72.3        5     -2.0      0.00      0.32      68.5     0.29      1018.8     8.7       N     5  21.3       N   350   9.44    259      352.9
   11/09/2018 10:30      72.6      72.2        5     -1.8      0.00      0.32      68.5     0.29      1018.9     8.3       N     8  17.0       N     0   9.44    259      344.8
   11/09/2018 10:20      72.5      71.6        5     -1.3      0.00      0.32      68.6     0.29      1018.9     7.7       N     4  16.6     NNE    30   9.44    259      336.4
   11/09/2018 10:10      72.1      71.5        5     -1.2      0.00      0.32      68.6     0.29      1018.9     9.0       N     8  15.3       N    10   9.44    260      327.3
   11/09/2018 10:00      72.1      70.7        6     -0.9      0.00      0.32      68.6     0.29      1019.0     7.5       N     5  13.3       N   354   9.44    259      316.2
   11/09/2018 09:50      71.3      70.7        6     -1.2      0.00      0.32      68.6     0.29      1019.1     9.2       N     9  17.9     NNE    11   9.44    260      303.1
   11/09/2018 09:40      71.4      70.3        6     -0.6      0.00      0.32      68.6     0.29      1019.1     6.8       N   350  12.8     NNW   328   9.44    260      284.8
   11/09/2018 09:30      70.7      70.1        6     -0.8      0.00      0.32      68.7     0.29      1019.2     7.6       N     2  18.0       N     7   9.44    260      260.8
   11/09/2018 09:20      70.6      69.7        6     -1.6      0.00      0.32      68.7     0.29      1019.2     7.9     NNE    12  15.7     NNE    12   9.45    260      251.9
   11/09/2018 09:10      69.9      69.5        6     -1.7      0.00      0.32      68.7     0.29      1019.2     8.7       N     8  17.9     NNW   345   9.45    260      238.5
   11/09/2018 09:00      69.7      69.1        6     -1.4      0.00      0.32      68.7     0.29      1019.3     6.7     NNE    11  16.1       N     3   9.45    260      219.1
   11/09/2018 08:50      69.2      68.5        6     -1.8      0.00      0.32      68.7     0.29      1019.2     8.3       N    10  16.8     NNE    27   9.45    260      201.2
   11/09/2018 08:40      68.9      68.1        6     -1.7      0.00      0.32      68.8     0.29      1019.2     8.8     NNE    16  18.6       N     5   9.45    260      183.1
   11/09/2018 08:30      68.3      67.6        6     -1.7      0.00      0.32      68.8     0.29      1019.2     8.5     NNE    12  15.8     NNE    13   9.45    260      162.4
   11/09/2018 08:20      67.8      67.2        6     -1.4      0.00      0.32      68.8     0.29      1019.1     8.5     NNE    14  16.0      NE    42   9.45    260      141.7
   11/09/2018 08:10      67.4      66.9        6     -1.3      0.00      0.32      68.8     0.29      1019.1     9.3       N     9  17.4       N   352   9.46    260      122.2
   11/09/2018 08:00      67.2      66.3        7     -0.7      0.00      0.32      68.8     0.29      1019.1     7.0       N     7  18.3     NNE    21   9.46    260      102.4
   11/09/2018 07:50      66.6      66.0        7     -1.0      0.00      0.32      68.9     0.29      1019.1     8.7       N     6  16.7     NNE    22   9.46    260       63.8
   11/09/2018 07:40      66.2      65.5        7     -0.3      0.00      0.32      68.9     0.29      1019.0     7.3     NNE    11  15.1     WNW   302   9.46    261        1.4
   11/09/2018 07:30      65.6      64.9        7      0.0      0.00      0.32      68.9     0.29      1019.0     6.7     NNE    15  13.7     ENE    70   9.46    261       23.3
   11/09/2018 07:20      65.2      64.6        7      0.4      0.00      0.32      68.9     0.29      1018.8     7.1     NNE    14  16.5      NE    36   9.46    261      -76.5
   11/09/2018 07:10      64.8      64.2        7      0.0      0.00      0.32      68.9     0.29      1018.8     5.7     NNE    21  13.3       N   352   9.46    261      -78.4
   11/09/2018 07:00      64.5      63.9        7     -0.7      0.00      0.32      69.0     0.29      1018.7     6.0     NNE    13  13.0     NNE    14   9.46    261      -80.8
   11/09/2018 06:50      64.1      63.7        7     -0.9      0.00      0.32      69.0     0.29      1018.6     6.7     NNE    18  13.9      NE    34   9.47    261      -85.5
   11/09/2018 06:40      64.0      63.5        7     -0.8      0.00      0.32      69.0     0.29      1018.5     6.9       N     6  12.4     NNW   342   9.47    261      -90.2
   11/09/2018 06:30      64.2      63.7        7     -0.9      0.00      0.32      69.0     0.29      1018.4     6.7     NNE    16  13.7       N    11   9.47    261      -95.4
   11/09/2018 06:20      64.1      63.7        7     -0.8      0.00      0.32      69.0     0.29      1018.3     7.9     NNE    14  13.5     NNE    23   9.47    261      -99.0
   11/09/2018 06:10      64.2      63.7        7     -0.8      0.00      0.32      69.0     0.29      1018.3     7.5     NNE    17  14.5       N     6   9.47    261     -100.2
   11/09/2018 06:00      64.5      63.8        7     -0.5      0.00      0.32      69.1     0.29      1018.3     6.8     NNE    12  13.2       N   350   9.47    261     -100.2
   11/09/2018 05:50      64.3      63.9        7     -0.5      0.00      0.32      69.1     0.29      1018.2     7.7     NNE    19  16.5     ENE    72   9.48    261      -99.7
   11/09/2018 05:40      64.2      63.7        7     -0.0      0.00      0.32      69.1     0.29      1018.2     6.1     NNE    17  16.0     NNE    28   9.48    261      -99.0
   11/09/2018 05:30      64.3      63.8        7      0.0      0.00      0.32      69.1     0.29      1018.1     5.8     NNE    18  12.1       N     9   9.48    261      -98.7
   11/09/2018 05:20      64.1      63.7        8      0.2      0.00      0.32      69.1     0.29      1018.1     5.3     NNE    22  15.9       N     3   9.48    261      -98.0
   11/09/2018 05:10      64.3      63.8        8      0.3      0.00      0.32      69.2     0.29      1018.0     5.5     NNE    22  10.4     NNE    26   9.48    261      -97.8
   11/09/2018 05:00      64.4      63.8        8      0.4      0.00      0.32      69.2     0.29      1017.9     6.5       N    11  14.2     NNE    15   9.48    261      -98.0
   11/09/2018 04:50      64.5      64.0        8      0.4      0.00      0.32      69.2     0.29      1017.9     6.2     NNE    20  13.5     NNE    31   9.48    261      -97.7
   11/09/2018 04:40      64.5      63.9        8      0.4      0.00      0.32      69.2     0.29      1017.8     7.4     NNE    16  13.8     NNW   337   9.48    261      -97.4
   11/09/2018 04:30      64.3      63.8        8      0.6      0.00      0.32      69.2     0.29      1017.8     6.2     NNE    16  10.8     NNE    14   9.49    261      -97.0
   11/09/2018 04:20      64.4      63.7        8      0.8      0.00      0.32      69.2     0.29      1017.8     5.6     NNE    19  12.6      NW   310   9.49    261      -96.8
   11/09/2018 04:10      64.5      64.0        8      0.7      0.00      0.32      69.3     0.29      1017.8     6.8     NNE    13  10.8     NNE    30   9.49    261      -96.7
   11/09/2018 04:00      64.5      63.9        8      0.8      0.00      0.32      69.3     0.29      1017.8     6.2     NNE    15  12.2     NNE    24   9.49    261      -96.2
   11/09/2018 03:50      64.3      63.8        8      0.9      0.00      0.32      69.3     0.29      1017.8     5.5     NNE    13  11.5       N     2   9.49    261      -95.9
   11/09/2018 03:40      64.6      63.9        8      1.0      0.00      0.32      69.3     0.29      1017.8     4.7       N    10  12.2     NNW   332   9.49    261      -95.9
   11/09/2018 03:30      64.5      64.2        8      0.8      0.00      0.32      69.3     0.29      1017.8     6.1       N     7  12.4     NNW   326   9.50    261      -95.6
   11/09/2018 03:20      64.7      64.3        8      0.8      0.00      0.32      69.3     0.29      1017.8     4.8       N    11  11.0      NE    43   9.50    261      -95.4
   11/09/2018 03:10      65.0      64.4        8      0.7      0.00      0.32      69.3     0.29      1017.8     4.4       N     9  13.7     NNE    29   9.50    261      -95.7
   11/09/2018 03:00      64.8      64.5        8      0.6      0.00      0.32      69.4     0.29      1017.9     5.3       N     8  12.0     NNE    28   9.50    261      -95.0
   11/09/2018 02:50      64.8      64.4        8      0.7      0.00      0.32      69.4     0.29      1017.9     4.3       N     7  10.3       N     6   9.50    261      -94.8
   11/09/2018 02:40      65.2      64.4        8      0.7      0.00      0.32      69.4     0.29      1017.9     5.0       N   360  10.3     NNW   343   9.50    261      -95.0
   11/09/2018 02:30      65.5      64.7        7      0.4      0.00      0.32      69.4     0.29      1017.9     5.0     NNE    15  10.3       N   353   9.50    261      -95.6
   11/09/2018 02:20      65.6      65.0        7      0.2      0.00      0.32      69.4     0.29      1017.9     5.7     NNE    14  12.5       N     0   9.51    261      -95.6
   11/09/2018 02:10      65.7      65.2        7     -0.2      0.00      0.32      69.4     0.29      1017.9     7.0     NNE    17  14.6     NNE    28   9.51    261      -96.1
   11/09/2018 02:00      65.9      65.3        7     -0.2      0.00      0.32      69.4     0.29      1018.0     6.0     NNE    12  12.2     NNW   347   9.51    261      -95.9
   11/09/2018 01:50      66.2      65.6        7     -0.4      0.00      0.32      69.5     0.29      1018.1     6.7     NNE    14  15.3     NNE    32   9.51    261      -96.3
   11/09/2018 01:40      66.2      65.8        7     -0.7      0.00      0.32      69.5     0.29      1018.0     6.4     NNE    11  12.7       N     2   9.51    261      -96.1
   11/09/2018 01:30      66.3      65.7        7     -0.8      0.00      0.32      69.5     0.29      1018.0     6.0     NNE    13  11.7     NNW   334   9.51    261      -96.0
   11/09/2018 01:20      66.5      65.9        7     -0.9      0.00      0.32      69.5     0.29      1018.0     6.0     NNE    15  10.8     NNE    31   9.52    261      -96.1
   11/09/2018 01:10      66.5      66.1        7     -1.1      0.00      0.32      69.5     0.29      1017.9     5.6     NNE    13  10.1      NE    39   9.52    261      -95.9
   11/09/2018 01:00      66.5      66.0        7     -1.2      0.00      0.32      69.5     0.29      1017.9     6.4       N    10  12.1     NNW   338   9.52    261      -95.6
   11/09/2018 00:50      66.5      66.1        6     -1.3      0.00      0.32      69.6     0.29      1017.9     5.8     NNE    14  13.0     NNE    33   9.52    261      -95.4
   11/09/2018 00:40      66.6      66.2        6     -1.6      0.00      0.32      69.6     0.29      1017.9     6.8     NNE    16  13.3     NNE    16   9.52    261      -95.8
   11/09/2018 00:30      66.7      66.2        6     -1.6      0.00      0.32      69.6     0.29      1017.9     6.4     NNE    13  15.1       N     4   9.53    261      -95.7
   11/09/2018 00:20      66.8      66.2        6     -1.6      0.00      0.32      69.6     0.29      1017.9     7.0       N     9  13.3       N     3   9.53    261      -95.9
   11/09/2018 00:10      66.8      66.4        6     -1.7      0.00      0.32      69.6     0.29      1017.9     7.1     NNE    17  16.0     NNW   340   9.53    261      -95.6
   11/09/2018 00:00      66.7      66.3        6     -1.6      0.00      0.32      69.6     0.29      1018.0     5.6     NNE    13  11.2       N     3   9.53    261      -94.7
   11/08/2018 23:50      66.6      65.8        6     -1.3      0.00      0.32      69.7     0.29      1018.1     5.4     NNE    17  10.0      NE    49   9.53    261      -94.2
   11/08/2018 23:40      66.3      65.6        7     -0.7      0.00      0.32      69.6     0.29      1018.1     4.0       N     6   8.3     WNW   299   9.53    261      -93.9
   11/08/2018 23:30      66.4      65.9        7     -0.9      0.00      0.32      69.7     0.29      1018.1     4.8       N     7   9.8       N     3   9.54    261      -95.0
   11/08/2018 23:20      66.6      66.1        7     -0.9      0.00      0.32      69.7     0.29      1018.2     5.2       N     8   9.7      SE   124   9.54    261      -95.3
   11/08/2018 23:10      66.7      66.1        7     -1.0      0.00      0.32      69.7     0.29      1018.1     5.7       N     9  11.3       N     7   9.54    261      -95.5
   11/08/2018 23:00      66.7      66.1        7     -0.9      0.00      0.32      69.7     0.29      1018.1     6.1       N     6  10.4      NE    40   9.54    261      -95.1
   11/08/2018 22:50      66.7      66.3        7     -1.0      0.00      0.32      69.7     0.29      1018.0     6.4       N     9  14.3       N     8   9.54    261      -94.9
   11/08/2018 22:40      66.7      66.3        7     -0.9      0.00      0.32      69.7     0.29      1018.0     6.3       N     9  10.9       N     5   9.55    261      -94.6
   11/08/2018 22:30      66.7      66.3        7     -1.1      0.00      0.32      69.8     0.29      1018.0     5.9       N     9  11.9      NW   318   9.55    261      -94.2
   11/08/2018 22:20      66.8      66.2        7     -0.7      0.00      0.32      69.8     0.29      1018.0     5.5       N    10  12.3      NE    34   9.55    261      -94.0
   11/08/2018 22:10      66.9      66.4        6     -1.0      0.00      0.32      69.8     0.29      1018.0     5.6       N     4  10.1     NNW   333   9.55    261      -94.8
   11/08/2018 22:00      67.0      66.6        6     -1.1      0.00      0.32      69.8     0.29      1018.1     6.2       N     6  10.9     NNW   342   9.55    261      -95.2
   11/08/2018 21:50      67.2      66.6        6     -1.0      0.00      0.32      69.8     0.29      1018.1     5.6       N     9  11.5     NNE    30   9.55    261      -95.3
   11/08/2018 21:40      67.3      66.7        6     -1.1      0.00      0.32      69.8     0.29      1018.0     6.1       N     9  11.0       N     7   9.56    261      -95.0
   11/08/2018 21:30      67.1      66.7        6     -0.9      0.00      0.32      69.8     0.29      1018.0     4.1     NNE    13   9.6       N     4   9.56    261      -94.5
   11/08/2018 21:20      67.2      66.6        7     -0.3      0.00      0.32      69.8     0.29      1017.9     3.2       N     5  10.2     NNE    25   9.56    261      -94.4
   11/08/2018 21:10      67.3      66.9        7      0.0      0.00      0.32      69.8     0.29      1017.9     3.4       N     7   8.1     NNW   334   9.56    261      -94.8
   11/08/2018 21:00      67.7      66.9        7      0.6      0.00      0.32      69.8     0.29      1017.9     3.4     NNE    16   8.1     NNW   344   9.56    261      -94.5
   11/08/2018 20:50      67.8      67.3        7     -0.0      0.00      0.32      69.8     0.29      1017.9     4.0     NNE    15  12.0     NNW   342   9.57    261      -93.7
   11/08/2018 20:40      67.8      67.2        7      0.0      0.00      0.32      69.8     0.29      1017.8     4.3       N     9  10.8      NE    43   9.57    261      -93.0
   11/08/2018 20:30      67.6      67.2        7     -0.1      0.00      0.32      69.8     0.29      1017.8     3.8     NNE    12   7.8     NNE    28   9.57    261      -93.2
   11/08/2018 20:20      67.5      67.1        7      0.2      0.00      0.32      69.8     0.29      1017.8     3.7       N     8   7.9       N    10   9.57    261      -92.8
   11/08/2018 20:10      68.1      67.3        7      0.7      0.00      0.32      69.8     0.29      1017.7     2.0       N   352   4.7     NNW   347   9.57    261      -92.9
   11/08/2018 20:00      68.4      67.8        7      0.5      0.00      0.32      69.8     0.29      1017.7     3.3     NNE    13  10.0     NNE    30   9.57    261      -94.5
   11/08/2018 19:50      68.4      68.0        7      0.3      0.00      0.32      69.8     0.29      1017.6     4.0       N     5   8.3     NNW   339   9.58    261      -94.9
   11/08/2018 19:40      68.7      68.0        7      0.4      0.00      0.32      69.8     0.29      1017.6     3.1     NNE    13   7.1     NNW   348   9.58    261      -95.8
   11/08/2018 19:30      68.8      68.2        7      0.6      0.00      0.32      69.8     0.29      1017.4     4.8     NNE    20  12.4       N   351   9.58    261      -96.8
   11/08/2018 19:20      69.2      68.4        6      0.5      0.00      0.32      69.8     0.29      1017.4     4.2     NNE    30   7.8       N   350   9.58    261      -97.8
   11/08/2018 19:10      69.6      68.9        6     -0.0      0.00      0.32      69.7     0.29      1017.3     6.5     NNE    20  14.6     NNW   343   9.59    261      -98.5
   11/08/2018 19:00      69.9      69.2        6     -1.3      0.00      0.32      69.7     0.29      1017.2     5.8     NNE    20  12.7      NE    47   9.59    261      -99.0
   11/08/2018 18:50      70.0      69.5        6     -2.2      0.00      0.32      69.7     0.29      1017.1     6.2     NNE    15  14.3     NNW   337   9.60    261      -98.9
   11/08/2018 18:40      70.4      69.7        5     -3.2      0.00      0.32      69.7     0.29      1017.0     5.9     NNE    16  11.2     ENE    61   9.60    261      -99.2
   11/08/2018 18:30      70.6      70.0        5     -3.6      0.00      0.32      69.7     0.29      1016.9     6.6     NNE    17  15.1       N     2   9.60    261      -98.7
   11/08/2018 18:20      70.8      70.1        5     -2.6      0.00      0.32      69.7     0.29      1016.7     6.6     NNE    15  15.8     NNE    16   9.60    261      -98.9
   11/08/2018 18:10      71.1      70.4        5     -2.5      0.00      0.32      69.7     0.29      1016.6     6.1     NNE    13  14.5       N    10   9.60    261      -99.0
   11/08/2018 18:00      71.1      70.6        5     -2.1      0.00      0.32      69.6     0.29      1016.5     7.3     NNE    13  16.1       N   354   9.61    261      -99.2
   11/08/2018 17:50      71.6      70.8        6     -0.0      0.00      0.32      69.7     0.29      1016.4     5.3       N     7  11.7       N     8   9.61    261      -99.7
   11/08/2018 17:40      71.7      71.2        6      0.7      0.00      0.32      69.6     0.29      1016.2     6.9       N     7  12.2       N     0   9.61    261     -100.3
   11/08/2018 17:30      72.0      71.4        6      0.7      0.00      0.32      69.6     0.29      1016.1     5.5       N    10  12.2     NNE    21   9.62    261     -101.0
   11/08/2018 17:20      72.1      71.6        6      0.8      0.00      0.32      69.6     0.29      1016.0     5.8       N    10  11.9       W   265   9.62    261     -102.1
   11/08/2018 17:10      72.5      71.9        6      0.7      0.00      0.32      69.5     0.29      1015.9     7.5       N     4  14.5      NE    48   9.63    261     -102.2
   11/08/2018 17:00      73.0      72.2        6      1.3      0.00      0.32      69.5     0.29      1015.7     7.3     NNE    13  13.7       S   177   9.63    261     -100.3
   11/08/2018 16:50      73.4      72.6        6      2.1      0.00      0.32      69.5     0.29      1015.6     7.5       N     6  14.7     NNE    28   9.63    261      -96.2
   11/08/2018 16:40      73.7      73.1        6      3.4      0.00      0.32      69.5     0.29      1015.5     7.2     NNE    16  13.0      NE    39   9.64    261      -90.0
   11/08/2018 16:30      74.3      73.4        7      4.7      0.00      0.32      69.5     0.29      1015.4     7.5     NNE    14  16.1     NNW   345   9.64    261      -83.1
   11/08/2018 16:20      74.7      73.9        7      5.0      0.00      0.32      69.5     0.29      1015.3     7.2     NNE    14  12.9      NE    53   9.65    261      -74.8
   11/08/2018 16:10      75.7      74.5        7      5.9      0.00      0.32      69.4     0.29      1015.2     7.7     NNE    15  16.5      NE    37   9.65    261      -44.4
   11/08/2018 16:00      76.1      75.2        7      7.1      0.00      0.32      69.4     0.29      1015.1     6.8     NNE    20  14.5       N     4   9.66    261      -26.8
   11/08/2018 15:50      76.3      75.8        7      8.2      0.00      0.32      69.3     0.29      1015.0     5.2     NNE    18  10.1       N     2   9.66    261       -5.8
   11/08/2018 15:40      76.7      76.0        7      8.2      0.00      0.32      69.3     0.29      1014.8     7.0     NNE    27  12.7       N     4   9.66    261       19.4
   11/08/2018 15:30      77.0      76.4        7      9.3      0.00      0.32      69.3     0.29      1014.7     6.5     NNE    19  14.4     NNE    13   9.67    261       42.3
   11/08/2018 15:20      77.3      76.6        7      9.5      0.00      0.32      69.2     0.29      1014.6     6.7     NNE    17  11.3      NW   316   9.67    261       65.8
   11/08/2018 15:10      77.3      76.8        7      9.8      0.00      0.32      69.2     0.29      1014.5     6.8       N     7  12.0       N     6   9.67    261       89.4
   11/08/2018 15:00      77.5      76.9        7      9.8      0.00      0.32      69.2     0.29      1014.5     8.0       N     2  15.9     NNW   332   9.68    261      114.0
   11/08/2018 14:50      78.0      77.3        7     10.1      0.00      0.32      69.1     0.29      1014.5     7.4       N     3  14.9     NNE    16   9.68    261      135.7
   11/08/2018 14:40      78.1      77.6        7     10.0      0.00      0.32      69.1     0.29      1014.5     6.7     NNE    13  12.8     NNE    11   9.68    261      156.4
   11/08/2018 14:30      78.0      77.5        7     10.3      0.00      0.32      69.0     0.29      1014.4     6.8       N     7  13.7     NNE    22   9.69    261      176.1
   11/08/2018 14:20      78.5      77.7        8     10.7      0.00      0.32      69.0     0.29      1014.3     7.1       N     6  14.2       N    10   9.69    261      195.1
   11/08/2018 14:10      78.2      77.8        7     10.5      0.00      0.32      69.0     0.29      1014.3     6.3     NNE    12  12.2     NNE    13   9.70    261      215.0
   11/08/2018 14:00      78.4      77.7        8     10.5      0.00      0.32      69.0     0.29      1014.2     7.9       N     9  15.6     NNE    23   9.70    261      233.9
   11/08/2018 13:50      78.2      77.7        8     10.7      0.00      0.32      68.9     0.29      1014.2     7.8       N     5  15.1       N     0   9.71    261      248.1
   11/08/2018 13:40      78.4      77.7        8     10.8      0.00      0.32      68.9     0.29      1014.3     7.8       N    10  16.6       N     0   9.71    261      263.6
   11/08/2018 13:30      78.7      77.9        8     11.5      0.00      0.32      68.9     0.29      1014.3     6.5       N     9  12.8      NW   323   9.71    261      274.2
   11/08/2018 13:20      78.2      77.6        8     10.7      0.00      0.32      68.9     0.29      1014.3     7.7       N     9  15.6       N   352   9.72    261      290.1
   11/08/2018 13:10      78.7      77.9        8     11.5      0.00      0.32      68.8     0.29      1014.3     7.7       N     3  15.9     NNE    14   9.72    261      298.3
   11/08/2018 13:00      78.6      77.7        8     12.1      0.00      0.32      68.8     0.29      1014.3     6.7     NNE    17  13.8     NNE    17   9.72    261      309.6
   11/08/2018 12:50      78.6      77.7        9     13.8      0.00      0.32      68.8     0.29      1014.3     7.4       N     8  15.4       N     7   9.73    262      316.3
   11/08/2018 12:40      78.6      77.7       17     28.9      0.00      0.32      68.8     0.29      1014.3     3.8     NNE    33   9.1      NW   320   9.73    262      324.6
   11/08/2018 12:30      78.4      76.9       19     32.2      0.00      0.32      68.7     0.29      1014.4     2.8     NNE    27   5.2       S   177   9.73    262      333.6
   11/08/2018 12:20      76.9      76.2       21     33.8      0.00      0.32      68.7     0.29      1014.5     4.3      NE    38   7.7      NE    38   9.73    263      345.2
   11/08/2018 12:10      76.5      75.4       26     38.6      0.00      0.32      68.7     0.29      1014.6     2.1     NNE    33   5.4     ENE    60   9.74    263      348.6
   11/08/2018 12:00      76.4      75.1       27     39.7      0.00      0.32      68.7     0.29      1014.6     2.0      NE    44   5.8      NE    49   9.74    263      355.2
   11/08/2018 11:50      75.7      74.3       30     41.7      0.00      0.32      68.7     0.29      1014.7     1.9     ESE   120   5.9       N    10   9.74    263      359.7
   11/08/2018 11:40      74.9      73.9       32     42.7      0.00      0.32      68.7     0.29      1014.8     1.5     ENE    58   3.4      NE    39   9.74    263      360.4
   11/08/2018 11:30      74.3      72.1       34     43.0      0.00      0.32      68.7     0.29      1014.9     1.8       E    88   4.9     ENE    76   9.74    264      359.5
   11/08/2018 11:20      72.3      71.0       37     44.5      0.00      0.32      68.7     0.29      1015.1     1.8     NNE    27   4.7      NE    55   9.75    264      356.9
   11/08/2018 11:10      72.0      70.8       42     47.1      0.00      0.32      68.7     0.29      1015.2     1.5      NE    36   4.5     NNW   328   9.75    265      355.8
   11/08/2018 11:00      71.2      69.7       44     47.6      0.00      0.32      68.7     0.29      1015.4     1.3       E    92   4.3       E    91   9.76    266      354.8
   11/08/2018 10:50      69.9      69.2       47     48.3      0.00      0.32      68.7     0.29      1015.4     1.6     ENE    65   4.3     ENE    72   9.76    266      351.5
   11/08/2018 10:40      69.8      68.7       49     49.2      0.00      0.32      68.8     0.29      1015.5     1.9     ESE   109   3.4     NNE    27   9.76    266      344.6
   11/08/2018 10:30      69.0      67.7       50     49.1      0.00      0.32      68.8     0.29      1015.6     1.4      NE    36   3.5     ENE    77   9.77    266      337.2
   11/08/2018 10:20      68.1      67.1       53     49.6      0.00      0.32      68.8     0.29      1015.6     2.4     ENE    56   5.1       E    91   9.77    266      335.6
   11/08/2018 10:10      68.1      66.4       55     50.3      0.00      0.32      68.8     0.29      1015.7     1.3       E    94   4.3      SE   131   9.77    266      324.3
   11/08/2018 10:00      66.7      65.1       58     50.7      0.00      0.32      68.8     0.29      1015.9     1.8      NE    36   4.1      NE    48   9.78    267      313.4
   11/08/2018 09:50      66.0      65.0       60     51.4      0.00      0.32      68.8     0.29      1016.0     2.4       E    95   5.1       E    90   9.78    267      300.3
   11/08/2018 09:40      65.8      64.9       61     51.6      0.00      0.32      68.8     0.29      1016.0     1.9       E    84   5.1     ESE   118   9.78    267      287.4
   11/08/2018 09:30      65.3      64.7       61     51.2      0.00      0.32      68.8     0.29      1016.0     1.9     ENE    78   3.8      NE    55   9.79    268      276.5
   11/08/2018 09:20      65.0      64.0       62     51.5      0.00      0.32      68.9     0.29      1016.0     2.0       E    97   5.2      SE   140   9.79    268      260.4
   11/08/2018 09:10      64.3      62.3       65     51.2      0.00      0.32      68.9     0.29      1016.1     1.8     ENE    75   4.7       E    86   9.80    268      240.5
   11/08/2018 09:00      62.7      61.3       68     51.5      0.00      0.32      68.9     0.29      1016.3     2.1       E    89   4.4     ESE   117   9.81    279      223.0
   11/08/2018 08:50      61.9      61.4       73     52.7      0.00      0.32      69.0     0.29      1016.3     2.3       E    94   4.3     ESE   104   9.81    286      200.4
   11/08/2018 08:40      62.1      61.2       73     52.9      0.00      0.32      69.0     0.29      1016.2     1.5     ESE   104   3.2       E    98   9.82    288      160.9
   11/08/2018 08:30      62.2      60.7       72     52.4      0.00      0.32      69.0     0.29      1016.2     0.9       E    89   3.6     ENE    57   9.83    290      175.6
   11/08/2018 08:20      60.9      59.4       76     52.3      0.00      0.32      69.0     0.29      1016.1     0.6     SSE   152   1.9     ESE   123   9.83    291      178.7
   11/08/2018 08:10      59.5      58.4       79     52.4      0.00      0.32      69.0     0.29      1016.2     1.3     SSW   204   2.5      SW   218   9.85    292      145.4
   11/08/2018 08:00      58.6      57.5       83     52.8      0.00      0.32      69.0     0.29      1016.2     1.6      SW   216   3.5      SW   229   9.86    293      153.8
   11/08/2018 07:50      57.7      56.9       88     53.9      0.00      0.32      69.0     0.29      1016.1     1.3       S   170   2.7       S   191   9.32    290      128.3
   11/08/2018 07:40      57.0      55.4       91     53.5      0.00      0.32      69.0     0.29      1016.1     0.6      SE   129   1.6      SE   143   9.32    357       79.0
   11/08/2018 07:30      55.7      54.7       91     52.6      0.00      0.32      69.1     0.29      1016.2     0.5     SSE   159   1.9       S   181   9.32    365       41.8
   11/08/2018 07:20      55.1      54.6       92     52.4      0.00      0.32      69.1     0.29      1016.2     0.5     SSW   194   1.3      SE   143   9.32    363       26.6
   11/08/2018 07:10      54.9      54.5       91     52.3      0.00      0.32      69.1     0.29      1016.2     0.2      SE   146   0.9      SE   130   9.32    360       15.4
   11/08/2018 07:00      55.3      54.6       92     52.5      0.00      0.32      69.1     0.29      1016.0     0.5       E    91   1.7       E    86   9.32    357       12.2
   11/08/2018 06:50      54.8      54.0       92     51.9      0.00      0.32      69.1     0.29      1015.9     0.3      SW   221   1.0      NW   311   9.32    358        3.7
   11/08/2018 06:40      54.7      53.8       91     51.6      0.00      0.32      69.2     0.29      1015.7     0.5       S   190   1.6      SW   230   9.32    356       -4.9
   11/08/2018 06:30      55.1      54.3       91     52.1      0.00      0.32      69.2     0.29      1015.5     0.4     WSW   240   1.6     WSW   242   9.32    346      -10.8
   11/08/2018 06:20      55.3      54.7       91     52.3      0.00      0.32      69.2     0.29      1015.4     0.0       S   180   0.6       S   182   9.32    327      -11.8
   11/08/2018 06:10      55.6      55.0       91     52.6      0.00      0.32      69.2     0.29      1015.3     0.2       S   174   0.9       S   176   9.31    317      -12.7
   11/08/2018 06:00      55.8      55.4       91     52.9      0.00      0.32      69.2     0.29      1015.3     0.0       N     0   0.0     NNW   340   9.31    311      -12.5
   11/08/2018 05:50      55.7      55.4       91     53.0      0.00      0.32      69.3     0.29      1015.3     0.3      NE    44   1.0     ENE    59   9.31    300       -3.4
   11/08/2018 05:40      55.7      55.2       91     52.9      0.00      0.32      69.3     0.29      1015.3     0.1      NE    37   0.8       N     0   9.31    311       -2.6
   11/08/2018 05:30      55.7      55.1       91     52.8      0.00      0.32      69.2     0.29      1015.2     0.4      NE    53   2.5     ENE    64   9.32    327       -2.2
   11/08/2018 05:20      55.6      55.2       91     52.8      0.00      0.32      69.3     0.29      1015.2     0.0     ESE   102   0.7     ESE   104   9.32    349       -2.2
   11/08/2018 05:10      55.5      55.2       91     52.7      0.00      0.32      69.3     0.29      1015.1     0.1       S   181   0.7     SSE   153   9.32    358       -2.1
   11/08/2018 05:00      55.4      55.0       91     52.5      0.00      0.32      69.3     0.29      1015.1     0.7     WSW   257   2.7      SW   235   9.32    359       -1.9
   11/08/2018 04:50      55.3      54.9       91     52.4      0.00      0.32      69.4     0.29      1015.1     0.9      SW   232   2.4      SW   228   9.32    364       -1.5
   11/08/2018 04:40      55.2      54.7       91     52.3      0.00      0.32      69.4     0.29      1015.1     1.0     WSW   258   1.8     WSW   259   9.32    370       -1.3
   11/08/2018 04:30      54.9      54.5       91     52.0      0.00      0.32      69.4     0.29      1015.1     0.8      NW   315   2.6     NNW   345   9.32    378       -1.2
   11/08/2018 04:20      54.7      54.0       91     51.6      0.00      0.32      69.5     0.29      1015.0     0.6     NNE    14   2.0       N    10   9.32    384       -1.1
   11/08/2018 04:10      54.3      53.8       91     51.4      0.00      0.32      69.5     0.29      1014.9     0.5     NNE    20   2.1       N     7   9.31    393       -0.7
   11/08/2018 04:00      54.0      53.6       91     51.3      0.00      0.32      69.5     0.29      1014.8     0.1       N   349   1.6       N   353   9.31    399       -0.4
   11/08/2018 03:50      53.8      53.3       92     51.2      0.00      0.32      69.5     0.29      1014.8     0.6      NE    52   1.7     NNE    26   9.31    405       -0.2
   11/08/2018 03:40      53.6      53.0       92     51.0      0.00      0.32      69.6     0.29      1014.8     0.3     NNE    22   1.1     NNE    24   9.31    409       -0.3
   11/08/2018 03:30      53.3      52.7       92     50.9      0.00      0.32      69.6     0.29      1014.7     0.0       N     0   0.0     ESE   114   9.31    413       -0.5
   11/08/2018 03:20      53.0      52.6       93     50.6      0.00      0.32      69.6     0.29      1014.8     0.0       N     0   0.0     ESE   114   9.31    414       -0.3
   11/08/2018 03:10      52.9      52.3       93     50.5      0.00      0.32      69.7     0.29      1014.8     0.0     ENE    78   0.6     ENE    74   9.31    415       -0.3
   11/08/2018 03:00      52.5      52.0       93     50.3      0.00      0.32      69.7     0.29      1014.9     0.0      SE   129   0.4      SE   129   9.31    416       -0.2
   11/08/2018 02:50      52.3      51.7       93     50.1      0.00      0.32      69.7     0.29      1014.9     0.2      NE    52   1.2       N    11   9.31    417       -0.1
   11/08/2018 02:40      51.9      51.4       93     49.7      0.00      0.32      69.8     0.29      1014.8     0.0      NE    37   0.6      SE   142   9.31    417       -0.4
   11/08/2018 02:30      51.6      51.1       93     49.4      0.00      0.32      69.8     0.29      1014.8     0.0       N     0   0.0       S   177   9.31    418       -2.9
   11/08/2018 02:20      51.2      50.0       93     48.8      0.00      0.32      69.8     0.29      1014.8     0.0       S   177   0.9       S   177   9.31    420       -4.1
   11/08/2018 02:10      50.3      49.7       93     47.9      0.00      0.32      69.8     0.29      1014.8     0.3     SSE   166   1.3       S   177   9.31    419       -4.6
   11/08/2018 02:00      50.5      49.7       93     48.1      0.00      0.32      69.8     0.29      1014.9     0.0     SSE   164   0.1     SSE   164   9.32    416      -14.0
   11/08/2018 01:50      50.5      50.0       93     48.2      0.00      0.32      69.9     0.29      1014.9     0.4       S   172   1.2       S   171   9.32    413      -18.5
   11/08/2018 01:40      50.8      50.1       93     48.3      0.00      0.32      69.9     0.29      1014.9     0.2     SSE   166   1.0     SSE   166   9.32    410      -19.6
   11/08/2018 01:30      50.9      50.1       93     48.6      0.00      0.32      69.9     0.29      1014.8     0.2     SSE   161   1.0     SSE   153   9.32    405      -20.0
   11/08/2018 01:20      51.1      50.1       92     48.2      0.00      0.32      70.0     0.29      1014.8     0.5     SSE   162   1.2      SE   145   9.32    399      -20.1
   11/08/2018 01:10      51.1      50.6       92     48.7      0.00      0.32      70.0     0.29      1014.9     0.3     SSE   155   1.4     SSE   159   9.32    395      -20.5
   11/08/2018 01:00      51.0      50.3       92     48.4      0.00      0.32      70.0     0.29      1014.8     0.0     SSE   157   0.4     SSE   157   9.32    388      -21.0
   11/08/2018 00:50      51.4      50.3       92     48.4      0.00      0.32      70.0     0.29      1014.8     0.4     SSE   149   1.4      SE   144   9.32    384      -22.0
   11/08/2018 00:40      51.7      51.1       92     49.3      0.00      0.32      70.0     0.29      1014.8     0.2     SSE   163   0.9     SSE   163   9.32    378      -22.0
   11/08/2018 00:30      51.9      51.2       92     49.1      0.00      0.32      70.1     0.29      1014.9     0.2     SSE   153   1.1     SSE   147   9.32    373      -22.4
   11/08/2018 00:20      51.9      51.3       92     49.3      0.00      0.32      70.1     0.30      1014.9     0.3     SSW   202   1.1     SSW   207   9.32    362      -22.7
   11/08/2018 00:10      51.9      51.1       92     49.1      0.00      0.32      70.1     0.30      1014.9     0.4     SSE   168   1.4     SSE   162   9.32    357      -24.1
   11/08/2018 00:00      52.0      51.6       92     49.4      0.00      0.32      70.1     0.30      1015.0     0.7     SSE   165   1.4      SE   141   9.32    350      -24.1
   11/07/2018 23:50      52.0      51.4       92     49.4      0.00      0.32      70.2     0.30      1015.0     0.6     SSE   167   1.6       S   182   9.32    344      -24.6
   11/07/2018 23:40      52.2      51.4       91     49.3      0.00      0.32      70.2     0.30      1015.0     0.6     SSE   165   1.6       S   174   9.32    336      -25.3
   11/07/2018 23:30      52.5      51.8       91     49.5      0.00      0.32      70.2     0.30      1015.0     0.3     SSE   163   0.9     SSE   168   9.32    329      -25.4
   11/07/2018 23:20      52.7      52.2       91     49.9      0.00      0.32      70.2     0.30      1015.1     0.5       S   180   1.7       S   185   9.32    323      -25.7
   11/07/2018 23:10      53.0      52.1       91     49.8      0.00      0.32      70.2     0.30      1015.1     0.0       S   184   0.6       S   184   9.32    319      -27.3
   11/07/2018 23:00      53.2      52.6       91     50.3      0.00      0.32      70.3     0.30      1015.1     0.0       S   172   0.4       S   172   9.32    311      -28.3
   11/07/2018 22:50      53.0      52.6       90     50.0      0.00      0.32      70.3     0.30      1015.1     0.5       S   174   1.2       S   184   9.32    305      -29.1
   11/07/2018 22:40      53.2      52.7       90     50.1      0.00      0.32      70.3     0.30      1015.1     0.2     SSE   155   1.2     SSE   151   9.32    300      -30.1
   11/07/2018 22:30      53.3      52.9       90     50.2      0.00      0.32      70.3     0.30      1015.2     0.5     SSE   157   1.1     SSE   149   9.33    296      -31.5
   11/07/2018 22:20      53.8      53.0       89     50.3      0.00      0.32      70.3     0.30      1015.2     0.4     SSE   168   1.0       S   169   9.33    292      -32.8
   11/07/2018 22:10      54.0      53.5       89     50.6      0.00      0.32      70.3     0.30      1015.2     0.7     SSE   147   1.3     SSE   148   9.33    289      -34.2
   11/07/2018 22:00      54.2      53.6       89     50.8      0.00      0.32      70.3     0.30      1015.2     0.7     SSE   152   1.3      SE   146   9.33    284      -35.7
   11/07/2018 21:50      54.2      53.7       89     50.8      0.00      0.32      70.3     0.30      1015.2     1.0     SSW   195   1.7       S   190   9.33    280      -36.6
   11/07/2018 21:40      54.5      53.6       88     50.5      0.00      0.32      70.3     0.30      1015.2     0.3     SSE   158   0.9       S   172   9.33    277      -40.4
   11/07/2018 21:30      54.6      54.0       88     50.7      0.00      0.32      70.4     0.30      1015.2     0.3     SSE   151   1.1      SE   141   9.33    277      -42.2
   11/07/2018 21:20      54.9      54.0       88     50.7      0.00      0.32      70.4     0.30      1015.2     0.3     SSE   155   1.0     SSE   156   9.33    274      -45.0
   11/07/2018 21:10      55.2      54.6       88     51.3      0.00      0.32      70.4     0.30      1015.1     0.3       S   170   1.3       S   180   9.33    270      -46.3
   11/07/2018 21:00      55.0      54.5       87     50.9      0.00      0.32      70.4     0.30      1015.1     0.3     SSE   164   1.0     SSE   162   9.33    267      -49.9
   11/07/2018 20:50      55.3      54.7       86     50.9      0.00      0.32      70.4     0.30      1015.1     0.7     SSE   149   1.6      SE   138   9.33    262      -53.0
   11/07/2018 20:40      55.8      55.0       85     51.0      0.00      0.32      70.4     0.30      1015.1     0.4     SSE   165   1.5      SE   140   9.33    256      -55.1
   11/07/2018 20:30      56.2      55.5       86     51.5      0.00      0.32      70.4     0.30      1015.0     1.3     SSW   195   2.7     SSW   198   9.34    250      -54.6
   11/07/2018 20:20      56.1      55.5       85     51.4      0.00      0.32      70.4     0.30      1015.0     0.3     ESE   118   1.1      SE   130   9.33    260      -57.6
   11/07/2018 20:10      57.0      56.0       84     51.7      0.00      0.32      70.4     0.30      1014.9     0.7     SSE   153   1.3       S   172   9.34    253      -58.6
   11/07/2018 20:00      57.6      56.8       83     52.0      0.00      0.32      70.4     0.30      1014.9     0.4       S   181   1.4       S   188   9.34    249      -59.0
   11/07/2018 19:50      57.5      57.0       83     52.0      0.00      0.32      70.4     0.30      1014.8     0.3       S   190   1.3       S   190   9.34    254      -60.8
   11/07/2018 19:40      57.9      57.2       82     52.0      0.00      0.32      70.4     0.30      1014.7     0.4     SSE   166   1.4     SSW   207   9.34    264      -61.6
   11/07/2018 19:30      58.3      57.5       81     52.3      0.00      0.32      70.4     0.30      1014.7     0.5       S   186   1.3      SW   224   9.34    252      -62.0
   11/07/2018 19:20      58.6      57.9       81     52.2      0.00      0.32      70.3     0.30      1014.7     0.4       S   174   1.2       S   179   9.34    265      -62.4
   11/07/2018 19:10      58.8      58.3       80     52.5      0.00      0.32      70.3     0.30      1014.7     0.3       S   176   1.4     SSW   199   9.34    260      -62.6
   11/07/2018 19:00      59.2      58.5       78     52.0      0.00      0.32      70.3     0.30      1014.7     0.1     SSW   200   0.7     SSW   200   9.34    263      -63.8
   11/07/2018 18:50      60.2      59.0       77     52.1      0.00      0.32      70.3     0.30      1014.7     0.4      SE   141   1.8      SE   143   9.34    268      -65.1
   11/07/2018 18:40      60.6      59.8       77     52.8      0.00      0.32      70.3     0.30      1014.6     0.9       S   188   2.7     SSW   208   9.34    268      -66.2
   11/07/2018 18:30      60.6      59.8       76     52.6      0.00      0.32      70.3     0.30      1014.6     0.4      SE   143   1.8     SSW   206   9.35    269      -66.4
   11/07/2018 18:20      61.4      60.4       75     52.7      0.00      0.32      70.3     0.30      1014.5     0.0     ESE   104   1.0       N     5   9.35    268      -68.0
   11/07/2018 18:10      61.6      61.0       74     53.0      0.00      0.32      70.3     0.30      1014.4     0.4      SE   145   1.3       E    96   9.35    269      -68.8
   11/07/2018 18:00      62.0      61.5       74     53.3      0.00      0.32      70.3     0.30      1014.3     0.6     SSE   158   1.4     SSE   150   9.35    268      -69.2
   11/07/2018 17:50      62.5      61.8       73     53.4      0.00      0.32      70.2     0.30      1014.2     0.8     SSE   165   2.3     SSE   167   9.35    268      -70.3
   11/07/2018 17:40      62.9      62.1       72     53.3      0.00      0.32      70.2     0.30      1014.1     1.2       S   172   2.1       S   184   9.35    268      -71.6
   11/07/2018 17:30      63.3      62.5       71     53.5      0.00      0.32      70.2     0.30      1014.0     1.8       S   181   3.1     SSE   164   9.35    268      -73.0
   11/07/2018 17:20      63.7      63.1       70     53.5      0.00      0.32      70.2     0.30      1013.9     2.1       S   187   4.1     SSW   212   9.35    267      -74.2
   11/07/2018 17:10      64.2      63.5       69     53.6      0.00      0.32      70.2     0.30      1013.8     2.3       S   190   4.2     SSW   200   9.35    267      -74.2
   11/07/2018 17:00      64.8      63.9       69     53.7      0.00      0.32      70.2     0.30      1013.8     2.7     SSW   193   5.0       S   175   9.35    267      -72.6
   11/07/2018 16:50      65.2      64.6       68     53.9      0.00      0.32      70.1     0.30      1013.9     3.4       S   191   5.8       S   177   9.36    267      -68.7
   11/07/2018 16:40      65.7      65.0       67     54.0      0.00      0.32      70.1     0.30      1013.8     3.4       S   187   5.7       S   184   9.36    267      -63.7
   11/07/2018 16:30      66.6      65.3       66     54.0      0.00      0.32      70.1     0.30      1013.8     4.7       S   175   8.4      SE   137   9.36    266      -58.8
   11/07/2018 16:20      67.4      66.3       64     54.2      0.00      0.32      70.0     0.30      1013.7     3.7       S   173   6.7       S   176   9.36    266      -52.7
   11/07/2018 16:10      68.3      67.1       62     54.3      0.00      0.32      70.0     0.30      1013.7     3.9       S   173   6.9     SSW   193   9.37    266      -19.0
   11/07/2018 16:00      69.5      68.0       61     54.5      0.00      0.32      70.0     0.30      1013.7     3.9     SSE   165   6.9      SE   138   9.37    266       -2.0
   11/07/2018 15:50      70.6      69.2       59     54.8      0.00      0.32      70.0     0.30      1013.6     3.7     SSE   163   6.4     SSW   202   9.37    266       18.0
   11/07/2018 15:40      71.4      70.2       57     55.0      0.00      0.32      70.0     0.30      1013.6     3.8     SSE   167   6.0     SSE   168   9.37    266       39.7
   11/07/2018 15:30      73.2      71.2       56     55.3      0.00      0.32      70.0     0.30      1013.6     3.8       S   175   8.3     SSW   212   9.37    265       62.1
   11/07/2018 15:20      74.1      72.9       54     55.9      0.00      0.32      69.9     0.30      1013.6     2.4     ESE   102   4.2       S   185   9.37    265       83.0
   11/07/2018 15:10      74.3      73.1       53     55.4      0.00      0.32      69.9     0.30      1013.6     1.4     ESE   121   3.0     ENE    68   9.38    264      101.0
   11/07/2018 15:00      73.9      73.1       53     55.4      0.00      0.32      69.9     0.30      1013.6     2.0      SE   141   4.1     SSE   160   9.38    265      121.5
   11/07/2018 14:50      74.6      73.5       52     55.3      0.00      0.32      69.9     0.30      1013.7     1.4       E    97   3.9       E    90   9.38    264      141.3
   11/07/2018 14:40      74.2      73.5       52     55.1      0.00      0.32      69.8     0.30      1013.8     1.9     ENE    59   4.3      NE    44   9.38    264      164.0
   11/07/2018 14:30      74.0      72.8       53     55.2      0.00      0.32      69.8     0.30      1013.8     2.0      NE    53   4.7       E    89   9.38    264      185.8
   11/07/2018 14:20      74.0      73.0       53     55.2      0.00      0.32      69.8     0.30      1013.8     1.7     ENE    77   4.4       E    98   9.38    264      206.5
   11/07/2018 14:10      73.3      72.7       53     55.1      0.00      0.32      69.8     0.30      1013.9     1.7     NNE    22   3.8     ESE   113   9.38    264      220.3
   11/07/2018 14:00      73.5      72.5       54     55.1      0.00      0.32      69.8     0.30      1014.0     2.2       N   351   5.4     NNW   344   9.38    264      234.3
   11/07/2018 13:50      73.6      72.7       54     55.2      0.00      0.32      69.7     0.30      1014.0     1.9      NE    55   3.5       E    92   9.38    264      255.0
   11/07/2018 13:40      73.6      72.2       54     55.2      0.00      0.32      69.7     0.30      1014.1     1.7     NNE    16   3.5     ESE   117   9.38    264      269.7
   11/07/2018 13:30      72.3      71.1       55     55.0      0.00      0.32      69.8     0.30      1014.2     2.2      NE    49   5.0     ENE    73   9.38    265      289.3
   11/07/2018 13:20      72.1      70.9       56     55.0      0.00      0.32      69.7     0.30      1014.3     2.4       E    87   5.8     ESE   105   9.38    265      303.9
   11/07/2018 13:10      72.1      71.7       55     55.0      0.00      0.32      69.7     0.30      1014.4     1.8      NE    48   4.2     SSE   150   9.38    264      312.7
   11/07/2018 13:00      72.0      70.0       56     55.0      0.00      0.32      69.7     0.30      1014.6     1.5     NNE    22   3.6       E    80   9.38    265      324.7
   11/07/2018 12:50      70.4      69.2       59     54.7      0.00      0.32      69.7     0.30      1014.7     1.6     ENE    68   3.4     NNE    32   9.38    265      328.2
   11/07/2018 12:40      70.8      69.3       59     54.8      0.00      0.32      69.7     0.30      1014.9     1.5     ESE   108   5.5       E    92   9.38    265      343.4
   11/07/2018 12:30      70.1      68.9       59     54.7      0.00      0.32      69.7     0.30      1015.0     2.0     NNE    31   5.0       E    96   9.38    265      352.1
   11/07/2018 12:20      69.1      68.2       61     54.5      0.00      0.32      69.7     0.30      1015.3     1.8     ENE    63   3.6     ENE    68   9.38    266      364.2
   11/07/2018 12:10      68.5      66.8       62     54.5      0.00      0.32      69.7     0.30      1015.5     0.9      SE   135   3.0     SSE   150   9.38    266      364.9
   11/07/2018 12:00      66.9      66.0       65     54.5      0.00      0.32      69.7     0.30      1015.7     1.8     NNE    25   4.8      NE    38   9.38    266      370.2
   11/07/2018 11:50      66.2      65.3       67     54.4      0.00      0.32      69.7     0.30      1015.9     1.7      NE    52   4.0     ENE    79   9.38    266      375.2
   11/07/2018 11:40      65.9      64.2       68     54.4      0.00      0.32      69.7     0.30      1016.0     1.7       N    11   4.1     NNE    18   9.38    266      384.5
   11/07/2018 11:30      64.5      63.8       70     54.1      0.00      0.32      69.7     0.30      1016.2     1.9     NNE    12   3.6     NNE    20   9.38    266      370.0
   11/07/2018 11:20      64.0      62.9       72     54.1      0.00      0.32      69.8     0.29      1016.3     2.3      NW   322   4.2     WNW   294   9.38    266      395.6
   11/07/2018 11:10      63.5      62.4       73     54.2      0.00      0.32      69.8     0.30      1016.5     2.4       N     1   5.1     NNW   334   9.38    267      401.8
   11/07/2018 11:00      62.9      62.3       74     54.1      0.00      0.32      69.8     0.30      1016.7     2.6      NW   324   5.8     WSW   254   9.37    267      289.1
   11/07/2018 10:50      63.0      62.3       75     54.3      0.00      0.32      69.8     0.30      1016.8     2.0      NW   305   5.1      NW   310   9.38    268      238.9
   11/07/2018 10:40      62.3      61.0       77     54.3      0.00      0.32      69.8     0.30      1016.9     1.5      NW   308   4.3     WNW   289   9.38    268      232.0
   11/07/2018 10:30      61.3      60.3       79     54.3      0.00      0.32      69.8     0.30      1017.1     2.2     NNW   335   4.4     WNW   285   9.38    268      271.7
   11/07/2018 10:20      60.6      59.6       81     54.3      0.00      0.32      69.8     0.30      1017.1     1.1     WSW   244   3.6     WSW   259   9.38    268      140.6
   11/07/2018 10:10      59.9      59.4       82     54.0      0.00      0.32      69.8     0.30      1017.2     2.0       W   278   4.0     WSW   250   9.38    269       89.8
   11/07/2018 10:00      59.8      59.3       83     54.2      0.00      0.32      69.8     0.30      1017.2     1.0       W   273   3.0     WNW   289   9.38    269       71.7
   11/07/2018 09:50      59.6      58.6       84     54.1      0.00      0.32      69.9     0.30      1017.3     0.6     NNE    14   2.1     NNW   337   9.38    269       68.9
   11/07/2018 09:40      59.0      58.5       85     54.1      0.00      0.32      69.9     0.30      1017.3     1.0       E    94   2.3     NNW   348   9.38    270       66.0
   11/07/2018 09:30      58.8      58.3       85     54.1      0.00      0.32      69.9     0.30      1017.3     0.8       S   177   2.5      SW   236   9.38    270       59.6
   11/07/2018 09:20      58.5      58.0       86     54.0      0.00      0.32      69.9     0.30      1017.2     0.5     ESE   111   2.4      SE   138   9.38    270       50.5
   11/07/2018 09:10      58.6      58.0       86     54.1      0.00      0.32      69.9     0.30      1017.1     1.3     ESE   113   2.5      NE    48   9.38    270       53.4
   11/07/2018 09:00      58.5      57.9       88     54.5      0.00      0.32      70.0     0.30      1017.1     0.4     ENE    72   2.2      NE    47   9.38    270       60.2
   11/07/2018 08:50      58.1      57.2       89     54.4      0.00      0.32      70.0     0.30      1017.1     0.0     NNE    27   0.9     ENE    65   9.38    270       59.8
   11/07/2018 08:40      57.6      56.7       90     54.0      0.00      0.32      70.0     0.30      1017.2     0.3     NNE    29   1.2       N     5   9.38    270       54.5
   11/07/2018 08:30      57.3      56.7       90     53.8      0.00      0.32      70.0     0.30      1017.2     1.7     ESE   107   2.9     SSE   157   9.38    270       44.1
   11/07/2018 08:20      57.2      56.8       90     54.0      0.00      0.32      70.0     0.30      1017.1     1.0       E    82   2.9       E   101   9.38    270       37.1
   11/07/2018 08:10      57.1      56.6       90     53.9      0.00      0.32      70.1     0.30      1017.0     0.9     ESE   103   1.8       E    94   9.38    269       31.5
   11/07/2018 08:00      57.1      56.5       91     54.0      0.00      0.32      70.0     0.30      1016.9     0.5      NE    53   1.6      NE    51   9.38    269       27.5
   11/07/2018 07:50      56.7      56.4       91     53.7      0.00      0.32      70.0     0.30      1016.9     0.5       S   174   2.5      SW   219   9.38    268       25.5
   11/07/2018 07:40      56.6      56.3       91     53.7      0.00      0.32      70.1     0.30      1016.7     0.4     SSW   209   1.9     SSW   194   9.38    266       26.1
   11/07/2018 07:30      56.5      56.1       91     53.6      0.00      0.32      70.1     0.30      1016.6     0.8     WNW   298   2.6       W   269   9.38    263       19.1
   11/07/2018 07:20      56.4      55.9       91     53.5      0.00      0.32      70.1     0.30      1016.6     1.3       N     5   3.7     WNW   303   9.38    265       15.5
   11/07/2018 07:10      56.4      55.9       91     53.4      0.00      0.32      70.2     0.30      1016.5     0.8       N   358   3.2     NNW   338   9.37    263       11.7
   11/07/2018 07:00      56.1      55.6       91     53.2      0.00      0.32      70.2     0.30      1016.4     0.5      NE    49   1.5      NE    44   9.37    261        8.0
   11/07/2018 06:50      56.2      55.6       90     53.1      0.00      0.32      70.2     0.30      1016.3     1.0      SE   132   3.0      SE   130   9.38    255        3.8
   11/07/2018 06:40      56.5      55.9       90     53.2      0.00      0.32      70.2     0.30      1016.1     1.0     ESE   119   2.8      SE   142   9.38    256        0.4
   11/07/2018 06:30      56.5      56.0       90     53.2      0.00      0.32      70.2     0.30      1016.0     0.5     ENE    65   1.8       E    87   9.38    255       -1.6
   11/07/2018 06:20      56.5      56.1       89     53.0      0.00      0.32      70.3     0.30      1016.0     0.2     ESE   115   1.2     ESE   106   9.38    254       -3.0
   11/07/2018 06:10      56.7      56.1       88     52.9      0.00      0.32      70.3     0.30      1016.1     0.6     SSE   162   1.8       S   189   9.38    252       -3.5
   11/07/2018 06:00      57.1      56.4       88     53.0      0.00      0.32      70.3     0.30      1016.1     1.1     NNW   328   3.4      NW   317   9.38    258       -3.9
   11/07/2018 05:50      57.0      56.6       87     52.9      0.00      0.32      70.3     0.30      1016.0     0.7       N   353   2.6     NNW   335   9.38    266       -4.2
   11/07/2018 05:40      56.8      56.5       87     52.7      0.00      0.32      70.4     0.30      1015.9     0.3      SW   226   1.3      SW   225   9.38    266       -3.6
   11/07/2018 05:30      56.8      56.3       86     52.4      0.00      0.32      70.4     0.30      1015.8     0.6      SW   216   1.5      SW   216   9.38    266       -3.2
   11/07/2018 05:20      56.4      55.9       86     52.0      0.00      0.32      70.4     0.30      1015.7     0.6     SSE   164   2.2       S   188   9.38    269       -2.9
   11/07/2018 05:10      56.3      55.6       86     51.8      0.00      0.32      70.4     0.30      1015.8     0.5     SSE   160   1.6      SE   133   9.38    270       -2.5
   11/07/2018 05:00      55.9      55.4       87     51.8      0.00      0.32      70.5     0.30      1015.8     0.3     SSE   147   1.1      SE   145   9.38    270       -1.7
   11/07/2018 04:50      55.8      55.3       88     52.0      0.00      0.32      70.5     0.30      1015.7     0.2     ESE   115   1.4      SE   144   9.38    269       -1.9
   11/07/2018 04:40      55.7      55.3       89     52.1      0.00      0.32      70.5     0.30      1015.7     0.4      SE   130   1.0      SE   128   9.38    268       -1.4
   11/07/2018 04:30      55.5      55.0       89     52.1      0.00      0.32      70.5     0.30      1015.6     0.1       E    84   0.7       E    79   9.38    264       -1.6
   11/07/2018 04:20      55.3      54.7       90     52.1      0.00      0.32      70.6     0.30      1015.6     0.5     ENE    62   1.2     ENE    63   9.38    266       -1.1
   11/07/2018 04:10      54.9      54.4       91     52.0      0.00      0.32      70.6     0.30      1015.6     0.4     SSE   155   1.0     SSE   146   9.38    285       -0.6
   11/07/2018 04:00      54.5      54.0       91     51.7      0.00      0.32      70.7     0.30      1015.5     0.0     SSW   194   0.9       S   179   9.38    304       -0.6
   11/07/2018 03:50      54.2      53.5       92     51.3      0.00      0.32      70.7     0.30      1015.4     0.0       N     0   0.0       S   190   9.38    316       -0.7
   11/07/2018 03:40      53.7      53.2       92     51.1      0.00      0.32      70.7     0.30      1015.4     0.3      SE   134   1.3      SE   143   9.38    323       -3.0
   11/07/2018 03:30      53.5      52.7       92     50.8      0.00      0.32      70.8     0.30      1015.4     0.7     SSE   152   1.6      SE   144   9.38    328       -6.0
   11/07/2018 03:20      53.0      52.2       92     50.3      0.00      0.32      70.8     0.30      1015.4     0.6     SSE   153   1.3       S   172   9.38    330       -3.3
   11/07/2018 03:10      52.5      52.0       92     50.0      0.00      0.32      70.8     0.30      1015.4     0.8     SSW   192   1.6       S   185   9.38    333       -4.1
   11/07/2018 03:00      52.2      51.3       92     49.3      0.00      0.32      70.8     0.30      1015.4     0.5       S   181   1.3       S   180   9.38    336       -7.9
   11/07/2018 02:50      52.2      51.5       92     49.4      0.00      0.32      70.8     0.30      1015.4     0.0       N     0   0.0     SSE   165   9.38    335      -18.3
   11/07/2018 02:40      52.3      51.3       92     49.5      0.00      0.32      70.8     0.30      1015.4     1.0     SSW   198   1.6     SSW   204   9.38    331      -22.1
   11/07/2018 02:30      52.2      51.3       91     49.2      0.00      0.32      70.9     0.30      1015.4     0.0       N     0   0.0       E    97   9.38    327      -23.9
   11/07/2018 02:20      52.5      51.9       91     49.7      0.00      0.32      70.9     0.30      1015.5     0.4     SSE   154   1.1      SE   146   9.38    323      -23.4
   11/07/2018 02:10      53.0      52.5       92     50.3      0.00      0.32      71.0     0.30      1015.6     0.0     SSE   157   0.8     SSE   157   9.38    315      -23.4
   11/07/2018 02:00      52.9      52.5       91     50.2      0.00      0.32      71.0     0.30      1015.7     0.5       S   179   1.2       S   187   9.38    311      -23.0
   11/07/2018 01:50      52.9      52.4       91     50.0      0.00      0.32      71.0     0.30      1015.6     0.0     SSE   168   0.6       S   169   9.38    307      -24.0
   11/07/2018 01:40      53.1      52.6       91     50.2      0.00      0.32      71.0     0.30      1015.7     0.0       N     0   0.0       S   170   9.38    303      -24.2
   11/07/2018 01:30      53.1      52.5       91     50.1      0.00      0.32      71.0     0.30      1015.6     0.0       S   170   0.2       S   170   9.38    299      -24.5
   11/07/2018 01:20      53.3      52.7       91     50.4      0.00      0.32      71.0     0.30      1015.5     0.5     SSE   156   1.1     SSE   151   9.38    298      -24.9
   11/07/2018 01:10      53.2      52.7       90     50.1      0.00      0.32      71.1     0.30      1015.6     0.2     SSE   167   1.0       S   175   9.38    294      -24.8
   11/07/2018 01:00      53.6      52.7       90     50.2      0.00      0.32      71.1     0.30      1015.6     0.5     SSE   164   1.4       S   178   9.38    292      -25.6
   11/07/2018 00:50      53.5      53.0       90     50.3      0.00      0.32      71.2     0.30      1015.5     0.0       N     0   0.0       S   175   9.38    288      -25.9
   11/07/2018 00:40      53.4      53.0       89     50.1      0.00      0.32      71.2     0.30      1015.6     0.0       N     0   0.0       S   175   9.38    288      -28.5
   11/07/2018 00:30      54.0      53.0       89     50.1      0.00      0.32      71.2     0.30      1015.6     0.2     SSE   163   1.1     SSE   147   9.38    284      -31.6
   11/07/2018 00:20      54.0      53.5       89     50.5      0.00      0.32      71.2     0.30      1015.7     0.4     SSE   167   1.3       S   174   9.38    282      -31.9
   11/07/2018 00:10      54.4      53.6       89     50.8      0.00      0.32      71.3     0.30      1015.7     0.0     SSE   150   0.6     SSE   151   9.38    281      -33.8
   11/07/2018 00:00      54.5      53.8       88     50.6      0.00      0.32      71.3     0.30      1015.8     0.5     SSE   152   1.2      SE   137   9.39    280      -35.5
   11/06/2018 23:50      54.7      54.1       88     50.8      0.00      0.32      71.2     0.30      1015.8     0.4     SSE   160   1.1       S   171   9.39    277      -36.9
   11/06/2018 23:40      54.6      54.0       88     50.7      0.00      0.32      71.3     0.30      1015.8     0.5       S   186   1.2       S   184   9.39    274      -38.4
   11/06/2018 23:30      54.9      54.0       87     50.9      0.00      0.32      71.3     0.30      1015.8     0.6     SSE   160   1.9      SE   144   9.39    274      -40.8
   11/06/2018 23:20      54.9      54.5       88     51.1      0.00      0.32      71.3     0.30      1015.9     0.4     SSE   161   1.4      SE   144   9.39    273      -42.2
   11/06/2018 23:10      55.3      54.4       87     51.0      0.00      0.32      71.3     0.30      1015.9     0.3     SSE   155   1.1     SSE   148   9.39    270      -43.9
   11/06/2018 23:00      55.4      54.9       87     51.3      0.00      0.32      71.3     0.30      1015.9     0.5     SSE   155   1.0     SSE   150   9.39    269      -45.2
   11/06/2018 22:50      55.8      55.2       86     51.5      0.00      0.32      71.4     0.30      1015.8     0.5     SSE   159   1.2       S   173   9.39    265      -47.2
   11/06/2018 22:40      56.0      55.5       86     51.7      0.00      0.32      71.4     0.30      1015.9     0.5     SSE   158   1.4     SSE   156   9.39    263      -49.1
   11/06/2018 22:30      56.4      55.7       86     51.8      0.00      0.32      71.4     0.30      1015.8     0.7     SSE   158   1.2      SE   146   9.39    259      -51.9
   11/06/2018 22:20      56.8      56.0       85     51.9      0.00      0.32      71.4     0.30      1015.7     0.3     SSE   161   1.1      SE   143   9.39    252      -54.5
   11/06/2018 22:10      57.1      56.5       84     52.1      0.00      0.32      71.4     0.30      1015.7     0.4       S   173   1.1       S   182   9.39    249      -55.6
   11/06/2018 22:00      57.2      56.8       84     52.2      0.00      0.32      71.4     0.30      1015.7     0.3      SE   146   1.0      SE   141   9.39    254      -57.7
   11/06/2018 21:50      57.5      56.8       83     51.9      0.00      0.32      71.4     0.30      1015.6     0.5     SSE   168   1.2     SSE   167   9.39    253      -59.5
   11/06/2018 21:40      57.8      57.3       82     52.1      0.00      0.32      71.4     0.30      1015.6     0.5     SSE   168   1.4       S   170   9.40    251      -59.6
   11/06/2018 21:30      58.2      57.5       82     52.5      0.00      0.32      71.4     0.30      1015.4     0.5       S   169   1.6       S   176   9.39    260      -59.3
   11/06/2018 21:20      58.5      58.0       82     52.5      0.00      0.32      71.4     0.30      1015.3     0.1     SSE   166   0.7     SSE   166   9.40    253      -59.1
   11/06/2018 21:10      58.8      58.0       81     52.5      0.00      0.32      71.5     0.30      1015.2     0.3       S   171   0.9       S   176   9.40    252      -60.0
   11/06/2018 21:00      58.8      58.3       80     52.3      0.00      0.32      71.5     0.30      1015.1     0.2       S   180   1.7     SSW   207   9.40    267      -59.6
   11/06/2018 20:50      59.6      58.5       78     52.3      0.00      0.32      71.4     0.30      1015.1     0.0       E    97   0.7       E    79   9.40    268      -60.6
   11/06/2018 20:40      60.1      59.1       77     52.4      0.00      0.32      71.4     0.30      1015.1     0.0       S   175   0.6     SSE   169   9.40    264      -61.5
   11/06/2018 20:30      60.8      59.8       76     52.6      0.00      0.32      71.4     0.30      1015.1     0.4     ESE   112   1.1       E   101   9.40    268      -62.6
   11/06/2018 20:20      61.5      60.5       74     52.6      0.00      0.32      71.4     0.30      1015.0     0.3      SE   131   1.7     SSW   206   9.40    268      -63.3
   11/06/2018 20:10      61.9      61.3       73     52.8      0.00      0.32      71.4     0.30      1015.0     0.2       S   179   1.2     SSW   209   9.40    268      -64.5
   11/06/2018 20:00      62.1      61.5       73     52.8      0.00      0.32      71.4     0.30      1014.9     0.5       S   183   2.5     SSW   203   9.40    268      -65.3
   11/06/2018 19:50      62.5      61.8       72     52.9      0.00      0.32      71.4     0.30      1014.9     0.6       S   180   2.3       S   172   9.41    268      -65.2
   11/06/2018 19:40      62.9      62.2       71     52.9      0.00      0.32      71.4     0.30      1014.9     0.1     SSW   210   0.9      SW   219   9.41    268      -65.8
   11/06/2018 19:30      63.3      62.5       70     53.1      0.00      0.32      71.4     0.30      1014.8     0.7     SSW   192   1.8     SSW   204   9.41    267      -67.5
   11/06/2018 19:20      63.2      62.8       70     53.3      0.00      0.32      71.4     0.30      1014.7     1.9     SSW   198   4.2      SW   222   9.41    267      -67.9
   11/06/2018 19:10      63.7      63.1       70     53.5      0.00      0.32      71.3     0.30      1014.6     2.0     SSW   201   3.6       S   170   9.41    267      -67.9
   11/06/2018 19:00      64.1      63.3       69     53.5      0.00      0.32      71.3     0.30      1014.6     1.6     SSW   209   3.3     SSW   197   9.41    267      -68.8
   11/06/2018 18:50      64.3      63.7       69     53.6      0.00      0.32      71.3     0.30      1014.4     2.4     SSW   213   4.4     SSW   208   9.41    267      -69.7
   11/06/2018 18:40      64.7      64.0       68     53.5      0.00      0.32      71.3     0.30      1014.3     1.7     SSW   213   3.6     WSW   243   9.41    267      -69.9
   11/06/2018 18:30      65.3      64.4       67     53.4      0.00      0.32      71.3     0.30      1014.3     1.6      SW   217   4.1      SW   231   9.41    267      -70.2
   11/06/2018 18:20      66.0      64.9       66     53.5      0.00      0.32      71.3     0.30      1014.2     2.3      SW   227   4.6     WSW   249   9.42    266      -71.0
   11/06/2018 18:10      66.4      65.4       64     53.5      0.00      0.32      71.2     0.30      1014.0     2.6      SW   228   4.1     WSW   259   9.42    266      -71.3
   11/06/2018 18:00      67.1      66.2       63     53.4      0.00      0.32      71.2     0.30      1014.0     1.8      SW   235   3.1     WSW   248   9.42    266      -71.9
   11/06/2018 17:50      67.5      66.9       62     53.6      0.00      0.32      71.2     0.30      1013.9     2.3       W   265   5.5       W   273   9.42    266      -72.4
   11/06/2018 17:40      67.8      67.2       61     53.4      0.00      0.32      71.2     0.30      1013.8     2.1     WSW   259   3.5     WNW   296   9.42    266      -72.5
   11/06/2018 17:30      67.8      67.3       60     53.4      0.00      0.32      71.2     0.30      1013.7     1.7     WSW   244   4.2       W   263   9.42    266      -72.9
   11/06/2018 17:20      67.7      67.3       61     53.5      0.00      0.32      71.1     0.30      1013.6     1.2      SW   234   4.2      SW   220   9.43    266      -73.5
   11/06/2018 17:10      68.1      67.4       61     53.6      0.00      0.32      71.1     0.30      1013.5     0.8       S   185   2.3      SW   216   9.43    266      -73.7
   11/06/2018 17:00      68.7      67.9       60     53.6      0.00      0.32      71.1     0.30      1013.4     1.9       S   189   3.2     SSW   206   9.43    266      -72.2
   11/06/2018 16:50      69.1      68.4       59     53.6      0.00      0.32      71.0     0.30      1013.3     2.3       S   188   3.8       S   187   9.43    266      -68.9
   11/06/2018 16:40      69.7      68.9       58     53.7      0.00      0.32      71.0     0.30      1013.2     3.2       S   178   5.5     SSE   158   9.44    266      -63.7
   11/06/2018 16:30      70.7      69.5       56     53.7      0.00      0.32      71.0     0.30      1013.1     3.2       S   175   6.8       S   187   9.44    265      -59.1
   11/06/2018 16:20      71.7      70.4       55     53.8      0.00      0.32      71.0     0.30      1013.0     3.2       S   186   5.2       S   186   9.44    264      -54.1
   11/06/2018 16:10      72.5      71.3       52     53.6      0.00      0.32      70.9     0.30      1012.9     3.0       S   176   5.7       S   175   9.44    264      -23.8
   11/06/2018 16:00      73.0      72.1       51     53.5      0.00      0.32      70.9     0.30      1012.9     3.2       S   172   5.4       S   177   9.44    264       -2.1
   11/06/2018 15:50      73.8      72.7       50     53.5      0.00      0.32      70.8     0.30      1012.9     3.5       S   176   5.4       S   180   9.45    264       19.4
   11/06/2018 15:40      74.0      73.3       49     53.2      0.00      0.32      70.8     0.30      1012.8     3.2       S   180   6.3      SE   140   9.45    264       41.0
   11/06/2018 15:30      74.7      73.4       48     53.0      0.00      0.32      70.8     0.30      1012.7     4.1     SSW   192   6.5      SE   140   9.45    264       63.5
   11/06/2018 15:20      75.0      74.1       47     53.0      0.00      0.32      70.7     0.30      1012.6     4.0       S   179   6.9       S   185   9.45    264       86.1
   11/06/2018 15:10      75.0      74.4       47     53.0      0.00      0.32      70.7     0.30      1012.6     4.2     SSW   192   8.3     SSW   202   9.46    263      108.6
   11/06/2018 15:00      76.6      74.5       46     53.2      0.00      0.32      70.7     0.30      1012.5     5.3     SSW   200   9.1       S   177   9.46    263      132.6
   11/06/2018 14:50      77.4      76.4       44     53.1      0.00      0.32      70.6     0.30      1012.5     3.6       S   177   5.7       S   188   9.46    263      149.8
   11/06/2018 14:40      78.8      77.0       41     52.0      0.00      0.32      70.6     0.30      1012.4     3.3     ESE   112   6.7     NNE    33   9.46    263      167.1
   11/06/2018 14:30      79.8      78.3       35     49.1      0.00      0.32      70.5     0.30      1012.4     2.5      NE    40   4.8     NNE    30   9.47    262      182.0
   11/06/2018 14:20      80.9      79.5       33     48.8      0.00      0.32      70.5     0.30      1012.4     1.9     NNE    33   3.9     NNE    34   9.47    262      201.8
   11/06/2018 14:10      80.8      78.8       34     48.3      0.00      0.32      70.5     0.30      1012.4     1.1       E    79   4.0     NNE    30   9.47    262      221.5
   11/06/2018 14:00      79.6      78.5       34     48.5      0.00      0.32      70.4     0.30      1012.4     1.6     ENE    60   4.1     ENE    59   9.47    263      238.3
   11/06/2018 13:50      79.4      78.6       35     48.9      0.00      0.32      70.4     0.30      1012.5     1.7     NNE    27   4.3     ENE    58   9.47    262      251.8
   11/06/2018 13:40      79.1      77.4       36     49.3      0.00      0.32      70.3     0.30      1012.6     1.1      NE    47   3.1      NW   322   9.47    262      267.2
   11/06/2018 13:30      78.4      77.1       37     49.1      0.00      0.32      70.3     0.30      1012.6     2.3       E    87   6.0     ESE   120   9.47    263      284.1
   11/06/2018 13:20      77.9      77.2       37     49.4      0.00      0.32      70.3     0.30      1012.6     1.7       N     0   3.7     NNE    26   9.47    263      295.6
   11/06/2018 13:10      77.6      77.2       39     50.4      0.00      0.32      70.2     0.30      1012.7     1.7     ENE    68   3.1     ENE    76   9.47    263      308.0
   11/06/2018 13:00      77.4      76.0       42     51.4      0.00      0.32      70.3     0.30      1012.8     1.9      NW   305   4.3     NNE    17   9.48    263      315.8
   11/06/2018 12:50      77.5      76.3       41     51.8      0.00      0.32      70.2     0.30      1013.0     2.2       N    11   5.3     NNE    22   9.48    263      327.5
   11/06/2018 12:40      76.6      75.4       43     51.9      0.00      0.32      70.2     0.30      1013.0     2.4       N     2   4.0      NW   316   9.48    263      333.4
   11/06/2018 12:30      76.4      75.2       43     51.9      0.00      0.32      70.1     0.30      1013.2     2.1     NNW   339   4.6       W   262   9.48    263      343.9
   11/06/2018 12:20      75.5      74.6       44     51.8      0.00      0.32      70.2     0.30      1013.3     2.2     NNE    12   4.7       N     4   9.48    263      353.2
   11/06/2018 12:10      75.2      74.0       45     51.7      0.00      0.32      70.1     0.30      1013.5     1.9      NE    38   4.9      NE    47   9.48    263      359.9
   11/06/2018 12:00      74.4      73.8       45     51.5      0.00      0.32      70.1     0.30      1013.7     2.3     NNW   333   4.1     WNW   288   9.48    264      364.8
   11/06/2018 11:50      74.6      73.0       45     51.5      0.00      0.32      70.0     0.30      1013.8     2.3       W   271   6.0       W   269   9.48    264      365.8
   11/06/2018 11:40      73.2      72.0       47     51.3      0.00      0.32      70.0     0.30      1014.0     2.3     WSW   246   5.3     WSW   249   9.48    264      368.1
   11/06/2018 11:30      73.0      72.3       47     51.4      0.00      0.32      70.1     0.30      1014.1     1.4      SE   137   3.4     ESE   114   9.48    264      369.3
   11/06/2018 11:20      72.8      71.7       47     51.3      0.00      0.32      70.1     0.30      1014.3     1.4      NE    39   3.4      NE    54   9.48    264      365.1
   11/06/2018 11:10      71.9      71.1       48     50.9      0.00      0.32      70.1     0.30      1014.4     1.7      NW   318   4.9     NNW   347   9.48    265      361.3
   11/06/2018 11:00      71.8      71.0       49     51.2      0.00      0.32      70.0     0.30      1014.6     2.6     NNW   338   4.8     NNW   346   9.48    265      359.4
   11/06/2018 10:50      71.5      70.2       51     51.5      0.00      0.32      70.1     0.30      1014.7     1.0      NE    37   3.0     NNE    20   9.48    265      355.5
   11/06/2018 10:40      71.3      69.7       51     51.7      0.00      0.32      70.1     0.30      1014.8     2.5     NNE    15   5.0     NNE    23   9.48    265      346.8
   11/06/2018 10:30      71.2      70.3       51     52.0      0.00      0.32      70.1     0.30      1014.8     1.7     NNE    29   3.4     NNE    26   9.48    265      339.3
   11/06/2018 10:20      70.9      70.0       52     52.0      0.00      0.32      70.1     0.30      1014.9     1.5     NNE    17   3.5       E    95   9.48    266      330.8
   11/06/2018 10:10      70.6      69.1       53     52.0      0.00      0.32      70.1     0.30      1014.9     1.5     NNW   328   3.5     WSW   249   9.48    266      324.3
   11/06/2018 10:00      69.6      68.5       54     52.0      0.00      0.32      70.1     0.30      1015.0     1.1     ESE   123   4.1       E    89   9.48    266      312.7
   11/06/2018 09:50      69.5      68.5       55     52.4      0.00      0.32      70.1     0.30      1015.0     1.8     ENE    66   4.2     ESE   121   9.48    266      300.7
   11/06/2018 09:40      68.8      67.6       57     52.2      0.00      0.32      70.1     0.30      1015.1     1.5     NNE    21   3.6     NNE    12   9.48    266      286.5
   11/06/2018 09:30      68.2      67.4       57     52.1      0.00      0.32      70.1     0.30      1015.1     1.8      NE    53   4.7     NNE    14   9.49    266      272.4
   11/06/2018 09:20      67.9      66.9       59     52.4      0.00      0.32      70.2     0.30      1015.1     1.4     ESE   121   3.6     ESE   120   9.48    266      255.4
   11/06/2018 09:10      67.5      65.9       60     52.5      0.00      0.32      70.2     0.30      1015.1     1.4      SE   125   4.2     ESE   107   9.48    266      241.8
   11/06/2018 09:00      66.4      65.8       62     52.7      0.00      0.32      70.2     0.30      1015.1     2.1       E    97   4.8       E    94   9.49    266      224.5
   11/06/2018 08:50      66.1      65.3       63     52.7      0.00      0.32      70.2     0.30      1015.1     2.0       E    97   4.0     ENE    67   9.49    266      200.7
   11/06/2018 08:40      65.5      64.8       64     52.7      0.00      0.32      70.2     0.30      1015.1     1.9     ESE   122   3.7     NNE    34   9.49    267      184.6
   11/06/2018 08:30      65.0      63.7       67     52.8      0.00      0.32      70.2     0.30      1015.2     2.4     ESE   117   5.3      SE   138   9.49    267      162.1
   11/06/2018 08:20      65.2      64.2       66     53.0      0.00      0.32      70.2     0.30      1015.2     2.4      SE   141   5.1      SE   135   9.49    267      142.4
   11/06/2018 08:10      65.0      63.7       68     53.4      0.00      0.32      70.2     0.30      1015.1     1.5     ENE    68   3.4      NE    55   9.49    267      126.8
   11/06/2018 08:00      64.0      62.6       70     53.3      0.00      0.32      70.2     0.30      1015.0     1.1       E    84   3.2      NE    48   9.49    267       92.7
   11/06/2018 07:50      62.8      62.3       71     53.1      0.00      0.32      70.2     0.30      1014.9     1.1     ENE    72   3.0      NE    51   9.49    268       19.9
   11/06/2018 07:40      62.6      61.9       72     53.2      0.00      0.32      70.2     0.30      1014.8     1.3      NE    54   2.5     ENE    77   9.49    268       22.1
   11/06/2018 07:30      62.2      61.6       72     52.9      0.00      0.32      70.2     0.30      1014.7     1.3     ENE    60   2.7     ENE    58   9.49    268       20.1
   11/06/2018 07:20      62.0      61.6       72     52.8      0.00      0.32      70.2     0.30      1014.7     1.6      NE    51   3.0     ESE   102   9.49    268        9.0
   11/06/2018 07:10      62.1      61.5       72     52.7      0.00      0.32      70.3     0.30      1014.7     1.4      NE    53   2.9     ENE    56   9.49    268        9.2
   11/06/2018 07:00      61.8      61.3       73     52.9      0.00      0.32      70.3     0.30      1014.7     1.2     ENE    65   3.0      NE    44   9.49    268        3.6
   11/06/2018 06:50      61.6      61.2       74     53.0      0.00      0.32      70.3     0.30      1014.6     1.6       E    81   3.7      SE   142   9.49    268       -2.5
   11/06/2018 06:40      61.7      61.3       75     53.5      0.00      0.32      70.3     0.30      1014.5     1.3     ENE    60   3.7      NE    34   9.49    268      -10.5
   11/06/2018 06:30      61.7      61.2       75     53.4      0.00      0.32      70.3     0.30      1014.5     1.1      NE    54   3.9      NE    53   9.49    268      -10.1
   11/06/2018 06:20      61.5      61.3       77     54.0      0.00      0.32      70.3     0.30      1014.5     1.0     NNE    30   1.7      NE    48   9.49    268      -11.7
   11/06/2018 06:10      61.6      61.2       77     54.0      0.00      0.32      70.3     0.30      1014.4     1.1      NE    35   2.6      NE    43   9.49    268      -11.5
   11/06/2018 06:00      61.6      61.2       78     54.3      0.00      0.32      70.3     0.30      1014.3     1.3      NE    46   2.4      NE    36   9.49    269      -11.4
   11/06/2018 05:50      61.5      61.1       78     54.3      0.00      0.32      70.3     0.30      1014.2     0.8      NE    47   2.3      NE    49   9.49    269      -11.1
   11/06/2018 05:40      61.5      60.9       78     54.3      0.00      0.32      70.3     0.30      1014.2     0.9       E    80   3.1     ESE   113   9.49    269      -10.7
   11/06/2018 05:30      61.5      61.0       79     54.6      0.00      0.32      70.4     0.30      1014.2     1.2       E    88   3.8       E    93   9.49    269      -10.5
   11/06/2018 05:20      61.4      61.1       79     54.7      0.00      0.32      70.3     0.30      1014.2     0.5     ENE    63   2.4      NE    52   9.49    269      -10.3
   11/06/2018 05:10      61.5      61.0       79     54.7      0.00      0.32      70.4     0.30      1014.1     0.8      NE    52   2.0      NE    50   9.49    269      -10.1
   11/06/2018 05:00      61.4      61.0       79     54.7      0.00      0.32      70.4     0.30      1014.1     0.6     ENE    60   1.8      NE    56   9.49    269       -9.8
   11/06/2018 04:50      61.3      60.9       80     54.7      0.00      0.32      70.4     0.30      1014.1     0.6      NE    52   1.8     ENE    57   9.49    269       -9.9
   11/06/2018 04:40      61.2      60.8       80     54.6      0.00      0.32      70.4     0.30      1014.1     0.8     ENE    57   1.7      NE    52   9.49    269      -10.1
   11/06/2018 04:30      61.1      60.7       80     54.5      0.00      0.32      70.4     0.30      1013.9     1.2      NE    51   2.6     ENE    59   9.49    269       -9.7
   11/06/2018 04:20      61.0      60.5       80     54.5      0.00      0.32      70.4     0.30      1013.9     0.4     ENE    72   2.1      NE    56   9.49    269       -9.4
   11/06/2018 04:10      60.9      60.5       80     54.4      0.00      0.32      70.4     0.30      1013.8     0.2     ESE   124   1.4       E    96   9.49    269       -9.1
   11/06/2018 04:00      60.8      60.4       80     54.4      0.00      0.32      70.5     0.30      1013.6     0.0     ENE    68   0.5     ENE    68   9.49    269       -9.5
   11/06/2018 03:50      60.7      60.2       80     54.3      0.00      0.32      70.4     0.30      1013.6     0.0       N     0   0.0     SSE   167   9.49    269       -9.8
   11/06/2018 03:40      60.7      60.2       81     54.4      0.00      0.32      70.5     0.30      1013.5     0.0     SSE   167   0.4     SSE   167   9.49    269       -9.8
   11/06/2018 03:30      60.5      60.1       81     54.5      0.00      0.32      70.5     0.30      1013.5     0.2     ENE    74   1.4     ENE    58   9.49    269       -9.6
   11/06/2018 03:20      60.4      59.9       82     54.4      0.00      0.32      70.5     0.30      1013.5     0.5     ESE   113   1.8      SE   144   9.49    269       -9.6
   11/06/2018 03:10      60.2      59.9       82     54.5      0.00      0.32      70.5     0.30      1013.4     1.7      SE   129   3.2      SE   131   9.49    269       -9.0
   11/06/2018 03:00      60.2      59.8       82     54.5      0.00      0.32      70.5     0.30      1013.4     1.3     ESE   115   3.2      SE   129   9.49    269       -8.5
   11/06/2018 02:50      60.2      59.8       82     54.5      0.00      0.32      70.5     0.30      1013.4     0.7       E    99   2.1     ESE   104   9.49    269       -8.3
   11/06/2018 02:40      60.2      59.8       82     54.5      0.00      0.32      70.5     0.30      1013.4     1.5       E    87   3.5     ENE    69   9.49    269       -8.2
   11/06/2018 02:30      60.1      59.6       83     54.5      0.00      0.32      70.5     0.30      1013.4     1.5     ENE    78   3.0     ESE   120   9.49    269       -8.8
   11/06/2018 02:20      60.1      59.6       83     54.6      0.00      0.32      70.6     0.30      1013.3     1.9     ESE   108   3.6     ESE   117   9.49    269      -10.4
   11/06/2018 02:10      60.1      59.6       83     54.5      0.00      0.32      70.5     0.30      1013.3     1.5      SE   127   3.8      SE   136   9.49    269      -10.5
   11/06/2018 02:00      60.1      59.7       83     54.6      0.00      0.32      70.6     0.30      1013.2     2.4      SE   135   4.8      SE   143   9.49    269      -18.0
   11/06/2018 01:50      60.1      59.8       83     54.6      0.00      0.32      70.7     0.30      1013.1     0.9     ESE   121   1.8      SE   124   9.49    269      -25.4
   11/06/2018 01:40      60.1      59.6       83     54.7      0.00      0.32      70.6     0.30      1013.0     2.0      SE   142   3.3      SE   134   9.49    269      -19.2
   11/06/2018 01:30      59.9      59.4       83     54.3      0.00      0.32      70.7     0.30      1013.0     1.4      SE   135   2.9      SE   132   9.49    269      -21.1
   11/06/2018 01:20      60.2      59.6       82     54.5      0.00      0.32      70.7     0.30      1013.0     0.4     ESE   124   1.7     ESE   104   9.49    269      -31.5
   11/06/2018 01:10      60.5      59.9       82     54.5      0.00      0.32      70.7     0.30      1012.9     0.1       E    96   0.9       E    87   9.49    268      -36.5
   11/06/2018 01:00      60.7      60.2       81     54.6      0.00      0.32      70.7     0.30      1012.9     0.4      NE    48   1.5     NNE    33   9.49    269      -35.4
   11/06/2018 00:50      60.8      60.3       81     54.6      0.00      0.32      70.7     0.30      1012.9     0.4     ESE   103   1.7     ESE   117   9.49    269      -40.6
   11/06/2018 00:40      60.8      60.5       81     54.8      0.00      0.32      70.7     0.30      1013.0     0.3       E    79   1.8     ENE    76   9.49    269      -33.3
   11/06/2018 00:30      60.9      60.5       81     54.9      0.00      0.32      70.7     0.30      1013.0     1.2       E    92   4.2       E    84   9.49    269      -26.2
   11/06/2018 00:20      61.1      60.5       81     55.0      0.00      0.32      70.7     0.30      1013.0     0.8     ESE   106   1.9      SE   126   9.49    269      -19.4
   11/06/2018 00:10      60.9      60.5       82     55.0      0.00      0.32      70.8     0.30      1013.0     0.8     ESE   111   1.6     ENE    69   9.49    269      -17.0
   11/06/2018 00:00      61.0      60.6       81     55.0      0.00      0.32      70.8     0.30      1013.0     0.8       E    86   1.9     ENE    71   9.49    269      -20.9
   11/05/2018 23:50      61.0      60.5       82     55.0      0.00      0.32      70.8     0.30      1012.9     1.2     ESE   117   3.0     SSE   153   9.49    269      -19.6
   11/05/2018 23:40      60.9      60.5       82     55.0      0.00      0.32      70.8     0.30      1012.9     0.9       E   100   2.5     ESE   118   9.49    268      -13.8
   11/05/2018 23:30      60.8      60.5       82     55.0      0.00      0.32      70.9     0.30      1012.8     0.8       E    93   2.7       E    95   9.49    268      -11.7
   11/05/2018 23:20      60.7      60.4       82     55.0      0.00      0.32      70.8     0.30      1012.9     0.8       E    93   2.6     ESE   118   9.49    268      -11.2
   11/05/2018 23:10      60.7      60.3       82     54.8      0.00      0.32      70.9     0.30      1013.0     1.8     ESE   112   4.1       E    95   9.50    268      -10.4
   11/05/2018 23:00      60.5      60.0       82     54.7      0.00      0.32      70.9     0.30      1013.1     1.1     ESE   121   2.5      SE   138   9.50    268       -7.5
   11/05/2018 22:50      60.2      59.3       83     54.5      0.00      0.32      70.9     0.30      1013.1     0.4       E    91   2.0       E    86   9.50    268       -5.9
   11/05/2018 22:40      59.4      58.4       83     53.8      0.00      0.32      70.9     0.30      1013.1     0.3      SE   130   1.2      SE   135   9.50    268       -5.5
   11/05/2018 22:30      58.6      57.9       84     53.4      0.00      0.32      71.0     0.30      1013.1     0.0       N     0   0.0       E    94   9.50    268       -4.0
   11/05/2018 22:20      58.1      57.4       85     53.0      0.00      0.32      70.9     0.30      1013.1     0.0       N     0   0.0       E    93   9.50    268       -4.5
   11/05/2018 22:10      58.3      57.4       84     53.0      0.00      0.32      71.0     0.30      1013.1     0.1       E    94   0.9       E    93   9.50    268      -15.0
   11/05/2018 22:00      58.7      58.0       84     53.5      0.00      0.32      71.0     0.30      1013.1     0.0       S   188   0.7       S   188   9.50    253      -46.3
   11/05/2018 21:50      58.6      58.2       84     53.6      0.00      0.32      71.0     0.30      1013.1     0.5     SSW   198   1.8       S   180   9.50    249      -49.2
   11/05/2018 21:40      58.5      57.3       83     52.8      0.00      0.32      71.0     0.30      1013.2     1.1     SSE   166   2.3       S   182   9.50    255      -53.1
   11/05/2018 21:30      57.9      57.4       82     52.0      0.00      0.32      71.0     0.30      1013.1     0.1     SSE   150   1.1      SE   141   9.50    260      -55.1
   11/05/2018 21:20      57.9      57.4       80     51.5      0.00      0.32      71.0     0.30      1013.0     0.4     SSE   166   1.4     SSE   163   9.50    266      -55.1
   11/05/2018 21:10      58.5      57.4       79     51.3      0.00      0.32      71.0     0.30      1012.8     0.7     SSE   158   1.2     SSE   147   9.50    267      -55.8
   11/05/2018 21:00      58.5      58.1       78     51.4      0.00      0.32      71.0     0.30      1012.7     0.6       S   173   1.9     SSW   195   9.50    267      -55.7
   11/05/2018 20:50      58.5      57.9       78     51.5      0.00      0.32      71.0     0.30      1012.6     1.0       S   185   1.8     SSW   200   9.50    268      -55.6
   11/05/2018 20:40      58.5      58.1       79     51.7      0.00      0.32      71.0     0.30      1012.4     0.1       S   172   0.7       S   172   9.50    267      -55.8
   11/05/2018 20:30      58.7      57.9       77     51.0      0.00      0.32      71.0     0.30      1012.3     0.2       S   171   0.7       S   174   9.50    266      -57.3
   11/05/2018 20:20      59.1      58.4       77     51.7      0.00      0.32      71.0     0.30      1012.1     0.7     SSE   167   1.3       S   183   9.50    268      -57.6
   11/05/2018 20:10      59.4      58.6       76     51.4      0.00      0.32      71.0     0.30      1012.1     0.3     SSE   159   1.2     SSE   149   9.51    267      -58.8
   11/05/2018 20:00      60.2      59.1       75     51.8      0.00      0.32      71.0     0.30      1012.1     0.5     SSE   158   1.4     SSE   148   9.51    267      -60.0
   11/05/2018 19:50      60.4      59.8       75     52.2      0.00      0.32      71.0     0.30      1012.1     0.2     SSE   167   0.8     SSE   158   9.51    267      -59.6
   11/05/2018 19:40      60.6      60.0       74     51.9      0.00      0.32      71.0     0.30      1012.0     0.7     SSE   156   1.3     SSE   157   9.51    267      -61.0
   11/05/2018 19:30      60.8      60.3       72     51.3      0.00      0.32      71.0     0.30      1012.0     0.8       S   170   1.3       S   177   9.51    267      -63.1
   11/05/2018 19:20      61.3      60.4       71     51.1      0.00      0.32      71.0     0.30      1011.9     0.7       S   185   1.6     SSW   206   9.51    266      -63.5
   11/05/2018 19:10      61.9      60.9       70     51.4      0.00      0.32      70.9     0.30      1011.9     0.4     SSE   155   1.1     SSE   156   9.51    266      -64.0
   11/05/2018 19:00      62.1      61.6       69     51.8      0.00      0.32      71.0     0.30      1011.8     0.4     SSW   201   1.4       S   174   9.51    266      -64.3
   11/05/2018 18:50      63.2      62.0       68     51.7      0.00      0.32      71.0     0.30      1011.7     0.8       S   191   1.6       S   178   9.52    266      -64.5
   11/05/2018 18:40      63.9      62.8       66     51.7      0.00      0.32      70.9     0.30      1011.6     0.0     SSE   163   0.9     SSE   161   9.52    266      -65.9
   11/05/2018 18:30      64.9      63.6       64     51.7      0.00      0.32      70.9     0.30      1011.5     0.1      SE   139   0.8       E    99   9.52    266      -68.5
   11/05/2018 18:20      65.6      64.6       62     51.7      0.00      0.32      70.9     0.30      1011.4     0.6       E    95   1.8     ENE    72   9.52    266      -71.4
   11/05/2018 18:10      65.4      64.9       60     50.9      0.00      0.32      70.9     0.30      1011.3     1.1     ESE   118   2.3      SE   134   9.52    266      -72.5
   11/05/2018 18:00      65.8      64.9       55     48.7      0.00      0.32      70.8     0.30      1011.3     0.7     ESE   119   1.9       E   101   9.52    265      -72.6
   11/05/2018 17:50      66.7      65.5       52     48.0      0.00      0.32      70.8     0.30      1011.3     0.2      SE   126   1.4       E   100   9.53    265      -73.7
   11/05/2018 17:40      67.5      66.4       53     49.0      0.00      0.32      70.8     0.30      1011.0     0.4       E    92   2.0       E    98   9.53    265      -75.3
   11/05/2018 17:30      68.5      67.1       53     50.0      0.00      0.32      70.8     0.30      1011.0     0.5      SE   137   1.4      SE   142   9.53    264      -77.5
   11/05/2018 17:20      69.2      68.1       53     50.6      0.00      0.32      70.7     0.30      1011.0     1.4     SSE   159   2.3     SSE   164   9.53    264      -78.9
   11/05/2018 17:10      70.6      69.0       50     50.0      0.00      0.32      70.7     0.30      1010.8     2.0     SSE   164   3.9       S   177   9.53    264      -79.6
   11/05/2018 17:00      71.5      70.2       45     48.3      0.00      0.32      70.7     0.30      1010.7     1.0     SSE   162   3.0     SSE   153   9.54    263      -78.4
   11/05/2018 16:50      72.1      71.2       43     48.0      0.00      0.32      70.7     0.30      1010.7     0.7      SE   129   2.2     ESE   115   9.54    263      -76.6
   11/05/2018 16:40      72.8      71.8       43     48.6      0.00      0.32      70.6     0.30      1010.6     1.6      SE   136   3.9     SSE   147   9.54    263      -73.0
   11/05/2018 16:30      73.7      72.5       41     48.2      0.00      0.32      70.6     0.30      1010.6     2.0      SE   139   4.3      SE   130   9.54    263      -68.6
   11/05/2018 16:20      74.3      73.4       40     47.7      0.00      0.32      70.6     0.30      1010.7     1.9      SE   125   3.6     ESE   109   9.55    263      -64.1
   11/05/2018 16:10      75.0      74.1       40     48.5      0.00      0.32      70.6     0.30      1010.7     2.5     ESE   109   4.6     ENE    63   9.55    263      -23.0
   11/05/2018 16:00      75.6      74.7       39     48.6      0.00      0.32      70.5     0.30      1010.6     2.5      SE   139   5.1      SE   133   9.55    263        0.7
   11/05/2018 15:50      75.9      75.0       37     47.5      0.00      0.32      70.5     0.30      1010.6     2.5      SE   133   7.1      SE   142   9.55    263       22.2
   11/05/2018 15:40      75.9      75.4       36     46.5      0.00      0.32      70.5     0.30      1010.4     2.5     ESE   114   5.7     ENE    61   9.55    263       45.0
   11/05/2018 15:30      76.8      75.3       36     46.9      0.00      0.32      70.5     0.30      1010.4     3.1      SE   139   5.8      SE   144   9.55    263       67.2
   11/05/2018 15:20      76.9      76.5       34     46.4      0.00      0.32      70.4     0.30      1010.4     2.0     ESE   105   3.7     ENE    76   9.56    263       89.6
   11/05/2018 15:10      77.0      76.3       34     46.2      0.00      0.32      70.4     0.30      1010.4     2.5      SE   126   5.2     ESE   111   9.56    262      113.3
   11/05/2018 15:00      77.3      76.5       33     45.8      0.00      0.32      70.3     0.30      1010.5     2.6      SE   130   6.0      SE   136   9.56    262      135.8
   11/05/2018 14:50      77.3      76.4       32     44.5      0.00      0.32      70.3     0.30      1010.6     3.1     SSE   164   6.0     SSE   160   9.56    262      156.8
   11/05/2018 14:40      77.3      76.3       32     45.0      0.00      0.32      70.3     0.30      1010.5     4.2     SSE   150   7.0      SE   141   9.56    261      180.0
   11/05/2018 14:30      77.9      76.5       33     45.7      0.00      0.32      70.3     0.30      1010.5     4.0      SE   132   9.2      SE   140   9.57    262      199.5
   11/05/2018 14:20      79.3      77.3       32     45.8      0.00      0.32      70.2     0.30      1010.4     3.9      SE   139   8.0       E    92   9.57    262      215.6
   11/05/2018 14:10      79.5      78.6       32     46.6      0.00      0.32      70.2     0.30      1010.4     2.7     SSE   148   6.2       S   175   9.57    261      232.1
   11/05/2018 14:00      79.4      77.9       33     47.1      0.00      0.32      70.2     0.30      1010.5     2.5       E    92   6.3      SE   137   9.57    262      247.0
   11/05/2018 13:50      78.7      77.9       31     45.5      0.00      0.32      70.2     0.30      1010.5     3.0     ENE    58   5.5      NE    41   9.58    261      262.6
   11/05/2018 13:40      78.6      77.7       28     42.6      0.00      0.32      70.1     0.30      1010.5     3.7      NE    50   7.0      NE    50   9.58    261      277.5
   11/05/2018 13:30      79.0      78.0       29     43.5      0.00      0.32      70.1     0.30      1010.5     3.4      NE    49   5.6      NE    41   9.58    261      290.6
   11/05/2018 13:20      79.0      78.3       28     43.1      0.00      0.32      70.1     0.30      1010.6     3.6     ENE    58   6.5      NE    49   9.58    261      304.4
   11/05/2018 13:10      78.7      78.3       27     41.9      0.00      0.32      70.0     0.30      1010.6     3.4     ENE    65   6.5       E   100   9.58    261      317.2
   11/05/2018 13:00      78.4      77.3       25     39.3      0.00      0.32      70.1     0.30      1010.7     3.8     ENE    62   7.9      NE    50   9.58    261      329.3
   11/05/2018 12:50      78.6      78.1       28     42.4      0.00      0.32      70.0     0.30      1010.8     3.3     ENE    61   5.8     ENE    56   9.59    261      335.5
   11/05/2018 12:40      78.6      78.0       28     42.9      0.00      0.32      70.0     0.30      1011.0     2.8      NE    47   5.8     ENE    66   9.59    261      344.0
   11/05/2018 12:30      78.2      77.4       29     43.0      0.00      0.32      70.0     0.30      1011.1     3.6      NE    41   5.4     NNE    17   9.59    262      352.0
   11/05/2018 12:20      78.1      76.8       28     42.4      0.00      0.32      70.0     0.30      1011.2     3.0      NE    35   5.7     NNW   338   9.59    262      359.4
   11/05/2018 12:10      77.4      76.8       29     42.0      0.00      0.32      69.9     0.30      1011.5     3.0      NE    48   5.6      NE    45   9.59    262      368.3
   11/05/2018 12:00      77.0      75.8       30     42.4      0.00      0.32      70.0     0.30      1011.8     2.7      NE    50   5.4      NE    38   9.59    262      374.5
   11/05/2018 11:50      76.1      74.9       30     41.8      0.00      0.32      70.0     0.30      1012.0     2.5       E    89   6.2       E    99   9.59    262      380.9
   11/05/2018 11:40      75.5      74.3       32     43.1      0.00      0.32      70.0     0.30      1012.1     3.4     ENE    70   6.6      NE    47   9.59    262      383.0
   11/05/2018 11:30      74.9      74.2       34     44.2      0.00      0.32      70.0     0.30      1012.2     3.4       E    86   7.3     ENE    62   9.59    263      383.0
   11/05/2018 11:20      75.0      74.4       37     47.0      0.00      0.32      70.0     0.30      1012.4     2.8     NNE    31   5.4     NNE    27   9.59    263      378.9
   11/05/2018 11:10      74.6      73.7       36     45.5      0.00      0.32      70.0     0.30      1012.6     2.8      NE    45   5.7     NNE    24   9.59    263      376.2
   11/05/2018 11:00      74.3      73.6       41     48.6      0.00      0.32      70.0     0.30      1012.6     2.8      NE    45   6.4     ENE    57   9.60    263      370.8
   11/05/2018 10:50      73.7      72.7       42     49.2      0.00      0.32      70.1     0.30      1012.7     2.2      NE    50   4.4     NNE    18   9.60    263      363.6
   11/05/2018 10:40      73.4      72.4       43     49.1      0.00      0.32      70.1     0.30      1012.8     2.6     ENE    64   6.1     ENE    58   9.60    264      359.8
   11/05/2018 10:30      73.4      71.8       44     49.3      0.00      0.32      70.1     0.30      1012.9     2.2     ENE    57   4.9     NNE    33   9.60    264      353.0
   11/05/2018 10:20      72.6      71.2       45     49.5      0.00      0.32      70.1     0.30      1013.0     1.7      NE    51   5.2       E    82   9.60    264      347.2
   11/05/2018 10:10      71.3      70.1       47     49.6      0.00      0.32      70.2     0.30      1013.1     1.9      NE    37   4.9     ENE    57   9.60    264      336.9
   11/05/2018 10:00      70.3      69.4       49     49.6      0.00      0.32      70.2     0.30      1013.1     2.5      NE    53   4.8      NE    46   9.60    264      330.1
   11/05/2018 09:50      70.3      68.8       50     49.7      0.00      0.32      70.3     0.30      1013.2     1.5       E    97   3.4      NE    51   9.60    265      314.7
   11/05/2018 09:40      69.1      68.1       52     50.0      0.00      0.32      70.3     0.30      1013.2     1.7      NE    34   3.7      NE    45   9.60    265      306.6
   11/05/2018 09:30      68.2      67.2       54     50.2      0.00      0.32      70.3     0.30      1013.2     1.5     NNE    25   2.9      NE    49   9.60    266      292.9
   11/05/2018 09:20      67.5      66.4       55     50.5      0.00      0.32      70.4     0.30      1013.2     0.9      NW   318   2.4      NE    44   9.60    266      276.9
   11/05/2018 09:10      66.7      65.7       58     50.8      0.00      0.32      70.4     0.30      1013.2     1.2     NNE    23   2.9      SE   142   9.60    266      261.2
   11/05/2018 09:00      66.3      65.0       59     50.9      0.00      0.32      70.5     0.30      1013.3     0.9     NNE    14   3.2       N     0   9.60    266      236.7
   11/05/2018 08:50      65.4      64.7       60     50.7      0.00      0.32      70.5     0.30      1013.3     0.8     NNE    13   2.0     NNE    25   9.60    266      213.4
   11/05/2018 08:40      65.1      63.7       61     50.7      0.00      0.32      70.5     0.30      1013.3     0.6      NE    46   1.9       E    92   9.60    266      196.9
   11/05/2018 08:30      64.0      63.4       66     51.9      0.00      0.32      70.5     0.30      1013.3     0.6     NNE    34   2.3     NNE    21   8.95    266      177.8
   11/05/2018 08:20      63.6      62.3       62     50.0      0.00      0.32      70.6     0.30      1013.2     0.5     ESE   107   1.3     ESE   110   8.96    266      159.4
   11/05/2018 08:10      62.4      61.3       62     48.6      0.00      0.32      70.6     0.30      1013.2     0.3       N    11   1.3      NE    51   8.95    266      139.0
   11/05/2018 08:00      61.4      60.6       62     48.1      0.00      0.32      70.7     0.30      1013.1     0.6     NNW   338   2.4      NW   314   8.95    266      122.2
   11/05/2018 07:50      60.6      59.4       64     47.8      0.00      0.32      70.7     0.30      1013.0     0.4      NE    51   1.6      NE    41   8.95    266      103.6
   11/05/2018 07:40      59.5      57.1       67     47.5      0.00      0.32      70.7     0.30      1012.9     0.0     ENE    69   0.2     ENE    69   8.95    268       53.0
   11/05/2018 07:30      57.3      54.6       74     47.7      0.00      0.32      70.7     0.30      1012.9     0.0     ENE    63   1.3      NE    40   8.95    268       66.0
   11/05/2018 07:20      54.7      53.0       81     48.1      0.00      0.32      70.7     0.30      1012.8     0.3     NNE    31   1.6     NNE    28   8.95    268       15.7
   11/05/2018 07:10      53.2      50.9       86     47.8      0.00      0.32      70.8     0.30      1012.7     0.0       N     0   0.0     SSW   207   8.95    266       -5.9
   11/05/2018 07:00      51.0      50.2       87     46.9      0.00      0.32      70.8     0.30      1012.6     0.0       N     0   0.0     SSW   207   8.95    265      -10.3
   11/05/2018 06:50      50.4      49.7       88     46.5      0.00      0.32      70.8     0.30      1012.6     0.2     SSW   204   0.9     SSW   207   8.95    252      -18.7
   11/05/2018 06:40      50.0      49.7       87     46.2      0.00      0.32      70.9     0.30      1012.5     0.3     SSE   163   0.8     SSE   149   8.95    255      -28.9
   11/05/2018 06:30      49.9      49.3       87     45.6      0.00      0.32      70.9     0.30      1012.6     0.4       S   170   1.3       S   177   8.95    256      -37.4
   11/05/2018 06:20      49.9      49.2       86     45.5      0.00      0.32      71.0     0.30      1012.6     0.5     SSE   166   1.3     SSE   161   8.95    256      -44.7
   11/05/2018 06:10      49.5      48.7       84     44.4      0.00      0.32      71.0     0.30      1012.5     0.2       S   178   1.1     SSE   147   8.95    257      -51.0
   11/05/2018 06:00      49.9      48.9       82     44.0      0.00      0.32      71.0     0.30      1012.3     0.3     SSE   155   1.2     SSW   204   8.95    261      -54.2
   11/05/2018 05:50      49.9      49.4       82     44.3      0.00      0.32      71.0     0.30      1012.3     0.6       S   183   1.7      SW   218   8.95    267      -53.9
   11/05/2018 05:40      50.0      49.4       82     44.3      0.00      0.32      71.1     0.30      1012.3     0.3      SW   214   1.9      SW   218   8.95    267      -53.9
   11/05/2018 05:30      50.5      49.6       80     44.2      0.00      0.32      71.1     0.30      1012.1     0.3     SSE   159   0.9     SSE   147   8.95    268      -54.4
   11/05/2018 05:20      50.6      50.2       79     44.1      0.00      0.32      71.1     0.30      1012.1     0.6       S   179   1.8     SSW   206   8.96    268      -54.8
   11/05/2018 05:10      50.5      50.0       81     44.5      0.00      0.32      71.2     0.30      1012.2     0.9       S   182   1.8      SW   218   8.96    268      -53.8
   11/05/2018 05:00      50.6      50.1       81     44.6      0.00      0.32      71.2     0.30      1012.2     0.2     NNE    29   0.9       E    83   8.96    266      -53.8
   11/05/2018 04:50      50.6      49.7       81     44.5      0.00      0.32      71.2     0.30      1012.2     0.3     SSE   155   1.2     SSW   194   8.96    266      -54.5
   11/05/2018 04:40      50.3      49.8       80     44.0      0.00      0.32      71.2     0.30      1012.2     0.0     SSW   194   0.6     SSW   195   8.96    268      -54.9
   11/05/2018 04:30      50.5      50.0       79     44.0      0.00      0.32      71.3     0.30      1012.2     0.0     SSE   150   0.9     SSE   149   8.96    264      -55.2
   11/05/2018 04:20      51.1      50.2       77     43.7      0.00      0.32      71.3     0.30      1012.1     0.2      SE   141   1.0     SSE   160   8.96    268      -55.9
   11/05/2018 04:10      51.5      50.8       76     43.8      0.00      0.32      71.3     0.30      1012.1     0.1      SE   134   0.8      SE   145   8.96    267      -56.1
   11/05/2018 04:00      52.0      51.3       75     43.9      0.00      0.32      71.3     0.30      1012.1     0.0       N     0   0.0     NNE    18   8.96    267      -55.8
   11/05/2018 03:50      52.0      51.6       75     44.3      0.00      0.32      71.4     0.30      1012.1     0.0     NNE    20   0.9     NNE    20   8.96    267      -56.4
   11/05/2018 03:40      52.0      51.3       77     44.6      0.00      0.32      71.4     0.30      1012.1     0.8     SSE   149   1.6      SE   144   8.96    267      -55.9
   11/05/2018 03:30      51.8      51.4       76     44.3      0.00      0.32      71.4     0.30      1012.2     0.4     SSE   163   1.2       S   171   8.96    267      -54.8
   11/05/2018 03:20      52.0      51.5       75     44.1      0.00      0.32      71.4     0.30      1012.4     0.0     SSE   161   0.6       S   173   8.96    266      -54.5
   11/05/2018 03:10      52.1      51.6       74     43.9      0.00      0.32      71.5     0.30      1012.5     0.1       S   178   1.0       S   181   8.96    266      -53.9
   11/05/2018 03:00      52.4      51.8       73     43.9      0.00      0.32      71.5     0.30      1012.6     0.0       N     0   0.0     SSE   150   8.96    266      -55.0
   11/05/2018 02:50      52.8      52.2       72     43.9      0.00      0.32      71.5     0.30      1012.8     0.7     SSE   160   1.6      SE   136   8.96    266      -54.3
   11/05/2018 02:40      52.7      52.1       70     42.8      0.00      0.32      71.5     0.30      1012.9     0.2     SSW   192   1.0     SSW   213   8.96    266      -54.2
   11/05/2018 02:30      52.5      52.1       69     42.4      0.00      0.32      71.6     0.30      1012.9     0.5     ESE   111   2.1      SE   139   8.96    266      -56.5
   11/05/2018 02:20      52.5      52.1       68     42.1      0.00      0.32      71.6     0.30      1013.0     0.7     SSE   166   1.9       S   183   8.96    266      -56.3
   11/05/2018 02:10      52.9      52.2       68     42.4      0.00      0.32      71.6     0.30      1013.1     0.4      SE   138   1.1       S   176   8.96    266      -55.7
   11/05/2018 02:00      53.4      52.6       67     42.2      0.00      0.32      71.7     0.30      1013.2     0.3      SE   125   0.8      SE   133   8.96    266      -55.0
   11/05/2018 01:50      53.9      53.0       66     42.6      0.00      0.32      71.7     0.30      1013.2     0.3     SSE   148   1.2      SE   142   8.96    266      -55.5
   11/05/2018 01:40      53.8      53.2       66     42.5      0.00      0.32      71.7     0.30      1013.4     0.0      SE   142   0.9      SE   141   8.97    266      -55.4
   11/05/2018 01:30      53.5      53.0       67     42.4      0.00      0.32      71.7     0.30      1013.5     0.2     SSE   157   1.1     SSE   160   8.97    266      -56.1
   11/05/2018 01:20      53.9      53.0       65     41.9      0.00      0.32      71.7     0.30      1013.6     0.7     SSE   163   1.2      SE   143   8.97    266      -57.2
   11/05/2018 01:10      54.0      53.5       65     42.1      0.00      0.32      71.7     0.30      1013.6     0.1     SSE   163   0.7     SSE   156   8.97    266      -56.8
   11/05/2018 01:00      54.2      53.6       63     41.8      0.00      0.32      71.7     0.30      1013.7     0.1      SE   145   0.8     NNE    26   8.97    266      -56.9
   11/05/2018 00:50      54.5      54.0       64     42.1      0.00      0.32      71.8     0.30      1013.6     0.4     SSE   153   1.5      SE   145   8.97    266      -56.5
   11/05/2018 00:40      54.3      54.0       64     42.3      0.00      0.32      71.8     0.30      1013.6     0.4     SSE   166   1.3       S   169   8.97    266      -55.6
   11/05/2018 00:30      54.8      54.0       63     41.9      0.00      0.32      71.8     0.30      1013.5     0.2     SSE   150   1.1      SE   144   8.97    266      -56.8
   11/05/2018 00:20      54.7      54.1       62     41.8      0.00      0.32      71.8     0.30      1013.5     0.7       S   183   1.7       S   182   8.97    265      -56.4
   11/05/2018 00:10      55.4      54.5       61     41.8      0.00      0.32      71.9     0.30      1013.5     0.0      SE   129   0.7       E   101   8.97    265      -57.6
   11/05/2018 00:00      55.5      55.0       62     42.2      0.00      0.32      71.8     0.30      1013.5     0.0       N     0   0.0       S   180   8.97    265      -57.9
   11/04/2018 23:50      55.8      55.1       61     42.1      0.00      0.32      71.9     0.30      1013.4     0.2       S   183   0.8     SSW   195   8.97    265      -58.7
   11/04/2018 23:40      56.4      55.5       61     42.7      0.00      0.32      71.9     0.30      1013.4     0.4     SSE   149   1.1     SSE   147   8.97    265      -59.2
   11/04/2018 23:30      56.6      56.0       60     42.5      0.00      0.32      71.9     0.30      1013.5     0.3     SSE   152   1.1     SSE   147   8.98    265      -59.6
   11/04/2018 23:20      56.4      56.0       59     42.2      0.00      0.32      71.9     0.30      1013.6     0.4     SSE   159   1.0     SSE   151   8.98    265      -60.0
   11/04/2018 23:10      56.6      55.9       58     41.8      0.00      0.32      71.9     0.30      1013.7     0.5     SSE   163   1.0     SSE   157   8.98    264      -60.4
   11/04/2018 23:00      57.0      56.4       57     41.6      0.00      0.32      71.9     0.30      1013.7     0.6     SSE   153   1.8     SSE   149   8.98    264      -61.4
   11/04/2018 22:50      57.3      56.6       57     42.0      0.00      0.32      71.9     0.30      1013.8     0.7     SSE   153   1.5      SE   144   8.98    264      -62.1
   11/04/2018 22:40      57.4      56.9       57     41.9      0.00      0.32      72.0     0.30      1013.9     0.7     SSE   160   1.3     SSE   157   8.98    264      -62.8
   11/04/2018 22:30      57.9      57.1       55     41.5      0.00      0.32      72.0     0.30      1013.9     0.9     SSE   156   1.5     SSE   164   8.98    264      -62.1
   11/04/2018 22:20      58.5      57.5       55     41.7      0.00      0.32      72.0     0.30      1014.1     0.5     SSE   162   1.4     SSE   155   8.98    264      -61.6
   11/04/2018 22:10      58.7      58.1       54     41.6      0.00      0.32      72.0     0.30      1014.0     0.2     SSE   151   0.9     SSE   147   8.98    264      -61.7
   11/04/2018 22:00      58.7      58.3       53     41.6      0.00      0.32      72.0     0.30      1014.0     0.6     SSE   161   1.1      SE   144   8.98    264      -62.4
   11/04/2018 21:50      58.8      58.4       52     41.2      0.00      0.32      72.0     0.30      1014.1     0.5     SSE   154   1.4     SSE   146   8.98    264      -64.0
   11/04/2018 21:40      59.3      58.4       51     40.9      0.00      0.32      72.0     0.30      1014.1     0.7     SSE   167   1.3       S   171   8.99    264      -65.3
   11/04/2018 21:30      59.9      59.1       50     40.5      0.00      0.32      72.0     0.30      1014.0     0.4     SSE   163   1.4     SSE   160   8.99    264      -65.5
   11/04/2018 21:20      60.0      59.4       50     41.0      0.00      0.32      72.0     0.30      1013.9     0.5       S   172   1.4       S   174   8.99    264      -66.3
   11/04/2018 21:10      59.9      59.4       50     41.0      0.00      0.32      72.0     0.30      1013.8     0.9     SSE   151   2.0      SE   144   8.99    264      -67.8
   11/04/2018 21:00      60.9      59.8       48     40.5      0.00      0.32      72.0     0.30      1013.7     0.7     SSE   159   1.4      SE   143   8.99    264      -68.3
   11/04/2018 20:50      61.4      60.5       47     40.3      0.00      0.32      71.9     0.30      1013.6     0.8       S   172   1.4       S   175   8.99    264      -67.8
   11/04/2018 20:40      61.5      61.0       47     40.7      0.00      0.32      71.9     0.30      1013.6     0.4     SSW   195   1.3       S   181   8.99    264      -67.2
   11/04/2018 20:30      62.4      61.2       46     40.6      0.00      0.32      71.9     0.30      1013.4     0.0       N     0   0.0       E    84   9.00    264      -68.8
   11/04/2018 20:20      62.8      62.0       45     40.9      0.00      0.32      71.9     0.30      1013.3     0.5      SE   133   1.4      SE   142   9.00    263      -70.5
   11/04/2018 20:10      63.5      62.5       43     40.3      0.00      0.32      71.9     0.30      1013.4     0.9      SE   145   1.4      SE   144   9.00    264      -70.1
   11/04/2018 20:00      64.0      63.2       42     39.9      0.00      0.32      71.9     0.30      1013.4     0.6       S   171   1.4       S   178   9.00    263      -69.3
   11/04/2018 19:50      64.3      63.7       42     40.6      0.00      0.32      71.9     0.30      1013.4     0.7     SSE   151   1.6     SSE   148   9.00    263      -70.4
   11/04/2018 19:40      64.7      64.0       42     40.6      0.00      0.32      71.9     0.30      1013.4     1.0     SSE   155   1.4     SSE   161   9.01    263      -70.9
   11/04/2018 19:30      65.2      64.3       41     40.5      0.00      0.32      71.8     0.30      1013.5     0.9     SSE   151   1.8      SE   146   9.01    263      -69.6
   11/04/2018 19:20      65.8      64.8       40     40.5      0.00      0.32      71.8     0.30      1013.4     1.0     SSE   151   1.8       S   175   9.01    263      -67.5
   11/04/2018 19:10      66.1      65.5       39     40.3      0.00      0.32      71.8     0.30      1013.4     0.7     SSE   159   1.4       S   171   9.01    263      -66.3
   11/04/2018 19:00      67.0      65.9       38     39.8      0.00      0.32      71.8     0.30      1013.3     0.8     SSE   162   2.0     SSE   153   9.01    263      -64.8
   11/04/2018 18:50      67.0      66.5       37     39.4      0.00      0.32      71.7     0.30      1013.4     0.7     SSE   154   1.4      SE   140   9.01    263      -62.5
   11/04/2018 18:40      67.3      66.6       37     39.7      0.00      0.32      71.7     0.30      1013.3     0.7     SSE   156   1.5      SE   146   9.01    263      -63.8
   11/04/2018 18:30      68.1      67.0       36     39.8      0.00      0.32      71.7     0.30      1013.2     0.3     SSE   162   0.9     SSE   151   9.02    263      -66.4
   11/04/2018 18:20      68.4      67.8       35     39.3      0.00      0.32      71.6     0.30      1013.2     0.7     SSE   156   2.2       S   185   9.02    262      -70.5
   11/04/2018 18:10      69.1      68.1       36     40.3      0.00      0.32      71.6     0.30      1013.2     0.6       S   173   1.6     SSE   153   9.02    262      -73.1
   11/04/2018 18:00      70.7      68.9       34     39.9      0.00      0.32      71.6     0.30      1013.1     0.5     SSE   156   1.3     SSE   162   9.02    262      -74.8
   11/04/2018 17:50      71.8      70.4       31     38.6      0.00      0.32      71.6     0.30      1013.0     0.6       S   169   1.5     SSW   200   9.02    262      -75.7
   11/04/2018 17:40      73.4      71.5       29     38.5      0.00      0.32      71.5     0.30      1012.9     0.5       S   173   1.4     SSW   196   9.03    262      -78.1
   11/04/2018 17:30      75.5      73.1       27     38.2      0.00      0.32      71.5     0.30      1012.8     0.2     SSE   162   1.0     SSE   157   9.03    262      -80.3
   11/04/2018 17:20      76.5      75.0       26     38.6      0.00      0.32      71.5     0.30      1012.8     0.0     NNW   342   1.2       N     3   9.03    261      -81.9
   11/04/2018 17:10      77.9      76.2       26     39.1      0.00      0.32      71.4     0.30      1012.5     0.3      NE    40   1.9     NNW   348   9.03    261      -79.7
   11/04/2018 17:00      78.8      77.7       25     39.3      0.00      0.32      71.3     0.30      1012.4     0.7     NNE    18   2.6     NNW   342   9.04    261      -79.6
   11/04/2018 16:50      80.8      78.7       24     39.4      0.00      0.32      71.3     0.30      1012.3     1.7     NNE    13   3.7     NNE    12   9.04    261      -75.2
   11/04/2018 16:40      82.2      80.4       23     39.5      0.00      0.32      71.2     0.30      1012.2     1.3     NNW   330   3.0     NNE    26   9.04    261      -68.4
   11/04/2018 16:30      82.8      81.8       23     40.3      0.00      0.32      71.3     0.30      1012.1     1.4      NW   314   2.9     NNE    12   9.04    261      -61.8
   11/04/2018 16:20      83.5      82.3       22     40.4      0.00      0.32      71.2     0.30      1012.1     1.6     SSW   196   3.8     SSW   209   9.05    261      -53.2
   11/04/2018 16:10      84.3      83.3       21     39.4      0.00      0.32      71.2     0.30      1012.0     2.4       S   191   4.8     SSW   208   9.05    261      -16.8
   11/04/2018 16:00      84.5      83.9       20     39.0      0.00      0.32      71.2     0.30      1012.1     2.3       S   181   4.7     SSW   201   9.05    261       32.7
   11/04/2018 15:50      84.7      83.9       18     36.6      0.00      0.32      71.1     0.30      1012.1     2.2      SE   140   6.0       S   171   9.05    261       40.6
   11/04/2018 15:40      84.5      84.0       17     35.3      0.00      0.32      71.1     0.30      1012.1     2.8      SE   139   5.6      SE   140   9.06    261       74.1
   11/04/2018 15:30      84.3      83.9       17     35.2      0.00      0.32      71.0     0.30      1012.1     3.5     SSE   148   6.7      SE   137   9.06    261       70.6
   11/04/2018 15:20      85.7      84.0       18     37.1      0.00      0.32      71.0     0.30      1012.1     3.8     SSE   158   7.1      SE   139   9.06    261       54.3
   11/04/2018 15:10      85.8      85.3       17     35.8      0.00      0.32      71.0     0.30      1012.3     3.4       S   187   5.8       S   187   9.07    261      124.9
   11/04/2018 15:00      86.5      85.6       17     36.2      0.00      0.32      70.9     0.30      1012.3     3.2       S   189   6.6       S   186   9.07    261       77.8
   11/04/2018 14:50      86.5      86.0       19     38.5      0.00      0.32      70.9     0.30      1012.3     2.0      NE    40   4.2      NE    37   9.07    261       78.5
   11/04/2018 14:40      86.8      86.0       17     36.1      0.00      0.32      70.9     0.30      1012.3     3.3      NE    38   5.9       N     0   9.07    260      151.0
   11/04/2018 14:30      87.4      86.6       16     34.8      0.00      0.32      70.9     0.30      1012.4     3.4     ENE    61   5.8      NE    38   9.08    260      183.1
   11/04/2018 14:20      87.8      87.0       15     34.2      0.00      0.32      70.8     0.30      1012.4     3.3      NE    54   5.0     ESE   104   9.08    260      211.0
   11/04/2018 14:10      88.0      87.5       14     32.7      0.00      0.32      70.8     0.30      1012.4     2.7     ENE    61   5.0     ENE    64   9.08    260      238.1
   11/04/2018 14:00      88.1      87.6       15     34.3      0.00      0.32      70.7     0.30      1012.6     2.7      NE    48   5.0      NE    47   9.08    260      266.3
   11/04/2018 13:50      88.3      87.6       15     34.8      0.00      0.32      70.7     0.30      1012.7     2.1     ENE    73   4.5      SE   130   9.08    260      210.7
   11/04/2018 13:40      89.0      87.7       15     34.6      0.00      0.32      70.7     0.30      1013.0     2.2     ESE   107   4.5      SE   137   9.08    260      246.9
   11/04/2018 13:30      89.1      88.3       15     34.7      0.00      0.32      70.7     0.30      1013.1     1.7     ENE    79   3.5       S   174   9.08    260      266.5
   11/04/2018 13:20      88.9      87.3       15     33.8      0.00      0.32      70.7     0.30      1013.3     1.7      NE    43   4.9      NE    49   9.08    260      303.2
   11/04/2018 13:10      88.5      87.1       15     33.5      0.00      0.32      70.6     0.30      1013.5     2.9     NNE    19   5.1       N     6   9.08    260      317.6
   11/04/2018 13:00      88.3      88.0       14     33.2      0.00      0.32      70.6     0.30      1013.6     2.3     NNE    30   4.1      NE    39   9.08    260      324.9
   11/04/2018 12:50      88.0      87.5       14     32.0      0.00      0.32      70.7     0.30      1013.7     1.6     NNE    21   3.4       N     0   9.08    260      329.6
   11/04/2018 12:40      87.8      87.1       13     30.7      0.00      0.32      70.6     0.30      1013.8     1.9      NE    47   3.8      SE   130   9.08    260      313.6
   11/04/2018 12:30      87.3      86.7       13     29.9      0.00      0.32      70.6     0.30      1013.9     1.9      NE    50   4.3      NE    42   9.08    260      316.0
   11/04/2018 12:20      87.0      86.4       13     29.9      0.00      0.32      70.5     0.30      1014.1     1.9      NE    45   4.4      NE    43   9.08    260      338.7
   11/04/2018 12:10      86.9      86.0       13     29.9      0.00      0.32      70.6     0.30      1014.2     1.8       N     5   4.4      NE    40   9.08    260      363.3
   11/04/2018 12:00      86.4      84.6       13     29.7      0.00      0.32      70.6     0.30      1014.4     1.9      NE    50   4.7     ENE    64   9.08    260      410.6
   11/04/2018 11:50      85.3      84.6       15     31.8      0.00      0.32      70.6     0.30      1014.6     2.0     NNE    28   3.8      NE    44   9.08    261      274.0
   11/04/2018 11:40      84.7      83.5       17     35.1      0.00      0.32      70.6     0.30      1014.7     1.6     NNE    14   3.3       N   355   9.08    261      393.3
   11/04/2018 11:30      83.6      83.0       19     36.8      0.00      0.32      70.6     0.30      1014.9     1.6     NNE    26   3.0       N     7   9.08    261      277.4
   11/04/2018 11:20      83.4      82.3       19     36.8      0.00      0.32      70.5     0.30      1015.1     0.9      NE    52   1.8     NNE    21   9.08    261      190.9
   11/04/2018 11:10      82.5      81.8       21     38.1      0.00      0.32      70.6     0.30      1015.2     1.3      NE    38   2.2       N     0   9.08    261      311.3
   11/04/2018 11:00      82.5      81.5       21     38.5      0.00      0.32      70.6     0.30      1015.4     0.6       N     7   1.8      NE    39   9.08    261      177.1
   11/04/2018 10:50      81.6      80.1       22     38.5      0.00      0.32      70.6     0.30      1015.6     0.9     NNW   329   2.2      NW   314   9.08    261      271.6
   11/04/2018 10:40      80.3      79.4       23     38.2      0.00      0.32      70.7     0.30      1015.8     1.0       N   359   2.6     NNE    15   9.08    261      283.8
   11/04/2018 10:30      80.5      79.4       22     37.6      0.00      0.32      70.7     0.30      1015.9     0.9       N   357   2.4       N     0   9.08    261      178.2
   11/04/2018 10:20      80.4      78.5       22     37.9      0.00      0.32      70.7     0.30      1016.0     0.5       N   357   1.8      NE    42   9.08    261      297.2
   11/04/2018 10:10      78.6      75.8       24     37.9      0.00      0.32      70.7     0.30      1016.2     0.8       W   272   2.3     WSW   255   9.08    261      317.5
   11/04/2018 10:00      76.0      73.6       27     37.9      0.00      0.32      70.8     0.30      1016.2     0.8      NW   307   1.8     WNW   293   9.08    261      318.8
   11/04/2018 09:50      73.8      71.9       28     38.0      0.00      0.32      70.8     0.30      1016.3     1.0     NNW   334   2.1     NNW   331   9.08    262      226.6
   11/04/2018 09:40      72.0      70.1       32     39.4      0.00      0.32      70.8     0.30      1016.3     0.9     NNW   336   2.3     WNW   288   9.08    262      206.2
   11/04/2018 09:30      70.3      68.4       36     40.9      0.00      0.32      70.8     0.30      1016.3     0.4     NNE    14   1.2     NNE    14   9.08    263      181.3
   11/04/2018 09:20      68.5      67.3       37     40.7      0.00      0.32      70.9     0.30      1016.4     0.6       N    10   1.9       N   349   9.08    263      135.5
   11/04/2018 09:10      67.6      67.1       35     38.9      0.00      0.32      70.9     0.30      1016.5     0.9     NNE    20   1.8       N     0   9.08    263      117.0
   11/04/2018 09:00      67.5      66.6       36     39.1      0.00      0.32      70.9     0.30      1016.5     0.3       N   355   1.4     NNW   348   9.08    263       97.8
   11/04/2018 08:50      66.7      65.3       39     40.0      0.00      0.32      71.0     0.30      1016.4     0.1     NNE    32   1.1     ENE    59   9.08    263       97.4
   11/04/2018 08:40      65.5      64.2       39     39.3      0.00      0.32      71.0     0.30      1016.3     0.0     NNE    23   0.4     NNE    23   9.08    263       86.7
   11/04/2018 08:30      64.5      63.2       40     39.0      0.00      0.32      71.0     0.30      1016.3     0.0      NE    48   0.4     NNE    24   9.08    263       73.6
   11/04/2018 08:20      63.4      62.6       43     40.0      0.00      0.32      71.0     0.30      1016.3     0.0     SSE   148   0.5     SSE   148   9.08    264       60.4
   11/04/2018 08:10      62.8      62.3       44     40.3      0.00      0.32      71.0     0.30      1016.3     0.0     ESE   101   0.7     ENE    77   9.08    264       55.3
   11/04/2018 08:00      62.7      61.8       44     39.8      0.00      0.32      71.1     0.30      1016.2     0.2     ENE    78   1.1     ENE    77   9.08    264       58.5
   11/04/2018 07:50      62.0      61.2       43     39.2      0.00      0.32      71.1     0.30      1016.1     0.2     ENE    72   1.3      NE    49   9.08    264       61.5
   11/04/2018 07:40      61.5      60.2       44     38.6      0.00      0.32      71.2     0.30      1016.0     0.2     NNE    13   1.0       N     9   9.08    264       49.2
   11/04/2018 07:30      60.3      57.0       46     37.7      0.00      0.32      71.2     0.30      1015.9     0.0     ENE    71   0.5       N   355   9.08    264       63.0
   11/04/2018 07:20      57.1      55.5       49     37.2      0.00      0.32      71.2     0.30      1015.8     0.0       N     0   0.0     SSE   148   9.08    264       11.8
   11/04/2018 07:10      55.8      55.0       51     37.4      0.00      0.32      71.2     0.30      1015.8     0.0       N     0   0.0     SSE   148   9.08    264        1.4
   11/04/2018 07:00      55.2      54.4       51     36.9      0.00      0.32      71.3     0.30      1015.6     0.2     SSE   147   0.7     SSE   148   9.08    264       -9.8
   11/04/2018 06:50      54.7      54.1       51     36.6      0.00      0.32      71.3     0.30      1015.6     0.0       N     0   0.0       E    96   9.08    264      -21.1
   11/04/2018 06:40      54.5      54.0       51     36.2      0.00      0.32      71.3     0.30      1015.5     0.1      SE   139   0.7      SE   141   9.08    264      -31.6
   11/04/2018 06:30      54.5      54.0       52     36.9      0.00      0.32      71.3     0.30      1015.5     0.0       N     0   0.0     SSE   157   9.08    264      -35.8
   11/04/2018 06:20      54.3      54.0       52     37.0      0.00      0.32      71.4     0.30      1015.4     0.0     SSE   154   0.6     SSE   157   9.08    264      -38.7
   11/04/2018 06:10      54.3      53.9       50     35.7      0.00      0.32      71.4     0.30      1015.5     0.2     SSE   150   0.7     SSE   150   9.08    264      -39.5
   11/04/2018 06:00      54.3      53.8       51     36.2      0.00      0.32      71.4     0.30      1015.4     0.0     SSE   150   0.8     SSE   150   9.08    264      -39.6
   11/04/2018 05:50      54.3      53.8       51     36.3      0.00      0.32      71.4     0.30      1015.4     0.1     SSE   154   0.7     SSE   150   9.08    264      -40.7
   11/04/2018 05:40      54.3      53.7       52     36.6      0.00      0.32      71.5     0.30      1015.4     0.1     SSE   151   0.8     SSE   151   9.08    264      -43.0
   11/04/2018 05:30      54.5      53.8       52     36.8      0.00      0.32      71.5     0.30      1015.3     0.0       N     0   0.0      SE   145   9.08    264      -46.1
   11/04/2018 05:20      54.8      54.1       53     37.5      0.00      0.32      71.5     0.30      1015.3     0.3      SE   145   1.0      SE   145   9.08    264      -48.2
   11/04/2018 05:10      55.2      54.6       49     36.1      0.00      0.32      71.5     0.30      1015.4     0.8     SSE   160   1.4      SW   221   9.08    264      -47.5
   11/04/2018 05:00      55.3      54.4       51     36.7      0.00      0.32      71.6     0.30      1015.3     0.4     SSW   200   1.3     SSW   211   9.08    264      -48.0
   11/04/2018 04:50      55.3      54.7       51     37.4      0.00      0.32      71.6     0.30      1015.2     0.6     SSE   149   1.8      SE   143   9.08    264      -48.9
   11/04/2018 04:40      55.4      54.7       51     37.2      0.00      0.32      71.6     0.30      1015.2     1.5     SSE   148   2.6      SE   137   9.08    264      -49.5
   11/04/2018 04:30      55.9      55.3       49     36.8      0.00      0.32      71.6     0.30      1015.2     1.2     SSE   154   2.0      SE   139   9.08    264      -49.7
   11/04/2018 04:20      55.9      54.5       47     35.5      0.00      0.32      71.7     0.30      1015.1     1.5      SW   228   2.5     WSW   249   9.09    264      -49.6
   11/04/2018 04:10      54.8      53.9       50     35.9      0.00      0.32      71.7     0.30      1015.1     0.8       S   175   2.3      SW   229   9.09    264      -49.6
   11/04/2018 04:00      54.2      53.7       51     36.2      0.00      0.32      71.7     0.30      1015.0     0.2     SSE   165   0.8       S   172   9.09    264      -50.2
   11/04/2018 03:50      54.6      53.8       53     37.3      0.00      0.32      71.8     0.30      1015.1     0.5      SE   146   1.8      SE   139   9.09    264      -50.2
   11/04/2018 03:40      54.4      54.0       53     37.4      0.00      0.32      71.8     0.30      1015.1     0.0       N     0   0.0     SSE   165   9.09    264      -49.0
   11/04/2018 03:30      54.5      54.0       51     36.5      0.00      0.32      71.8     0.30      1015.0     0.0       N     0   0.0     SSE   166   9.09    264      -49.2
   11/04/2018 03:20      54.9      54.2       51     36.8      0.00      0.32      71.8     0.30      1014.9     0.0       N     0   0.0     SSE   165   9.09    264      -50.2
   11/04/2018 03:10      55.2      54.7       49     36.3      0.00      0.32      71.9     0.30      1014.9     0.0     SSE   165   0.6     SSE   165   9.09    264      -50.4
   11/04/2018 03:00      55.2      54.9       50     36.9      0.00      0.32      71.9     0.30      1015.0     0.2     SSE   165   0.7     SSE   165   9.09    264      -51.8
   11/04/2018 02:50      55.5      54.9       51     37.4      0.00      0.32      71.9     0.30      1014.9     0.4      SE   135   1.1      SE   140   9.09    264      -53.9
   11/04/2018 02:40      55.7      55.0       51     37.5      0.00      0.32      71.9     0.30      1014.9     1.2     SSE   151   2.2      SE   139   9.09    264      -55.0
   11/04/2018 02:30      55.9      55.2       50     37.0      0.00      0.32      71.9     0.30      1015.0     1.0     SSE   147   2.3     SSE   148   9.09    264      -55.5
   11/04/2018 02:20      56.3      55.5       48     36.5      0.00      0.32      72.0     0.30      1015.1     0.4     SSE   163   1.1       S   180   9.09    264      -54.7
   11/04/2018 02:10      56.2      55.5       49     36.9      0.00      0.32      72.0     0.30      1015.1     0.1     WSW   254   0.9       W   260   9.09    264      -53.8
   11/04/2018 02:00      57.8      57.0       49     38.0      0.00      0.32      72.1     0.30      1015.3     1.2     SSE   158   1.8      SE   139   9.10    264      -58.4
   11/04/2018 02:00      56.0      55.5       50     37.4      0.00      0.32      72.0     0.30      1015.0     0.0     SSE   155   0.4     SSE   163   9.10    264      -54.6
   11/04/2018 01:50      57.4      56.8       48     37.4      0.00      0.32      72.1     0.30      1015.3     1.2     SSE   156   2.6      SE   135   9.10    264      -60.1
   11/04/2018 01:50      57.4      55.9       48     37.0      0.00      0.32      72.0     0.30      1015.0     0.3      SE   133   1.0      SE   138   9.10    264      -55.4
   11/04/2018 01:40      57.4      56.8       46     36.4      0.00      0.32      72.0     0.30      1015.1     0.1     SSE   154   0.9     SSE   152   9.10    264      -55.1
   11/04/2018 01:40      57.4      56.6       47     37.1      0.00      0.32      72.1     0.30      1015.4     0.6     SSE   166   1.4     SSW   203   9.10    264      -60.5
   11/04/2018 01:30      57.9      57.1       46     36.8      0.00      0.32      72.2     0.30      1015.2     0.1     SSE   150   0.7      SE   141   9.10    264      -59.6
   11/04/2018 01:30      57.8      57.0       44     35.8      0.00      0.32      72.0     0.30      1015.1     0.0       N     0   0.0     SSE   159   9.10    264      -56.4
   11/04/2018 01:20      58.7      57.6       45     37.0      0.00      0.32      72.1     0.30      1015.1     0.3      SE   139   0.9      SE   138   9.10    264      -60.3
   11/04/2018 01:20      57.8      57.4       47     37.6      0.00      0.32      72.0     0.30      1015.2     0.3     SSE   155   1.0     SSE   151   9.10    264      -56.9
   11/04/2018 01:10      59.1      58.4       45     37.4      0.00      0.32      72.2     0.30      1015.2     0.0       S   174   0.4       S   175   9.10    264      -60.1
   11/04/2018 01:10      57.7      57.3       48     37.8      0.00      0.32      72.1     0.30      1015.2     0.8     SSE   165   1.3      SE   144   9.10    264      -57.7
   11/04/2018 01:00      59.5      58.8       44     37.1      0.00      0.32      72.2     0.30      1015.3     0.6     SSE   160   1.2      SE   125   9.11    264      -60.8
   11/04/2018 00:50      59.5      58.8       43     36.4      0.00      0.32      72.2     0.30      1015.4     0.6     SSW   208   2.3      SW   226   9.11    264      -60.8
   11/04/2018 00:40      59.6      59.1       44     37.3      0.00      0.32      72.2     0.30      1015.5     0.7     SSE   150   2.4     SSW   212   9.11    263      -62.0
   11/04/2018 00:30      59.8      59.3       44     37.8      0.00      0.32      72.2     0.30      1015.5     1.3     SSE   149   2.6      SE   133   9.11    263      -61.8
   11/04/2018 00:20      60.1      59.3       43     36.9      0.00      0.32      72.2     0.30      1015.4     0.8     SSE   159   2.1      SE   145   9.11    263      -61.4
   11/04/2018 00:10      60.1      59.2       43     36.9      0.00      0.32      72.2     0.30      1015.4     0.8     SSE   158   2.1      SE   142   9.11    263      -62.0
   11/04/2018 00:00      60.3      59.6       42     36.9      0.00      0.32      72.2     0.30      1015.4     0.5     SSW   192   1.4     WSW   237   9.11    263      -61.2
   11/03/2018 23:50      61.3      59.9       41     36.9      0.00      0.32      72.2     0.30      1015.2     0.4      SE   142   1.4      SE   141   9.11    263      -62.3
   11/03/2018 23:40      61.9      61.0       39     36.4      0.00      0.32      72.2     0.30      1015.2     0.2     SSE   151   1.1     SSE   149   9.11    263      -62.4
   11/03/2018 23:30      61.9      61.4       40     37.0      0.00      0.32      72.2     0.30      1015.2     0.3       S   169   1.6       S   175   9.12    263      -62.7
   11/03/2018 23:20      61.8      61.2       40     37.0      0.00      0.32      72.2     0.30      1015.2     0.7     SSW   196   2.3       S   189   9.12    263      -63.5
   11/03/2018 23:10      62.1      61.5       41     37.6      0.00      0.32      72.2     0.30      1015.5     1.0      SE   141   2.3      SE   142   9.12    263      -63.4
   11/03/2018 23:00      62.8      61.8       40     37.3      0.00      0.32      72.2     0.30      1015.8     0.6      SE   140   2.1      SE   141   9.12    263      -62.2
   11/03/2018 22:50      62.8      62.4       39     37.5      0.00      0.32      72.2     0.30      1015.7     1.0     SSE   154   1.8      SE   138   9.12    263      -63.8
   11/03/2018 22:40      63.3      62.5       38     36.9      0.00      0.32      72.2     0.30      1015.5     0.8     SSE   155   1.2     SSE   150   9.12    263      -64.6
   11/03/2018 22:30      63.3      62.9       37     36.6      0.00      0.32      72.2     0.30      1015.3     1.2     SSE   157   2.7      SE   140   9.12    263      -65.5
   11/03/2018 22:20      63.7      62.9       37     36.6      0.00      0.32      72.2     0.30      1015.3     0.8     SSE   162   1.8     SSE   167   9.12    263      -66.0
   11/03/2018 22:10      64.0      63.5       36     36.1      0.00      0.32      72.2     0.30      1015.3     0.9     SSE   158   1.8      SE   135   9.13    263      -66.2
   11/03/2018 22:00      64.6      63.4       34     35.0      0.00      0.32      72.2     0.30      1015.2     0.4     SSW   204   1.1       N   355   9.13    263      -67.0
   11/03/2018 21:50      65.1      64.3       34     35.5      0.00      0.32      72.2     0.30      1015.1     0.7     SSE   162   3.2     SSW   193   9.13    262      -67.1
   11/03/2018 21:40      65.9      64.7       33     35.3      0.00      0.32      72.2     0.30      1015.1     0.4     SSE   147   2.1       S   184   9.13    262      -68.2
   11/03/2018 21:30      66.5      65.6       32     35.3      0.00      0.32      72.2     0.30      1014.9     0.2     SSE   152   1.4     SSE   160   9.13    262      -68.3
   11/03/2018 21:20      66.7      66.1       31     35.0      0.00      0.32      72.2     0.30      1014.7     0.6       E    95   1.6      SE   128   9.13    262      -68.8
   11/03/2018 21:10      66.9      66.4       31     35.1      0.00      0.32      72.1     0.30      1014.6     0.7     SSE   152   2.8      SE   141   9.13    262      -69.8
   11/03/2018 21:00      67.0      66.2       32     35.7      0.00      0.32      72.1     0.30      1014.7     1.3      SE   143   2.6      SE   137   9.14    262      -70.1
   11/03/2018 20:50      67.4      66.7       31     35.7      0.00      0.32      72.1     0.30      1014.8     0.6     SSE   154   1.2     SSE   148   9.14    262      -69.8
   11/03/2018 20:40      68.1      67.1       32     36.7      0.00      0.32      72.0     0.30      1014.8     1.1      SE   144   2.1     ESE   123   9.14    262      -72.1
   11/03/2018 20:30      68.7      67.8       31     36.8      0.00      0.32      72.0     0.30      1014.8     0.9     SSE   155   1.7      SE   145   9.14    262      -71.5
   11/03/2018 20:20      69.5      68.4       31     36.5      0.00      0.32      72.0     0.30      1014.9     0.9     SSE   155   1.5     SSE   147   9.14    262      -72.4
   11/03/2018 20:10      69.7      69.2       28     34.7      0.00      0.32      72.0     0.30      1014.9     0.9       S   176   1.7      SE   146   9.15    262      -69.8
   11/03/2018 20:00      70.6      69.3       29     36.0      0.00      0.32      71.9     0.30      1014.9     0.6     SSE   165   1.1      SE   142   9.15    261      -70.6
   11/03/2018 19:50      71.5      70.3       28     36.3      0.00      0.32      71.9     0.30      1014.8     0.7     SSE   147   1.3      SE   133   9.15    261      -68.3
   11/03/2018 19:40      72.0      71.3       26     34.4      0.00      0.32      71.9     0.30      1014.8     0.2       S   175   0.9     SSE   165   9.15    261      -66.1
   11/03/2018 19:30      72.5      71.8       26     35.2      0.00      0.32      71.8     0.30      1014.6     1.1     SSE   152   2.2      SE   137   9.16    261      -68.0
   11/03/2018 19:20      73.1      72.1       25     34.8      0.00      0.32      71.8     0.30      1014.5     1.3     SSE   157   2.5     SSE   154   9.16    261      -71.6
   11/03/2018 19:10      74.5      72.8       22     32.4      0.00      0.32      71.8     0.30      1014.4     1.1       S   187   2.7     SSW   214   9.16    261      -74.5
   11/03/2018 19:00      77.5      74.3       22     33.7      0.00      0.32      71.8     0.30      1014.3     1.3     SSE   167   2.5       S   191   9.16    261      -75.8
   11/03/2018 18:50      78.0      77.3       20     34.1      0.00      0.32      71.7     0.30      1014.1     1.4     WSW   247   2.5      NW   312   9.16    261      -79.1
   11/03/2018 18:40      78.4      77.3       21     34.9      0.00      0.32      71.7     0.30      1014.0     0.4      NW   320   1.8      NW   319   9.17    261      -82.1
   11/03/2018 18:30      80.6      78.1       21     35.5      0.00      0.32      71.7     0.30      1013.8     0.4     NNE    12   1.6     NNE    25   9.17    261      -85.5
   11/03/2018 18:20      82.2      80.3       19     34.8      0.00      0.32      71.6     0.30      1013.7     0.3      SW   219   2.2     SSW   196   9.17    261      -87.9
   11/03/2018 18:10      83.1      81.9       19     35.6      0.00      0.32      71.6     0.30      1013.7     1.4       W   267   3.8      SW   225   9.17    261      -88.8
   11/03/2018 18:00      84.2      82.9       18     35.8      0.00      0.32      71.5     0.30      1013.7     0.8      NW   322   2.7       W   269   9.18    261      -85.6
   11/03/2018 17:50      85.6      84.0       17     35.0      0.00      0.32      71.5     0.30      1013.8     0.3     ESE   107   2.8      NE    48   9.18    261      -75.4
   11/03/2018 17:40      86.3      85.3       16     34.0      0.00      0.32      71.4     0.30      1013.7     1.0      NW   315   2.7       N     0   9.18    261      -59.4
   11/03/2018 17:30      86.8      86.0       15     33.6      0.00      0.32      71.4     0.30      1013.4     1.4     NNW   336   4.9      NW   325   9.18    260      -48.2
   11/03/2018 17:20      88.0      86.5       15     33.2      0.00      0.32      71.4     0.30      1013.3     3.3      NW   307   5.6     WNW   283   9.19    260      -48.9
   11/03/2018 17:10      89.6      87.9       13     32.3      0.00      0.32      71.3     0.30      1013.4     2.9     WNW   303   6.3     WNW   296   9.19    260      -26.9
   11/03/2018 17:00      90.4      89.3       11     27.6      0.00      0.32      71.3     0.30      1013.3     3.1      NW   311   6.4      NW   312   9.19    260        6.6
   11/03/2018 16:50      90.7      90.1       10     27.1      0.00      0.32      71.2     0.30      1013.4     2.8      NW   325   6.7     NNE    16   9.20    260       19.3
   11/03/2018 16:40      91.6      90.4        9     23.7      0.00      0.32      71.2     0.30      1013.4     3.9     NNW   332   8.6      NE    35   9.20    261       35.0
   11/03/2018 16:30      91.8      91.3        8     22.5      0.00      0.32      71.1     0.30      1013.3     3.1     NNW   329   5.6      NW   317   9.21    260       56.7
   11/03/2018 16:20      92.3      91.6        8     22.2      0.00      0.32      71.1     0.30      1013.2     3.0     NNW   332   6.3      NW   307   9.21    260       78.2
   11/03/2018 16:10      92.2      91.6        8     21.1      0.00      0.32      71.0     0.30      1013.2     2.7       N   350   7.4       N    10   9.21    260       98.7
   11/03/2018 16:00      92.3      91.5        7     20.6      0.00      0.32      71.0     0.30      1013.2     3.2       N   356   6.7       N     0   9.21    260      121.5
   11/03/2018 15:50      92.1      91.7        8     20.8      0.00      0.32      71.0     0.30      1013.3     3.9       N   357   6.6     NNW   343   9.22    260      143.4
   11/03/2018 15:40      92.0      91.5        7     20.0      0.00      0.32      70.9     0.30      1013.3     3.8       N   358   7.4     NNW   333   9.22    260      163.5
   11/03/2018 15:30      91.9      91.3        7     19.9      0.00      0.32      70.8     0.30      1013.4     4.5       N   358   7.8     NNE    15   9.22    259      176.9
   11/03/2018 15:20      92.1      91.3        7     19.5      0.00      0.32      70.8     0.30      1013.4     5.1       N   356  10.1     WNW   301   9.22    259      198.5
   11/03/2018 15:10      92.3      91.6        7     20.3      0.00      0.32      70.7     0.30      1013.5     5.4       N     5  11.0     NNW   341   9.22    259      220.6
   11/03/2018 15:00      93.3      91.8        8     21.3      0.00      0.32      70.7     0.30      1013.6     5.3       N     4  11.7     NNW   348   9.23    259      234.9
   11/03/2018 14:50      93.4      92.8        9     25.0      0.00      0.32      70.7     0.30      1013.6     4.5     NNE    23  16.8     WSW   238   9.23    259      250.2
   11/03/2018 14:40      93.4      92.2        9     24.8      0.00      0.32      70.6     0.30      1013.7     2.5     NNE    12   9.3      SW   223   9.23    259      263.6
   11/03/2018 14:30      92.8      92.1        9     25.9      0.00      0.32      70.7     0.30      1013.9     3.0     NNE    28   6.0       N   353   9.23    260      278.7
   11/03/2018 14:20      93.5      92.4        9     25.6      0.00      0.32      70.6     0.30      1014.0     3.2       N     8   6.5       N   351   9.23    259      290.7
   11/03/2018 14:10      93.1      92.0       10     28.4      0.00      0.32      70.5     0.30      1014.1     2.1      NE    53   4.9     NNW   336   9.23    259      304.0
   11/03/2018 14:00      92.5      91.5       11     29.8      0.00      0.32      70.5     0.30      1014.3     1.5       E    85   4.6      NE    51   9.23    260      316.1
   11/03/2018 13:50      91.5      90.2       12     31.6      0.00      0.32      70.5     0.30      1014.4     1.3       E    95   3.4       E    95   9.23    260      325.6
   11/03/2018 13:40      90.4      89.6       13     32.1      0.00      0.32      70.5     0.30      1014.6     1.9      SE   131   4.7      SE   134   9.23    260      337.4
   11/03/2018 13:30      91.2      89.5       13     32.3      0.00      0.32      70.5     0.30      1014.9     2.1     ESE   115   5.4      SE   137   9.23    260      344.1
   11/03/2018 13:20      91.0      89.1       13     32.6      0.00      0.32      70.4     0.30      1015.2     1.4     WNW   299   4.3     NNW   342   9.24    260      346.7
   11/03/2018 13:10      90.5      89.6       13     32.5      0.00      0.32      70.4     0.30      1015.4     1.4     NNE    23   4.3     NNE    28   9.24    260      352.1
   11/03/2018 13:00      89.8      88.6       13     32.5      0.00      0.32      70.4     0.30      1015.5     1.7     NNE    17   3.3      NE    54   9.24    260      354.9
   11/03/2018 12:50      89.0      88.0       13     32.1      0.00      0.32      70.5     0.30      1015.7     1.5     SSE   164   3.1     ESE   118   9.24    260      364.5
   11/03/2018 12:40      89.6      88.0       13     32.0      0.00      0.32      70.4     0.30      1015.8     2.1       E   100   5.1     ESE   112   9.24    260      366.6
   11/03/2018 12:30      89.5      88.7       13     32.3      0.00      0.32      70.4     0.30      1016.0     1.6      NE    48   3.6      NE    54   9.24    260      363.5
   11/03/2018 12:20      89.1      88.2       13     32.0      0.00      0.32      70.4     0.30      1016.0     1.4       N   352   3.4       N     6   9.24    261      365.2
   11/03/2018 12:10      89.0      87.9       13     31.6      0.00      0.32      70.4     0.30      1016.0     0.8     ENE    69   2.1     SSE   155   9.24    261      364.1
   11/03/2018 12:00      88.2      86.8       14     32.0      0.00      0.32      70.5     0.30      1016.1     1.4     NNW   342   3.5      NW   308   9.24    260      360.7
   11/03/2018 11:50      87.1      85.5       14     31.4      0.00      0.32      70.5     0.30      1016.2     1.2     ESE   103   3.3     SSE   147   9.24    261      357.8
   11/03/2018 11:40      85.9      85.0       15     33.2      0.00      0.32      70.5     0.30      1016.2     2.6      SE   145   4.7      SE   128   9.24    261      354.4
   11/03/2018 11:30      85.8      84.2       16     33.8      0.00      0.32      70.5     0.30      1016.3     2.2     ESE   105   5.2      SE   141   9.24    261      349.5
   11/03/2018 11:20      84.2      82.5       17     33.9      0.00      0.32      70.5     0.30      1016.5     2.3       E    86   5.0     ENE    60   9.24    261      345.0
   11/03/2018 11:10      82.6      81.2       18     34.3      0.00      0.32      70.6     0.30      1016.6     3.0      SE   131   6.6      SE   138   9.24    261      335.4
   11/03/2018 11:00      81.4      80.1       18     33.6      0.00      0.32      70.6     0.30      1016.7     4.5      SE   141   8.5      SE   130   9.23    261      326.6
   11/03/2018 10:50      80.6      78.4       19     33.3      0.00      0.32      70.6     0.30      1016.7     4.0      SE   132   7.1     SSE   167   9.24    261      318.1
   11/03/2018 10:40      79.3      78.6       19     33.1      0.00      0.32      70.7     0.30      1016.6     4.0      SE   126   7.5     SSE   162   9.24    261      302.8
   11/03/2018 10:30      79.0      76.4       20     33.6      0.00      0.32      70.7     0.30      1016.6     1.9      SE   125   3.5       S   171   9.24    261      284.4
   11/03/2018 10:20      76.7      75.9       23     35.3      0.00      0.32      70.7     0.30      1016.6     2.7     ESE   110   5.8       E    94   9.24    262      271.0
   11/03/2018 10:10      76.0      74.8       25     37.0      0.00      0.32      70.8     0.30      1016.7     1.9       E    90   3.9     SSE   150   9.24    262      253.9
   11/03/2018 10:00      75.3      74.9       26     37.7      0.00      0.32      70.8     0.30      1016.7     1.8      NE    48   3.2     NNE    26   9.24    262      236.8
   11/03/2018 09:50      75.2      74.0       26     37.4      0.00      0.32      70.8     0.30      1016.8     1.6      NE    54   3.0      NE    44   9.24    262      224.3
   11/03/2018 09:40      74.1      72.7       28     38.5      0.00      0.32      70.9     0.30      1016.7     1.4     NNE    19   3.3      NE    46   9.24    262      212.6
   11/03/2018 09:30      72.8      72.0       32     40.9      0.00      0.32      70.9     0.30      1016.7     1.4     NNE    16   3.6     ENE    61   9.24    262      192.4
   11/03/2018 09:20      73.3      71.3       34     41.7      0.00      0.32      70.9     0.30      1016.6     1.8      NE    35   5.3      NE    35   9.24    262      171.5
   11/03/2018 09:10      73.5      68.9       32     40.0      0.00      0.32      71.0     0.30      1016.4     1.6     SSW   196   5.3      NE    38   9.24    263      160.0
   11/03/2018 09:00      68.9      67.6       37     40.5      0.00      0.32      71.0     0.30      1016.5     0.8       W   262   2.3       E    83   9.24    263      144.3
   11/03/2018 08:50      68.0      65.7       36     39.1      0.00      0.32      71.0     0.30      1016.4     0.7       E    99   2.1     ENE    66   9.24    263       99.2
   11/03/2018 08:40      65.9      61.9       38     37.8      0.00      0.32      71.1     0.30      1016.4     1.4     SSW   200   3.4      SW   227   9.24    264       38.3
   11/03/2018 08:30      62.1      59.8       41     37.1      0.00      0.32      71.0     0.30      1016.2     1.9     ESE   111   7.3      SW   227   9.24    264       38.1
   11/03/2018 08:20      59.9      58.0       43     36.3      0.00      0.32      71.1     0.30      1016.1     1.9     ESE   112   4.4     SSE   155   9.24    264       25.9
   11/03/2018 08:10      58.2      55.4       45     35.6      0.00      0.32      71.2     0.30      1016.0     1.7       S   181   3.7     ENE    72   9.24    264      -38.9
   11/03/2018 08:00      55.5      53.9       48     35.4      0.00      0.32      71.2     0.30      1015.8     0.9     SSE   159   2.2     ENE    77   9.24    264      -40.0
   11/03/2018 07:50      54.1      53.5       49     35.1      0.00      0.32      71.2     0.30      1015.6     1.1      SW   218   3.2       W   266   9.24    264      -43.7
   11/03/2018 07:40      54.0      53.6       48     34.6      0.00      0.32      71.2     0.30      1015.4     1.2      SE   139   2.8       S   184   9.24    264      -46.8
   11/03/2018 07:30      54.0      53.0       49     34.8      0.00      0.32      71.3     0.30      1015.4     1.9     SSE   147   3.6       S   182   9.24    264      -51.6
   11/03/2018 07:20      53.2      52.5       51     35.0      0.00      0.32      71.3     0.30      1015.3     1.8       S   189   4.0      SW   224   9.24    264      -54.7
   11/03/2018 07:10      52.8      51.9       52     35.2      0.00      0.32      71.3     0.30      1015.2     1.2       W   271   3.9     SSW   213   9.24    264      -56.7
   11/03/2018 07:00      52.9      52.1       52     35.6      0.00      0.32      71.3     0.30      1015.1     1.2      SE   142   3.6      SE   144   9.24    264      -58.4
   11/03/2018 06:50      52.7      52.3       52     35.6      0.00      0.32      71.4     0.30      1015.2     0.5     WNW   288   2.4       S   190   9.24    264      -58.5
   11/03/2018 06:40      53.0      52.2       52     35.5      0.00      0.32      71.4     0.30      1015.1     0.9     ENE    62   2.1       S   179   9.24    264      -58.0
   11/03/2018 06:30      53.3      52.4       51     35.2      0.00      0.32      71.4     0.30      1015.1     0.8     SSW   194   2.7      NE    46   9.24    264      -58.0
   11/03/2018 06:20      53.2      52.7       50     34.8      0.00      0.32      71.5     0.30      1015.1     1.0     SSE   160   3.7      NE    41   9.24    264      -58.3
   11/03/2018 06:10      53.4      52.8       51     35.1      0.00      0.32      71.5     0.30      1015.1     0.8      SE   136   2.3     NNW   344   9.24    264      -59.5
   11/03/2018 06:00      54.2      53.1       50     35.4      0.00      0.32      71.5     0.30      1015.1     0.4     SSE   154   1.9     SSE   150   9.24    264      -60.1
   11/03/2018 05:50      54.1      53.6       50     36.0      0.00      0.32      71.5     0.30      1015.1     1.1      NE    48   3.1     NNW   330   9.24    264      -61.0
   11/03/2018 05:40      53.8      53.1       50     35.4      0.00      0.32      71.5     0.30      1014.9     1.2      SW   222   3.0       N     3   9.24    264      -60.0
   11/03/2018 05:30      53.8      53.2       50     35.5      0.00      0.32      71.6     0.30      1014.9     1.2     ENE    78   3.5       S   177   9.24    264      -60.1
   11/03/2018 05:20      54.3      53.5       50     35.9      0.00      0.32      71.6     0.30      1015.0     0.7       E    81   2.9       S   179   9.24    264      -60.5
   11/03/2018 05:10      54.6      54.1       49     35.7      0.00      0.32      71.6     0.30      1015.0     0.9     ESE   120   3.0      SE   142   9.25    264      -59.9
   11/03/2018 05:00      54.8      54.2       49     35.7      0.00      0.32      71.6     0.30      1015.0     0.8      SE   146   2.8      SE   139   9.25    264      -60.3
   11/03/2018 04:50      54.6      53.6       51     36.0      0.00      0.32      71.6     0.30      1014.9     1.4     SSE   149   2.8      SE   139   9.25    264      -60.6
   11/03/2018 04:40      54.3      53.5       51     36.2      0.00      0.32      71.7     0.30      1014.9     1.4     SSE   148   2.4      SE   125   9.25    264      -60.5
   11/03/2018 04:30      53.9      53.4       51     35.8      0.00      0.32      71.7     0.30      1014.9     1.2     SSE   160   2.4     SSE   164   9.25    264      -60.7
   11/03/2018 04:20      54.3      53.5       49     35.2      0.00      0.32      71.7     0.30      1014.9     0.4     SSE   158   1.1       S   174   9.25    264      -61.1
   11/03/2018 04:10      54.6      54.0       48     34.9      0.00      0.32      71.8     0.30      1014.9     1.3       S   169   2.9     SSW   197   9.25    264      -61.5
   11/03/2018 04:00      54.9      53.9       48     34.9      0.00      0.32      71.8     0.30      1014.9     0.6       S   172   2.2     SSW   203   9.25    264      -63.1
   11/03/2018 03:50      54.9      54.3       48     35.0      0.00      0.32      71.8     0.30      1014.9     1.3     SSW   208   2.5     WSW   238   9.25    264      -62.5
   11/03/2018 03:40      55.8      54.3       46     34.9      0.00      0.32      71.8     0.30      1014.9     0.7     ESE   106   2.4     WSW   246   9.25    264      -63.0
   11/03/2018 03:30      56.0      55.5       45     34.7      0.00      0.32      71.8     0.30      1014.9     0.5       N   358   2.0     NNE    29   9.25    264      -62.2
   11/03/2018 03:20      55.9      55.2       46     34.8      0.00      0.32      71.8     0.30      1014.9     0.6       S   173   2.0      SE   145   9.26    264      -61.6
   11/03/2018 03:10      56.5      55.1       46     35.4      0.00      0.32      71.9     0.30      1015.1     0.8     SSE   160   2.3     SSW   200   9.26    264      -64.3
   11/03/2018 03:00      56.9      56.2       45     35.4      0.00      0.32      71.9     0.30      1015.1     0.8       E    84   3.1      SE   135   9.26    264      -64.0
   11/03/2018 02:50      57.4      56.6       44     35.5      0.00      0.32      71.9     0.30      1015.1     1.2     SSE   152   2.6       S   180   9.26    264      -63.9
   11/03/2018 02:40      57.4      56.4       42     34.1      0.00      0.32      71.9     0.30      1015.2     1.3     SSW   198   3.3     WSW   241   9.26    264      -64.5
   11/03/2018 02:30      57.6      57.0       41     34.0      0.00      0.32      71.9     0.30      1015.3     0.6       S   174   2.0     SSE   161   9.26    264      -65.3
   11/03/2018 02:20      58.7      57.3       41     34.3      0.00      0.32      71.9     0.30      1015.4     0.7     SSE   157   2.1      SE   139   9.26    264      -67.2
   11/03/2018 02:10      58.7      57.7       41     34.5      0.00      0.32      72.0     0.30      1015.4     1.1     SSW   203   2.5     WSW   246   9.26    264      -66.9
   11/03/2018 02:00      59.9      58.6       40     34.7      0.00      0.32      72.0     0.30      1015.4     1.3     SSE   168   2.7      SE   138   9.26    264      -68.6
   11/03/2018 01:50      60.7      59.7       38     34.6      0.00      0.32      72.0     0.30      1015.4     1.2     SSE   151   3.7     NNW   329   9.26    264      -68.7
   11/03/2018 01:40      60.7      59.4       39     34.8      0.00      0.32      72.0     0.30      1015.4     1.8     SSW   213   3.2      NW   313   9.26    263      -68.2
   11/03/2018 01:30      60.9      59.8       38     34.6      0.00      0.32      72.0     0.30      1015.4     1.3     NNE    21   3.3       E    84   9.27    263      -68.4
   11/03/2018 01:20      61.4      60.1       39     35.3      0.00      0.32      72.0     0.30      1015.3     2.2     ESE   115   4.3      NE    47   9.27    263      -69.7
   11/03/2018 01:10      61.8      61.2       37     34.9      0.00      0.32      72.0     0.30      1015.2     2.4     SSW   192   4.7       W   271   9.27    263      -70.3
   11/03/2018 01:00      63.6      61.4       36     35.5      0.00      0.32      72.1     0.30      1015.4     1.5     SSE   160   2.8       E    83   9.27    263      -71.2
   11/03/2018 00:50      63.5      61.7       37     36.0      0.00      0.32      72.0     0.30      1015.4     2.2     WNW   294   5.5      SW   223   9.27    263      -71.9
   11/03/2018 00:40      62.0      61.2       40     36.7      0.00      0.32      72.0     0.30      1015.6     3.1       W   265   5.8     WNW   295   9.27    263      -71.5
   11/03/2018 00:30      61.5      60.5       39     35.6      0.00      0.32      72.1     0.30      1015.6     2.4     WNW   297   5.1      SW   228   9.27    263      -69.7
   11/03/2018 00:20      60.7      59.8       40     35.5      0.00      0.32      72.1     0.30      1015.6     1.2      SW   234   4.1     SSW   194   9.27    264      -71.2
   11/03/2018 00:10      62.4      60.5       38     35.4      0.00      0.32      72.1     0.30      1015.5     1.4     ESE   107   3.2     ENE    59   9.28    263      -73.7
   11/03/2018 00:00      62.4      61.4       37     35.3      0.00      0.32      72.1     0.30      1015.6     1.7     SSW   211   4.9     SSW   208   9.28    263      -71.9
   11/02/2018 23:50      62.8      61.5       37     35.7      0.00      0.32      72.1     0.30      1015.6     1.5     ESE   113   2.9      SE   145   9.28    263      -74.5
   11/02/2018 23:40      62.9      61.8       36     35.3      0.00      0.32      72.1     0.30      1015.7     2.7       S   186   5.7     SSW   207   9.28    263      -71.8
   11/02/2018 23:30      63.3      61.8       36     35.2      0.00      0.32      72.1     0.30      1015.9     1.8       S   172   4.6     SSW   212   9.28    263      -71.9
   11/02/2018 23:20      62.9      61.4       36     34.7      0.00      0.32      72.1     0.30      1016.1     1.7       S   183   4.8     SSW   210   9.28    263      -70.2
   11/02/2018 23:10      63.4      61.6       34     33.8      0.00      0.32      72.1     0.30      1016.0     0.6      SE   143   2.3       S   181   9.29    263      -72.0
   11/02/2018 23:00      65.2      63.2       32     33.8      0.00      0.32      72.1     0.30      1015.8     0.6      SE   136   1.8       S   184   9.29    262      -73.3
   11/02/2018 22:50      67.2      64.9       30     33.3      0.00      0.32      72.0     0.30      1015.7     0.7     SSE   158   2.7     SSW   206   9.29    262      -73.7
   11/02/2018 22:40      67.5      66.5       30     34.3      0.00      0.32      72.0     0.30      1015.8     1.8      NW   308   3.3      SW   222   9.29    263      -73.0
   11/02/2018 22:30      67.3      65.3       30     34.0      0.00      0.32      72.0     0.30      1015.6     2.3     SSE   148   4.2     SSE   163   9.29    263      -68.2
   11/02/2018 22:20      65.5      64.9       33     35.7      0.00      0.32      72.0     0.30      1015.9     1.3     SSE   160   2.2      SE   144   9.29    263      -66.5
   11/02/2018 22:10      66.6      65.1       32     35.1      0.00      0.32      72.0     0.30      1016.1     1.0     SSE   157   2.3       S   184   9.29    262      -65.2
   11/02/2018 22:00      67.4      66.3       31     34.9      0.00      0.32      72.0     0.30      1016.1     0.6     SSE   166   1.8       S   186   9.29    262      -62.4
   11/02/2018 21:50      68.4      66.9       29     34.3      0.00      0.32      72.0     0.30      1016.1     1.3       S   175   2.7       S   183   9.30    262      -58.0
   11/02/2018 21:40      68.9      68.2       28     34.3      0.00      0.32      72.0     0.30      1016.0     0.9      SW   217   1.9     WSW   252   9.30    262      -56.7
   11/02/2018 21:30      71.5      68.7       27     34.8      0.00      0.32      72.0     0.30      1015.9     0.6     ESE   109   1.6     ESE   109   9.30    262      -58.9
   11/02/2018 21:20      72.5      71.4       25     34.0      0.00      0.32      72.0     0.30      1015.7     0.5     ESE   109   1.5       S   186   9.30    262      -59.6
   11/02/2018 21:10      72.5      71.7       25     34.1      0.00      0.32      72.0     0.30      1015.6     2.7       S   182   5.0     SSW   200   9.30    262      -62.9
   11/02/2018 21:00      72.0      69.2       26     33.9      0.00      0.32      71.9     0.30      1015.9     3.2     SSW   197   5.4     SSW   192   9.30    262      -64.8
   11/02/2018 20:50      69.3      68.2       29     35.3      0.00      0.32      71.9     0.30      1015.9     1.4       S   173   2.8     SSE   153   9.31    262      -63.5
   11/02/2018 20:40      69.7      68.1       30     35.9      0.00      0.32      71.8     0.30      1015.9     1.4     SSE   160   2.9       S   173   9.31    262      -64.4
   11/02/2018 20:30      71.2      69.6       26     34.5      0.00      0.32      71.9     0.30      1016.1     1.7       S   182   2.5      SW   221   9.31    262      -67.7
   11/02/2018 20:20      72.3      70.2       27     35.0      0.00      0.32      71.8     0.30      1016.1     2.0       S   182   3.0       S   180   9.31    262      -72.4
   11/02/2018 20:10      72.3      71.4       26     34.8      0.00      0.32      71.8     0.30      1016.3     2.5       S   182   3.6       S   177   9.32    261      -76.2
   11/02/2018 20:00      74.3      71.7       25     35.1      0.00      0.32      71.8     0.30      1016.2     1.6       S   170   2.7     SSE   162   9.32    261      -78.1
   11/02/2018 19:50      74.4      73.5       23     34.0      0.00      0.32      71.8     0.30      1016.1     3.1     SSW   203   4.6     SSW   210   9.32    261      -78.8
   11/02/2018 19:40      74.8      73.3       23     33.9      0.00      0.32      71.7     0.30      1016.1     2.3     SSW   192   3.5       S   190   9.32    261      -76.8
   11/02/2018 19:30      74.9      74.2       23     34.2      0.00      0.32      71.7     0.30      1016.0     2.1      SW   216   3.0      SW   220   9.33    261      -75.9
   11/02/2018 19:20      76.9      74.7       22     34.1      0.00      0.32      71.7     0.30      1016.0     0.4      NW   323   1.7     SSW   213   9.33    261      -80.3
   11/02/2018 19:10      78.1      76.8       20     33.6      0.00      0.32      71.7     0.30      1015.8     1.1     WNW   291   3.7     WNW   282   9.33    261      -82.4
   11/02/2018 19:00      78.5      77.8       19     32.9      0.00      0.32      71.6     0.30      1015.7     1.5     WNW   289   4.1     WSW   253   9.33    261      -84.0
   11/02/2018 18:50      78.5      77.2       19     32.3      0.00      0.32      71.6     0.30      1015.6     3.4       W   271   6.7       W   275   9.33    261      -80.7
   11/02/2018 18:40      78.9      77.4       19     32.0      0.00      0.32      71.5     0.30      1015.6     1.3      SW   224   2.2      SW   222   9.34    261      -77.8
   11/02/2018 18:30      79.6      78.6       18     31.8      0.00      0.32      71.5     0.30      1015.5     1.2      SW   227   2.5      NW   307   9.34    261      -85.1
   11/02/2018 18:20      80.6      79.2       17     31.6      0.00      0.32      71.4     0.30      1015.3     1.7      SW   216   3.1      SW   216   9.34    261      -88.5
   11/02/2018 18:10      81.6      80.3       17     31.5      0.00      0.32      71.4     0.30      1015.1     2.5      SW   216   5.9     WSW   242   9.34    261      -88.4
   11/02/2018 18:00      82.2      81.2       16     30.5      0.00      0.32      71.3     0.30      1015.2     2.6     WSW   239   5.9     WSW   250   9.35    261      -85.9
   11/02/2018 17:50      82.8      81.8       15     30.1      0.00      0.32      71.3     0.30      1015.1     5.3     WSW   243   9.9     WSW   243   9.35    261      -77.8
   11/02/2018 17:40      83.5      82.4       15     29.8      0.00      0.32      71.3     0.30      1015.2     6.2     WSW   237  10.5      SW   225   9.35    261      -67.9
   11/02/2018 17:30      84.3      83.3       14     29.8      0.00      0.32      71.2     0.30      1015.3     6.0     WSW   237   9.9     WSW   242   9.36    261      -51.5
   11/02/2018 17:20      85.0      84.0       14     29.3      0.00      0.32      71.2     0.30      1015.4     6.1     WSW   247   9.5       W   262   9.37    261      -65.1
   11/02/2018 17:10      86.2      84.9       13     29.0      0.00      0.32      71.1     0.30      1015.3     6.4     WSW   244  10.2     WSW   243   9.37    261      -25.2
   11/02/2018 17:00      87.0      85.9       13     29.8      0.00      0.32      71.0     0.30      1015.2     5.7     WSW   239  10.7     WSW   245   9.38    261       -1.5
   11/02/2018 16:50      87.1      86.5       13     30.3      0.00      0.32      71.0     0.30      1015.2     5.3     WSW   256   8.9     WSW   255   9.38    261       20.9
   11/02/2018 16:40      88.0      86.8       13     30.6      0.00      0.32      71.0     0.30      1015.1     5.9     WSW   249   9.4     WSW   254   9.39    261       43.6
   11/02/2018 16:30      88.2      87.5       13     31.3      0.00      0.32      70.9     0.30      1015.1     5.1       W   269   9.3     WSW   258   9.39    261       66.3
   11/02/2018 16:20      88.5      87.9       14     32.5      0.00      0.32      70.9     0.30      1015.0     6.2      SW   236   9.0      SW   235   9.39    261       91.8
   11/02/2018 16:10      89.5      88.2       14     33.1      0.00      0.32      70.8     0.30      1015.1     6.0      SW   226  10.2     WSW   236   9.40    261      114.0
   11/02/2018 16:00      89.7      88.9       14     34.3      0.00      0.32      70.8     0.30      1015.2     5.9     WSW   249   9.6       W   266   9.40    261      137.1
   11/02/2018 15:50      89.8      89.3       15     35.3      0.00      0.32      70.7     0.30      1015.1     6.3     WSW   248  10.3     WSW   258   9.41    260      158.8
   11/02/2018 15:40      90.5      89.4       15     36.2      0.00      0.32      70.6     0.30      1014.9     6.1      SW   223  10.7      SW   228   9.41    260      179.7
   11/02/2018 15:30      90.2      89.6       15     36.0      0.00      0.32      70.6     0.30      1015.0     6.1      SW   227   9.8     WSW   253   9.41    260      200.5
   11/02/2018 15:20      90.5      89.7       15     36.0      0.00      0.32      70.6     0.30      1015.1     6.6      SW   236   9.8      SW   223   9.42    260      218.6
   11/02/2018 15:10      90.8      90.2       15     36.0      0.00      0.32      70.5     0.30      1015.1     6.0      SW   230   9.3     SSW   211   9.42    260      236.2
   11/02/2018 15:00      92.1      90.3       14     35.2      0.00      0.32      70.5     0.30      1015.3     6.3      SW   223  11.8     WSW   248   9.43    260      251.9
   11/02/2018 14:50      92.2      91.4       13     34.6      0.00      0.32      70.4     0.30      1015.4     3.3     WSW   238   7.6       S   190   9.43    260      263.9
   11/02/2018 14:40      92.2      91.6       13     34.9      0.00      0.32      70.4     0.30      1015.5     3.1      SW   219   6.1      NW   307   9.43    260      278.8
   11/02/2018 14:30      92.4      91.8       13     35.0      0.00      0.32      70.4     0.30      1015.7     2.5      SW   222   7.1     SSW   213   9.43    260      290.2
   11/02/2018 14:20      92.3      91.1       13     34.9      0.00      0.32      70.3     0.30      1015.9     2.3      SW   236   5.7      SW   216   9.43    260      303.2
   11/02/2018 14:10      93.3      91.2       13     34.9      0.00      0.32      70.3     0.30      1016.1     2.9     WSW   252   7.4     WSW   258   9.43    260      313.0
   11/02/2018 14:00      93.2      91.9       13     34.9      0.00      0.32      70.2     0.30      1016.3     1.3     WNW   304   3.3      NW   320   9.44    260      320.2
   11/02/2018 13:50      91.9      90.4       14     34.5      0.00      0.32      70.2     0.30      1016.5     1.3      SW   215   2.7     SSW   203   9.44    260      332.5
   11/02/2018 13:40      91.0      90.0       14     34.4      0.00      0.32      70.1     0.30      1016.8     2.2      SW   222   4.4      SW   222   9.44    260      343.7
   11/02/2018 13:30      91.8      90.1       14     34.6      0.00      0.32      70.1     0.30      1017.0     2.4       W   269   6.0      NW   308   9.44    260      351.3
   11/02/2018 13:20      92.2      90.5       14     35.4      0.00      0.32      70.1     0.30      1017.2     1.4       W   265   8.1     WNW   300   9.44    260      355.5
   11/02/2018 13:10      90.6      89.4       15     35.4      0.00      0.32      70.1     0.30      1017.4     0.9       N     8   2.1     NNW   340   9.44    260      360.4
   11/02/2018 13:00      90.9      89.6       15     36.1      0.00      0.32      70.1     0.30      1017.7     1.4      NW   324   3.4      NW   307   9.44    260      365.6
   11/02/2018 12:50      89.8      87.7       16     36.1      0.00      0.32      70.1     0.30      1018.0     1.3      NW   305   2.5      SW   220   9.44    260      369.8
   11/02/2018 12:40      88.4      87.2       16     36.0      0.00      0.32      70.1     0.30      1018.2     2.3      SW   234   5.2     WSW   250   9.44    261      374.4
   11/02/2018 12:30      88.3      86.5       16     36.5      0.00      0.32      70.1     0.30      1018.4     1.3     NNE    12   3.9     WSW   252   9.44    260      373.1
   11/02/2018 12:20      87.1      86.4       17     36.3      0.00      0.32      70.1     0.30      1018.5     2.3     SSE   167   5.2       S   176   9.44    261      374.6
   11/02/2018 12:10      87.1      85.9       17     36.5      0.00      0.32      70.1     0.29      1018.7     1.2     SSE   169   3.6      SE   127   9.44    261      370.4
   11/02/2018 12:00      87.5      85.7       17     36.6      0.00      0.32      70.1     0.30      1018.9     1.3     SSE   167   3.1       S   189   9.44    261      367.5
   11/02/2018 11:50      87.2      86.5       17     37.0      0.00      0.32      70.1     0.30      1019.2     0.9     ENE    61   2.8     ENE    65   9.44    261      363.2
   11/02/2018 11:40      86.7      85.2       18     37.0      0.00      0.32      70.2     0.30      1019.3     1.2       E    79   2.5     ESE   118   9.44    261      358.0
   11/02/2018 11:30      85.9      84.9       18     36.9      0.00      0.32      70.1     0.30      1019.4     1.4     ESE   106   4.2       E    89   9.44    261      352.1
   11/02/2018 11:20      85.4      84.4       19     37.5      0.00      0.32      70.2     0.30      1019.5     1.2     NNW   329   3.2     ENE    68   9.44    261      344.0
   11/02/2018 11:10      85.1      83.8       19     37.5      0.00      0.32      70.3     0.30      1019.5     1.5     NNE    33   3.2     NNE    28   9.44    261      336.6
   11/02/2018 11:00      85.0      83.5       19     37.8      0.00      0.32      70.2     0.30      1019.5     0.8     SSE   148   2.5     ESE   123   9.44    261      327.0
   11/02/2018 10:50      83.7      82.4       20     37.9      0.00      0.32      70.2     0.30      1019.5     1.2       N     7   3.7       E    88   9.44    261      315.5
   11/02/2018 10:40      83.0      82.2       20     37.6      0.00      0.32      70.3     0.30      1019.7     1.1      NE    51   2.5       E   101   9.43    261      303.0
   11/02/2018 10:30      82.7      81.3       21     38.0      0.00      0.32      70.3     0.30      1019.8     0.8     NNE    20   2.6     NNE    14   9.43    261      288.7
   11/02/2018 10:20      81.5      80.6       25     41.5      0.00      0.32      70.4     0.30      1020.0     1.0     NNW   346   2.1     NNE    21   9.44    261      272.8
   11/02/2018 10:10      81.1      79.8       25     41.8      0.00      0.32      70.4     0.30      1020.1     1.0      NW   314   2.6     NNE    17   9.44    262      260.0
   11/02/2018 10:00      81.1      78.4       26     42.3      0.00      0.32      70.4     0.30      1020.0     0.7       E    87   2.8       N     9   9.44    262      244.3
   11/02/2018 09:50      78.4      75.1       29     42.5      0.00      0.32      70.5     0.30      1020.0     0.4     ESE   106   1.2       E    90   9.44    262      229.8
   11/02/2018 09:40      75.1      73.3       34     43.7      0.00      0.32      70.5     0.30      1020.2     1.0     ENE    71   2.9      NE    54   9.44    262      215.9
   11/02/2018 09:30      74.4      73.3       33     43.4      0.00      0.32      70.5     0.30      1020.4     0.5     NNE    28   1.5     NNE    22   9.44    262      198.1
   11/02/2018 09:20      73.4      70.1       34     41.8      0.00      0.32      70.5     0.30      1020.3     0.4      NE    35   1.6      NE    34   9.44    262      180.6
   11/02/2018 09:10      70.3      69.2       36     41.4      0.00      0.32      70.6     0.30      1020.2     1.0       N   350   3.3     NNE    14   9.44    263      165.5
   11/02/2018 09:00      69.3      68.3       37     41.7      0.00      0.32      70.6     0.30      1020.1     0.6       N     6   1.9      NE    47   9.44    263      149.4
   11/02/2018 08:50      68.7      66.6       37     40.9      0.00      0.32      70.6     0.30      1020.0     0.3      NE    44   1.4     NNE    12   9.44    263       96.9
   11/02/2018 08:40      66.7      64.8       39     40.4      0.00      0.32      70.6     0.30      1020.0     0.2      NE    48   1.4      NE    46   9.44    264       76.4
   11/02/2018 08:30      65.0      63.4       41     39.7      0.00      0.32      70.6     0.30      1020.0     0.1      SE   142   1.0     NNE    27   9.44    264       44.2
   11/02/2018 08:20      63.5      58.9       45     39.7      0.00      0.32      70.7     0.30      1020.0     0.0       S   180   0.8       S   180   9.44    264       56.1
   11/02/2018 08:10      59.2      55.8       50     39.2      0.00      0.32      70.7     0.30      1019.9     0.4      SE   132   1.2      SE   139   9.44    264      -37.4
   11/02/2018 08:00      55.8      54.5       54     38.7      0.00      0.32      70.7     0.30      1019.8     0.5     SSE   147   1.4      SE   139   9.44    264      -38.7
   11/02/2018 07:50      54.8      54.1       54     38.4      0.00      0.32      70.7     0.30      1019.8     0.1      SE   137   0.9      SE   136   9.44    264      -41.4
   11/02/2018 07:40      54.8      53.8       53     37.6      0.00      0.32      70.7     0.30      1019.7     1.1     SSE   166   2.2     SSW   196   9.44    264      -44.4
   11/02/2018 07:30      54.7      53.7       53     37.1      0.00      0.32      70.8     0.30      1019.5     0.1     SSW   210   1.5     SSW   203   9.44    264      -48.4
   11/02/2018 07:20      54.9      54.3       51     37.0      0.00      0.32      70.8     0.30      1019.4     0.7      SE   124   1.5      SE   137   9.44    264      -52.0
   11/02/2018 07:10      54.8      54.0       48     35.0      0.00      0.32      70.8     0.30      1019.3     0.9      SW   235   1.8      SW   236   9.44    264      -53.6
   11/02/2018 07:00      54.5      54.0       51     36.5      0.00      0.32      70.9     0.30      1019.2     0.4     SSE   165   1.3     SSE   163   9.44    264      -55.2
   11/02/2018 06:50      54.8      54.2       50     36.1      0.00      0.32      70.9     0.30      1019.1     0.4     SSE   160   1.2     SSE   163   9.44    264      -54.9
   11/02/2018 06:40      55.1      54.5       50     36.8      0.00      0.32      70.9     0.30      1019.0     0.2     SSW   201   1.1     SSW   201   9.44    264      -55.2
   11/02/2018 06:30      55.4      54.8       49     36.2      0.00      0.32      70.9     0.30      1019.0     0.0     SSW   200   0.6     SSW   209   9.44    264      -55.5
   11/02/2018 06:20      55.5      54.9       50     37.0      0.00      0.32      70.9     0.30      1019.0     0.8       S   188   2.5     SSW   193   9.44    264      -56.7
   11/02/2018 06:10      56.0      55.3       50     37.5      0.00      0.32      71.0     0.30      1018.9     0.7      SE   137   2.0     ESE   108   9.44    264      -57.0
   11/02/2018 06:00      56.0      55.5       49     36.9      0.00      0.32      71.0     0.30      1018.9     0.8     SSE   161   1.5      SE   135   9.44    264      -55.4
   11/02/2018 05:50      56.4      55.9       46     35.8      0.00      0.32      71.0     0.30      1018.9     0.5     SSE   159   1.2     SSE   154   9.44    264      -56.0
   11/02/2018 05:40      57.0      56.0       47     36.7      0.00      0.32      70.9     0.30      1018.9     0.0     NNW   338   0.6     NNW   331   9.45    264      -56.3
   11/02/2018 05:30      57.0      56.4       46     35.9      0.00      0.32      71.0     0.30      1018.8     0.3       S   173   1.4       S   187   9.44    264      -56.2
   11/02/2018 05:20      57.4      56.6       45     35.7      0.00      0.32      71.0     0.30      1018.8     1.0       S   177   2.0      SE   141   9.45    264      -57.2
   11/02/2018 05:10      57.1      56.6       45     35.5      0.00      0.32      71.0     0.30      1018.9     0.4     SSW   204   1.3     SSW   195   9.45    264      -56.4
   11/02/2018 05:00      57.9      56.6       44     35.5      0.00      0.32      71.1     0.30      1018.9     0.2     SSE   159   1.3       E    98   9.45    264      -56.9
   11/02/2018 04:50      58.4      57.6       42     35.5      0.00      0.32      71.1     0.30      1018.8     0.0      NE    52   0.9      NE    49   9.45    264      -55.8
   11/02/2018 04:40      58.8      57.9       44     36.3      0.00      0.32      71.1     0.30      1018.7     0.0      NE    49   0.5      NE    49   9.45    264      -55.4
   11/02/2018 04:30      59.6      58.3       42     35.9      0.00      0.32      71.0     0.30      1018.6     0.0      NE    53   0.4      NE    53   9.45    264      -55.7
   11/02/2018 04:20      60.5      59.4       40     35.4      0.00      0.32      71.1     0.30      1018.7     0.4     ESE   117   1.4     NNE    25   9.45    264      -55.5
   11/02/2018 04:10      61.3      60.3       38     35.1      0.00      0.32      71.1     0.30      1018.8     0.4       S   173   1.5     SSE   149   9.45    263      -55.9
   11/02/2018 04:00      61.8      61.0       38     35.3      0.00      0.32      71.1     0.30      1018.9     0.7     SSE   152   1.9      SE   140   9.45    263      -57.4
   11/02/2018 03:50      62.1      61.3       37     34.9      0.00      0.32      71.2     0.30      1018.9     0.8     SSE   149   1.5      SE   141   9.45    263      -57.6
   11/02/2018 03:40      62.3      61.6       37     35.6      0.00      0.32      71.1     0.30      1019.0     1.4     SSE   149   2.2      SE   136   9.45    263      -58.2
   11/02/2018 03:30      62.9      61.8       36     35.4      0.00      0.32      71.2     0.30      1019.0     1.3     SSE   155   2.6      SE   138   9.45    263      -58.2
   11/02/2018 03:20      62.8      62.4       35     34.9      0.00      0.32      71.2     0.30      1019.0     1.5      SE   146   2.7      SE   141   9.45    263      -57.8
   11/02/2018 03:10      62.6      61.8       36     34.8      0.00      0.32      71.2     0.30      1019.0     1.3     SSE   159   2.4      SE   137   9.46    263      -57.5
   11/02/2018 03:00      62.3      61.7       35     34.4      0.00      0.32      71.2     0.30      1019.0     1.0     SSE   163   2.7     SSE   151   9.46    263      -58.7
   11/02/2018 02:50      63.3      61.8       35     34.6      0.00      0.32      71.2     0.30      1019.0     1.1     ESE   121   2.3      SE   138   9.46    263      -59.7
   11/02/2018 02:40      63.5      62.8       35     34.8      0.00      0.32      71.2     0.30      1019.0     1.1      SE   144   2.5      SE   133   9.46    263      -60.5
   11/02/2018 02:30      63.4      62.7       35     35.0      0.00      0.32      71.2     0.30      1019.0     1.9      SE   140   3.5      SE   140   9.46    263      -59.7
   11/02/2018 02:20      63.4      62.8       35     34.8      0.00      0.32      71.2     0.30      1019.1     1.3      SE   145   2.1     SSE   153   9.46    263      -59.4
   11/02/2018 02:10      63.4      63.0       35     35.1      0.00      0.32      71.3     0.30      1019.1     1.6      SE   142   2.3      SE   144   9.46    263      -59.5
   11/02/2018 02:00      64.0      63.1       34     34.7      0.00      0.32      71.2     0.30      1019.1     1.6      SE   144   2.6      SE   146   9.46    263      -59.0
   11/02/2018 01:50      63.8      63.1       34     34.8      0.00      0.32      71.2     0.30      1019.3     1.4     SSE   148   2.8      SE   143   9.46    263      -58.7
   11/02/2018 01:40      64.3      63.2       34     34.5      0.00      0.32      71.3     0.30      1019.3     1.5     SSE   149   2.6     SSE   151   9.46    263      -59.1
   11/02/2018 01:30      65.0      63.9       33     34.6      0.00      0.32      71.3     0.30      1019.3     2.0     SSE   155   3.3     SSE   147   9.46    263      -60.6
   11/02/2018 01:20      65.2      64.1       32     34.1      0.00      0.32      71.3     0.30      1019.3     1.4     SSE   162   3.5      SE   141   9.47    263      -60.8
   11/02/2018 01:10      65.6      64.7       32     34.2      0.00      0.32      71.3     0.30      1019.2     2.0      SE   143   3.3      SE   137   9.47    263      -60.9
   11/02/2018 01:00      66.5      65.4       30     33.9      0.00      0.32      71.3     0.30      1019.3     2.3     SSE   153   4.3      SE   141   9.47    262      -61.4
   11/02/2018 00:50      69.2      66.2       28     33.0      0.00      0.32      71.3     0.30      1019.3     1.8     SSE   157   3.3      SE   138   9.47    262      -60.6
   11/02/2018 00:40      71.9      69.0       24     32.1      0.00      0.32      71.3     0.30      1019.2     1.0       S   179   2.0       S   177   9.47    262      -62.0
   11/02/2018 00:30      71.8      71.3       23     31.8      0.00      0.32      71.3     0.30      1019.2     1.1       W   276   3.6     WSW   258   9.47    262      -63.8
   11/02/2018 00:20      72.4      71.3       23     31.7      0.00      0.32      71.3     0.30      1019.2     0.5     WSW   250   2.0     WNW   293   9.47    262      -65.7
   11/02/2018 00:10      72.5      71.4       23     31.6      0.00      0.32      71.3     0.30      1019.3     1.3       W   277   3.9     WNW   292   9.47    262      -66.4
   11/02/2018 00:00      72.5      71.9       22     31.4      0.00      0.32      71.3     0.30      1019.2     1.6       W   271   3.4      SW   214   9.47    262      -66.9
   11/01/2018 23:50      73.4      72.3       22     31.4      0.00      0.32      71.3     0.30      1019.3     1.5     WSW   251   3.2     WSW   252   9.48    261      -67.9
   11/01/2018 23:40      73.2      72.8       21     31.3      0.00      0.32      71.3     0.30      1019.2     2.1     WNW   285   4.4     WNW   281   9.48    262      -68.0
   11/01/2018 23:30      73.0      71.8       22     31.2      0.00      0.32      71.3     0.30      1019.1     2.6       W   265   6.3     WNW   294   9.48    262      -65.7
   11/01/2018 23:20      72.7      70.3       22     31.1      0.00      0.32      71.3     0.30      1019.2     2.2       W   278   4.5      NW   312   9.48    262      -65.3
   11/01/2018 23:10      70.5      69.9       23     31.0      0.00      0.32      71.3     0.30      1019.2     1.7     WSW   257   3.0     WSW   238   9.48    262      -62.2
   11/01/2018 23:00      70.1      67.6       25     31.6      0.00      0.32      71.3     0.30      1019.2     2.5     SSW   204   3.9     SSW   201   9.48    262      -62.3
   11/01/2018 22:50      69.1      67.4       26     32.1      0.00      0.32      71.3     0.30      1019.2     2.0     SSE   168   3.4     SSW   201   9.48    262      -62.3
   11/01/2018 22:40      69.6      67.3       26     32.3      0.00      0.32      71.3     0.30      1019.2     0.8     SSE   160   1.9     ESE   113   9.48    262      -62.7
   11/01/2018 22:30      71.7      69.5       23     31.6      0.00      0.32      71.3     0.30      1019.2     1.0       S   185   3.4      SW   233   9.49    262      -64.5
   11/01/2018 22:20      71.7      70.8       23     31.4      0.00      0.32      71.3     0.30      1019.1     2.3      SW   219   3.7     WSW   238   9.49    262      -65.7
   11/01/2018 22:10      72.0      70.8       23     31.5      0.00      0.32      71.3     0.30      1019.0     1.3     WSW   243   3.0     WSW   249   9.49    262      -66.5
   11/01/2018 22:00      72.9      71.6       22     31.8      0.00      0.32      71.3     0.30      1018.9     2.3     WSW   243   5.4     WSW   250   9.49    261      -68.8
   11/01/2018 21:50      72.9      72.5       22     31.6      0.00      0.32      71.3     0.30      1018.8     2.6       W   272   4.8       W   269   9.49    262      -68.3
   11/01/2018 21:40      73.0      72.3       22     31.5      0.00      0.32      71.3     0.30      1018.8     2.4       W   264   4.0       W   265   9.49    262      -67.0
   11/01/2018 21:30      73.5      72.6       22     31.6      0.00      0.32      71.3     0.30      1018.7     2.5       W   263   4.3     WSW   257   9.49    262      -67.7
   11/01/2018 21:20      74.2      73.2       21     31.7      0.00      0.32      71.3     0.30      1018.7     2.6     WSW   259   3.9       W   267   9.49    262      -67.8
   11/01/2018 21:10      74.4      73.9       21     31.4      0.00      0.32      71.2     0.30      1018.6     2.0       W   270   3.4     WNW   290   9.50    262      -66.3
   11/01/2018 21:00      74.4      73.4       21     31.1      0.00      0.32      71.2     0.30      1018.6     2.1       W   273   3.4      SW   233   9.50    262      -65.2
   11/01/2018 20:50      73.6      72.2       21     30.9      0.00      0.32      71.2     0.30      1018.5     2.1       W   268   5.8       W   264   9.50    262      -63.7
   11/01/2018 20:40      74.9      73.2       20     31.1      0.00      0.32      71.2     0.30      1018.5     1.4     SSW   207   2.9     SSW   195   9.50    261      -64.6
   11/01/2018 20:30      74.6      72.0       21     31.2      0.00      0.32      71.2     0.30      1018.4     2.8     WSW   255   4.5     WSW   256   9.50    262      -65.6
   11/01/2018 20:20      72.2      69.5       24     32.1      0.00      0.32      71.1     0.30      1018.3     1.2       W   265   2.9       W   264   9.50    262      -61.9
   11/01/2018 20:10      71.1      68.9       25     32.8      0.00      0.32      71.1     0.30      1018.2     1.4      SE   141   4.4     SSW   211   9.50    262      -63.8
   11/01/2018 20:00      69.5      68.6       27     33.3      0.00      0.32      71.1     0.30      1018.1     1.6     SSE   150   3.8     SSE   147   9.50    262      -63.9
   11/01/2018 19:50      70.5      69.3       26     33.2      0.00      0.32      71.1     0.30      1018.1     1.6     SSE   161   3.3     SSW   194   9.51    262      -64.4
   11/01/2018 19:40      70.3      69.0       26     33.3      0.00      0.32      71.0     0.30      1018.0     1.6     SSE   161   3.4     SSW   210   9.51    262      -64.8
   11/01/2018 19:30      69.5      69.1       27     34.0      0.00      0.32      71.0     0.30      1018.0     1.3     SSE   162   3.1     SSW   201   9.51    262      -65.5
   11/01/2018 19:20      69.5      68.8       27     33.8      0.00      0.32      71.0     0.30      1017.9     1.6     SSE   160   2.9       S   179   9.51    262      -66.0
   11/01/2018 19:10      69.0      68.5       27     33.8      0.00      0.32      70.9     0.30      1017.8     1.0     SSE   162   1.9       S   171   9.51    262      -67.2
   11/01/2018 19:00      69.1      68.5       28     34.0      0.00      0.32      70.9     0.30      1017.7     0.8     SSE   147   1.8     ESE   120   9.52    262      -69.0
   11/01/2018 18:50      70.5      68.8       27     33.9      0.00      0.32      70.9     0.30      1017.5     0.8     SSE   149   1.7     SSE   160   9.52    262      -70.4
   11/01/2018 18:40      71.1      70.3       24     31.9      0.00      0.32      70.8     0.30      1017.4     1.4       S   189   2.8       W   259   9.52    261      -70.5
   11/01/2018 18:30      72.2      70.7       23     31.8      0.00      0.32      70.8     0.30      1017.3     0.9       S   182   2.5      SE   133   9.52    261      -72.2
   11/01/2018 18:20      72.8      71.7       23     31.8      0.00      0.32      70.8     0.30      1017.2     0.3       S   186   1.4     SSE   165   9.53    261      -72.3
   11/01/2018 18:10      73.5      72.5       22     32.4      0.00      0.32      70.7     0.30      1017.1     1.3     SSE   148   2.5      SE   140   9.53    261      -75.1
   11/01/2018 18:00      74.7      73.4       21     31.1      0.00      0.32      70.7     0.30      1017.0     1.2       S   181   3.2     SSW   196   9.53    261      -73.3
   11/01/2018 17:50      75.8      74.3       20     30.7      0.00      0.32      70.6     0.30      1016.9     1.4       S   182   3.2       S   181   9.53    261      -70.6
   11/01/2018 17:40      77.4      75.6       19     30.6      0.00      0.32      70.6     0.30      1016.9     0.3      SE   128   1.7      SE   141   9.54    261      -65.3
   11/01/2018 17:30      78.1      77.0       17     30.0      0.00      0.32      70.5     0.30      1016.9     0.4     ENE    66   1.4     ENE    64   9.54    261      -55.2
   11/01/2018 17:20      78.8      77.7       17     29.7      0.00      0.32      70.4     0.30      1016.8     1.3     NNE    23   3.1     ENE    71   9.54    261      -45.9
   11/01/2018 17:10      79.3      78.4       17     29.7      0.00      0.32      70.4     0.30      1016.8     0.6      NE    55   2.1      NE    43   9.54    261      -40.3
   11/01/2018 17:00      79.9      79.1       16     29.5      0.00      0.32      70.4     0.30      1016.7     1.0     NNE    27   2.2      NE    40   9.54    261      -36.2
   11/01/2018 16:50      80.6      79.5       16     29.6      0.00      0.32      70.3     0.30      1016.8     1.5     NNE    33   2.7      NE    39   9.55    261      -25.3
   11/01/2018 16:40      80.8      80.3       16     29.6      0.00      0.32      70.3     0.30      1016.8     1.3       E    79   3.5      SE   124   9.55    261        5.4
   11/01/2018 16:30      81.4      80.6       15     29.4      0.00      0.32      70.3     0.30      1016.6     2.2     ENE    61   5.5       E    87   9.55    261       22.3
   11/01/2018 16:20      83.2      81.3       15     30.1      0.00      0.32      70.2     0.30      1016.5     3.1     ENE    58   5.7     ENE    64   9.55    261       44.3
   11/01/2018 16:10      85.0      82.9       16     32.6      0.00      0.32      70.2     0.30      1016.4     3.2      NE    42   6.0     ENE    56   9.56    261       77.3
   11/01/2018 16:00      85.4      84.6       15     32.7      0.00      0.32      70.2     0.30      1016.3     1.7     ENE    60   3.7     ESE   106   9.56    261       73.2
   11/01/2018 15:50      85.6      85.1       15     32.5      0.00      0.32      70.1     0.30      1016.2     2.4     NNE    31   5.7     ENE    69   9.56    260      102.4
   11/01/2018 15:40      86.2      85.3       15     32.7      0.00      0.32      70.1     0.30      1016.3     2.5      NE    48   6.0     ENE    67   9.56    260      148.4
   11/01/2018 15:30      86.6      85.6       15     32.3      0.00      0.32      70.0     0.30      1016.1     2.1       N     6   6.7     NNW   333   9.56    260       77.0
   11/01/2018 15:20      86.6      86.0       14     32.3      0.00      0.32      70.0     0.30      1016.0     2.1       N     2   5.2     WNW   299   9.57    260      117.1
   11/01/2018 15:10      86.6      86.0       14     31.7      0.00      0.32      70.0     0.30      1016.0     3.3       N   358  10.3       N   350   9.57    260      143.1
   11/01/2018 15:00      86.4      85.8       14     31.3      0.00      0.32      69.9     0.30      1016.1     5.5     NNW   342  12.5      NW   315   9.57    260      207.4
   11/01/2018 14:50      86.8      85.9       14     31.1      0.00      0.32      69.9     0.30      1016.1     5.0     NNW   343   9.2     NNE    30   9.57    260      203.2
   11/01/2018 14:40      86.9      86.1       14     30.8      0.00      0.32      69.8     0.30      1016.1     4.7     NNW   339  11.4     NNE    21   9.58    260      189.1
   11/01/2018 14:30      86.9      85.4       14     30.7      0.00      0.32      69.8     0.30      1016.3     4.6       N   355  10.3      NW   322   9.58    260      284.1
   11/01/2018 14:20      86.3      85.4       14     30.3      0.00      0.32      69.7     0.30      1016.3     6.3       N    10  10.5       N     0   9.58    260      236.4
   11/01/2018 14:10      85.9      85.2       13     29.5      0.00      0.32      69.7     0.30      1016.4     6.8       N     4  12.6     NNE    28   9.58    260      301.1
   11/01/2018 14:00      85.9      85.0       13     29.3      0.00      0.32      69.7     0.30      1016.5     6.1       N     4  13.7       N     5   9.58    260      294.0
   11/01/2018 13:50      86.0      84.5       13     29.3      0.00      0.32      69.7     0.30      1016.5     5.2       N   358  10.0     NNW   328   9.59    260      363.0
   11/01/2018 13:40      84.8      83.8       13     28.9      0.00      0.32      69.7     0.30      1016.7     6.7       N    10  13.4       N   353   9.59    260      339.9
   11/01/2018 13:30      84.2      83.3       13     28.4      0.00      0.32      69.6     0.30      1016.9     6.8       N   359  13.9       N     0   9.59    260      302.9
   11/01/2018 13:20      83.5      82.6       13     28.0      0.00      0.32      69.6     0.30      1017.1     8.1       N     7  13.1       N     4   9.59    260      395.9
   11/01/2018 13:10      83.4      82.6       13     27.8      0.00      0.32      69.6     0.30      1017.4     9.7       N     1  18.9       N     6   9.59    260      374.7
   11/01/2018 13:00      83.7      82.9       13     28.1      0.00      0.32      69.6     0.30      1017.7     8.8       N     8  17.1     NNE    17   9.60    260      381.2
   11/01/2018 12:50      84.2      82.9       14     28.6      0.00      0.32      69.6     0.30      1017.8     7.2       N     9  15.2       N   354   9.60    260      322.5
   11/01/2018 12:40      83.9      83.0       14     29.1      0.00      0.32      69.6     0.30      1017.8     6.8       N   359  14.2       N     0   9.60    260      397.2
   11/01/2018 12:30      83.6      82.7       14     28.7      0.00      0.32      69.6     0.30      1018.0     6.1       N    10  10.9      NW   322   9.60    260      385.6
   11/01/2018 12:20      83.4      82.9       14     28.2      0.00      0.32      69.6     0.30      1018.2     6.5       N     8  11.4     NNW   346   9.60    260      358.1
   11/01/2018 12:10      83.1      82.1       13     27.7      0.00      0.32      69.6     0.30      1018.4     6.5       N   358  13.5       N     7   9.60    261      387.4
   11/01/2018 12:00      82.6      82.0       13     27.2      0.00      0.32      69.6     0.29      1018.5     7.9       N     0  12.8     NNW   345   9.60    260      383.7
   11/01/2018 11:50      82.8      82.1       13     26.4      0.00      0.32      69.6     0.29      1018.6     7.3       N   358  12.7     NNE    16   9.61    261      373.2
   11/01/2018 11:40      82.8      82.2       13     26.6      0.00      0.32      69.6     0.29      1018.7     5.3       N   355  10.3       N   352   9.61    261      361.9
   11/01/2018 11:30      82.5      81.8       14     27.5      0.00      0.32      69.7     0.29      1018.7     5.4       N     4  11.3       N     0   9.61    261      352.9
   11/01/2018 11:20      82.2      81.3       14     27.7      0.00      0.32      69.7     0.30      1018.7     5.1       N   354  11.2     NNW   331   9.61    261      351.8
   11/01/2018 11:10      81.5      79.8       15     28.4      0.00      0.32      69.7     0.29      1018.7     2.6     NNE    22   6.5     NNE    22   9.61    261      337.6
   11/01/2018 11:00      80.0      79.4       14     27.2      0.00      0.32      69.7     0.29      1018.8     1.5     ENE    59   3.4       N    10   9.61    260      328.8
   11/01/2018 10:50      79.5      77.9       14     25.6      0.00      0.32      69.8     0.30      1019.0     0.7     ESE   111   2.4     NNE    19   9.61    260      316.2
   11/01/2018 10:40      78.2      77.4       14     25.2      0.00      0.32      69.8     0.30      1019.2     1.4     NNE    28   3.8       E    93   9.61    260      303.2
   11/01/2018 10:30      77.7      76.9       14     24.7      0.00      0.32      69.8     0.30      1019.2     1.9       E    97   4.1     SSE   163   9.61    261      289.7
   11/01/2018 10:20      77.2      75.3       14     24.2      0.00      0.32      69.9     0.30      1019.2     1.5      SE   124   4.3      SE   142   9.61    260      275.9
   11/01/2018 10:10      76.0      75.2       15     24.1      0.00      0.32      69.9     0.30      1019.2     1.9      SE   140   4.4      SE   145   9.61    261      261.4
   11/01/2018 10:00      75.4      74.0       14     22.6      0.00      0.32      69.9     0.30      1019.3     2.0     SSE   152   4.4      SE   139   9.61    261      245.5
   11/01/2018 09:50      74.4      73.5       15     23.0      0.00      0.32      70.0     0.30      1019.3     1.9     SSE   147   3.4      SE   136   9.61    261      230.2
   11/01/2018 09:40      73.9      72.9       16     23.8      0.00      0.32      70.0     0.30      1019.3     1.4      SE   137   3.9      SE   133   9.61    261      213.0
   11/01/2018 09:30      73.4      71.7       17     25.1      0.00      0.32      70.0     0.30      1019.2     1.3     ESE   120   2.8      SE   139   9.62    261      197.9
   11/01/2018 09:20      71.8      68.5       21     28.3      0.00      0.32      70.1     0.30      1019.3     0.7     ESE   119   2.4       E    93   9.62    262      179.3
   11/01/2018 09:10      68.5      66.2       28     32.4      0.00      0.32      70.1     0.30      1019.2     1.0     SSE   153   3.0     SSE   158   9.62    262      152.8
   11/01/2018 09:00      66.6      64.4       31     34.0      0.00      0.32      70.1     0.30      1019.3     1.1     NNE    29   4.1     NNE    32   9.62    262      148.1
   11/01/2018 08:50      64.6      62.1       33     33.9      0.00      0.32      70.1     0.30      1019.1     1.2      NE    42   3.1      NE    45   9.62    262      131.8
   11/01/2018 08:40      62.4      60.5       33     32.2      0.00      0.32      70.2     0.30      1018.9     1.2       N   353   3.1      NW   310   9.62    263       97.5
   11/01/2018 08:30      60.6      58.7       33     30.2      0.00      0.32      70.2     0.30      1018.7     1.1       E    90   2.5      SE   143   9.62    263       41.2
   11/01/2018 08:20      58.9      56.4       32     27.8      0.00      0.32      70.3     0.30      1018.6     1.0     ESE   114   2.0     ENE    69   9.62    263       68.5
   11/01/2018 08:10      56.4      54.0       33     26.6      0.00      0.32      70.3     0.30      1018.7     0.8     SSW   198   2.1       E    95   9.62    263      -28.4
   11/01/2018 08:00      54.1      52.5       34     25.8      0.00      0.32      70.3     0.30      1018.7     0.9     SSE   166   2.0      SE   141   9.38    263      -39.5
   11/01/2018 07:50      52.6      52.1       35     25.3      0.00      0.32      70.3     0.30      1018.6     1.2     WSW   247   3.2     SSW   209   9.38    263      -41.8
   11/01/2018 07:40      52.5      51.8       32     23.1      0.00      0.32      70.4     0.30      1018.5     0.8      SE   126   1.9       N   350   9.38    263      -43.5
   11/01/2018 07:30      52.2      51.7       33     23.7      0.00      0.32      70.4     0.30      1018.4     1.1     SSE   151   2.9      SE   130   9.38    263      -48.1
   11/01/2018 07:20      52.0      51.1       31     22.2      0.00      0.32      70.4     0.30      1018.3     1.3     SSE   161   3.2     SSE   146   9.38    263      -50.9
   11/01/2018 07:10      51.7      51.1       32     22.5      0.00      0.32      70.4     0.30      1018.3     0.5     SSW   192   1.8       S   169   9.38    263      -54.2
   11/01/2018 07:00      52.2      51.5       32     22.7      0.00      0.32      70.4     0.30      1018.1     1.4     SSE   153   2.4     SSE   168   9.38    263      -54.7
   11/01/2018 06:50      51.8      50.9       32     22.4      0.00      0.32      70.5     0.30      1018.1     0.9     WSW   255   2.2     NNW   332   9.38    263      -53.3
   11/01/2018 06:40      51.9      51.0       33     23.2      0.00      0.32      70.5     0.30      1018.0     0.2     SSE   166   1.1     WNW   285   9.39    263      -54.7
   11/01/2018 06:30      51.9      51.0       33     23.2      0.00      0.32      70.5     0.30      1018.1     0.9     SSW   194   2.5       S   184   9.39    263      -54.8
   11/01/2018 06:20      51.9      50.7       32     22.5      0.00      0.32      70.6     0.30      1018.1     0.6      SE   146   2.5      SE   144   9.39    263      -54.6
   11/01/2018 06:10      52.4      51.6       30     21.2      0.00      0.32      70.6     0.30      1018.3     0.6     ESE   117   2.3       S   172   9.39    262      -54.7
   11/01/2018 06:00      52.4      51.7       28     20.0      0.00      0.32      70.6     0.30      1018.2     0.5     SSE   151   1.5      SE   144   9.39    263      -53.8
   11/01/2018 05:50      52.7      51.8       28     19.8      0.00      0.32      70.6     0.30      1018.0     0.5       S   183   1.5       S   182   9.39    262      -54.7
   11/01/2018 05:40      52.9      52.2       28     20.4      0.00      0.32      70.7     0.30      1017.9     0.3     SSE   160   1.2       S   170   9.39    262      -55.9
   11/01/2018 05:30      53.1      52.5       27     19.7      0.00      0.32      70.7     0.30      1017.7     0.7     WSW   256   2.5     NNW   338   9.39    262      -54.4
   11/01/2018 05:20      53.8      52.9       27     20.1      0.00      0.32      70.7     0.30      1017.7     0.7     SSE   155   1.6     SSW   192   9.39    262      -54.9
   11/01/2018 05:10      53.6      52.1       27     19.6      0.00      0.32      70.8     0.30      1017.6     0.8       S   176   2.3       S   188   9.39    262      -54.7
   11/01/2018 05:00      52.9      52.2       28     20.0      0.00      0.32      70.8     0.30      1017.5     0.3       S   178   1.1       S   181   9.39    262      -54.7
   11/01/2018 04:50      53.2      52.5       28     20.3      0.00      0.32      70.8     0.30      1017.5     0.1     SSE   147   1.0     SSE   164   9.39    262      -54.5
   11/01/2018 04:40      53.4      52.7       28     20.4      0.00      0.32      70.9     0.30      1017.5     0.5     SSE   148   1.6     SSE   149   9.39    262      -54.1
   11/01/2018 04:30      53.3      52.6       28     21.0      0.00      0.32      70.8     0.30      1017.5     0.7     SSE   158   1.6       S   180   9.39    262      -53.7
   11/01/2018 04:20      53.3      52.7       28     21.0      0.00      0.32      70.8     0.30      1017.3     0.8     SSE   157   1.9     SSE   158   9.39    262      -53.3
   11/01/2018 04:10      53.1      52.2       27     19.2      0.00      0.32      70.9     0.30      1017.3     0.7     SSE   160   1.6     SSE   154   9.39    262      -53.8
   11/01/2018 04:00      52.6      52.1       27     19.0      0.00      0.32      70.9     0.30      1017.3     0.4       S   170   1.6     SSE   151   9.39    262      -53.1
   11/01/2018 03:50      53.1      52.3       27     19.8      0.00      0.32      71.0     0.30      1017.2     0.1     SSE   168   1.0       S   185   9.39    262      -53.5
   11/01/2018 03:40      53.6      52.8       27     20.3      0.00      0.32      71.0     0.30      1017.3     0.2      SE   128   1.3      SE   134   9.40    262      -54.0
   11/01/2018 03:30      53.5      52.9       28     20.6      0.00      0.32      71.0     0.30      1017.3     0.4       S   191   1.4      SE   141   9.40    262      -53.4
   11/01/2018 03:20      54.0      53.0       28     21.3      0.00      0.32      71.0     0.30      1017.3     0.0     NNE    13   0.8     NNE    17   9.40    262      -54.8
   11/01/2018 03:10      54.2      53.6       27     21.1      0.00      0.32      71.1     0.30      1017.4     0.7     ENE    77   1.7      SE   132   9.40    262      -55.2
   11/01/2018 03:00      53.8      53.2       27     20.7      0.00      0.32      71.1     0.30      1017.5     1.2     SSE   149   1.9      SE   139   9.40    262      -54.4
   11/01/2018 02:50      54.0      53.2       25     18.7      0.00      0.32      71.1     0.30      1017.4     0.8     SSE   159   2.1     SSE   153   9.40    262      -54.7
   11/01/2018 02:40      54.3      53.6       26     20.1      0.00      0.32      71.1     0.30      1017.4     0.5     SSE   151   1.6       N     9   9.40    262      -56.4
   11/01/2018 02:30      54.6      53.9       25     19.6      0.00      0.32      71.1     0.30      1017.4     1.1     ESE   109   2.4     SSE   150   9.40    262      -57.3
   11/01/2018 02:20      54.5      53.4       25     19.3      0.00      0.32      71.2     0.30      1017.5     1.3       S   173   3.0       S   186   9.40    262      -57.9
   11/01/2018 02:10      54.2      53.5       26     19.5      0.00      0.32      71.2     0.30      1017.6     0.9     SSE   162   2.2     SSE   149   9.40    262      -59.9
   11/01/2018 02:00      54.3      53.7       25     19.4      0.00      0.32      71.2     0.30      1017.6     1.0       S   175   2.4     NNE    24   9.40    262      -60.4
   11/01/2018 01:50      54.3      53.5       25     18.9      0.00      0.32      71.3     0.30      1017.8     1.3       S   176   3.7      SW   215   9.40    262      -61.8
   11/01/2018 01:40      54.6      53.3       24     18.6      0.00      0.32      71.3     0.30      1017.7     1.3     SSW   205   3.1       S   191   9.40    262      -60.5
   11/01/2018 01:30      54.6      53.4       25     19.0      0.00      0.32      71.3     0.30      1017.6     0.5      SE   144   1.6     SSW   194   9.41    262      -61.1
   11/01/2018 01:20      55.2      54.2       23     18.1      0.00      0.32      71.3     0.30      1017.6     0.3     SSW   199   1.0     SSW   201   9.41    262      -61.0
   11/01/2018 01:10      55.1      54.4       23     18.0      0.00      0.32      71.3     0.30      1017.6     0.7     SSW   204   1.3     SSW   211   9.41    262      -59.8
   11/01/2018 01:00      55.5      54.7       24     18.5      0.00      0.32      71.3     0.30      1017.6     0.0       N     0   0.0     SSW   193   9.41    262      -61.6
   11/01/2018 00:50      56.3      55.4       22     17.9      0.00      0.32      71.3     0.30      1017.5     0.4       E   100   1.9       E    99   9.41    262      -63.0
   11/01/2018 00:40      56.3      54.9       22     17.6      0.00      0.32      71.4     0.30      1017.5     0.8     SSE   161   2.2       S   182   9.41    262      -62.1
   11/01/2018 00:30      55.5      54.9       24     19.4      0.00      0.32      71.4     0.30      1017.5     0.6      SE   135   1.9     SSE   147   9.41    262      -62.8
   11/01/2018 00:20      56.2      55.3       21     16.7      0.00      0.32      71.4     0.30      1017.5     0.7      SE   142   2.1      SE   142   9.41    262      -63.1
   11/01/2018 00:10      56.3      55.9       21     16.9      0.00      0.32      71.4     0.30      1017.5     0.5       S   180   1.6       S   191   9.41    262      -63.7
   11/01/2018 00:00      56.5      56.1       21     17.0      0.00      0.32      71.4     0.30      1017.6     0.5       S   183   1.7       S   182   9.42    262      -65.3


Back to data home page